GFSSW_sfc_wetblb_000.txt.gz
Wetbulb
58.85 58.89 58.93 58.97 59.15 59.47 59.44 59.57 59.76 60.05 59.53 59.39 59.13 58.72 58.42 58.47 59.00 60.87 57.00 64.47 64.46 73.55 72.74 66.34 67.99 67.69 64.91 61.88 62.85 65.39 60.04 55.34 55.36 55.86 59.46 63.32 60.76 64.40 67.00 63.51 63.20 64.52 69.03 73.39 74.63
58.51 58.51 58.51 58.78 58.85 59.08 59.09 59.20 59.30 59.12 59.02 58.76 58.54 58.45 58.11 58.40 59.92 59.35 70.35 71.89 72.04 72.07 62.78 61.00 62.73 63.74 60.28 60.05 60.73 61.03 57.80 54.25 61.24 61.54 60.69 61.28 61.66 62.32 62.91 60.26 59.83 61.13 65.52 73.51 73.76
57.97 58.05 58.00 58.22 58.48 58.63 58.72 58.70 58.97 58.90 58.28 58.36 58.33 58.22 58.27 59.01 60.65 62.29 71.56 71.45 71.05 68.97 60.65 61.92 63.67 61.39 57.29 59.51 60.57 62.24 57.26 61.13 62.44 63.37 62.15 60.93 60.75 63.45 62.36 61.19 62.67 61.50 63.78 71.64 72.43
57.34 57.51 57.62 57.84 57.95 58.10 58.23 58.27 58.33 58.28 58.14 57.76 58.33 57.94 58.38 61.22 55.87 67.63 70.53 70.52 70.37 62.49 63.84 62.84 60.52 56.91 55.41 56.32 60.87 59.38 61.66 62.75 62.90 63.36 62.14 60.88 62.19 60.54 61.65 62.45 66.08 64.71 67.72 69.65 71.31
56.99 57.19 57.28 57.44 57.59 57.63 57.89 57.78 57.72 57.69 57.55 57.63 58.44 58.07 59.55 62.23 60.59 67.43 70.44 69.05 61.36 60.33 61.80 59.59 57.71 56.78 54.32 56.90 60.18 59.61 61.12 61.98 63.29 63.07 62.68 62.22 60.07 60.80 63.84 65.22 65.88 67.64 68.35 70.39 71.50
56.80 56.79 56.77 56.82 57.13 57.40 57.42 57.17 57.16 57.44 58.56 58.46 58.40 57.66 61.23 59.03 65.33 63.48 61.07 60.22 58.97 62.74 61.14 59.83 57.93 58.51 56.81 57.90 58.07 60.23 61.72 62.20 62.02 62.14 61.98 60.49 60.91 61.39 62.29 64.89 68.89 70.84 70.73 71.06 71.44
56.26 56.37 56.49 56.70 56.88 56.99 56.91 56.34 56.52 58.34 58.91 58.40 57.83 60.43 61.86 60.68 65.32 65.60 61.49 61.59 62.52 64.12 59.49 60.41 60.60 58.92 58.65 57.99 61.15 59.35 57.25 60.76 61.34 61.27 60.75 60.41 59.38 58.47 61.77 61.49 66.30 68.75 69.97 70.48 71.81
55.96 56.10 56.22 56.22 56.27 56.31 56.17 55.51 56.16 59.10 58.19 58.04 58.41 62.17 59.96 64.76 65.82 64.39 64.44 63.90 65.03 63.87 61.75 62.13 62.14 60.87 60.65 61.42 60.38 59.08 58.65 55.34 59.87 60.56 60.91 59.58 55.81 59.70 62.12 62.26 65.90 67.28 68.80 69.50 71.06
55.28 55.40 55.40 55.65 55.75 55.82 55.50 55.05 56.11 59.57 59.39 59.89 61.34 62.17 58.79 64.86 61.33 63.17 65.17 62.27 62.01 61.45 61.45 62.82 63.30 60.59 60.51 57.33 55.89 57.17 53.40 54.51 54.34 59.93 59.12 58.29 58.23 63.44 64.12 63.68 66.01 66.76 68.22 68.67 70.11
55.22 55.26 55.19 55.09 55.27 54.97 54.20 55.92 57.48 59.46 60.69 64.05 63.86 60.13 62.44 60.13 61.74 62.37 64.27 63.61 60.47 59.01 58.35 59.03 58.75 57.42 57.15 55.90 51.39 52.65 53.49 54.73 52.11 56.62 58.41 56.63 56.49 62.88 63.35 63.58 64.44 66.44 67.63 68.40 69.06
54.48 54.71 54.77 54.58 54.46 54.28 55.76 60.81 60.83 61.37 61.82 59.27 59.60 55.92 59.55 63.52 63.83 62.23 62.39 61.26 60.52 57.80 53.40 56.10 53.47 52.03 54.60 57.06 56.86 56.22 55.41 54.39 55.03 58.34 57.22 56.31 56.59 59.19 62.86 62.66 62.17 66.16 67.84 68.13 68.96
54.05 54.26 54.28 54.18 53.73 53.70 55.28 59.36 57.04 57.01 52.67 57.43 57.58 57.66 59.06 62.96 59.59 60.31 62.11 57.09 57.01 53.99 55.05 53.50 50.38 54.81 56.81 56.48 55.30 55.68 54.05 54.07 56.73 58.48 57.49 56.62 55.71 59.23 60.28 57.29 59.66 62.78 66.35 67.52 68.48
53.54 53.77 53.61 53.37 52.90 57.80 59.31 58.10 60.01 59.63 53.18 54.62 57.22 56.31 56.70 58.25 57.77 58.83 59.85 57.94 56.17 54.67 54.63 52.04 53.56 55.74 53.69 53.22 52.58 53.18 53.10 53.83 53.92 56.21 58.13 56.54 54.66 56.63 57.92 57.66 60.38 62.85 67.00 67.02 67.93
53.40 53.42 52.90 51.26 54.61 59.27 56.90 60.91 59.90 60.39 49.40 51.32 53.99 55.48 56.98 56.96 53.43 58.97 61.17 58.66 56.74 54.46 55.46 54.97 56.68 54.40 52.35 51.36 52.39 49.78 55.30 54.62 53.72 52.88 49.82 56.25 49.02 57.68 57.37 57.56 59.36 61.52 64.21 65.35 67.48
53.07 52.93 52.19 50.89 55.09 56.26 59.04 60.73 59.59 58.51 41.53 53.21 53.97 59.01 56.89 53.59 55.17 55.02 62.17 58.99 55.07 55.58 55.35 53.68 54.13 52.70 51.62 52.04 53.11 50.72 55.53 54.80 54.42 52.67 52.11 52.27 49.67 54.45 59.41 56.55 57.46 58.45 61.95 65.10 67.37
52.47 52.29 51.17 57.01 57.32 59.61 59.87 59.02 57.89 48.00 41.53 51.02 54.19 53.07 52.87 53.34 53.75 55.62 57.82 60.65 59.82 56.44 56.46 54.98 57.49 55.06 53.71 54.74 54.68 54.82 53.44 54.30 54.07 51.19 46.35 51.11 50.21 51.52 52.28 57.06 57.09 60.33 63.55 66.53 70.52
51.89 51.14 50.71 56.64 55.81 59.49 59.34 55.54 46.57 43.08 51.94 49.49 51.01 52.64 51.90 51.54 52.00 53.00 52.23 54.01 52.69 50.67 50.80 54.74 53.89 55.61 55.97 52.85 55.11 53.73 51.72 46.73 45.62 45.55 45.27 53.60 50.53 54.67 59.27 60.77 61.06 62.48 64.45 69.07 70.58
50.63 50.48 54.20 56.37 57.76 59.21 56.97 50.27 42.82 48.91 48.95 52.80 51.77 52.11 50.29 51.97 52.39 52.02 51.78 51.35 55.11 54.50 52.32 50.50 49.15 53.52 55.97 53.12 51.88 52.63 52.16 47.58 43.63 44.55 47.28 53.07 50.10 55.37 62.21 63.17 62.91 64.27 65.80 69.54 68.93
49.51 57.33 57.10 58.16 58.92 58.42 52.51 44.31 45.55 49.41 52.37 50.60 51.10 48.61 49.06 50.80 51.73 51.78 51.68 51.60 54.46 55.31 52.34 50.75 50.81 56.81 56.09 56.14 54.33 52.26 49.98 53.99 49.87 50.58 48.59 49.86 54.95 58.34 60.63 61.62 63.43 63.88 64.88 68.01 68.63
51.92 54.78 56.06 59.89 60.08 55.77 49.17 44.19 48.37 51.47 52.64 51.16 47.26 49.18 46.93 49.29 50.00 50.67 51.87 54.29 53.89 56.23 57.17 54.56 50.13 54.68 55.52 57.07 56.17 53.31 55.20 49.52 49.40 44.37 43.92 49.07 51.26 52.65 58.41 58.45 62.84 63.58 64.27 67.93 69.96
54.18 53.84 57.47 59.69 58.52 52.21 44.90 46.51 49.12 51.93 52.42 49.37 48.70 48.32 49.15 48.67 51.06 50.31 50.70 54.17 55.15 55.24 56.76 55.42 53.29 52.38 54.83 52.92 51.66 52.11 50.33 52.35 52.46 50.84 46.12 45.79 48.68 59.31 57.12 59.69 60.02 64.50 65.69 67.48 69.09
53.51 49.15 59.23 59.67 49.22 49.66 47.02 49.05 49.84 50.79 52.67 50.66 50.47 49.54 49.04 50.17 50.20 51.09 50.58 52.88 56.66 55.89 53.62 55.55 53.05 49.77 52.05 55.13 55.99 54.69 53.16 53.13 49.41 50.50 51.33 50.98 49.66 60.29 59.56 59.12 61.53 63.80 67.08 68.59 69.58
51.16 52.52 59.64 58.22 46.18 46.59 49.36 49.02 50.65 49.91 50.75 50.03 48.89 50.15 51.45 50.07 48.93 51.62 52.75 55.35 56.44 55.23 54.72 55.91 52.30 47.93 50.24 53.60 55.18 52.83 53.45 54.19 55.32 56.00 51.90 48.11 50.12 61.19 58.56 59.28 64.26 65.66 67.53 69.34 69.27
51.85 47.86 52.62 54.55 53.36 49.49 49.33 49.63 48.82 51.74 50.76 51.64 50.34 51.05 49.61 49.49 51.76 50.57 52.41 54.58 56.29 56.04 63.68 61.12 55.62 52.19 47.73 51.36 54.27 52.01 52.86 53.31 53.96 50.77 50.48 50.22 53.87 57.63 58.44 60.10 59.33 65.32 68.11 69.34 69.60
52.88 50.17 53.36 48.31 49.28 49.88 50.24 50.87 50.43 48.65 51.64 51.91 50.07 49.68 49.66 48.51 49.31 49.58 52.49 55.28 54.90 60.17 58.16 57.80 55.27 54.78 53.25 54.61 54.95 54.56 53.84 53.00 51.17 53.03 49.95 52.87 53.52 56.52 57.74 59.36 57.86 59.62 69.54 69.06 68.96
50.06 49.76 52.31 50.73 52.40 51.69 49.58 48.48 50.05 51.83 50.91 49.72 48.40 50.37 51.02 50.76 51.28 50.42 52.21 53.80 53.82 56.37 56.74 58.45 54.69 55.56 52.83 54.63 54.30 53.06 54.55 53.79 52.45 52.28 52.82 53.15 52.68 57.44 57.56 59.15 57.97 61.03 67.37 67.65 68.10
52.95 53.55 50.83 47.90 49.47 49.19 50.27 51.33 50.03 52.36 53.65 52.47 52.81 51.03 50.06 52.38 54.30 55.35 55.61 58.55 57.92 56.28 57.04 57.11 55.77 55.39 50.30 53.64 53.12 50.79 53.35 54.66 53.87 54.53 54.11 53.95 55.97 57.56 57.69 59.57 58.25 66.55 66.67 66.72 67.01

GFSSW_sfc_wetblb_003.txt.gz
Wetbulb
58.98 58.97 58.97 59.14 59.48 59.55 59.48 59.35 59.43 59.71 59.09 59.24 59.21 58.99 58.64 58.79 58.53 58.79 56.10 60.98 62.11 73.35 73.32 63.31 62.93 64.01 64.18 59.53 59.76 58.98 54.14 53.23 56.76 57.35 57.90 62.01 60.38 63.80 65.14 64.07 65.69 67.08 66.85 69.65 73.43
58.35 58.30 58.36 58.67 58.80 59.17 59.24 59.30 59.20 59.13 59.03 58.25 58.86 58.68 58.37 58.75 57.85 56.50 65.28 72.10 71.80 72.00 58.06 61.75 61.13 63.07 57.50 56.62 56.70 54.59 51.43 54.47 60.01 60.42 60.18 61.53 61.57 61.71 61.63 59.84 61.61 63.51 72.13 73.35 72.99
57.86 58.03 58.20 58.24 58.51 58.54 58.90 58.89 58.70 58.57 58.38 58.25 58.13 58.35 58.25 58.34 58.52 60.52 72.01 72.14 71.89 69.91 58.35 60.02 59.60 60.04 55.19 54.67 54.61 55.74 56.45 59.81 59.88 61.72 62.76 59.85 61.30 62.03 61.79 59.75 60.70 60.89 69.85 71.41 71.07
57.58 57.70 57.70 57.78 58.04 58.25 58.26 58.39 58.12 58.21 57.83 57.72 57.91 58.35 58.48 58.12 54.93 64.94 71.41 71.62 71.49 62.16 56.85 58.58 59.00 54.65 51.47 50.56 55.36 52.56 59.42 62.36 62.33 63.49 62.42 58.38 59.36 62.17 62.47 62.77 66.22 64.53 70.07 70.84 69.71
57.09 57.17 57.32 57.59 57.75 57.92 58.06 57.90 57.30 57.62 57.81 58.29 57.90 58.42 57.13 57.85 60.54 67.65 70.92 69.78 62.84 58.70 56.89 60.10 56.85 53.88 50.30 52.07 53.90 54.65 57.97 60.32 63.06 61.15 60.35 61.15 59.23 61.67 62.90 64.84 66.75 65.36 69.60 69.87 69.99
56.62 56.72 57.00 57.16 57.35 57.30 57.32 57.17 56.78 56.97 58.34 58.72 58.41 57.88 57.33 56.90 63.53 65.50 61.74 58.58 56.71 56.09 58.50 59.53 55.97 55.95 52.96 52.86 52.74 57.18 57.36 57.56 60.49 60.29 60.82 58.84 59.01 58.25 62.31 65.65 64.72 65.79 68.39 68.40 69.57
56.25 56.37 56.41 56.53 56.78 56.95 56.91 56.62 56.27 56.75 58.59 58.59 57.97 58.80 59.09 59.35 61.93 60.96 56.42 56.00 56.24 57.60 58.88 59.13 58.22 54.53 54.97 54.01 57.06 57.88 54.65 55.72 57.77 59.31 58.60 60.44 56.63 56.05 60.85 65.53 65.78 67.53 68.50 68.77 69.00
55.72 55.98 55.98 55.98 56.16 56.23 56.28 55.91 55.98 56.62 58.83 58.05 58.44 58.59 56.04 64.42 62.84 61.13 57.48 58.40 58.77 61.18 61.41 59.30 58.89 56.26 55.46 58.50 58.01 54.22 53.62 49.14 57.68 59.18 60.34 57.98 50.44 58.88 60.87 61.64 61.57 68.04 69.10 69.58 68.27
55.08 55.20 55.40 55.59 55.69 55.87 55.40 55.12 56.04 56.83 59.55 59.32 58.02 57.10 56.68 64.36 60.08 61.44 60.89 59.97 60.65 60.23 58.34 60.90 58.71 56.10 57.50 53.02 49.30 51.12 46.66 51.60 54.28 59.21 58.62 56.64 53.21 61.47 62.33 63.18 62.11 62.82 67.52 68.44 67.38
55.14 55.18 55.20 55.11 55.24 55.21 54.34 56.49 57.67 58.03 59.40 61.92 62.00 55.84 60.41 59.26 60.13 60.94 61.13 62.32 58.75 57.00 56.12 57.36 54.43 51.58 51.35 48.15 43.17 48.12 50.68 53.31 52.01 57.70 56.83 55.30 55.10 60.59 61.64 60.64 60.93 61.54 60.54 62.91 67.07
54.85 54.91 54.79 54.75 54.67 54.26 52.78 54.03 54.66 57.48 56.86 57.50 56.98 55.84 57.64 61.96 61.99 59.92 59.71 60.40 58.43 54.89 48.96 53.25 47.92 45.67 49.69 51.75 52.88 52.16 50.99 53.51 55.44 58.99 55.55 54.60 54.64 60.02 60.39 60.95 59.41 59.65 58.97 59.69 66.96
54.08 54.26 54.24 54.12 53.65 53.67 51.90 53.40 52.93 52.83 47.91 54.62 55.36 56.14 58.73 60.64 58.04 59.12 60.07 55.41 54.70 49.96 52.00 48.85 45.13 51.06 54.33 54.21 52.63 50.91 48.70 48.75 53.13 57.67 55.27 53.60 53.69 58.26 59.22 57.94 58.14 58.02 58.79 61.55 64.64
53.69 53.89 53.57 53.01 52.78 54.28 55.30 55.80 56.74 55.02 47.71 52.33 54.59 53.97 55.02 55.54 57.36 57.75 57.71 55.58 53.06 50.91 51.12 47.06 49.81 53.93 52.34 50.49 49.23 47.71 46.46 48.03 49.39 52.64 53.62 54.07 51.26 54.38 57.21 57.45 58.33 61.71 62.14 61.13 61.07
53.67 53.61 52.78 50.98 51.72 53.67 54.60 57.81 56.39 55.95 43.40 49.10 50.75 53.44 54.95 54.37 51.68 59.98 59.09 55.70 53.10 50.82 52.24 50.96 54.26 53.27 51.76 49.70 49.00 42.94 50.55 50.32 50.99 47.90 43.26 50.69 41.05 51.46 53.18 53.65 56.54 58.75 59.40 60.70 62.69
53.17 53.06 52.33 50.51 49.98 51.89 55.64 56.51 55.45 53.21 36.57 53.13 51.59 57.16 54.08 51.97 52.72 53.58 59.52 55.55 51.39 52.05 52.21 50.35 52.93 51.87 50.92 50.52 50.81 46.78 50.70 49.40 51.97 47.28 44.99 47.26 42.59 49.46 53.51 52.30 54.87 57.30 59.73 59.31 61.71
52.64 52.40 51.23 52.36 51.38 55.42 58.42 57.22 53.12 42.67 37.43 49.79 51.90 50.22 49.34 50.68 52.15 53.81 55.69 57.04 56.63 53.13 53.32 53.40 56.16 53.82 51.40 52.86 52.14 53.08 50.04 49.30 48.65 45.07 38.26 43.77 43.75 45.76 50.34 53.55 55.14 57.89 59.81 59.32 61.25
51.48 50.82 48.96 52.36 50.40 53.95 54.07 52.00 40.33 37.94 50.51 46.98 47.91 49.96 48.79 48.25 49.30 50.48 52.53 51.76 49.14 44.96 46.19 51.71 51.96 54.22 54.51 50.29 51.76 50.12 46.18 38.06 37.67 38.24 37.64 49.03 46.90 46.65 53.98 57.42 58.46 58.06 59.67 65.90 69.20
50.14 50.21 51.30 52.40 52.72 54.05 53.02 44.74 36.56 46.38 45.54 50.15 49.54 50.02 47.71 49.36 49.30 49.67 48.59 49.28 52.60 50.79 47.02 45.09 44.19 52.31 53.66 50.51 47.92 47.98 45.43 39.57 34.57 37.13 41.66 49.98 45.13 50.60 54.97 59.28 60.71 66.37 67.22 65.22 63.81
49.50 52.36 53.47 54.34 54.48 53.19 48.18 38.70 40.94 46.20 50.15 48.94 48.85 46.57 46.45 49.02 48.97 48.92 47.39 47.07 49.10 51.29 45.31 44.99 47.52 55.74 55.06 53.60 51.16 46.90 44.13 48.36 41.84 41.86 39.97 44.67 48.87 54.54 58.47 59.88 59.88 65.49 65.41 62.85 62.98
47.25 50.07 51.69 57.13 56.89 51.77 44.63 40.85 44.82 49.05 49.31 49.10 44.83 47.44 44.49 46.73 45.27 45.16 47.42 50.14 50.28 52.69 53.46 49.04 44.75 52.18 55.01 53.93 52.67 48.46 50.20 42.02 41.96 35.89 34.60 43.22 46.90 47.38 53.36 54.31 60.17 62.46 64.33 63.30 65.43
49.38 49.98 56.53 57.64 55.73 47.44 39.96 42.55 46.56 49.64 50.00 47.92 46.24 45.67 46.36 46.40 46.47 45.57 47.36 51.03 53.28 52.84 53.77 51.42 46.94 48.72 52.15 49.36 48.81 48.13 45.13 44.35 44.29 42.54 36.93 39.21 45.45 53.19 54.48 57.22 58.27 59.45 65.13 64.65 64.08
49.52 45.61 55.92 57.23 45.95 45.88 42.58 46.17 47.01 48.09 50.06 48.79 49.29 47.33 45.72 46.72 45.49 46.60 47.74 50.20 53.50 54.06 49.86 51.67 48.42 44.16 47.59 52.70 53.71 50.00 47.90 46.11 41.03 41.28 44.04 45.55 47.34 57.07 56.22 57.22 58.62 60.04 60.27 65.44 65.44
45.11 49.60 57.00 55.32 42.70 43.57 46.07 46.41 47.94 47.55 48.16 47.93 47.90 49.11 48.28 45.61 43.59 49.12 50.72 53.99 54.39 53.45 51.01 53.34 44.74 40.59 43.73 48.48 50.83 48.28 49.46 48.66 48.15 46.95 41.94 41.28 45.31 56.69 57.87 57.81 57.53 57.10 60.44 63.71 64.36
46.32 46.01 50.55 53.02 51.10 47.39 45.84 46.21 46.19 50.11 48.43 49.47 48.51 49.34 47.10 44.95 46.89 47.11 48.65 53.17 54.17 56.33 61.83 56.28 49.10 44.02 41.43 46.39 50.47 49.63 51.12 49.84 46.45 42.03 42.16 43.48 49.78 52.60 54.03 53.92 55.96 56.86 57.92 61.67 64.44
48.96 48.17 49.60 45.32 47.27 48.55 48.62 46.84 45.57 46.56 51.51 49.85 47.99 48.41 46.44 42.60 44.40 45.77 48.97 49.46 52.32 58.39 52.45 51.76 46.12 47.97 50.81 52.69 52.23 52.60 51.62 52.42 48.01 46.91 44.86 46.51 51.46 53.34 55.44 54.60 55.83 62.31 59.73 63.30 65.51
46.55 45.34 47.67 46.18 48.80 47.98 47.45 47.78 47.78 47.56 49.45 49.00 46.98 48.48 48.07 44.57 47.30 45.98 48.04 47.51 49.32 53.03 48.35 51.28 47.39 49.08 49.15 53.83 53.57 52.21 53.59 54.07 53.45 51.12 48.33 50.90 50.31 57.22 56.49 58.92 60.41 58.16 58.45 55.34 64.63
49.14 49.36 46.55 44.92 45.66 44.71 46.26 47.85 48.60 50.03 49.49 51.58 51.24 48.25 46.79 48.27 53.57 52.75 51.54 51.43 51.75 53.32 51.06 50.82 48.07 47.92 43.54 51.80 52.02 46.86 52.71 54.29 53.62 53.79 50.56 48.59 51.92 55.32 55.33 58.30 61.31 61.90 60.86 65.13 65.07

GFSSW_sfc_wetblb_006.txt.gz
Wetbulb
58.82 58.77 58.80 58.92 59.05 59.09 59.20 59.24 59.32 59.38 59.22 59.17 57.90 59.04 58.70 58.82 58.68 57.81 53.61 58.78 59.75 72.05 71.60 61.49 63.06 60.32 60.96 59.63 58.82 57.96 52.82 51.70 54.74 56.26 58.92 62.81 61.89 64.90 65.56 63.93 65.74 66.04 65.27 68.07 71.77
58.25 58.35 58.48 58.58 58.72 58.92 58.79 58.90 58.88 58.71 58.37 58.14 57.79 58.68 58.45 59.02 57.23 55.09 64.38 70.26 70.90 73.03 57.29 60.16 59.75 61.26 57.33 55.80 55.57 52.74 49.51 54.12 59.70 61.29 58.66 61.83 62.01 62.17 60.96 60.86 62.30 65.71 70.71 71.56 72.44
57.92 57.79 58.05 58.20 58.58 58.61 58.74 58.68 58.54 58.10 57.61 57.98 57.86 58.77 58.72 58.54 57.90 60.67 71.53 72.12 72.05 69.33 57.01 60.22 59.57 58.80 54.92 53.36 53.10 53.88 53.38 57.86 59.38 61.87 61.66 59.98 60.24 61.63 60.07 57.02 59.67 64.84 68.60 70.37 70.84
57.45 57.67 57.85 58.04 58.13 58.29 58.31 58.33 58.06 57.65 57.50 58.33 57.93 58.71 58.59 56.97 53.92 64.57 72.88 72.32 71.89 61.27 56.59 55.46 56.10 52.94 50.00 49.27 52.74 49.72 55.98 58.48 60.42 62.26 61.84 60.00 60.64 60.93 61.61 61.01 63.72 70.15 70.77 70.41 69.82
56.94 57.08 57.35 57.35 57.62 57.79 57.81 57.81 57.56 57.27 57.48 58.71 58.63 58.84 56.46 55.56 58.56 66.98 71.38 70.78 61.67 57.28 54.39 54.43 56.20 53.69 48.86 49.99 51.73 50.25 52.92 56.29 59.23 61.17 60.43 61.10 60.53 61.51 62.08 64.48 65.97 71.50 70.73 69.78 70.23
56.49 56.55 56.67 56.84 57.12 57.14 57.33 57.27 57.26 56.92 57.21 58.49 58.86 57.96 56.74 53.90 64.38 67.03 61.80 59.26 55.99 55.48 55.39 57.32 56.14 54.79 51.68 50.83 50.18 52.76 54.74 56.12 57.53 58.87 60.24 58.00 59.50 60.38 63.21 64.25 68.10 70.01 69.27 69.27 70.01
55.96 56.04 56.25 56.39 56.64 56.79 57.15 56.88 56.70 56.62 57.02 58.31 58.40 58.27 57.33 53.26 62.06 62.87 55.66 53.74 54.44 54.46 56.04 58.55 58.44 53.14 52.75 51.93 56.56 56.46 52.58 54.52 56.74 58.02 57.29 58.59 55.37 53.99 62.52 63.32 67.35 68.09 67.94 68.18 69.62
55.59 55.69 55.81 55.92 56.10 56.17 56.26 56.17 56.05 56.69 56.87 58.08 58.25 57.28 50.89 62.98 59.29 58.00 54.03 55.09 55.17 53.82 57.60 60.34 59.49 53.52 52.53 56.18 55.98 53.22 50.96 48.32 55.78 57.43 58.71 56.73 49.93 57.29 63.07 64.21 62.92 63.52 62.77 63.62 63.63
55.12 55.28 55.32 55.64 55.72 55.84 55.38 55.34 57.14 57.11 57.76 58.69 56.28 55.89 55.10 63.60 58.31 57.49 56.02 57.08 56.13 55.22 57.37 60.82 56.23 52.82 54.95 50.66 46.48 47.51 44.74 50.10 52.59 57.57 57.40 56.94 52.35 58.67 61.52 63.42 58.55 59.77 60.94 61.20 64.23
55.22 55.15 55.07 55.17 55.19 55.09 54.52 55.94 57.88 57.37 58.54 60.62 60.77 52.45 55.60 58.71 58.57 58.69 58.40 59.35 57.53 55.94 54.67 54.87 51.90 49.14 48.08 46.01 41.00 45.39 48.05 50.72 50.96 55.15 55.81 54.07 53.38 56.02 60.19 61.40 59.66 60.55 62.23 62.23 64.71
54.79 54.75 54.66 54.71 54.44 54.19 51.38 49.46 49.21 50.11 55.63 55.02 52.26 54.45 56.56 60.99 60.52 57.94 59.70 58.50 57.26 52.94 46.74 50.53 46.71 43.64 46.63 48.97 50.85 50.09 48.30 50.37 53.19 56.35 54.34 52.09 54.08 56.74 60.47 60.80 58.98 58.26 59.44 60.45 62.93
54.30 54.40 54.44 54.11 53.44 53.35 49.56 50.48 49.76 50.46 45.57 52.50 54.45 54.96 58.04 58.05 54.71 57.15 57.93 54.03 53.27 48.43 49.86 46.68 44.03 49.65 52.10 51.90 50.90 49.71 46.85 46.71 52.01 56.54 53.87 53.00 52.55 56.55 58.21 58.33 57.20 57.40 58.34 59.73 62.18
53.99 53.87 53.68 53.15 52.35 52.01 50.59 51.93 55.06 51.27 44.29 49.62 51.94 51.46 51.79 53.85 52.81 55.82 55.34 54.55 52.16 49.62 48.93 45.14 48.23 52.72 51.06 49.29 47.90 45.20 43.43 45.30 45.76 50.38 53.79 51.74 49.15 53.55 56.31 57.60 57.28 58.88 60.72 62.37 62.94
53.33 53.23 52.85 51.59 49.61 48.70 50.52 54.00 53.65 52.13 39.91 46.23 48.32 51.41 52.47 53.22 50.21 60.64 57.51 55.02 51.45 49.17 50.07 48.37 52.64 51.67 50.57 48.69 47.72 40.92 48.45 48.32 47.45 45.93 41.07 49.32 39.19 48.44 51.99 52.24 56.14 58.00 59.29 60.47 62.04
52.61 52.57 52.25 51.41 44.76 48.42 52.69 52.73 53.38 49.95 32.65 50.74 48.81 54.49 51.59 50.18 51.32 53.12 58.82 53.37 49.40 50.10 49.36 48.11 50.78 49.82 49.71 50.52 50.22 45.78 49.07 47.35 48.51 44.83 41.84 44.81 40.21 43.42 51.50 50.51 52.61 57.71 59.65 60.12 63.76
51.91 51.76 51.44 48.79 45.77 50.16 51.78 49.71 49.32 40.35 34.05 48.19 49.76 48.60 47.71 48.81 50.66 52.27 54.28 54.57 54.11 50.58 50.46 49.98 54.33 52.49 51.10 53.20 51.89 51.73 48.76 46.09 44.86 41.11 37.22 41.72 41.14 41.08 48.90 51.33 53.52 56.64 59.05 59.01 63.80
50.97 50.58 49.29 49.62 43.62 48.40 48.58 46.91 37.59 34.50 47.04 45.10 44.64 45.84 45.27 45.81 47.77 48.97 50.50 48.68 46.61 42.47 42.50 48.30 50.30 52.92 54.13 49.16 49.86 48.09 41.22 35.85 35.76 35.93 36.31 42.89 44.26 45.41 53.16 55.48 56.46 56.38 58.06 59.17 60.30
49.99 50.19 48.67 49.16 47.09 48.20 47.58 41.43 32.25 42.77 42.57 47.45 46.89 46.15 44.14 46.32 46.30 47.60 48.58 46.54 49.48 47.96 43.90 42.61 42.29 50.15 53.35 49.34 46.38 44.45 42.25 37.13 32.84 34.38 38.57 44.98 41.46 47.98 56.64 58.26 59.79 58.37 60.01 66.88 65.82
49.52 45.69 46.35 48.86 50.47 47.92 43.64 34.82 36.40 42.02 47.65 46.09 45.57 43.05 42.88 46.88 46.85 46.04 45.89 48.32 50.50 49.60 44.24 42.01 44.15 53.18 53.63 52.37 49.91 45.48 42.17 45.01 39.44 37.30 36.92 39.93 46.52 53.05 55.89 57.73 63.96 64.53 64.32 63.61 63.00
43.59 43.85 45.09 52.15 50.45 46.64 40.41 37.62 41.57 46.62 46.76 45.55 41.61 43.78 40.81 43.49 42.58 42.74 43.76 47.50 50.29 53.27 49.56 45.91 41.66 49.90 52.43 52.82 50.42 47.76 47.83 40.81 38.22 34.15 32.09 38.69 44.67 44.65 51.25 53.72 63.06 63.78 61.40 61.47 63.34
43.82 43.38 50.32 52.74 48.74 42.62 36.06 38.15 43.84 47.23 47.71 44.39 42.02 41.79 42.18 42.89 42.18 40.60 42.66 48.21 49.77 49.49 51.63 46.53 43.98 47.56 49.87 46.87 45.03 45.85 43.13 41.55 41.01 38.93 35.06 35.15 42.04 51.23 53.85 55.31 57.15 59.81 62.67 62.16 62.88
40.69 39.58 49.87 51.80 40.93 37.90 37.61 43.67 46.04 45.68 47.53 46.17 45.68 44.08 43.03 43.73 41.38 42.05 43.65 47.37 51.40 51.18 47.23 48.70 43.49 41.46 45.38 50.23 51.97 48.77 46.15 42.52 38.09 36.96 39.84 40.90 43.88 53.20 53.51 57.00 58.98 60.34 63.92 64.65 64.74
37.02 41.16 50.76 47.99 36.26 35.66 39.60 44.05 45.39 45.07 45.01 45.11 44.53 46.33 45.36 42.00 38.93 43.83 46.61 51.23 51.41 52.47 46.96 47.71 41.74 38.49 41.98 44.66 48.42 46.16 46.45 44.21 41.90 40.52 38.62 37.59 42.09 55.39 55.76 55.40 58.40 59.57 58.58 63.53 65.04
39.39 39.80 44.02 45.38 42.70 40.15 39.24 41.96 43.55 49.22 47.20 47.06 45.44 45.04 43.17 41.10 41.10 41.64 44.04 49.12 51.02 51.73 59.94 53.46 41.84 41.84 39.72 42.09 46.93 47.24 49.78 48.30 43.86 38.84 39.39 40.92 46.33 51.48 54.01 53.38 56.40 57.86 57.26 61.86 63.87
41.72 40.88 41.69 37.70 40.80 41.97 41.54 44.83 43.64 43.27 47.05 47.51 45.55 44.76 43.09 37.09 40.07 40.46 43.40 46.12 49.52 55.38 50.81 48.25 42.60 44.69 46.34 50.23 51.29 50.69 50.14 51.01 45.14 44.86 42.76 44.31 49.30 52.62 53.70 53.82 55.89 57.22 57.05 60.90 58.64
39.79 39.47 40.97 38.99 41.40 40.27 40.60 41.53 45.00 46.60 45.38 44.41 43.10 46.83 45.00 40.21 42.27 41.25 42.44 41.00 45.69 51.33 48.19 47.37 42.21 47.61 45.35 50.83 51.74 50.69 52.11 52.80 53.05 52.97 46.95 50.52 49.53 53.76 54.48 56.70 57.28 56.30 58.52 59.51 60.10
42.38 42.32 40.27 39.54 37.34 37.05 38.84 44.22 45.91 48.00 49.36 50.98 50.09 45.56 44.47 44.77 46.06 48.79 47.80 46.50 46.81 48.61 48.60 48.98 44.03 42.82 40.68 48.22 49.09 44.60 49.30 52.19 52.56 53.52 51.23 46.77 51.17 56.03 54.68 57.34 58.24 56.73 58.07 58.03 59.67

GFSSW_sfc_wetblb_009.txt.gz
Wetbulb
58.59 58.61 58.69 58.69 58.93 59.05 59.02 59.00 59.16 58.78 58.00 57.79 58.08 57.60 58.83 58.72 58.82 56.83 51.17 56.46 57.05 72.08 71.30 65.63 64.52 58.76 59.50 58.35 58.76 59.13 50.71 50.15 53.49 55.32 57.01 60.34 59.93 63.50 64.88 63.27 64.77 64.78 65.37 68.08 71.08
58.04 58.07 58.27 58.70 58.73 58.77 58.67 58.65 58.78 58.39 58.04 57.49 57.36 57.45 58.83 58.67 56.56 54.06 62.88 69.48 70.39 73.39 57.33 58.12 58.19 59.47 56.72 55.95 54.96 51.31 47.93 52.44 57.77 59.49 58.41 61.45 61.61 62.12 60.93 61.07 62.87 65.69 69.34 70.32 71.45
57.68 57.71 57.96 58.28 58.29 58.34 58.48 58.55 58.41 58.17 57.82 58.13 58.19 58.05 58.70 58.18 56.47 59.74 69.51 71.53 71.15 70.86 55.17 60.09 59.07 59.19 54.49 52.75 52.58 52.27 49.96 55.96 58.03 61.05 61.21 60.00 61.94 63.42 59.92 57.68 59.87 64.04 66.94 69.10 69.79
57.26 57.35 57.62 57.71 57.93 58.00 58.02 58.28 58.05 57.77 57.50 58.18 59.03 58.41 58.89 56.31 53.15 63.41 72.09 71.80 72.08 62.48 54.71 54.36 53.98 50.70 49.78 48.65 51.42 48.30 54.14 55.14 55.97 57.46 60.01 59.19 59.64 59.12 60.29 59.22 62.45 68.31 69.07 69.51 69.21
56.74 56.82 56.98 57.09 57.42 57.56 57.65 57.65 57.48 57.46 57.34 58.06 58.85 58.90 55.41 52.67 55.48 67.39 72.85 71.72 61.47 55.76 52.91 53.31 54.03 52.48 48.53 48.59 50.21 48.72 51.01 53.93 55.53 57.63 59.29 61.28 59.05 59.44 59.71 64.26 69.44 69.73 69.42 69.11 69.40
56.20 56.28 56.28 56.55 56.69 56.82 56.98 57.14 57.31 56.87 57.15 58.09 58.86 58.11 55.51 49.10 63.96 65.75 62.01 56.46 54.88 53.31 53.43 55.19 55.59 54.46 50.86 50.09 49.46 51.70 52.92 55.04 55.00 57.88 59.67 57.94 58.27 60.30 61.69 69.18 69.06 68.91 68.67 69.08 69.52
55.85 55.85 55.96 55.93 56.13 56.32 56.80 56.75 56.55 56.59 56.90 57.69 58.56 57.83 55.27 49.18 63.36 61.29 56.58 54.11 53.39 53.94 54.61 56.76 57.50 52.40 51.44 50.35 54.22 54.60 52.02 53.45 54.76 56.20 55.97 58.30 55.44 53.60 60.75 69.13 68.24 68.25 68.59 66.21 66.60
55.24 55.40 55.44 55.61 55.77 55.88 56.03 56.03 55.92 57.04 56.80 57.56 57.96 55.81 51.39 59.32 60.78 57.22 52.50 51.92 53.39 51.08 54.94 58.03 57.97 53.68 50.61 54.31 53.83 51.15 49.53 47.22 53.52 55.88 57.11 55.06 49.52 57.75 62.92 66.45 65.89 65.72 65.50 65.89 66.38
54.91 55.05 55.37 55.43 55.60 55.54 54.84 55.03 57.90 57.47 57.59 58.38 55.25 54.80 52.63 61.54 55.77 56.03 54.28 55.07 54.24 52.39 53.30 59.79 55.08 50.88 53.14 48.82 45.61 45.84 42.98 46.50 51.30 55.96 56.03 54.36 50.19 59.42 63.47 63.82 61.82 61.85 63.05 64.96 65.62
54.80 54.84 55.00 54.88 54.90 54.58 54.12 54.85 57.88 57.55 57.93 59.59 60.02 50.49 51.56 57.37 57.43 55.88 54.93 58.42 56.13 54.55 53.59 52.84 49.96 47.21 46.62 45.00 38.47 43.06 45.90 47.46 48.01 53.06 53.71 52.37 52.66 58.20 61.95 61.42 60.79 60.59 61.80 62.73 63.42
54.53 54.51 54.31 54.25 54.15 54.00 51.60 48.39 47.71 47.74 53.74 49.67 48.41 50.66 54.52 59.02 59.57 56.18 57.62 57.57 56.34 51.43 45.70 48.53 45.15 42.15 45.82 47.50 48.82 48.68 46.90 46.40 49.96 52.80 52.55 50.68 52.30 56.82 59.17 58.64 58.15 58.34 60.70 60.37 62.93
53.72 53.94 53.76 53.47 53.20 53.24 49.59 49.94 48.18 48.34 44.23 50.70 53.13 54.72 56.88 57.07 52.01 55.42 57.93 53.42 51.95 47.52 48.41 45.53 41.91 47.27 49.94 49.63 49.07 47.87 45.43 44.29 47.70 52.19 52.41 50.03 51.95 56.88 58.58 58.14 58.05 57.82 59.09 61.05 62.51
53.16 53.28 53.10 52.65 52.44 49.84 47.49 49.37 52.04 49.42 43.44 47.59 50.31 49.89 50.03 52.92 51.12 52.25 55.34 53.00 50.57 47.97 47.27 43.96 46.94 51.07 49.80 48.16 46.82 44.35 42.30 42.82 43.97 47.08 50.77 50.64 48.08 51.51 54.81 57.40 57.51 57.89 58.67 60.65 60.96
52.81 52.67 52.28 51.30 47.56 46.37 49.20 51.90 49.39 48.95 38.33 43.74 46.94 49.99 50.56 52.18 49.48 56.84 55.61 53.94 50.85 48.40 48.80 47.14 50.82 50.60 49.16 47.79 47.01 40.98 47.26 46.47 45.52 43.70 39.79 47.67 38.30 47.65 50.66 53.02 54.21 55.69 57.83 59.58 61.53
52.31 52.30 51.78 51.23 44.51 46.05 51.75 49.42 49.12 48.41 31.79 47.52 47.51 52.81 48.64 50.15 51.21 54.43 56.17 52.55 48.97 48.71 47.93 46.46 49.18 48.70 48.41 49.15 48.58 46.32 48.84 46.27 46.68 42.83 40.35 42.36 38.84 40.99 48.69 48.93 52.86 54.76 57.32 59.96 60.84
51.84 51.65 51.01 47.37 44.57 47.60 49.89 47.20 47.78 37.75 32.63 45.27 48.65 46.93 46.44 47.11 49.37 52.73 53.02 53.54 52.79 48.91 48.31 48.11 52.08 50.57 49.95 52.10 51.28 51.63 46.74 44.01 42.27 39.39 35.87 39.03 39.67 40.35 47.15 49.59 50.71 55.08 57.90 60.39 60.53
51.15 50.45 48.95 48.70 41.73 46.37 46.68 45.59 36.62 32.76 44.29 44.10 43.12 44.04 42.85 44.52 46.56 49.28 49.43 47.47 45.51 40.31 40.43 46.23 47.83 50.20 52.80 48.79 49.42 45.41 39.96 35.09 34.88 34.00 34.50 41.29 42.26 44.36 50.67 54.38 54.88 55.10 57.32 58.94 63.29
49.94 50.27 49.10 48.63 45.99 46.58 45.32 40.90 30.35 39.32 40.71 45.98 45.04 43.72 42.83 44.23 44.82 46.75 46.99 45.26 47.43 45.57 42.05 41.07 40.64 48.15 51.79 48.92 46.96 43.29 41.16 36.22 31.35 32.25 35.96 42.20 39.23 46.75 55.11 56.74 57.67 57.55 57.78 60.44 61.48
49.29 43.28 43.76 47.01 48.77 45.61 42.27 32.57 33.73 38.96 45.40 44.28 43.71 41.29 41.16 44.23 44.86 44.64 45.30 44.96 47.22 47.63 43.43 40.08 42.22 51.49 51.56 50.76 49.30 44.45 40.64 42.16 36.72 34.43 35.83 37.98 45.43 52.31 54.65 60.25 61.48 60.75 65.23 64.01 63.48
42.85 42.55 43.95 49.04 48.82 45.01 39.46 35.10 37.61 44.45 45.16 43.70 39.29 41.64 38.66 41.62 41.01 41.00 42.30 46.59 47.66 50.12 47.80 44.08 40.70 46.27 50.46 51.02 50.15 46.64 46.72 40.30 36.90 33.37 31.25 36.29 42.90 44.00 50.23 56.70 61.67 61.33 60.93 62.49 63.51
43.06 42.14 47.69 48.68 46.47 42.32 35.69 36.16 41.64 45.53 46.24 42.93 40.67 40.28 40.59 41.11 40.54 39.03 40.93 46.12 49.34 49.14 49.68 44.25 41.80 45.60 47.95 45.58 44.93 43.97 41.48 39.41 39.11 36.91 34.24 33.04 39.67 48.80 51.92 54.15 60.21 61.24 61.94 62.28 60.54
37.91 40.29 48.13 46.49 37.95 35.80 36.42 41.15 44.44 43.20 44.12 43.44 43.56 42.96 41.03 41.84 39.77 40.13 41.36 45.24 49.16 48.67 46.22 45.90 41.30 40.43 43.14 48.37 50.12 45.73 43.95 41.16 38.18 36.19 36.59 38.43 40.54 52.74 53.39 54.69 57.86 61.26 61.52 63.01 63.41
35.64 38.49 48.46 46.29 34.46 33.93 38.30 42.39 43.22 42.05 42.62 42.17 42.67 44.73 43.95 40.54 37.94 41.38 44.40 48.81 48.06 46.77 44.15 45.11 39.98 37.95 40.09 43.00 45.87 44.60 44.45 41.37 39.72 37.67 36.97 36.33 39.07 54.41 54.50 55.82 58.77 60.87 62.57 63.33 63.72
39.17 39.31 42.27 43.13 39.46 38.87 38.90 42.28 43.18 48.59 45.55 45.61 44.25 44.30 42.62 39.96 39.98 40.03 42.36 46.53 47.69 48.47 59.35 51.19 39.21 40.08 39.94 41.10 44.88 45.72 48.16 45.50 41.42 37.82 37.48 38.72 40.45 50.23 52.27 52.80 56.93 57.27 61.05 63.62 64.10
40.85 38.36 39.78 36.48 39.16 38.98 39.53 43.27 44.15 43.93 46.29 44.96 43.34 43.54 41.57 36.70 38.62 39.49 42.02 43.59 47.51 53.30 50.18 45.58 41.21 41.53 42.42 45.61 49.23 49.12 49.42 48.28 44.20 42.46 41.23 42.82 44.61 47.92 52.81 53.09 55.73 56.47 59.52 62.89 61.45
38.79 38.10 38.93 37.33 38.61 37.19 38.61 39.03 42.58 45.10 43.98 43.10 43.70 47.97 45.15 38.56 40.47 40.28 40.65 39.27 42.42 47.83 47.66 47.35 40.55 45.33 42.76 49.18 49.91 48.52 50.12 51.13 50.23 49.58 45.94 45.72 45.85 51.05 53.22 54.76 54.99 55.74 56.99 59.38 59.31
39.60 39.94 39.35 38.21 36.47 36.09 36.67 42.07 44.40 45.90 47.67 49.08 48.75 46.00 43.89 45.74 47.60 45.95 43.97 46.02 46.04 45.70 45.73 47.56 41.83 40.60 38.37 46.12 46.58 41.83 47.83 50.04 50.28 52.21 50.78 47.22 48.79 52.71 52.75 53.82 54.33 54.99 57.05 58.19 60.07

GFSSW_sfc_wetblb_012.txt.gz
Wetbulb
58.37 58.48 58.62 58.69 58.80 58.99 59.04 58.95 59.04 58.92 58.52 57.99 57.80 57.61 57.77 58.73 58.70 55.62 47.46 55.37 56.94 69.39 71.25 64.66 61.69 57.40 59.01 57.65 58.09 58.38 48.79 49.93 52.34 53.84 55.17 58.86 58.31 62.61 63.69 61.85 64.10 64.05 66.35 68.04 72.61
58.01 58.03 58.04 58.26 58.38 58.63 58.57 58.69 58.75 58.51 58.30 58.21 58.51 57.58 58.50 58.72 55.85 52.91 61.13 66.76 67.86 72.57 56.52 58.57 55.99 58.42 55.86 55.39 53.89 50.48 46.88 51.38 56.80 58.39 57.56 60.47 60.47 60.96 60.50 60.27 61.85 63.81 68.64 70.76 73.40
57.62 57.49 57.71 57.92 58.10 58.22 58.15 58.26 58.38 58.19 57.97 58.08 58.93 58.72 58.98 58.06 55.46 57.96 69.05 68.17 69.80 70.41 54.34 59.58 57.56 58.18 52.55 52.10 51.66 51.36 48.40 54.18 56.86 60.56 60.35 58.79 60.61 61.75 59.75 57.33 60.22 61.70 65.92 69.59 71.50
57.04 57.10 57.33 57.51 57.67 57.68 57.76 57.84 57.77 57.77 57.74 57.64 58.80 58.94 58.90 55.63 52.09 62.20 71.14 71.39 70.16 65.41 53.40 54.52 52.95 49.75 48.77 48.02 50.39 47.40 52.14 53.42 52.82 58.20 59.37 58.47 59.43 59.91 60.60 60.32 62.52 66.18 68.02 69.08 70.19
56.52 56.62 56.71 56.70 56.95 57.10 57.26 57.28 57.18 57.11 57.34 57.49 58.67 58.99 54.16 50.58 53.48 67.49 72.21 72.17 63.05 55.68 51.44 52.83 51.95 51.27 47.29 47.67 49.70 47.77 49.68 52.14 53.97 54.05 56.61 59.87 58.58 59.64 59.26 62.73 65.62 68.21 68.36 68.23 69.03
56.09 56.07 56.15 56.22 56.45 56.81 56.79 57.02 57.03 56.57 57.10 57.25 58.49 58.42 54.06 44.64 62.92 67.46 63.25 56.25 54.88 51.60 51.27 55.23 54.59 53.79 49.73 49.07 48.28 50.55 51.79 52.78 54.26 55.04 58.18 57.60 57.51 59.07 61.89 67.47 67.39 67.68 67.52 68.21 68.44
55.60 55.53 55.58 55.87 55.99 56.27 56.58 56.25 56.15 56.35 56.96 57.22 58.40 57.47 52.41 46.96 62.51 60.03 55.00 53.11 52.90 51.54 52.21 54.83 56.49 51.69 50.23 48.85 52.45 53.42 50.86 52.52 53.44 54.85 54.53 57.33 54.18 55.22 63.02 67.49 66.40 66.86 67.54 68.42 69.03
55.04 55.00 55.30 55.24 55.56 55.64 55.80 55.26 55.67 58.75 57.01 57.45 58.11 54.72 47.49 57.87 60.82 57.73 52.75 50.45 51.79 50.59 53.44 56.36 56.67 52.71 48.94 52.52 52.08 48.70 47.89 46.20 52.01 55.08 55.62 54.40 49.22 55.99 65.23 66.53 65.68 66.72 67.57 67.42 67.97
54.42 54.48 54.64 54.95 55.25 55.19 54.87 54.64 57.15 57.59 57.96 58.42 53.44 52.93 46.86 59.77 55.07 55.12 52.78 52.11 51.81 50.36 51.51 57.43 53.75 49.38 51.83 46.93 43.42 44.65 41.84 44.73 49.83 54.33 54.35 53.45 49.88 58.14 63.18 65.99 64.65 65.57 65.63 66.07 66.91
54.09 54.27 54.43 54.49 54.55 54.33 54.00 54.47 58.12 57.49 57.68 59.21 59.27 46.71 49.34 55.59 55.94 54.51 52.67 55.51 54.23 52.71 52.51 51.53 48.80 45.98 45.52 43.91 36.17 40.24 43.02 44.74 46.19 50.38 52.14 51.24 51.39 57.88 61.35 63.15 62.65 62.91 63.84 64.58 64.21
53.92 53.98 53.96 54.00 53.86 53.67 51.49 47.50 46.38 46.67 48.97 46.76 47.66 47.86 52.51 57.08 58.20 53.72 55.29 55.67 53.91 50.50 44.71 47.06 43.94 41.02 44.35 46.60 47.22 46.82 45.15 44.35 47.24 50.32 49.83 49.42 52.06 56.56 59.87 59.70 60.33 60.96 61.01 61.74 61.81
53.01 53.63 53.65 53.39 53.14 53.37 48.03 47.49 46.97 47.21 42.63 48.52 49.99 53.12 55.47 55.37 51.06 54.42 57.72 52.66 51.40 46.64 46.99 44.63 40.92 45.81 48.03 47.99 47.22 46.07 43.91 43.45 46.05 48.63 50.18 48.96 51.27 54.96 57.78 57.80 58.87 60.49 59.53 60.40 62.66
52.68 53.12 53.02 52.53 52.53 48.99 45.98 47.79 49.60 45.86 41.21 45.97 48.99 48.82 49.71 52.11 49.93 51.90 55.30 52.60 49.36 46.80 45.66 43.15 45.33 49.26 48.81 46.76 45.38 42.85 41.54 42.17 43.04 45.50 48.40 49.40 46.27 51.47 54.91 57.72 58.81 59.13 58.67 60.23 61.33
52.48 52.57 52.18 51.27 46.31 46.27 48.62 50.94 47.33 47.28 36.73 41.72 45.12 48.61 49.02 50.25 48.54 55.47 55.55 53.02 49.70 47.24 46.80 46.01 49.19 49.11 47.46 46.65 46.13 39.88 46.39 45.99 44.39 42.22 38.13 45.39 37.95 42.50 49.55 51.37 54.78 57.19 56.69 59.03 61.58
52.31 52.01 51.62 51.17 44.90 42.96 49.31 48.00 47.31 46.78 31.50 45.88 45.65 50.65 47.49 49.21 50.85 51.36 54.95 52.27 48.06 47.93 47.01 44.69 47.25 46.96 47.57 48.12 47.67 46.31 47.84 45.29 45.27 41.14 39.51 41.60 38.26 41.85 48.69 49.24 50.61 55.02 55.79 59.10 61.21
51.70 50.91 50.69 46.35 42.77 46.38 48.17 47.19 46.44 36.14 31.64 43.61 46.77 44.74 44.94 45.59 47.89 51.95 51.47 52.84 52.09 48.08 47.22 46.94 50.55 48.96 48.60 50.66 50.23 51.18 45.22 42.55 40.26 38.02 35.10 38.41 38.44 40.37 44.88 48.87 50.99 54.80 56.97 59.04 60.18
50.85 50.38 48.62 48.27 41.48 46.17 45.84 44.76 35.89 31.46 42.41 42.52 41.35 42.81 41.56 42.40 44.96 49.42 48.12 46.57 45.05 40.24 39.01 44.71 46.20 48.64 50.66 46.64 47.82 44.94 39.84 34.42 34.43 33.37 33.58 39.61 40.44 43.12 48.90 52.84 54.46 54.65 56.18 58.97 61.46
49.67 49.68 48.06 47.91 45.86 45.46 43.81 40.24 29.46 37.50 38.68 44.33 43.04 41.84 40.65 42.74 43.56 46.78 46.48 44.52 46.25 44.04 40.64 39.38 39.16 46.46 49.88 47.30 45.12 42.25 41.03 35.66 30.90 31.21 35.52 40.91 38.17 44.93 53.53 55.57 57.30 56.96 57.38 62.26 63.06
48.79 41.72 42.10 45.13 48.62 44.53 41.42 31.95 32.79 37.01 44.01 42.58 42.02 39.74 39.62 42.47 43.34 43.29 44.11 44.50 46.80 46.69 41.84 38.98 41.21 49.48 50.32 48.85 48.61 42.95 39.43 41.17 35.60 34.52 34.80 36.80 43.20 50.08 54.17 59.17 55.15 57.99 59.42 61.88 63.63
41.76 41.76 43.32 47.45 47.01 43.44 38.08 33.74 35.03 42.31 43.50 42.11 38.00 39.91 37.24 40.44 39.62 39.67 41.67 44.70 45.83 48.42 46.14 42.88 39.15 45.01 49.55 48.86 48.31 45.56 46.07 39.20 36.02 31.79 30.53 35.60 40.55 42.98 49.26 55.58 59.67 60.83 60.60 62.17 63.46
40.87 41.44 46.06 46.64 43.88 41.41 33.75 33.98 39.91 44.45 43.69 40.71 38.91 38.63 38.98 39.45 39.01 37.57 39.41 44.57 47.67 47.18 47.74 43.17 41.14 41.95 45.94 43.87 43.71 42.37 40.12 38.86 37.80 36.15 33.41 32.62 37.87 47.74 50.50 54.75 58.59 60.09 62.22 62.74 62.43
37.33 39.46 46.94 44.89 37.94 33.81 35.06 38.67 43.68 41.62 42.18 41.08 41.85 41.11 40.39 40.57 37.98 38.79 39.71 43.31 46.85 46.05 44.22 43.84 39.28 37.65 42.01 46.31 48.34 44.91 43.00 40.50 37.51 35.34 35.39 35.84 38.90 51.53 51.86 54.46 60.17 60.63 62.53 63.00 60.03
37.70 39.09 47.10 44.98 32.31 32.85 36.82 40.26 42.06 41.35 41.63 40.74 40.85 42.92 41.99 39.68 37.92 40.16 42.70 46.68 46.62 44.59 43.13 44.58 38.96 35.48 38.63 40.84 44.70 44.38 43.10 40.57 38.40 37.52 37.21 36.74 39.14 52.84 53.57 54.72 58.29 60.83 61.86 62.24 63.01
39.97 38.69 41.61 41.60 38.38 38.08 39.01 40.83 42.00 47.30 44.00 44.35 42.39 42.31 40.16 38.02 39.24 39.91 41.12 45.48 46.92 46.38 59.16 49.54 37.49 38.42 36.02 39.15 42.84 44.53 46.34 43.71 40.71 37.03 36.47 38.01 41.14 47.88 52.40 53.61 57.43 60.17 61.57 62.43 62.95
40.17 37.37 38.27 35.56 37.78 37.79 38.91 41.87 42.13 42.27 46.28 44.37 42.44 43.49 42.33 35.85 36.86 38.94 41.03 42.69 46.42 52.23 47.19 44.33 40.33 38.41 40.25 43.10 46.78 47.75 47.79 45.34 43.38 42.80 42.70 44.28 42.47 46.21 51.80 53.58 56.20 58.85 62.07 62.53 62.78
38.08 37.43 37.43 35.95 36.89 35.03 38.34 38.30 42.24 43.92 43.37 42.43 43.75 46.94 44.86 38.11 38.33 39.26 40.84 38.43 41.50 45.53 45.34 45.35 39.54 42.97 41.59 47.74 48.60 48.01 49.55 48.57 48.74 46.45 44.88 45.69 44.91 49.15 51.91 54.89 55.97 57.18 61.60 61.91 62.23
37.94 38.14 38.05 36.09 35.70 34.80 36.05 40.03 43.07 43.96 45.68 47.43 47.00 45.31 43.60 43.54 48.78 49.51 46.50 43.39 41.31 43.88 44.13 45.50 41.59 39.21 37.51 44.87 45.23 40.60 47.26 48.88 49.76 50.10 49.19 46.15 49.29 52.81 52.00 53.84 55.23 55.63 60.38 59.78 60.82

GFSSW_sfc_wetblb_015.txt.gz
Wetbulb
58.50 58.34 58.44 58.64 58.75 58.87 58.89 58.93 59.15 59.15 59.17 58.72 58.86 58.44 57.82 59.14 58.82 57.58 51.74 58.94 60.18 66.98 70.67 65.69 61.52 61.07 63.63 62.43 61.29 62.11 58.88 57.07 57.10 57.52 57.92 63.22 62.04 64.69 66.17 64.24 65.02 67.43 67.89 70.47 74.71
57.93 57.95 58.18 58.32 58.44 58.43 58.44 58.57 58.61 58.59 58.64 58.52 58.50 59.22 58.26 59.04 57.50 56.17 64.09 66.15 66.76 70.58 62.23 59.55 58.66 62.63 61.68 59.61 59.04 58.08 58.35 57.75 61.02 61.73 59.07 62.16 62.74 63.83 63.57 63.39 63.61 64.78 69.55 72.89 74.48
57.49 57.38 57.59 57.81 57.99 57.98 58.35 58.37 58.62 58.26 58.05 58.29 58.35 59.43 58.95 59.26 59.26 61.86 70.26 67.91 67.93 70.68 57.54 62.85 60.78 60.46 57.83 57.98 56.65 56.92 56.94 58.30 58.41 62.18 62.91 60.34 62.32 64.59 63.05 61.74 64.49 64.53 68.20 72.72 73.62
56.96 57.03 57.20 57.31 57.60 57.65 57.73 57.88 58.16 57.72 57.68 57.87 58.17 59.23 59.17 58.02 55.04 64.55 70.15 70.02 71.88 65.91 56.71 58.88 57.30 56.35 54.94 53.66 54.19 53.36 55.33 57.16 55.88 58.54 61.01 59.54 63.01 62.89 63.91 64.27 65.77 67.22 70.47 72.68 72.77
56.47 56.51 56.64 56.87 56.96 57.35 57.46 57.44 57.46 57.17 57.35 57.53 57.87 59.13 57.77 55.01 54.13 68.94 72.24 70.82 65.97 59.51 54.70 57.17 56.40 56.42 52.75 53.07 53.80 52.35 53.48 55.94 57.17 57.45 57.69 59.37 60.54 62.03 63.15 66.33 66.14 68.27 70.44 71.64 72.74
55.89 55.73 55.91 56.09 56.38 56.74 57.06 57.19 57.02 56.64 56.92 57.33 57.93 58.55 57.96 49.90 64.35 68.24 65.66 60.61 59.39 56.03 54.47 58.54 58.24 57.61 54.65 53.29 53.18 54.88 56.15 57.07 58.26 58.36 60.31 60.01 60.31 61.59 63.57 66.34 66.91 68.84 69.63 71.12 72.03
55.21 55.23 55.36 55.45 55.80 56.04 56.57 56.30 56.07 56.84 57.92 57.40 57.73 58.19 55.95 51.23 64.55 63.70 59.35 57.58 57.70 55.43 54.91 57.61 59.81 57.19 55.89 53.51 56.61 57.19 54.73 56.62 58.18 59.46 59.07 60.78 58.18 59.31 64.42 67.72 67.15 68.05 69.52 70.56 71.54
54.68 54.68 54.76 55.11 55.23 55.51 55.56 55.30 55.93 58.58 57.57 57.65 58.36 58.72 51.97 60.67 63.33 59.79 57.09 56.44 56.03 56.98 58.26 59.87 60.33 57.85 55.39 57.12 55.60 53.75 54.49 52.16 56.39 58.75 59.24 58.75 54.46 59.04 67.47 67.31 66.85 67.96 68.99 69.72 71.11
54.28 54.28 54.53 54.73 55.17 55.09 54.82 55.00 57.02 58.42 58.62 59.04 59.36 59.39 50.47 61.59 58.69 60.28 57.60 54.24 54.63 54.64 55.62 57.75 58.42 56.14 56.73 53.11 50.69 52.28 49.63 51.08 54.22 57.39 57.18 57.87 55.37 60.74 67.96 67.43 66.75 67.95 69.07 69.68 70.45
53.68 54.07 54.41 54.55 54.55 54.37 54.12 54.71 58.75 59.19 59.43 60.01 60.28 53.76 53.98 56.71 58.38 56.79 56.76 56.65 55.81 54.78 55.61 55.78 55.71 54.79 54.68 52.05 44.57 47.48 49.46 51.22 51.45 54.39 54.71 54.53 55.86 59.61 66.02 67.49 67.09 68.11 68.92 69.26 68.72
53.59 53.96 53.96 54.06 53.92 53.72 54.17 54.89 53.92 52.79 53.47 53.04 52.72 49.93 53.07 58.04 59.63 56.27 56.69 57.92 57.03 55.50 52.13 52.78 50.80 48.73 50.60 52.99 52.08 51.64 49.82 49.50 52.55 54.00 53.05 54.44 55.73 59.80 63.15 65.88 66.11 67.29 67.86 68.40 67.00
52.75 53.20 53.53 53.55 53.04 53.43 52.79 52.60 51.22 51.74 49.01 51.59 51.16 52.88 56.19 57.55 54.13 56.36 59.20 56.79 55.31 51.72 51.60 51.30 48.65 51.45 51.18 52.17 51.20 50.24 49.08 49.99 52.27 51.33 54.55 54.75 55.53 59.05 61.50 63.20 64.71 65.60 66.90 67.22 66.31
52.41 52.85 53.04 52.59 52.35 52.45 51.31 52.54 52.78 52.55 48.44 49.48 51.47 51.68 52.79 55.72 52.64 55.39 57.81 56.33 54.35 51.69 51.00 50.04 50.02 51.21 51.35 50.48 49.76 49.89 49.46 49.22 48.91 50.91 54.31 54.40 53.14 56.44 59.26 61.53 63.32 63.75 65.24 65.92 65.67
52.27 52.36 52.16 51.23 50.18 49.11 52.67 53.03 51.32 51.77 45.89 46.35 48.80 51.66 52.89 53.95 51.76 57.47 59.25 57.07 53.65 52.07 51.05 51.24 52.83 50.73 50.44 49.81 51.09 49.24 51.40 50.67 50.08 49.09 46.48 51.27 45.75 53.25 54.76 57.68 59.37 62.49 63.47 62.90 64.46
52.00 51.86 51.44 51.04 48.88 47.64 51.78 51.25 52.31 50.96 39.05 47.39 49.67 54.02 52.31 51.98 53.78 54.16 58.48 56.29 52.76 51.82 52.20 49.04 51.00 50.65 50.34 51.50 52.32 51.00 51.53 50.63 49.72 48.83 48.84 48.56 47.51 51.90 53.97 56.29 57.55 60.99 62.94 63.36 65.37
51.55 50.77 50.73 49.40 47.86 49.90 51.11 51.14 52.10 42.76 37.62 46.32 49.74 48.73 49.09 50.95 52.03 54.35 55.66 56.89 55.70 52.43 51.67 51.65 53.71 53.13 52.39 53.35 53.31 53.33 50.31 49.14 49.22 48.98 44.98 47.05 47.44 49.93 53.64 56.06 57.86 59.09 62.57 63.62 64.64
50.67 50.26 49.42 50.04 47.93 50.25 50.75 51.00 42.39 37.93 45.63 45.20 45.98 47.63 47.79 47.95 49.80 52.69 52.35 51.96 50.80 48.07 48.28 50.15 50.99 52.69 53.66 50.99 52.57 51.63 50.16 46.78 43.70 43.67 43.49 48.36 48.27 51.80 54.70 57.30 58.71 59.87 61.39 63.46 64.67
49.57 49.54 49.51 50.33 51.19 50.55 50.91 47.05 36.80 40.45 41.54 47.01 46.15 46.43 45.89 47.48 48.72 51.11 50.96 49.74 51.27 50.47 48.25 46.35 44.56 50.60 52.99 51.90 50.38 50.64 51.64 46.70 40.05 42.19 44.99 47.88 46.58 52.32 58.10 60.56 61.51 62.42 62.38 63.71 64.08
48.91 48.44 48.46 50.73 51.17 50.93 49.63 40.40 40.46 40.58 45.35 44.46 45.85 44.75 45.04 46.55 47.37 49.41 50.79 50.12 51.98 52.56 48.60 47.12 46.61 52.38 53.10 53.57 53.17 49.08 48.50 50.05 46.79 44.73 45.18 47.55 50.08 55.56 59.04 61.39 60.10 60.48 61.79 63.15 65.13
46.08 48.53 49.83 51.65 51.87 51.37 47.39 39.43 41.04 44.17 45.96 45.68 43.22 44.89 43.58 44.89 45.95 47.37 48.13 49.90 50.80 52.98 55.21 50.78 45.60 50.28 51.81 53.73 51.99 52.16 51.97 47.76 48.07 42.59 41.25 45.13 46.94 49.90 56.16 59.55 60.76 60.48 61.50 65.10 67.64
46.53 48.44 50.55 51.13 50.45 49.76 42.55 41.97 43.61 47.16 46.01 44.27 44.14 43.98 44.37 44.17 45.02 45.18 46.44 48.41 50.57 50.79 53.45 51.99 49.90 47.76 50.97 50.42 50.01 49.60 49.49 48.29 49.08 47.16 44.64 43.82 47.57 57.32 57.55 60.16 62.02 62.52 63.63 65.70 66.62
45.41 45.02 52.09 50.63 45.71 43.11 43.30 43.81 44.38 45.64 46.38 45.75 46.35 45.65 44.92 45.01 44.79 45.07 45.35 47.54 49.63 51.74 49.64 52.24 50.14 46.71 47.96 51.13 52.38 51.67 50.88 51.56 47.65 46.02 47.06 47.64 47.66 55.53 58.70 59.29 63.66 63.07 64.88 66.24 66.81
45.80 46.56 52.58 50.60 40.54 42.35 43.16 44.07 45.61 45.94 46.28 45.86 45.45 46.38 46.85 45.44 44.90 45.04 46.03 49.52 49.37 50.48 51.30 51.68 49.18 45.66 46.58 49.14 50.76 50.68 50.52 50.59 50.52 50.77 48.31 46.12 48.19 56.20 59.89 59.84 63.10 64.22 65.56 64.17 65.09
47.16 44.51 48.25 48.32 45.68 44.28 44.37 44.72 44.17 49.74 47.54 48.06 47.12 48.59 47.32 45.89 46.23 45.31 45.91 48.20 49.36 51.01 58.36 55.21 50.08 49.58 44.71 47.17 50.59 49.99 49.50 49.61 51.67 48.75 48.69 48.79 50.98 55.76 57.60 59.73 62.24 65.51 66.38 64.74 64.71
46.37 43.21 43.68 42.63 44.35 44.48 44.96 45.77 45.24 45.76 49.83 50.41 46.77 49.43 48.18 45.38 44.76 44.90 46.04 47.85 49.48 55.68 53.12 53.90 50.23 48.80 49.71 48.67 49.16 50.85 52.35 49.21 50.79 52.90 50.32 52.68 51.09 57.27 58.54 59.34 61.89 65.48 66.35 64.98 63.64
44.82 44.45 43.97 43.43 41.88 42.90 43.29 44.49 45.18 46.61 47.89 47.32 48.08 49.63 49.55 46.64 45.87 45.64 48.47 48.58 48.10 52.02 53.39 52.80 50.78 50.25 50.01 51.55 49.10 48.55 51.13 52.72 51.99 51.13 51.42 52.39 53.27 57.98 58.38 60.36 61.83 64.17 65.00 65.23 64.56
43.64 44.69 43.97 39.39 42.12 42.61 43.90 45.21 45.51 47.28 49.14 50.59 49.26 49.37 48.64 48.87 51.39 52.71 53.03 52.56 51.72 48.98 50.68 53.18 52.61 49.96 47.07 50.70 51.13 48.33 51.97 53.28 54.34 55.30 55.08 52.64 57.36 58.44 58.71 59.11 62.07 64.07 65.26 65.33 65.58

GFSSW_sfc_wetblb_018.txt.gz
Wetbulb
58.57 58.52 58.54 58.71 59.06 59.06 58.93 58.99 59.23 59.32 59.10 59.22 59.14 58.98 59.20 59.18 59.27 62.02 56.91 61.51 62.60 69.84 71.50 62.99 60.91 60.98 67.33 65.16 63.84 64.37 61.75 58.54 58.14 57.55 58.95 63.57 62.42 66.62 67.92 66.52 67.11 68.82 68.93 72.32 75.32
58.11 58.06 58.32 58.48 58.64 58.94 59.17 59.06 59.17 59.28 58.79 58.77 59.06 58.99 59.81 59.60 61.94 59.90 64.88 66.01 65.97 68.46 62.81 58.46 56.96 62.14 64.82 63.36 63.49 62.02 61.10 58.72 60.74 60.72 59.98 61.48 62.62 64.68 65.27 65.31 65.88 67.22 70.63 74.30 74.90
57.71 57.63 57.70 58.05 58.23 58.48 58.89 58.97 59.12 59.12 58.78 58.62 58.83 59.27 59.90 60.73 62.89 62.75 69.05 67.61 67.73 69.99 61.43 62.43 62.63 61.05 61.04 62.66 60.97 61.43 59.80 59.64 58.52 59.80 61.11 61.73 62.08 65.18 64.40 63.49 65.94 66.70 69.94 73.54 73.83
57.06 57.12 57.31 57.57 57.78 58.03 58.33 58.58 58.52 58.51 58.14 58.40 58.55 59.40 60.08 63.55 55.68 66.45 70.41 69.16 69.81 63.28 62.39 61.84 59.88 56.78 58.13 59.16 58.78 58.46 58.47 58.01 58.38 59.33 59.57 60.24 63.03 63.29 64.70 64.99 67.83 68.49 71.99 73.52 73.35
56.38 56.42 56.55 56.63 57.03 57.36 57.51 57.72 58.07 57.93 57.58 57.99 58.36 59.44 62.30 59.18 58.13 70.27 71.38 71.11 67.15 60.06 60.11 59.43 57.55 57.84 56.00 57.17 57.48 57.04 57.41 58.39 59.74 60.21 61.13 61.76 61.31 62.64 63.92 66.41 68.49 68.96 71.60 72.54 73.44
55.84 55.86 55.95 56.11 56.43 57.24 57.26 57.40 57.28 57.34 57.72 57.93 58.19 58.86 61.32 53.51 64.50 68.45 63.80 62.20 60.89 59.04 60.86 61.12 59.19 59.43 57.10 56.84 56.94 57.88 58.16 59.23 60.03 60.93 61.50 61.26 61.22 62.99 65.22 68.13 67.03 68.81 70.37 71.87 72.82
55.28 55.32 55.35 55.76 55.97 56.23 56.77 56.60 56.41 57.10 58.84 58.15 58.32 61.74 58.24 55.24 65.64 65.24 62.91 60.79 60.52 58.12 59.99 61.77 61.34 59.03 58.44 56.39 58.53 58.28 57.09 59.56 60.27 60.43 59.34 62.16 59.87 60.53 64.94 68.12 67.50 68.66 70.15 71.23 73.21
54.89 54.93 55.07 55.29 55.54 55.67 55.76 55.40 56.48 58.60 57.94 58.25 59.14 62.93 54.90 62.50 65.98 62.36 61.94 60.22 60.40 59.59 61.97 63.10 62.04 59.42 57.78 58.85 57.85 56.24 57.32 55.29 58.60 59.16 60.11 59.72 55.90 61.64 66.27 67.34 66.86 68.68 69.65 71.41 73.22
54.16 54.24 54.73 54.75 55.01 55.17 54.92 55.33 57.62 58.36 58.94 59.67 63.57 62.27 53.74 63.54 61.11 63.54 62.23 58.26 57.87 58.78 60.83 60.63 60.75 58.24 57.70 54.08 52.35 53.92 51.77 52.06 54.25 58.58 57.07 57.18 56.30 62.21 67.22 67.63 66.86 69.21 70.05 71.33 72.38
53.78 54.37 54.37 54.61 54.84 54.39 54.37 55.47 59.09 59.51 61.76 63.39 63.36 58.17 57.10 56.24 60.69 62.09 62.39 58.77 55.77 57.78 58.69 58.58 58.16 55.75 55.19 52.86 47.68 49.21 50.24 51.91 52.52 56.49 55.61 54.77 56.01 59.39 64.99 67.28 67.14 69.42 70.50 71.24 72.10
53.51 53.90 54.08 54.22 54.12 53.84 57.09 60.91 59.71 58.06 57.98 56.49 56.09 53.45 54.84 61.14 61.78 60.29 59.54 59.11 57.81 58.16 54.67 56.27 53.54 52.04 52.24 54.28 54.40 53.73 52.12 51.19 53.34 56.39 54.73 54.73 55.71 58.38 64.49 66.74 67.50 69.50 70.38 71.25 71.38
52.93 53.28 53.59 53.47 53.18 53.61 57.38 56.85 55.12 55.64 52.82 55.71 55.22 55.27 57.50 59.83 57.54 59.19 60.79 57.87 56.66 53.99 55.07 53.77 51.40 53.68 53.51 54.14 53.51 52.88 52.33 52.17 54.95 54.49 54.77 55.38 55.03 57.54 62.51 64.83 66.61 68.32 69.89 70.91 71.26
52.43 53.01 52.94 52.71 52.75 57.21 57.84 55.92 56.71 56.78 53.65 53.32 54.46 54.03 55.22 58.59 57.13 57.95 59.62 58.93 56.18 54.11 53.82 52.38 53.09 54.07 53.07 52.79 52.05 52.51 51.62 51.87 52.11 54.61 55.39 54.79 53.57 55.24 61.29 63.88 66.05 67.38 69.64 71.31 70.92
52.37 52.46 52.18 51.04 53.77 54.56 57.14 57.07 57.32 57.13 50.88 50.43 51.41 53.86 55.04 57.35 54.26 61.34 61.15 59.34 56.71 54.31 53.92 53.29 55.32 53.03 52.59 51.83 53.61 51.47 54.29 53.47 52.89 52.24 49.87 54.04 47.88 54.64 57.04 59.15 62.86 65.46 66.94 69.62 70.63
51.96 51.61 51.42 50.73 54.50 53.42 56.19 56.29 57.71 56.25 43.19 50.03 51.85 57.23 55.76 54.18 55.84 56.64 62.29 59.23 55.30 54.67 54.85 52.77 53.26 52.61 52.04 52.63 54.78 53.59 54.75 54.14 53.64 52.39 51.52 51.88 49.41 53.56 56.38 55.87 60.47 63.67 66.34 67.69 69.49
51.42 50.86 50.76 54.14 55.43 54.24 55.75 56.42 56.60 47.61 41.68 48.87 52.17 51.31 51.42 53.42 54.76 57.40 58.40 59.79 58.73 55.19 55.30 54.08 56.30 55.46 54.49 55.57 55.76 55.80 54.29 54.41 54.17 52.04 47.58 51.08 49.60 51.95 54.91 58.10 60.57 62.51 65.54 67.26 68.34
50.79 50.55 50.99 54.68 53.32 55.51 56.08 55.84 47.20 43.10 48.49 48.14 49.43 51.45 51.24 50.79 53.44 55.18 55.54 54.78 53.15 50.65 51.39 53.69 54.03 55.76 56.24 53.33 55.42 54.42 52.88 47.83 47.30 46.87 46.89 53.18 50.36 52.55 56.04 58.86 61.92 62.61 64.73 67.53 69.07
49.86 49.88 52.51 55.28 57.07 56.53 56.20 50.97 42.84 45.34 45.59 49.60 49.51 50.20 49.38 51.00 52.42 53.52 54.14 52.95 55.62 54.24 52.60 49.40 47.61 52.84 55.18 53.96 52.34 53.14 52.67 48.34 44.03 45.00 48.70 52.48 47.87 54.22 59.84 61.88 63.90 64.25 65.07 67.62 68.30
49.36 55.86 55.52 57.33 57.12 56.06 53.44 45.07 45.92 45.34 48.12 47.36 48.61 48.40 48.66 49.82 50.36 52.38 52.88 53.04 54.71 55.52 50.95 49.58 48.59 54.53 55.23 55.15 54.92 53.03 50.42 54.43 51.24 51.24 47.66 50.01 52.01 56.29 59.96 61.40 63.49 64.34 65.23 66.15 66.96
53.21 56.15 55.97 57.00 57.65 54.55 50.73 45.24 45.93 48.04 48.59 48.22 46.61 48.51 47.84 49.43 49.21 50.70 51.68 53.37 53.19 55.38 56.94 53.04 48.59 52.71 53.51 54.90 55.44 54.58 55.99 50.02 51.08 45.78 44.53 48.64 49.46 53.78 56.81 59.29 63.11 62.83 64.46 66.38 68.49
53.81 52.81 54.09 56.46 55.82 51.92 46.09 47.13 46.12 49.94 49.13 47.92 47.58 47.86 48.80 48.23 50.13 50.06 51.14 51.38 53.35 54.12 55.93 54.66 52.14 51.14 52.53 52.04 51.51 52.87 52.20 53.40 53.21 52.16 47.58 46.28 49.66 56.85 57.21 60.07 63.18 64.14 65.05 69.32 70.44
54.27 49.21 55.61 57.37 48.03 49.75 47.12 47.69 47.04 48.87 49.65 48.53 49.50 49.40 48.85 48.49 48.76 49.50 49.50 51.44 51.86 54.86 52.41 55.19 53.21 49.28 50.55 53.95 54.73 54.26 54.03 54.66 50.05 50.56 51.31 51.03 50.48 57.32 59.82 62.70 65.02 65.24 66.34 69.76 70.44
53.70 52.13 56.84 56.02 44.85 45.71 48.50 47.20 47.77 47.51 48.07 47.68 47.66 49.60 50.22 49.23 48.07 48.81 49.70 51.74 51.64 53.78 54.57 55.86 52.02 48.43 49.98 52.59 54.01 52.28 53.71 54.97 55.49 55.89 51.46 48.90 50.78 60.66 61.41 63.14 64.82 65.71 67.50 69.40 69.80
53.75 47.37 50.71 53.04 53.21 48.48 46.61 46.54 46.07 50.75 49.30 49.54 48.88 50.01 49.32 49.02 51.10 49.41 49.39 50.55 51.61 53.19 58.81 58.59 54.79 51.74 47.18 50.97 53.15 51.27 52.02 53.83 54.65 51.39 51.72 51.78 53.19 56.46 58.20 60.67 65.45 66.78 68.25 68.63 68.36
54.82 50.09 49.93 45.89 49.10 49.39 49.66 48.28 45.89 47.40 50.24 50.88 48.89 48.71 48.63 47.53 49.08 49.05 49.99 50.43 51.51 54.62 56.71 56.44 52.80 53.49 52.61 52.49 52.88 52.07 51.93 52.98 53.25 54.52 51.93 53.67 53.73 56.93 61.55 61.96 64.45 68.13 68.62 67.26 67.10
50.90 51.38 51.81 51.03 49.07 49.21 46.21 47.94 47.18 48.56 50.15 49.18 49.08 50.53 51.42 48.96 49.50 48.69 51.26 52.05 51.45 54.67 55.75 56.63 53.49 54.21 51.62 52.76 53.35 51.38 52.23 54.14 54.62 54.80 54.68 54.75 54.57 62.06 63.26 64.47 64.60 68.33 68.42 66.85 67.84
52.13 53.00 50.53 44.46 48.65 47.28 48.22 49.10 48.46 50.56 51.69 53.26 51.89 51.96 50.52 52.01 54.33 55.77 56.44 57.00 56.34 54.34 52.55 54.75 54.21 52.78 48.54 52.72 52.60 49.74 51.89 52.55 54.64 56.37 55.41 52.98 57.54 62.57 62.48 63.29 64.59 67.28 68.91 68.02 66.89

GFSSW_sfc_wetblb_021.txt.gz
Wetbulb
58.85 58.84 58.90 59.01 59.36 59.49 59.61 59.61 59.66 59.65 59.60 59.61 59.69 59.70 60.23 60.35 60.11 64.04 59.79 62.36 64.08 70.89 69.02 63.46 62.13 61.06 63.55 67.25 66.83 67.09 61.13 58.31 58.07 58.43 59.90 63.16 62.56 65.20 67.54 67.13 67.73 68.53 69.37 71.92 74.90
58.41 58.28 58.45 58.69 59.25 59.56 59.55 59.75 59.69 59.71 59.45 59.32 59.51 59.57 60.11 60.29 64.08 62.78 63.51 68.52 69.32 68.72 65.16 60.11 57.60 59.69 63.35 65.30 65.32 63.24 59.00 59.18 61.50 60.76 60.18 61.54 61.44 62.93 64.41 65.92 66.91 68.21 71.76 73.74 74.47
57.78 57.80 57.94 58.21 58.36 59.05 59.19 59.21 59.39 59.34 59.33 59.03 59.23 59.53 60.15 61.49 64.65 64.21 68.02 68.00 68.04 68.28 64.10 61.83 61.04 61.07 62.10 64.67 63.47 63.60 59.54 60.29 60.02 60.90 60.95 61.52 61.87 64.16 62.73 62.55 66.92 67.71 70.78 72.83 73.36
57.18 57.22 57.32 57.47 57.88 58.08 58.51 58.64 58.76 58.74 58.54 58.51 58.99 59.34 60.61 65.16 58.13 66.48 69.94 69.28 69.87 68.41 61.94 61.24 60.31 58.48 59.66 61.40 62.76 60.15 60.96 60.53 60.38 60.77 60.56 60.20 62.21 62.12 62.98 65.09 68.33 69.70 72.36 73.19 72.90
56.53 56.78 56.81 56.95 57.20 57.57 57.61 57.90 58.30 58.14 58.11 58.66 59.01 59.39 63.19 62.43 62.15 67.56 70.95 68.96 65.67 61.17 60.31 60.19 58.32 58.88 58.24 60.67 60.93 60.61 59.99 61.08 61.68 61.78 62.11 62.00 61.30 61.29 62.34 66.02 69.16 70.38 72.14 72.86 72.86
56.03 56.13 56.20 56.46 56.97 57.42 57.54 57.41 57.46 57.71 58.22 59.34 59.11 58.62 64.14 55.97 66.81 66.02 64.12 64.26 62.23 60.48 60.77 61.07 59.44 60.40 59.44 59.24 59.86 61.17 60.72 61.38 61.87 61.60 61.85 60.50 61.35 62.19 65.16 67.47 68.05 69.50 71.16 72.35 72.93
55.37 55.51 55.65 55.90 56.21 56.63 56.98 56.71 56.77 57.69 59.59 60.17 59.09 63.28 59.75 57.57 66.98 66.65 63.68 62.62 61.32 60.66 60.37 62.47 61.93 59.17 59.99 59.08 61.09 60.59 59.01 60.84 60.99 60.98 60.01 61.35 59.40 60.72 64.42 67.74 67.02 68.70 70.67 71.57 73.13
54.87 54.95 55.11 55.35 55.60 55.68 55.98 55.74 56.63 59.14 59.50 58.84 59.82 64.41 57.91 62.87 67.00 64.44 64.18 61.93 61.80 61.02 63.10 63.57 63.01 60.50 59.31 60.69 59.35 58.73 59.02 55.42 60.41 59.60 60.48 59.33 56.72 61.45 65.49 66.82 66.89 68.83 69.97 71.00 73.00
54.33 54.51 54.69 54.95 55.09 55.39 55.17 55.19 57.88 60.67 60.06 60.62 65.22 62.43 57.41 63.57 61.26 65.31 64.18 60.49 60.10 61.05 62.79 62.78 61.94 59.45 58.43 54.81 53.82 55.60 52.52 54.99 55.35 59.38 58.22 57.47 56.21 61.82 65.94 66.60 67.02 69.44 69.90 71.50 72.97
54.19 54.41 54.56 54.72 54.96 54.74 54.59 55.46 59.72 60.24 62.53 65.64 64.36 59.51 58.77 55.84 60.49 63.91 64.37 60.67 57.87 58.89 59.02 59.72 58.68 56.15 55.52 54.26 49.24 51.34 51.82 52.63 52.53 56.91 57.57 56.14 56.48 59.05 63.35 65.31 66.95 69.60 70.42 71.46 72.40
53.92 54.02 54.10 54.08 54.18 54.02 56.23 62.16 61.92 60.50 62.68 58.04 58.58 55.79 56.44 61.95 62.47 61.22 62.69 59.54 59.54 57.27 55.41 57.83 54.36 52.00 54.13 55.19 55.33 54.72 52.61 51.84 54.03 56.46 55.77 55.95 56.14 57.90 61.44 62.82 66.05 69.06 70.89 71.17 72.33
53.16 53.73 53.78 53.71 53.43 53.39 57.03 59.14 57.61 57.72 54.19 58.31 57.58 57.76 59.20 61.90 57.20 59.48 61.93 57.33 56.44 54.08 56.78 55.48 51.87 55.35 55.27 54.55 53.73 53.21 52.34 52.70 54.51 56.75 56.02 55.56 55.95 58.02 59.59 62.24 64.85 68.20 70.89 71.03 72.34
52.83 53.20 53.12 52.84 52.69 56.92 59.81 58.77 60.18 60.07 54.60 55.69 56.83 55.86 56.84 59.83 57.51 58.01 59.44 58.41 56.52 54.73 55.12 53.24 55.07 55.78 54.03 53.29 52.51 53.03 52.32 52.70 52.81 55.75 56.59 55.44 54.76 56.35 59.29 62.16 65.19 66.46 70.19 71.40 71.98
52.83 52.77 52.52 51.36 53.72 57.15 57.68 60.44 60.44 60.25 51.67 52.63 53.08 55.21 57.06 58.58 56.17 61.74 60.78 59.52 57.90 55.18 55.40 54.58 56.18 53.60 53.36 52.83 53.96 52.08 55.50 53.77 53.15 53.04 50.78 55.82 48.46 56.23 58.04 59.83 63.50 65.28 67.07 69.58 72.08
52.23 52.13 51.85 50.97 55.57 54.70 59.40 59.83 60.02 59.55 44.34 53.61 53.38 59.16 57.69 55.46 56.94 58.03 62.13 60.11 56.86 55.90 56.26 53.92 53.93 53.55 52.51 53.12 54.65 53.62 56.71 54.43 54.56 53.34 52.91 52.84 50.74 54.53 57.75 55.66 60.21 62.08 66.57 67.98 71.46
51.88 51.59 51.19 57.19 58.09 57.46 57.81 59.38 59.34 49.31 43.34 50.63 54.11 52.80 53.16 54.51 55.74 58.13 59.50 61.50 60.46 57.08 57.05 56.13 57.35 56.21 55.23 55.99 56.14 56.76 55.08 55.14 55.11 53.39 48.54 52.42 52.12 51.08 55.76 58.55 58.80 62.92 66.18 68.02 70.20
51.16 50.66 51.75 56.84 55.17 57.76 57.94 57.22 48.71 45.40 52.22 50.40 51.11 53.16 52.72 52.15 53.50 56.26 56.24 56.01 54.67 52.43 52.77 54.55 54.97 56.40 56.74 54.22 56.47 55.57 53.58 48.68 48.24 48.48 47.26 54.63 51.40 53.11 56.97 58.91 59.96 61.52 65.80 68.28 69.60
50.11 49.95 54.46 55.99 58.53 57.57 56.93 52.22 45.51 49.19 49.69 52.80 52.22 52.85 50.87 52.79 53.44 54.74 55.15 54.18 56.55 55.56 53.33 51.45 49.59 54.90 56.98 54.99 53.85 54.65 53.97 49.00 45.17 45.65 47.83 53.94 49.73 55.16 59.40 60.61 62.86 64.53 66.65 68.26 69.32
49.03 58.19 56.61 57.93 58.27 57.56 54.05 47.07 48.33 50.62 50.74 50.30 51.05 50.28 50.89 52.33 52.84 54.19 54.48 54.43 56.07 56.62 53.10 51.63 50.68 55.54 55.46 56.21 55.64 53.78 51.61 55.11 50.91 52.00 49.17 51.03 53.34 57.12 59.04 59.79 62.34 64.25 65.93 67.02 68.23
54.15 55.40 56.69 59.44 58.90 55.34 51.10 46.90 50.74 50.81 50.63 50.96 48.85 51.45 49.67 50.79 50.40 52.85 53.34 55.75 55.30 57.29 58.04 54.85 50.77 55.03 55.12 56.01 56.19 55.04 56.87 51.24 51.35 46.45 45.16 49.93 51.24 53.02 57.64 59.41 62.89 63.47 65.15 66.65 68.21
55.50 53.13 56.37 57.42 56.86 52.04 46.56 49.95 51.87 51.46 51.31 49.71 49.12 50.56 52.00 51.00 51.64 51.55 52.30 53.79 56.07 56.36 57.33 55.75 53.95 52.60 54.39 53.20 52.57 54.06 52.66 53.78 53.07 52.42 47.33 46.06 49.33 59.18 58.26 60.19 62.39 63.65 65.67 67.02 68.31
56.11 50.13 56.69 57.59 48.72 50.36 48.48 51.19 48.33 50.60 51.86 50.70 51.65 50.36 50.82 51.72 51.18 51.58 51.71 54.22 55.58 55.93 53.58 55.92 54.52 51.16 52.30 55.70 55.70 55.06 54.76 55.06 50.46 50.48 52.23 51.45 49.98 59.28 59.74 61.38 61.07 64.14 66.19 69.59 70.92
54.93 53.83 56.94 56.21 46.30 48.36 51.13 50.02 50.32 50.43 50.40 49.97 49.85 51.86 52.38 50.70 50.37 52.06 52.40 54.26 53.94 55.07 54.89 56.73 52.91 49.45 51.05 53.31 55.35 52.81 53.58 54.91 56.12 56.06 52.82 50.33 51.13 60.37 61.20 61.35 63.30 64.56 66.76 70.42 70.85
55.61 48.62 52.08 52.15 53.20 51.14 50.24 49.48 48.49 50.60 50.43 50.88 50.66 51.76 51.61 51.34 53.79 51.75 51.45 52.47 53.30 54.63 60.81 60.52 54.71 52.68 48.42 50.35 54.44 52.55 52.75 53.95 54.42 51.70 51.88 51.61 54.12 58.64 59.80 60.82 65.23 66.19 68.09 70.49 71.25
55.74 53.25 53.43 47.26 49.58 50.87 51.23 50.22 48.21 48.55 51.54 52.59 50.70 50.46 50.41 49.92 51.05 50.80 52.52 52.44 53.07 55.48 55.89 57.02 53.21 54.23 54.17 53.21 53.23 53.10 52.70 53.38 52.71 53.89 51.90 53.83 53.03 54.61 61.84 63.04 65.76 67.70 69.76 69.77 70.17
52.31 52.82 52.90 53.41 52.95 50.85 48.30 49.89 48.95 49.57 51.55 49.67 49.56 50.58 50.74 50.01 51.30 50.72 52.86 53.51 53.11 55.13 55.09 57.65 53.58 54.91 52.87 53.75 52.70 51.45 52.54 52.91 53.72 54.12 54.79 55.33 54.91 54.17 64.52 65.89 64.46 67.81 69.19 68.82 69.31
54.22 56.63 54.21 49.05 50.38 49.83 50.42 50.53 50.10 51.36 52.78 54.42 52.97 51.93 51.60 53.10 55.62 57.57 58.11 58.78 58.34 56.70 55.58 56.45 54.90 52.77 50.13 52.70 52.27 50.28 52.78 52.84 53.88 56.17 55.86 53.59 57.59 62.32 61.85 64.79 65.15 67.45 69.53 68.79 69.01

GFSSW_sfc_wetblb_024.txt.gz
Wetbulb
59.02 58.99 59.25 59.59 59.97 60.15 60.13 60.17 60.36 59.96 59.94 59.96 60.17 60.35 60.84 61.09 60.60 63.90 61.39 63.07 65.35 71.65 68.71 64.26 62.45 61.25 61.42 60.35 66.06 66.52 60.41 56.66 57.34 58.20 58.79 62.57 62.29 64.07 65.54 65.78 67.42 68.42 69.01 71.41 73.68
58.26 58.45 58.54 58.99 59.42 59.58 59.53 59.73 59.73 59.77 59.66 59.57 59.81 60.22 60.60 61.00 63.79 62.80 61.44 70.96 70.68 68.69 58.83 61.49 58.46 59.32 58.57 63.06 65.19 62.95 58.27 58.07 60.20 60.31 59.50 61.10 61.04 62.41 63.89 63.87 64.84 68.23 71.50 72.39 73.31
57.76 57.85 57.87 58.25 58.33 59.00 59.08 59.18 59.44 59.37 59.30 59.26 59.61 60.03 60.58 61.04 64.81 63.87 66.57 69.23 68.43 66.57 64.09 61.98 60.57 59.86 59.33 63.55 63.78 61.46 56.65 59.92 59.73 60.25 60.65 60.42 61.53 63.10 62.95 62.11 61.30 66.49 69.81 71.63 72.07
57.24 57.24 57.48 57.59 57.91 58.25 58.53 58.71 58.81 58.77 58.69 59.04 59.61 60.13 60.53 63.17 58.82 63.43 69.48 69.67 70.08 65.77 63.78 61.22 59.89 58.24 58.85 60.25 62.90 60.04 62.10 60.22 59.79 60.37 60.44 59.87 61.22 60.93 62.87 65.14 68.08 70.38 71.76 71.67 71.41
56.59 56.54 56.67 56.87 57.16 57.45 57.47 57.83 58.05 58.01 58.48 59.35 60.12 60.18 61.76 63.61 63.53 63.95 70.31 67.89 64.44 64.36 59.99 60.08 58.38 58.37 56.99 60.89 60.90 60.18 59.60 59.87 61.12 61.21 61.09 61.67 60.34 61.21 61.11 67.31 68.51 71.51 72.16 71.45 71.63
56.00 56.05 56.30 56.54 56.97 57.32 57.40 57.36 57.43 57.74 58.69 60.33 61.18 59.52 63.58 57.22 67.90 63.58 64.51 62.35 64.43 60.62 60.63 60.74 59.79 60.65 59.25 59.33 59.28 61.41 60.92 60.44 61.20 61.38 61.56 59.81 61.07 61.79 64.10 65.93 67.90 70.18 71.52 71.93 71.89
55.58 55.91 56.08 55.87 55.97 56.57 56.96 56.76 56.78 57.84 59.82 60.81 60.68 62.43 60.29 57.85 66.79 66.45 64.14 62.77 62.07 60.72 60.17 62.08 62.38 59.40 59.51 58.41 61.40 60.52 57.47 59.36 60.52 60.70 58.64 62.17 58.91 60.02 63.66 66.55 66.98 68.30 70.15 71.76 72.91
54.96 55.10 55.68 55.60 55.77 55.91 56.11 56.00 56.37 58.57 61.32 61.26 60.81 63.64 58.95 62.81 65.80 64.97 64.53 62.27 62.15 61.16 62.23 63.43 62.85 59.89 58.56 60.84 58.81 56.68 57.71 54.47 58.81 60.65 59.77 58.09 55.28 60.76 63.57 64.89 65.32 67.27 69.11 70.59 72.41
54.48 54.56 54.96 55.08 55.41 55.49 55.10 55.25 56.54 60.65 62.53 62.44 64.56 63.03 57.04 64.46 59.14 64.33 64.01 60.84 60.68 60.51 62.44 62.84 60.84 58.42 58.39 54.44 53.00 54.90 51.79 53.83 56.55 59.30 57.97 56.63 54.95 61.02 63.51 64.30 65.55 67.75 68.84 69.83 71.99
54.37 54.53 54.53 54.69 54.83 54.71 54.24 54.83 60.13 58.87 63.16 65.06 64.33 58.82 60.06 57.82 59.36 62.86 64.27 62.15 58.76 58.57 58.83 58.75 57.82 55.31 54.89 53.05 47.74 50.74 51.21 52.25 54.15 56.24 57.77 55.66 55.31 58.28 62.21 62.35 65.62 68.15 69.13 70.13 71.48
54.10 54.14 54.16 54.22 54.30 53.89 55.07 60.17 61.16 60.86 60.03 57.03 57.87 55.16 57.45 61.12 61.97 61.40 63.16 60.08 58.94 56.55 53.85 57.50 53.44 51.11 52.79 54.74 54.99 53.71 53.00 51.81 53.94 55.85 55.15 55.13 55.46 57.12 59.76 60.52 62.36 69.15 69.58 70.37 71.54
53.48 53.71 53.85 53.65 53.44 53.38 54.49 58.26 57.93 58.04 53.69 58.91 59.01 59.03 59.04 61.42 57.13 58.74 62.46 56.65 56.09 52.79 55.13 55.38 51.17 54.81 56.18 55.21 53.39 52.50 51.38 51.47 54.31 55.74 56.00 54.91 54.57 57.38 58.28 60.73 62.68 67.71 69.88 69.82 71.39
53.17 53.21 53.19 52.93 52.64 56.40 57.47 59.39 60.85 59.86 53.22 54.64 56.94 56.30 57.38 58.67 57.02 56.69 59.97 57.24 55.62 53.20 54.16 52.63 54.00 56.49 54.41 52.45 51.41 51.94 51.31 52.07 52.48 55.40 56.33 55.26 53.57 56.52 58.13 61.36 62.38 62.20 70.90 70.28 71.21
52.78 52.95 52.48 51.51 53.55 58.71 55.53 61.31 60.17 60.47 49.88 51.73 53.97 55.93 56.79 57.29 54.80 60.97 60.63 57.63 56.56 53.66 54.63 54.24 56.18 54.42 53.53 51.53 53.30 50.84 55.55 53.55 52.54 51.94 49.28 55.27 48.33 57.25 58.15 59.47 61.43 63.55 66.48 69.01 71.58
52.51 52.41 52.01 51.16 54.16 55.41 59.55 60.38 59.81 58.94 42.57 52.95 54.34 59.73 57.28 54.87 56.29 57.70 61.57 58.19 55.31 55.39 56.18 53.57 53.82 53.25 51.76 52.67 54.34 52.35 56.78 55.51 53.51 52.16 51.92 51.90 49.64 55.54 60.77 56.58 60.17 62.30 65.22 68.28 71.63
51.89 51.83 51.19 56.84 56.47 56.86 58.22 58.68 58.12 48.11 42.04 51.06 54.04 53.04 52.80 53.95 55.12 57.65 58.52 59.51 60.01 57.25 56.84 55.94 58.24 55.93 54.75 55.34 55.22 56.04 54.71 54.03 53.73 52.06 47.52 52.27 50.21 52.05 55.67 56.78 58.88 62.05 65.71 69.64 70.45
51.07 50.66 50.67 56.25 55.41 58.63 57.56 55.05 46.64 43.69 51.61 50.54 51.18 53.03 51.92 51.46 52.77 55.37 55.68 54.60 53.86 51.63 52.31 54.48 54.49 55.92 56.68 54.07 56.27 54.71 52.70 47.33 46.59 46.88 46.96 51.60 50.90 54.21 57.21 59.39 59.57 62.05 65.51 68.20 70.14
50.06 50.09 54.28 55.31 57.63 58.48 56.19 51.02 43.93 48.27 49.07 53.24 53.00 52.34 49.89 52.07 51.87 53.57 54.29 53.09 55.88 55.26 52.46 50.48 48.73 54.30 56.36 54.32 53.10 53.86 53.19 48.18 44.06 44.53 47.18 54.04 47.89 52.52 59.28 60.77 62.15 62.30 66.55 68.16 68.63
49.15 58.11 56.44 58.32 57.75 57.27 52.28 45.76 46.99 50.44 52.00 51.44 51.79 50.10 49.96 51.69 52.05 52.18 53.43 53.43 55.34 55.93 52.39 51.24 51.51 56.32 56.67 56.74 55.26 52.66 50.61 53.87 50.25 50.93 47.18 49.60 54.53 58.34 59.14 59.07 61.94 62.75 66.03 66.72 68.43
52.10 56.15 56.32 58.65 58.48 54.85 49.39 45.59 49.86 52.82 52.22 51.42 48.58 50.52 48.84 50.32 50.34 51.58 52.71 55.18 54.72 56.79 57.55 55.28 50.77 54.63 55.52 56.07 55.76 54.26 55.40 49.97 51.62 45.70 44.44 47.94 50.96 49.42 53.41 52.78 61.57 62.79 65.08 67.47 68.90
53.83 53.34 58.27 59.31 57.55 50.94 44.09 47.22 50.44 53.46 52.16 50.20 49.61 50.50 50.93 50.91 51.40 50.55 52.09 54.89 56.23 56.26 57.66 55.78 53.96 53.01 55.18 53.16 52.25 52.73 52.43 52.52 51.43 51.31 46.12 45.91 49.75 57.56 54.51 54.36 62.18 63.48 65.23 66.85 67.65
56.07 49.96 58.00 56.74 47.95 48.63 45.84 48.70 51.13 52.45 52.83 51.35 52.12 52.17 51.64 52.80 51.93 51.15 51.37 53.73 56.71 56.86 54.32 56.32 53.79 50.80 51.95 55.66 56.37 54.57 53.36 53.92 49.83 50.37 51.66 51.34 50.94 58.45 59.81 61.27 63.95 62.62 64.81 67.29 68.49
54.38 54.10 57.46 54.97 44.06 46.03 49.28 48.97 51.02 51.47 51.18 50.62 49.94 52.25 53.06 52.16 50.38 51.65 52.83 54.82 55.85 55.01 55.18 57.11 52.79 48.36 50.48 53.49 55.23 52.80 53.56 53.44 54.27 56.57 52.56 49.55 46.89 56.49 60.98 61.75 61.59 63.56 65.76 69.72 70.61
55.10 48.81 51.16 51.37 51.57 49.61 49.86 48.91 49.35 51.99 51.03 52.19 51.39 52.57 52.17 51.08 53.09 53.13 52.09 53.46 53.98 53.84 61.19 60.25 55.70 52.21 47.58 50.56 53.59 52.43 53.52 54.12 53.12 50.50 51.12 50.85 54.85 57.03 58.77 59.40 59.47 63.83 69.11 70.65 70.87
55.10 53.26 54.03 46.36 46.44 49.00 51.20 51.58 49.32 49.10 50.82 52.40 50.58 50.93 50.81 50.19 50.91 50.89 53.04 53.60 53.20 58.66 55.91 56.25 53.12 53.46 52.71 53.12 53.53 53.14 53.22 53.26 51.92 52.70 50.44 52.38 54.07 56.18 56.37 55.72 57.20 60.97 70.84 70.51 70.83
51.24 52.17 54.50 52.24 53.30 51.01 48.83 49.79 49.28 50.65 51.16 49.75 49.85 51.27 51.62 50.38 52.14 51.21 52.25 53.53 52.14 54.15 54.53 57.07 53.36 53.80 51.50 53.64 53.33 51.39 52.33 52.80 52.43 52.87 53.52 53.43 54.46 58.96 58.01 58.29 57.83 60.96 69.24 70.36 70.69
54.23 55.14 53.43 50.77 50.74 50.26 49.58 49.35 49.71 52.17 52.35 53.78 52.92 51.62 50.97 52.70 55.53 57.38 58.01 58.80 58.77 56.55 56.79 56.96 55.00 53.31 48.95 53.01 52.63 49.71 51.70 52.40 53.26 54.24 53.51 52.03 57.86 59.06 56.87 58.19 58.40 67.76 69.64 69.15 70.19

GFSSW_sfc_wetblb_027.txt.gz
Wetbulb
58.73 58.81 59.19 59.46 59.66 59.92 59.76 59.85 60.02 60.18 60.03 60.24 60.25 60.60 60.73 60.68 60.13 61.26 59.19 63.17 63.87 68.74 68.44 57.23 60.20 61.02 58.08 56.66 58.34 64.74 56.94 54.38 55.99 57.53 57.98 60.39 61.47 65.32 66.77 64.73 67.99 69.68 68.42 69.75 71.93
58.23 58.16 58.48 58.81 59.14 59.22 59.06 59.30 59.36 59.42 59.55 59.76 59.95 60.45 60.73 60.60 61.56 61.26 67.16 69.75 68.98 67.52 54.29 59.04 58.93 56.56 52.39 54.27 62.29 60.25 56.32 57.31 60.88 58.28 56.15 59.50 62.53 63.32 61.94 61.70 62.58 68.21 70.39 71.39 71.92
57.47 57.70 57.84 57.83 58.23 58.73 58.76 58.86 58.93 58.90 58.99 59.35 60.01 60.47 60.55 59.54 62.28 61.78 68.79 69.80 67.98 65.84 57.04 61.52 60.38 57.65 54.45 55.58 60.73 58.20 53.66 58.01 59.50 58.19 58.29 56.41 62.62 64.72 61.74 58.92 61.60 65.99 68.25 70.33 70.56
56.97 56.97 57.14 57.33 57.58 57.80 58.18 58.55 58.45 58.45 58.78 59.30 60.26 60.92 60.73 60.12 56.62 61.65 69.35 69.20 68.40 64.49 61.47 61.41 57.95 53.91 53.09 54.08 62.43 56.63 58.82 60.27 57.91 57.75 58.97 57.88 58.57 62.83 63.48 63.41 64.67 69.06 69.73 70.30 69.78
56.25 56.30 56.55 56.58 56.82 57.21 57.40 57.50 57.83 57.81 58.45 59.47 60.86 61.28 57.96 57.78 62.09 64.28 70.06 67.83 63.84 61.86 61.16 58.65 56.20 54.62 52.87 55.90 59.65 57.14 59.36 59.50 58.31 58.97 58.43 60.54 59.30 60.34 63.99 66.12 65.80 69.75 70.25 69.52 69.28
55.67 55.83 55.90 55.93 56.36 56.82 57.11 57.39 57.09 57.35 58.30 60.18 61.35 59.64 59.19 55.58 63.61 61.70 61.33 60.26 61.05 61.13 57.63 58.32 57.73 57.85 55.45 55.83 55.69 58.73 58.15 57.84 58.50 59.16 61.37 58.55 59.50 61.92 64.85 66.93 66.91 68.45 69.06 69.57 69.68
55.23 55.29 55.61 55.58 55.75 56.19 56.62 56.84 56.67 57.14 58.65 60.99 61.75 60.92 58.04 56.20 63.82 61.61 61.77 59.63 60.97 57.97 56.02 59.72 59.86 56.23 55.64 53.49 58.61 58.02 54.10 55.94 57.09 58.05 57.51 58.76 56.11 58.72 64.13 68.31 68.35 69.11 69.41 69.81 70.14
54.85 54.85 54.95 55.10 55.52 55.75 56.04 55.76 56.21 56.94 59.37 62.58 62.42 59.75 56.88 61.98 61.05 63.97 62.19 59.97 59.48 57.95 56.99 60.43 59.93 56.73 54.16 56.12 55.61 52.57 51.44 48.45 56.39 58.46 57.83 56.68 50.98 59.48 61.75 64.75 66.12 68.56 69.80 70.08 69.04
54.13 54.27 54.43 54.67 55.26 55.46 55.03 54.82 56.24 57.51 60.64 63.19 59.73 57.45 56.31 63.15 58.10 60.99 61.72 59.67 58.63 57.39 56.91 61.48 56.72 53.30 54.37 49.80 46.73 48.44 44.94 48.61 54.68 58.16 56.67 53.78 52.53 59.32 60.76 62.72 63.72 65.86 66.97 69.60 68.74
54.06 54.26 54.55 54.65 54.75 54.69 54.14 55.35 58.39 58.00 59.96 63.11 62.77 55.24 58.96 57.55 57.46 58.66 61.52 61.23 58.05 56.00 56.10 56.55 53.31 49.39 49.38 45.93 41.52 45.10 46.54 48.94 52.58 56.38 55.64 52.25 51.62 58.10 61.14 62.02 64.70 65.83 67.08 68.90 68.86
53.87 53.93 54.16 54.30 54.26 53.95 52.11 52.59 55.84 56.16 54.60 55.12 54.79 54.69 57.23 59.93 60.07 58.48 61.43 59.71 57.55 53.91 48.88 53.46 47.64 45.48 48.56 49.77 50.74 50.14 48.52 47.98 52.05 54.29 51.46 50.73 51.94 54.06 57.08 58.57 64.79 65.10 66.24 68.04 68.72
53.19 53.56 53.75 53.83 53.38 53.36 51.26 51.46 53.93 53.44 48.79 55.41 56.86 59.24 59.64 59.56 56.00 57.73 60.96 55.00 54.01 49.75 51.50 49.12 46.65 51.40 53.80 54.27 51.11 49.05 47.30 47.14 50.68 54.88 51.89 50.92 51.45 53.55 55.50 57.25 65.75 66.05 66.85 68.43 68.85
53.09 53.21 53.24 52.99 52.66 53.02 52.37 54.34 58.07 54.80 47.90 52.46 54.39 54.08 56.16 55.88 55.69 55.68 57.16 56.23 52.99 50.80 50.61 47.34 51.63 55.23 54.76 51.06 49.42 46.28 45.43 47.51 48.91 52.01 51.09 50.78 49.82 51.85 54.80 58.70 67.04 67.37 67.68 68.93 69.17
52.93 52.84 52.54 51.51 51.40 52.56 53.97 57.43 56.34 56.16 43.68 49.04 49.79 53.08 55.26 55.01 52.06 57.93 59.09 56.75 53.45 50.55 51.39 50.07 54.23 54.22 52.46 51.50 48.94 43.49 52.91 52.68 51.04 47.36 42.82 50.38 40.97 48.31 53.48 55.69 57.90 66.86 66.60 68.62 69.60
52.47 52.33 51.91 50.89 48.93 50.25 54.62 55.17 55.28 53.87 37.51 52.07 50.75 57.02 53.79 51.71 53.49 54.49 59.49 55.81 51.51 51.84 51.60 50.64 51.73 51.22 51.09 50.48 51.42 48.97 54.27 52.98 52.35 46.64 44.12 47.22 42.71 48.19 52.85 54.30 55.91 62.37 65.39 69.36 70.53
51.94 51.78 51.35 52.98 50.68 53.09 55.04 54.61 53.53 43.39 38.94 50.02 52.28 50.27 49.08 50.60 52.27 54.93 55.99 56.06 55.91 53.07 54.46 52.60 56.57 54.04 52.22 53.31 53.00 54.12 51.41 50.60 48.73 44.33 39.16 46.29 44.78 46.50 50.99 53.95 56.28 61.14 63.55 69.00 70.13
51.17 50.66 49.44 52.91 51.90 54.23 54.79 51.30 41.42 38.55 49.96 47.28 47.98 49.24 47.70 47.78 49.46 51.54 53.09 50.18 47.75 45.07 46.74 52.72 52.59 53.62 54.99 50.76 52.43 51.55 44.48 39.38 38.79 38.96 39.78 47.58 46.82 47.14 55.28 56.99 57.51 56.39 67.18 68.26 70.31
50.16 50.01 51.23 53.05 53.17 54.00 52.54 45.38 38.11 46.57 45.86 50.49 50.29 50.09 47.72 48.81 48.81 50.03 51.54 49.19 51.75 50.97 47.76 46.16 45.07 51.30 53.96 50.50 48.97 48.73 45.99 40.27 35.42 36.95 41.42 48.64 43.09 49.24 56.74 58.62 58.08 65.15 66.44 67.98 68.12
49.41 53.55 52.63 54.49 55.01 53.56 47.69 39.50 42.60 48.15 50.52 49.57 49.26 47.82 46.84 49.20 48.91 48.23 49.47 50.45 52.32 52.23 46.26 45.90 48.33 56.34 54.62 54.35 52.04 47.76 43.73 48.69 42.14 41.92 40.57 43.26 49.66 54.30 56.81 58.15 60.09 61.27 61.33 66.38 67.51
48.30 50.82 53.92 56.33 55.81 50.98 44.49 41.67 46.08 50.95 51.11 49.97 46.07 48.76 47.85 47.57 46.44 46.54 48.13 52.16 52.65 54.54 53.32 49.63 46.62 51.50 54.35 53.95 53.80 48.23 50.90 42.79 43.00 37.68 36.86 42.76 45.84 46.60 52.09 54.28 57.55 59.55 60.06 64.41 67.08
50.79 50.72 54.65 57.02 54.91 47.67 40.43 42.84 47.94 51.41 51.86 48.91 46.64 47.25 48.80 48.48 48.39 46.48 47.67 52.73 54.18 53.86 53.76 50.17 48.28 49.80 54.61 48.53 47.80 47.97 45.13 46.74 43.86 42.51 37.69 37.21 42.16 53.97 53.74 55.55 55.52 57.19 59.98 64.75 66.34
52.47 48.42 57.01 55.14 45.16 45.65 41.75 46.43 48.11 48.85 51.10 49.86 50.18 49.11 48.72 50.19 49.19 47.91 48.37 53.01 54.71 54.81 50.19 52.03 48.08 44.15 48.59 53.40 54.37 51.54 48.53 48.16 42.98 41.66 43.85 42.82 44.43 56.32 54.80 56.30 58.27 59.41 62.09 64.49 66.65
48.32 53.12 56.07 53.15 40.10 41.94 45.57 46.33 47.61 47.20 48.23 49.92 49.00 50.34 50.02 48.93 47.50 52.29 52.00 52.73 53.78 53.87 50.09 51.65 45.73 41.08 44.08 48.40 51.41 49.27 50.15 46.94 46.38 45.72 41.40 40.31 44.02 55.65 57.83 56.86 58.91 60.49 63.60 62.26 65.92
48.77 47.65 50.25 50.21 48.46 44.99 45.11 47.10 47.48 50.47 49.94 50.88 50.02 50.70 48.77 48.92 49.12 49.13 50.69 52.62 53.17 53.34 60.48 56.27 49.73 46.89 41.82 45.99 49.18 48.30 50.94 50.80 46.89 41.75 42.59 43.49 47.21 52.30 55.27 54.41 54.54 58.45 60.63 60.89 64.56
51.56 50.63 51.39 43.83 44.76 45.26 46.21 47.90 47.08 47.18 50.50 50.82 49.27 49.06 47.53 44.92 48.62 47.25 50.93 51.48 52.49 56.00 52.65 51.79 45.78 47.43 49.73 50.72 50.35 50.17 51.26 52.02 48.42 48.33 44.32 45.94 50.14 52.13 53.82 56.92 58.45 58.71 60.99 60.32 61.38
48.76 47.14 49.30 48.09 51.38 46.91 47.46 45.30 48.08 49.23 49.39 47.50 47.92 49.88 48.99 45.67 47.68 48.94 51.88 51.51 51.32 51.93 49.59 50.37 45.74 46.72 48.02 51.81 51.13 50.07 51.49 51.99 50.80 50.09 48.36 50.71 51.86 53.57 56.24 56.99 57.99 60.44 61.24 60.95 60.25
52.33 51.06 48.82 48.27 48.47 47.60 47.46 48.84 48.69 50.06 51.78 52.11 50.52 50.63 49.41 52.88 54.72 53.62 52.60 53.13 52.07 50.08 52.02 49.50 47.65 45.33 42.90 50.94 49.97 45.38 49.87 51.17 51.24 53.29 51.66 45.57 51.75 56.12 55.12 57.83 57.90 58.62 58.72 61.36 61.18

GFSSW_sfc_wetblb_030.txt.gz
Wetbulb
58.30 58.29 58.45 58.58 59.13 58.85 59.00 58.95 59.15 59.24 59.22 59.36 59.58 60.29 60.39 60.43 60.10 60.44 55.60 62.57 62.73 67.89 67.12 54.07 58.69 58.80 57.92 54.17 57.47 63.99 54.09 53.26 54.92 56.47 56.90 60.07 61.63 65.23 67.21 66.30 68.73 68.91 67.98 69.25 72.77
57.72 57.67 57.82 57.98 58.41 58.78 58.98 58.89 59.14 59.20 58.94 59.17 59.56 60.37 60.55 60.39 59.93 60.06 67.30 67.70 67.75 66.46 52.52 55.76 58.72 58.00 51.96 52.71 58.76 58.01 51.73 54.45 59.11 59.29 58.54 61.85 62.80 61.53 62.48 65.67 66.00 66.80 69.34 70.85 71.81
57.15 57.20 57.35 57.58 57.69 57.91 58.46 58.56 58.72 58.61 58.72 58.79 59.58 60.54 60.66 59.61 61.13 63.19 68.21 67.53 66.85 63.64 55.18 56.47 59.61 56.99 52.50 53.48 58.96 57.64 55.11 58.38 60.88 62.15 60.41 60.37 61.81 62.83 60.39 60.53 65.21 64.87 67.29 69.51 69.68
56.55 56.75 56.82 57.08 57.15 57.43 57.70 58.14 58.22 58.25 58.25 58.58 59.81 61.05 60.80 58.89 55.16 61.14 69.30 67.31 67.79 61.23 60.51 60.13 58.11 52.85 51.38 51.38 57.50 54.51 57.41 58.72 58.22 57.20 57.51 59.45 61.94 61.49 61.19 60.58 68.41 68.47 69.05 69.36 68.28
56.11 56.13 56.20 56.30 56.51 56.82 57.22 57.28 57.62 57.57 57.86 58.43 60.43 61.25 56.24 54.67 59.89 65.16 68.51 66.86 60.51 60.00 59.85 59.12 54.68 53.75 51.09 52.98 57.96 56.31 57.58 58.38 59.32 58.23 57.35 59.89 58.56 61.62 62.46 63.97 69.65 69.74 69.40 68.63 68.32
55.59 55.44 55.55 55.70 56.12 56.53 56.85 57.24 57.09 57.14 57.65 58.56 61.04 60.60 56.54 52.87 62.34 62.53 57.47 58.22 58.29 58.97 58.64 56.29 55.44 56.29 53.41 52.77 52.85 56.30 56.53 56.25 56.24 57.58 59.72 57.70 59.23 62.57 63.76 67.76 68.19 68.79 68.26 68.87 68.79
55.03 54.99 55.03 55.48 55.74 56.10 56.67 56.65 56.61 57.02 57.51 58.35 61.94 60.73 56.72 50.41 60.67 59.03 58.18 56.25 58.35 58.52 54.26 55.45 57.79 54.90 54.03 52.11 55.29 54.42 52.90 54.14 55.35 56.03 56.98 56.68 54.71 58.59 63.81 67.81 67.24 67.58 68.21 68.76 69.30
54.43 54.58 54.68 55.10 55.27 55.61 55.89 55.92 56.29 57.18 58.25 59.13 62.62 58.08 51.31 61.91 59.72 61.05 59.14 59.46 59.26 56.76 55.21 55.72 57.49 54.58 53.23 54.20 52.36 49.92 48.67 46.36 53.32 56.52 57.04 53.53 47.92 58.24 64.87 65.83 65.40 67.42 67.98 68.40 68.96
54.04 53.95 54.18 54.42 54.90 55.29 54.98 54.88 56.64 58.37 58.93 60.80 57.52 55.63 54.39 63.76 56.94 59.53 60.17 58.64 57.37 56.21 55.24 58.21 54.67 51.01 52.33 47.96 45.03 45.18 42.65 45.47 49.70 56.87 56.07 52.28 49.52 57.57 64.79 65.67 65.32 66.60 67.43 67.89 68.37
53.72 54.00 54.25 54.43 54.57 54.64 54.21 55.18 56.41 57.81 58.95 60.78 62.18 50.14 55.73 56.70 56.21 56.82 60.09 60.28 57.41 54.27 53.92 54.60 51.11 47.45 46.50 44.35 39.94 42.88 43.86 46.38 49.63 54.28 53.97 51.02 49.75 53.84 59.70 65.66 65.92 66.52 67.12 67.31 67.65
53.68 53.80 54.06 54.13 54.17 53.86 51.29 49.10 49.83 49.99 51.76 51.80 51.76 52.30 55.34 59.15 57.72 55.29 59.11 58.58 56.20 52.55 46.22 49.74 46.61 43.82 46.41 47.48 48.74 47.80 45.91 45.59 49.10 54.46 51.51 49.27 50.05 51.99 57.66 62.15 62.77 64.37 66.02 66.30 66.97
52.89 53.20 53.57 53.68 53.19 53.29 49.26 48.08 51.57 50.49 46.22 52.60 54.88 55.76 58.27 59.06 54.24 56.06 59.25 53.69 52.99 48.08 49.87 46.49 44.16 49.18 51.63 51.57 49.34 48.15 45.78 44.69 48.29 53.12 49.98 48.47 49.97 52.06 54.10 62.23 63.61 65.62 65.67 66.26 66.47
52.62 53.22 53.08 52.72 52.53 51.12 48.16 50.06 54.10 52.22 44.27 49.70 52.06 51.41 52.63 55.52 54.47 54.10 55.84 54.36 51.47 48.79 48.37 45.88 48.44 53.79 52.70 50.23 47.77 43.71 43.26 45.14 46.01 50.03 48.27 49.16 47.31 48.77 53.14 62.15 64.26 66.77 67.29 67.59 67.10
52.83 52.88 52.41 51.31 49.59 47.46 49.12 52.63 50.66 51.62 40.51 46.02 48.22 51.09 52.41 53.48 50.46 57.42 56.27 55.34 52.09 48.68 50.42 48.45 51.56 51.48 50.77 50.38 47.98 41.26 49.13 51.97 50.09 45.39 41.32 47.68 39.15 45.81 49.66 58.48 62.85 65.04 67.01 67.21 69.31
52.50 52.40 52.00 51.43 44.70 45.48 51.58 52.50 51.22 50.57 32.59 51.17 47.93 53.79 51.61 50.65 51.56 52.79 57.19 54.85 50.82 50.34 50.31 48.87 50.85 49.63 49.81 49.86 49.59 46.09 52.03 50.47 50.02 44.12 41.93 43.69 41.16 44.47 52.58 54.36 56.35 62.80 66.23 67.65 70.20
52.05 51.76 51.22 49.41 46.32 48.80 52.26 49.95 49.48 41.10 35.34 47.83 50.00 48.19 47.21 48.13 50.82 52.87 54.52 55.43 55.46 52.06 50.70 50.67 54.89 52.99 50.86 52.01 50.77 53.10 49.21 47.20 45.25 41.44 37.72 42.76 43.83 43.21 48.27 53.18 58.77 63.42 66.59 68.13 69.36
51.12 50.76 48.92 49.92 46.23 49.55 49.24 47.17 38.66 35.11 46.92 44.38 44.68 46.80 45.48 45.39 47.86 49.17 51.45 49.18 46.51 43.48 44.38 50.06 51.60 52.71 53.93 49.58 50.54 48.67 42.20 36.77 36.94 37.48 37.46 44.23 43.13 44.98 51.54 56.06 60.56 59.69 65.69 68.25 69.62
50.26 50.28 48.25 49.31 47.70 48.79 46.87 42.29 33.65 43.10 42.89 47.00 45.94 44.91 43.99 45.29 45.64 47.46 49.47 46.72 48.70 48.28 45.08 43.54 43.91 50.63 53.10 49.15 47.15 45.42 43.04 37.83 33.92 34.63 38.92 44.72 40.24 47.53 55.48 57.14 60.68 64.85 64.35 61.94 65.85
49.54 46.42 46.40 48.42 50.17 47.99 43.48 35.43 37.61 43.86 48.56 47.08 46.04 43.40 43.55 46.20 46.19 45.51 47.23 47.53 49.41 48.58 44.17 43.44 45.82 53.80 53.63 51.99 50.29 45.61 42.66 45.67 40.53 38.73 38.04 40.40 47.36 51.61 55.54 57.28 62.09 62.83 63.65 64.28 66.62
43.52 44.41 45.44 51.71 50.31 45.33 40.10 37.60 40.81 48.19 48.66 46.97 42.56 44.91 42.12 45.21 43.17 42.50 44.65 49.83 50.64 51.54 50.11 46.78 42.99 49.16 53.15 52.32 51.28 47.21 48.14 41.23 38.89 34.98 34.66 39.96 43.28 44.76 50.81 53.30 58.44 56.95 58.52 60.15 66.27
45.97 45.23 50.17 51.58 48.21 42.20 36.08 37.47 43.31 48.17 48.63 45.22 43.35 44.12 45.77 46.10 45.34 41.13 43.60 49.72 52.44 52.27 50.15 46.84 44.44 46.99 50.78 46.53 46.20 46.22 43.85 42.19 40.73 38.79 35.49 34.46 39.64 49.24 51.59 53.79 54.08 56.02 60.34 61.40 62.38
42.71 43.39 51.16 50.18 40.10 37.26 36.70 41.40 45.59 45.25 46.59 45.06 46.46 45.46 45.90 47.65 46.26 46.92 44.08 47.49 52.39 52.35 48.04 48.09 44.21 41.95 45.64 51.33 52.28 47.37 45.40 42.24 40.17 38.26 39.17 39.00 41.35 53.21 53.29 54.66 55.81 57.66 62.26 63.21 62.59
39.44 45.37 50.67 47.74 34.95 34.58 39.00 43.52 44.25 43.58 44.19 44.09 45.44 48.00 47.15 46.37 44.19 48.52 48.96 51.04 53.63 51.50 49.76 48.39 41.88 39.12 42.81 45.38 49.19 47.08 48.14 43.99 41.80 39.70 38.68 37.17 39.52 52.98 54.57 55.96 59.06 59.20 59.56 60.32 61.60
41.82 43.19 43.65 44.03 40.37 38.80 36.64 41.63 43.63 49.91 46.30 46.34 45.83 47.04 44.98 44.35 45.85 44.93 47.10 51.81 51.88 51.84 58.96 53.69 44.02 42.12 39.24 42.26 46.50 45.74 48.18 48.40 43.73 39.49 39.46 41.11 44.22 49.84 52.52 54.46 57.46 57.57 59.57 59.73 60.50
43.65 44.28 43.08 39.26 39.78 39.71 38.65 41.93 41.97 42.85 47.98 46.53 44.33 45.65 42.95 39.83 43.12 46.19 48.88 50.18 52.19 54.12 50.05 47.54 43.52 44.42 45.30 48.72 48.37 48.45 48.99 49.40 46.12 45.41 42.72 46.50 46.22 50.11 52.71 53.49 57.43 57.00 57.23 57.79 58.02
41.30 40.06 41.98 41.01 44.03 43.39 40.60 40.18 43.04 44.40 45.70 44.74 44.50 47.19 48.60 45.14 45.27 45.04 47.99 47.47 47.08 51.30 45.46 45.57 42.92 44.28 43.20 50.73 49.92 48.63 50.13 50.34 49.89 51.24 47.32 49.04 48.60 52.15 54.73 54.28 57.67 57.83 60.09 60.41 61.84
44.29 44.96 42.27 41.75 41.10 41.29 43.56 45.48 46.46 46.52 48.66 52.35 50.84 47.64 48.21 49.84 50.89 50.25 47.44 47.93 48.44 48.10 48.04 47.82 43.46 40.92 38.21 48.05 48.68 43.25 47.99 48.97 51.07 53.52 50.84 45.16 48.99 53.42 54.29 54.66 54.42 57.28 58.93 59.60 60.76

GFSSW_sfc_wetblb_033.txt.gz
Wetbulb
57.94 57.94 58.10 58.17 58.42 58.37 58.62 58.50 58.81 58.78 58.84 58.92 59.39 59.96 60.44 60.49 59.81 59.37 51.99 60.46 61.98 67.35 67.50 52.85 59.84 58.58 55.86 53.34 56.65 61.37 52.40 50.39 52.61 54.52 55.52 57.85 59.60 65.15 67.19 65.58 67.75 68.20 66.86 68.43 71.17
57.33 57.41 57.55 57.69 57.89 57.99 58.23 58.45 58.60 58.63 58.35 58.60 59.12 60.26 60.73 60.54 58.61 59.16 65.13 67.99 66.37 65.83 51.44 56.26 56.22 57.30 51.58 51.36 56.52 53.77 51.07 52.07 56.43 57.37 56.73 60.98 61.54 62.96 64.05 64.45 64.80 66.08 70.03 71.83 72.18
56.89 56.87 57.12 57.20 57.44 57.71 58.22 58.42 58.57 58.37 58.33 58.32 58.97 60.45 60.99 60.18 59.57 61.42 70.85 67.65 66.99 62.31 53.94 55.57 58.08 55.90 51.45 51.72 57.96 55.69 52.69 56.67 59.21 60.32 60.08 57.80 60.82 61.08 63.58 60.68 63.95 64.34 68.38 70.60 70.57
56.39 56.44 56.58 56.76 57.19 57.26 57.56 57.62 58.06 57.96 57.75 58.04 58.90 60.76 60.48 58.31 53.38 60.49 70.03 68.12 66.34 58.34 59.23 58.66 56.36 51.32 49.82 50.03 54.32 54.61 57.16 57.29 58.20 57.09 59.04 57.57 60.57 59.45 61.85 61.87 67.41 67.86 69.80 70.55 69.64
55.83 55.71 55.84 56.17 56.48 56.73 57.03 57.19 57.21 57.58 57.58 57.90 58.62 61.20 54.74 52.22 57.53 65.19 70.17 65.71 58.63 58.60 58.16 57.02 53.46 52.91 50.27 51.13 53.54 55.03 56.39 57.02 58.16 56.83 56.13 59.51 60.17 60.39 60.07 66.98 68.43 68.88 68.64 69.38 69.49
55.21 55.17 55.30 55.61 55.88 56.14 56.44 56.79 57.02 57.20 57.50 57.66 59.00 61.20 54.26 47.67 60.77 61.75 56.14 56.43 56.23 57.28 57.18 56.57 53.75 54.97 52.52 51.81 51.31 54.24 53.97 54.69 54.85 56.47 57.74 56.67 58.04 61.37 62.50 67.74 67.26 67.79 67.45 67.95 68.96
54.80 54.72 54.87 55.13 55.28 55.58 56.21 56.44 56.54 57.03 57.48 57.76 59.15 60.38 54.89 48.18 59.67 57.74 54.32 54.27 56.77 56.98 55.00 54.46 55.80 53.63 53.50 51.27 53.42 52.34 50.85 53.01 53.33 54.30 54.82 57.84 55.79 58.13 63.22 67.52 66.28 66.67 67.21 67.67 68.38
54.30 54.47 54.43 54.67 54.89 55.23 55.34 55.70 56.02 57.09 58.23 58.64 60.99 57.66 52.31 57.90 57.49 58.32 56.54 57.93 57.96 56.28 55.08 55.15 55.16 52.70 52.24 53.36 50.93 47.86 46.85 45.22 51.90 53.78 54.20 53.87 48.01 58.36 65.44 65.98 65.30 66.36 67.10 67.53 67.61
53.84 53.92 53.98 54.10 54.65 54.86 54.65 54.77 56.04 58.08 58.58 60.61 56.24 55.75 51.81 61.84 56.75 58.30 58.78 57.32 56.99 56.35 54.29 57.13 53.71 49.50 50.84 46.45 44.34 44.35 41.34 43.57 47.07 52.66 54.22 52.23 48.27 58.26 64.88 65.38 64.39 65.68 66.51 67.11 67.49
53.57 53.73 53.90 54.14 54.43 54.18 54.08 55.06 55.86 57.50 58.09 60.11 60.64 46.35 51.92 54.42 56.83 57.09 59.08 59.02 56.62 53.62 52.20 52.28 48.73 46.03 44.79 43.85 39.33 41.62 41.99 43.52 45.73 51.91 52.56 49.48 48.48 58.11 62.93 64.53 64.22 64.93 65.77 66.32 66.91
53.18 53.61 53.85 53.86 53.88 53.83 51.31 48.29 49.20 47.62 49.59 48.56 48.25 48.57 53.08 57.18 57.67 53.62 57.87 57.04 54.62 51.25 44.82 47.56 45.31 41.86 44.02 46.20 47.25 46.34 44.38 43.70 46.59 50.78 51.09 48.56 48.43 50.83 61.54 62.56 63.10 63.62 64.31 65.32 66.64
52.60 53.16 53.34 53.45 53.04 53.08 48.71 48.24 49.07 47.04 44.58 50.43 52.15 54.01 56.07 57.15 53.88 54.32 57.94 53.11 51.62 46.40 48.33 45.35 41.79 46.91 49.77 49.70 48.25 46.47 43.29 43.21 46.32 50.49 48.44 47.09 48.70 50.59 56.72 62.28 64.14 64.20 64.75 65.43 65.46
52.45 52.89 53.08 52.76 52.29 48.92 45.61 48.08 50.38 48.36 43.42 47.93 50.36 49.83 50.46 54.27 52.39 53.72 55.59 53.56 49.70 47.20 46.55 43.80 47.04 51.58 50.98 49.14 47.61 42.84 41.71 43.44 44.93 47.64 47.44 47.08 45.66 46.66 50.85 58.96 62.03 64.36 65.66 66.25 66.31
52.37 52.56 52.53 51.22 47.89 45.13 47.60 50.34 50.18 47.33 38.89 43.65 46.57 49.66 50.96 53.00 49.76 57.20 56.42 55.03 52.11 48.39 48.24 46.69 50.17 50.13 49.01 48.88 47.26 41.76 47.11 49.37 48.24 44.63 40.81 45.22 38.17 43.67 50.94 57.40 61.87 63.62 64.37 65.31 66.26
52.11 52.05 51.77 50.95 44.67 44.98 48.35 49.58 48.26 48.01 31.15 46.51 46.00 51.91 48.14 50.77 50.12 51.51 55.63 53.09 49.68 48.84 47.31 46.61 48.72 49.65 49.20 48.91 48.59 46.07 49.73 48.52 47.93 42.46 39.82 42.51 39.10 42.60 51.80 55.21 59.44 62.81 64.54 65.57 68.05
52.15 51.59 51.22 47.98 43.90 48.07 49.87 46.96 48.12 39.35 32.95 45.15 47.83 45.84 46.09 46.70 49.23 51.31 52.12 54.03 53.58 49.88 48.59 48.18 52.44 52.19 51.30 51.58 49.75 50.67 47.38 44.90 42.50 39.70 36.68 40.64 40.23 41.71 49.37 53.07 57.43 63.00 65.56 67.83 69.00
51.29 50.87 49.02 48.61 42.92 46.91 46.68 46.12 37.13 33.39 44.03 43.45 42.33 42.97 43.23 44.27 46.46 47.91 48.71 47.21 45.59 41.33 41.60 48.15 49.40 52.60 53.07 48.16 48.97 46.58 41.00 35.41 35.75 35.91 36.65 41.43 41.74 43.43 50.58 54.80 60.73 64.17 65.78 63.85 62.04
50.27 50.52 48.45 48.30 45.67 46.52 45.56 42.22 30.99 39.59 41.03 45.60 44.88 42.36 43.03 43.54 44.19 45.91 46.68 45.28 48.08 47.55 43.99 41.93 42.60 50.58 52.24 47.94 45.71 43.38 41.74 36.64 32.40 33.12 37.12 42.31 38.38 45.99 54.44 56.72 63.89 64.16 63.95 59.19 60.27
49.67 44.62 44.95 47.13 49.01 45.39 42.91 34.05 36.10 40.89 46.84 45.28 44.66 41.24 40.44 43.88 44.34 43.95 44.06 45.07 48.00 48.30 43.22 42.20 44.66 52.07 52.62 51.36 49.64 44.96 41.33 42.84 37.88 34.86 36.24 38.78 45.38 50.71 58.65 60.45 61.48 57.89 58.91 58.33 60.58
42.88 43.99 43.64 48.99 48.13 43.79 39.29 35.99 38.89 45.31 46.54 44.90 40.49 42.45 40.06 42.39 42.14 41.60 42.49 47.39 48.03 50.06 48.70 45.70 41.73 47.06 51.79 50.62 49.37 46.44 46.66 40.04 37.28 33.96 32.60 37.41 39.04 43.59 52.09 55.55 56.02 57.28 57.16 59.34 61.52
44.77 44.08 48.41 48.63 45.23 41.04 34.74 35.83 41.02 45.89 46.19 43.29 40.99 41.43 42.57 43.56 42.41 39.90 42.03 46.59 50.21 49.56 48.38 45.00 42.94 44.94 48.72 45.37 45.24 44.81 42.17 39.97 38.84 37.12 34.20 33.15 38.45 46.40 51.41 53.74 54.41 56.63 58.88 59.92 61.40
41.94 41.20 48.16 45.91 38.46 33.32 35.12 39.29 44.47 42.79 43.89 43.12 43.59 42.89 42.71 44.43 43.16 44.23 41.87 46.09 50.92 50.23 46.71 46.44 42.27 40.08 44.54 48.85 49.87 46.18 43.04 40.95 38.34 37.84 36.41 36.68 38.80 50.91 51.15 53.50 54.53 55.11 60.18 60.44 62.65
38.79 41.43 49.51 45.62 35.15 33.29 36.53 40.94 43.23 41.63 41.95 41.49 42.46 45.54 44.79 42.73 42.18 46.25 47.23 50.02 50.71 49.31 46.99 46.65 40.94 38.30 41.74 44.42 46.81 46.50 45.51 42.71 39.47 37.63 36.24 36.30 39.53 51.62 52.60 53.71 55.80 57.12 59.82 60.36 62.41
42.18 42.37 42.42 41.86 37.90 37.12 35.29 38.26 41.12 47.91 45.12 44.45 43.34 43.73 42.85 42.95 44.90 44.36 46.28 50.24 50.81 52.43 58.42 51.74 40.24 41.39 39.90 41.84 45.17 44.30 46.82 45.60 41.26 38.06 37.73 39.26 41.53 48.61 51.94 53.37 56.36 56.32 56.66 58.34 60.71
43.43 41.41 41.64 38.59 38.98 38.93 37.91 39.15 39.55 40.21 45.48 45.39 41.50 43.77 41.91 38.61 42.74 44.38 48.28 50.33 52.09 54.86 48.00 46.07 42.53 41.78 42.88 47.12 47.40 46.92 47.67 47.59 43.53 42.61 41.08 42.80 43.02 45.94 51.39 53.26 55.94 55.56 56.54 57.92 58.48
39.60 38.60 40.95 38.63 40.70 41.09 39.96 37.79 40.27 41.42 42.22 43.66 41.38 47.47 46.42 43.79 44.59 42.77 44.96 45.62 45.74 50.06 44.29 44.11 42.26 42.10 41.84 48.76 48.66 47.29 48.34 48.99 49.21 50.53 46.66 47.41 46.00 50.90 52.28 54.01 55.88 56.03 57.85 59.02 60.00
41.83 43.69 41.29 40.57 38.79 37.43 38.79 40.50 42.44 44.18 46.31 51.28 49.71 47.32 46.55 48.42 50.01 48.37 47.95 46.23 47.24 46.79 47.95 46.63 41.78 39.67 37.36 46.67 46.08 40.89 46.84 48.54 51.53 52.43 49.99 43.27 47.40 52.28 51.29 54.11 55.19 55.98 57.18 57.72 59.86

GFSSW_sfc_wetblb_036.txt.gz
Wetbulb
57.85 57.76 57.91 57.98 58.11 58.34 58.35 58.44 58.67 58.84 58.69 58.84 58.89 59.69 60.54 60.68 59.99 58.16 50.61 58.14 60.81 66.31 68.34 52.94 57.28 57.41 53.92 52.11 60.02 59.35 51.33 49.74 51.54 53.27 54.38 57.61 60.20 64.80 66.59 65.16 67.26 67.91 66.80 68.18 70.94
57.15 57.22 57.45 57.55 57.82 57.87 58.26 58.23 58.47 58.65 58.50 58.71 59.00 59.65 60.76 60.69 57.98 57.94 64.99 69.59 67.84 66.28 50.93 55.25 54.85 56.12 51.48 50.67 56.64 52.66 48.49 51.13 55.00 56.22 55.44 60.16 61.51 62.71 62.92 63.40 64.13 67.17 68.59 69.81 71.20
56.74 56.73 56.86 57.10 57.48 57.49 58.03 58.14 58.63 58.58 58.49 58.32 58.77 59.60 60.91 59.63 58.32 58.62 71.10 68.00 67.17 62.58 52.51 54.54 56.69 54.45 50.39 50.68 56.48 54.05 50.27 55.27 57.35 58.81 58.85 58.69 60.82 61.41 62.24 60.64 63.19 64.96 66.92 69.25 70.17
56.23 56.22 56.39 56.50 56.76 56.96 57.36 57.52 58.20 58.16 58.08 58.16 58.58 59.36 61.02 57.85 51.02 60.22 69.99 67.13 67.27 56.71 57.88 56.94 54.61 50.56 48.83 49.18 52.03 51.64 55.97 57.16 57.09 57.63 58.58 57.38 59.74 59.93 63.71 61.14 66.24 68.91 69.32 69.47 69.08
55.70 55.54 55.70 55.81 56.18 56.50 56.76 56.94 57.56 57.50 57.71 57.86 58.53 59.73 55.56 49.74 54.88 65.45 68.81 66.06 56.34 57.33 56.46 55.31 52.26 51.80 49.34 50.24 51.55 53.30 54.58 55.20 56.01 56.90 56.09 59.17 59.16 59.20 62.54 65.87 68.33 70.14 69.90 68.91 68.79
55.14 55.28 55.22 55.45 55.66 55.95 56.38 56.82 56.90 57.21 57.27 57.85 58.57 60.21 51.88 43.77 58.16 61.72 55.01 54.34 55.23 56.09 55.91 55.13 52.59 53.45 51.06 50.96 49.99 51.88 51.93 52.32 52.95 55.61 55.85 56.58 57.12 59.52 62.68 66.80 67.29 69.12 68.70 69.16 68.96
54.68 54.78 54.86 54.97 55.26 55.41 55.97 56.45 56.37 56.72 57.22 58.08 58.80 59.90 52.20 47.06 58.01 56.96 53.19 52.61 54.97 55.58 54.29 53.53 53.60 52.43 52.24 50.44 51.96 50.28 48.79 50.92 51.76 52.98 53.41 58.17 54.73 56.68 63.87 66.49 65.67 66.60 67.72 69.07 69.41
54.20 54.36 54.32 54.32 54.68 54.95 55.42 55.44 55.62 57.01 58.37 58.57 59.63 56.92 51.44 55.68 57.34 55.88 54.56 55.48 56.37 55.33 54.87 55.93 53.27 51.44 50.68 52.50 49.38 46.84 45.76 43.64 49.56 52.33 53.27 52.96 47.32 56.17 64.91 64.85 64.38 65.69 66.33 67.28 67.76
53.78 53.82 54.01 53.99 54.37 54.76 54.61 54.63 56.21 57.78 58.85 60.90 55.32 54.78 50.00 59.47 55.66 56.46 57.58 56.14 55.75 54.73 53.71 56.28 52.44 48.35 49.54 45.89 43.26 43.48 40.48 42.26 46.12 51.14 51.64 51.96 48.90 53.25 64.65 64.52 63.49 64.80 65.65 66.27 66.37
53.43 53.61 53.88 54.16 54.47 54.14 53.82 54.99 55.32 57.29 57.91 59.82 59.10 44.89 48.85 52.56 55.59 55.53 57.04 58.12 55.51 52.99 51.00 51.35 47.51 45.38 44.44 43.08 39.36 40.98 41.08 42.31 43.56 48.71 51.13 49.56 47.99 57.15 62.69 63.74 63.51 64.03 65.06 65.57 66.13
53.16 53.34 53.69 53.92 53.96 53.61 51.17 48.35 47.79 47.13 47.21 46.65 45.76 45.12 50.37 55.75 56.85 52.52 56.86 56.33 53.42 50.22 43.85 46.21 43.51 40.67 42.45 44.86 45.60 44.96 42.94 42.68 44.90 47.99 49.02 48.16 48.73 50.58 59.65 61.87 62.13 62.67 63.80 64.60 65.70
52.77 53.03 53.16 53.41 53.21 53.17 47.63 46.73 46.31 45.62 43.21 48.71 49.19 51.70 54.02 54.74 51.45 53.38 56.38 52.65 50.05 45.65 46.57 44.10 40.07 45.20 48.20 47.88 46.74 45.31 42.81 41.79 45.31 48.37 47.54 45.99 47.82 50.03 58.21 60.78 62.37 62.67 63.46 64.57 65.30
52.46 52.89 53.15 52.70 52.39 47.38 44.08 46.99 48.35 44.54 41.70 46.55 48.68 48.60 49.56 52.82 50.60 51.55 53.82 51.66 48.20 45.46 44.68 41.95 44.49 49.78 48.81 47.16 46.36 42.21 40.26 41.90 44.28 46.40 45.87 45.95 44.86 46.26 50.73 55.46 59.65 62.94 64.41 65.38 65.69
52.33 52.59 52.64 51.46 46.39 44.71 46.15 47.60 47.14 45.79 36.99 41.70 44.32 48.21 49.72 52.08 49.08 55.99 55.03 53.86 50.38 47.46 46.80 44.85 48.68 48.96 47.85 46.40 46.69 40.69 46.08 47.42 46.91 44.18 40.88 44.29 38.16 43.27 47.13 56.85 60.45 62.29 63.77 64.44 66.17
52.27 52.09 51.86 51.22 42.68 44.56 47.13 46.74 45.59 45.05 30.19 44.04 44.45 49.88 46.69 49.11 49.25 50.47 54.98 52.38 48.97 47.63 46.16 45.07 47.03 46.82 46.87 48.03 47.54 45.87 47.91 47.81 46.08 41.24 39.10 41.63 38.51 42.04 50.50 54.64 57.38 61.57 63.95 66.45 62.99
52.10 51.48 51.38 46.88 42.64 45.63 47.74 45.28 46.40 37.34 31.54 42.75 45.94 43.75 44.43 45.76 47.79 50.32 50.82 52.41 52.19 48.51 47.98 47.13 50.69 49.62 49.55 50.69 48.72 49.17 46.06 43.60 40.94 38.76 36.38 40.30 39.06 40.91 47.00 49.25 52.37 63.83 66.94 65.80 64.21
51.45 50.85 48.90 48.33 41.33 45.17 45.06 44.59 36.80 31.96 41.32 41.70 40.47 41.71 40.68 41.83 45.26 46.66 47.24 45.74 44.16 39.81 39.43 46.05 47.68 50.60 51.74 47.03 47.47 45.36 40.48 35.15 34.87 34.76 35.27 39.55 40.43 43.23 48.47 54.06 58.22 63.98 64.27 66.19 64.74
50.29 50.34 48.93 48.24 45.38 44.90 44.50 41.38 29.38 37.80 38.43 43.59 43.77 41.28 41.58 43.42 43.30 45.30 45.18 43.36 45.37 44.48 41.43 40.44 40.52 48.22 50.46 47.85 44.68 41.98 40.55 36.00 31.46 32.18 36.42 40.75 38.40 46.11 55.46 57.95 64.63 65.70 65.06 60.92 60.82
49.25 44.14 44.13 46.27 48.90 44.71 42.59 33.60 35.03 37.63 44.85 43.60 43.05 39.66 39.06 42.09 43.27 42.51 42.67 42.62 45.67 46.50 41.74 40.53 42.76 51.06 51.58 49.64 48.91 44.31 40.67 41.33 36.17 33.76 35.51 37.90 45.05 50.14 58.91 60.46 60.10 57.85 57.70 58.60 59.90
41.97 44.58 44.87 47.84 47.63 42.84 38.38 35.15 36.60 42.59 44.39 42.68 38.54 40.29 38.38 41.29 39.85 40.27 41.31 44.67 45.42 48.28 46.71 43.90 41.06 45.89 50.25 49.14 48.71 46.59 45.87 40.06 36.92 33.81 31.89 36.42 38.12 43.04 51.66 56.68 57.53 57.23 56.13 58.31 60.85
43.69 42.26 46.21 45.73 42.83 40.41 34.23 33.61 38.96 44.32 44.12 41.49 39.37 39.59 40.61 41.10 40.19 37.95 40.84 44.94 47.91 46.75 47.05 43.54 43.22 44.64 46.42 44.87 43.58 43.58 41.08 38.38 37.78 36.04 33.57 33.10 38.14 44.70 50.80 55.45 55.24 57.55 58.25 59.60 60.49
39.60 39.49 47.87 43.39 37.67 32.09 34.17 37.26 43.33 41.05 42.18 40.53 41.79 41.19 40.71 42.05 41.12 39.35 41.35 43.79 48.83 47.99 45.62 45.49 42.20 40.23 43.97 47.92 49.05 45.70 42.66 40.80 37.92 36.12 35.04 35.72 38.61 48.15 51.58 55.70 56.51 56.94 58.93 60.64 61.71
38.07 40.27 48.06 44.15 34.38 32.57 35.13 39.13 41.12 40.16 40.27 39.29 40.71 43.18 42.92 40.17 38.95 44.26 45.26 48.09 48.78 48.18 45.77 45.68 39.87 37.44 41.14 43.35 46.39 45.78 44.17 40.98 38.18 37.37 36.37 36.59 39.67 50.01 52.24 53.13 54.45 54.63 56.67 60.33 60.75
41.96 39.98 41.61 39.91 35.96 35.01 35.32 37.11 38.57 44.97 42.74 42.61 41.19 41.89 40.69 39.49 41.55 42.34 45.56 48.80 50.45 50.07 58.52 50.99 38.78 40.09 38.33 41.86 44.63 43.97 45.75 43.94 40.82 38.61 37.43 38.58 42.29 46.18 51.78 51.87 53.72 56.68 57.23 59.30 59.55
41.12 38.39 39.43 37.39 37.31 38.19 36.40 38.56 38.26 38.38 42.58 42.90 39.79 41.36 40.34 37.54 41.10 43.28 46.96 48.61 50.78 53.32 46.46 45.15 41.19 40.07 41.86 45.17 46.24 46.46 46.71 45.79 43.44 42.30 41.88 43.26 42.32 46.23 48.08 51.87 53.87 55.28 57.14 57.70 57.95
38.35 37.05 38.80 36.95 39.12 38.58 37.99 38.71 39.65 40.60 39.53 40.71 40.47 42.91 43.43 42.43 43.65 42.88 44.14 44.61 45.52 49.23 43.49 43.57 41.01 42.21 42.00 47.93 48.15 47.18 48.09 47.58 48.35 46.26 45.58 46.95 45.61 48.31 52.23 53.95 56.24 55.68 56.86 58.11 59.84
39.89 40.70 38.65 39.52 39.19 38.08 37.76 40.82 41.31 41.33 44.77 46.47 49.36 45.33 45.04 47.53 48.71 46.76 46.68 44.69 45.86 46.18 48.12 44.95 41.84 39.89 38.33 46.71 45.47 41.38 46.30 48.53 50.80 51.99 49.62 44.61 47.35 52.07 51.53 54.19 54.68 56.16 56.79 57.20 58.43

GFSSW_sfc_wetblb_039.txt.gz
Wetbulb
57.99 57.71 57.84 58.06 58.23 58.34 58.57 58.69 58.89 59.12 59.15 59.21 59.37 59.63 60.01 60.84 60.44 61.48 54.68 61.22 64.13 68.53 68.85 57.09 60.44 59.78 60.50 57.62 64.85 63.59 59.05 57.05 56.90 57.53 58.91 64.00 63.94 66.18 68.36 66.90 67.78 68.86 68.64 70.89 73.45
57.27 57.15 57.28 57.57 57.71 57.95 58.25 58.38 58.74 58.82 59.06 59.03 59.15 59.52 59.81 60.94 61.07 62.26 68.22 69.84 68.05 66.93 54.61 57.26 58.19 59.00 57.09 57.09 61.80 58.33 58.88 56.21 59.00 60.51 60.53 63.19 64.40 65.27 66.03 65.55 66.14 67.69 70.65 72.55 72.88
56.59 56.65 56.81 56.97 57.26 57.40 57.99 58.38 58.48 58.69 58.66 58.74 59.09 59.48 59.88 60.87 62.18 61.45 72.00 68.61 67.31 63.65 55.41 57.62 59.68 57.55 56.23 57.18 60.77 59.19 57.32 59.37 60.61 61.69 62.28 63.40 64.22 67.04 65.52 63.88 66.66 67.21 69.03 71.27 71.98
56.09 56.30 56.47 56.58 56.86 57.08 57.25 57.82 58.03 58.10 58.22 58.21 58.83 59.51 60.55 60.83 53.80 63.36 71.17 68.96 67.27 61.21 60.89 59.31 58.05 56.24 55.67 54.85 56.17 55.80 58.95 60.37 60.57 61.65 61.96 62.51 65.09 64.50 66.39 65.66 67.70 69.96 71.00 71.55 71.32
55.57 55.76 55.88 55.97 56.14 56.30 56.67 56.85 57.60 57.48 57.53 57.95 58.79 59.53 60.57 53.44 56.88 67.05 70.03 67.23 59.42 60.30 59.46 57.96 56.82 56.48 55.20 55.36 56.13 57.37 57.55 58.05 59.44 60.06 61.55 62.97 63.46 63.99 65.24 67.87 70.04 70.59 71.00 71.15 71.41
55.11 55.26 55.28 55.51 55.74 56.09 56.52 56.88 56.98 57.23 57.19 57.90 58.83 59.51 56.30 49.17 60.59 64.51 57.48 57.56 58.42 60.43 58.97 57.68 56.19 57.18 55.79 55.26 54.94 55.23 54.93 55.58 56.96 58.44 59.83 58.85 60.41 63.47 64.77 69.69 69.85 69.95 70.29 70.95 71.22
54.78 54.76 54.88 54.99 55.28 55.60 56.17 56.36 56.34 56.85 57.64 58.43 58.87 60.71 56.23 52.31 61.03 60.70 57.28 57.80 59.29 60.10 58.40 57.84 56.82 56.38 56.72 55.40 55.79 54.59 54.41 56.57 57.00 57.70 58.07 61.05 58.87 60.74 66.46 69.21 69.06 69.12 69.97 70.57 71.50
54.40 54.42 54.52 54.77 54.88 55.14 55.54 55.51 55.73 57.18 59.28 58.91 59.09 60.98 53.89 58.82 61.98 58.37 58.23 60.07 60.75 60.41 59.60 59.77 57.49 56.55 56.08 56.29 53.90 52.37 53.34 52.26 53.71 55.45 56.69 60.06 54.52 60.22 66.74 67.59 67.85 68.53 69.50 70.18 71.26
53.84 54.03 54.17 54.35 54.70 54.88 54.69 54.73 56.48 58.05 60.49 61.12 61.42 59.61 51.68 60.94 58.70 60.53 61.32 60.23 60.07 59.88 58.25 57.69 57.67 54.46 54.93 53.46 53.01 51.98 51.14 49.53 51.60 55.90 54.82 57.09 55.24 57.81 67.09 66.97 66.83 67.95 68.91 69.75 70.70
53.55 53.73 54.00 54.16 54.51 54.46 53.94 55.35 56.99 58.89 59.88 60.96 60.16 52.23 52.79 54.86 58.19 58.09 60.89 60.99 59.29 56.83 55.06 56.20 54.94 54.10 53.45 52.92 49.74 49.53 48.91 49.53 49.84 52.80 54.60 55.24 55.41 59.33 65.85 66.60 66.67 67.48 68.25 68.89 69.35
53.24 53.56 53.95 54.06 54.08 53.71 53.84 54.69 53.98 53.66 53.28 53.51 51.66 49.16 50.88 57.66 58.56 56.76 60.38 60.11 57.28 55.57 51.24 52.11 50.90 48.68 51.38 51.72 50.85 50.34 49.47 48.67 51.23 51.80 53.19 54.06 55.15 54.88 64.30 65.90 66.03 66.88 67.69 68.51 69.17
53.05 53.24 53.50 53.71 53.43 53.43 52.06 51.54 50.31 50.35 49.32 52.01 51.53 52.31 54.85 56.88 53.20 56.09 60.14 56.09 54.73 51.44 51.35 50.47 48.11 50.39 51.33 51.24 50.82 50.59 49.39 49.33 51.40 52.70 53.56 52.90 52.98 54.96 61.03 64.21 65.33 66.43 67.41 68.40 69.01
52.74 53.11 53.24 53.00 52.59 52.16 50.14 51.65 52.55 51.07 48.89 50.29 51.66 51.73 53.04 55.77 53.14 54.18 57.98 55.92 53.25 50.58 50.01 47.92 49.71 51.34 50.80 50.82 50.39 50.23 49.05 48.79 50.75 52.06 51.78 52.89 52.71 52.74 55.51 63.38 66.28 64.39 68.10 69.08 68.15
52.35 52.74 52.55 51.66 50.14 49.25 51.63 52.40 51.39 51.54 45.89 46.24 48.16 51.33 53.68 54.98 52.39 57.17 58.49 56.88 53.74 50.54 50.24 49.86 51.55 51.03 51.14 50.65 51.35 49.88 51.33 49.74 50.92 51.24 48.71 51.32 47.04 54.70 53.59 61.48 64.76 65.76 67.12 67.63 66.92
52.02 51.84 51.79 51.39 48.26 48.69 51.35 51.84 51.43 50.02 37.73 46.41 48.70 53.75 52.75 52.77 53.03 54.22 57.54 56.78 53.04 51.56 51.14 48.81 50.81 50.81 50.01 51.89 52.44 51.18 51.84 52.25 50.54 50.69 49.60 50.90 49.13 52.68 57.88 57.79 59.31 65.50 67.02 67.12 67.45
51.78 51.43 51.14 48.98 48.04 50.33 51.27 50.82 52.30 44.50 37.13 45.50 49.43 48.59 50.07 51.52 51.37 53.60 54.96 57.00 56.32 52.05 51.69 51.29 53.49 52.70 52.45 52.54 51.92 52.58 51.34 50.48 50.54 49.72 46.08 48.87 48.47 51.50 54.43 56.42 58.36 66.08 67.32 67.41 67.31
51.27 50.79 49.62 50.35 47.33 50.39 50.51 52.53 44.23 38.80 45.68 44.95 46.27 48.32 47.92 48.60 49.80 51.34 52.07 51.79 50.09 47.87 47.96 49.91 50.97 54.04 54.94 51.55 52.26 51.73 50.85 46.30 44.13 44.91 44.62 48.70 48.68 53.24 55.36 59.28 60.23 65.77 67.64 67.63 66.31
50.32 49.95 50.66 50.76 50.84 50.30 51.59 48.52 38.90 42.19 42.85 46.61 47.68 47.41 46.04 47.87 49.39 49.33 50.24 49.43 50.68 50.53 48.17 46.39 45.47 52.13 54.67 53.85 51.95 50.29 50.91 46.59 39.93 42.83 46.37 48.51 48.03 52.95 58.44 63.44 65.11 68.14 69.34 68.52 67.74
49.18 49.42 49.58 50.94 51.72 51.37 50.18 42.38 41.98 42.29 46.72 45.99 47.26 45.56 45.67 46.54 47.77 48.95 49.10 48.86 51.19 52.19 48.73 48.14 47.48 53.67 54.18 53.26 53.61 50.03 49.81 50.37 47.20 45.37 46.31 48.35 52.48 56.81 59.96 62.33 65.21 64.46 66.20 67.68 68.05
47.49 50.69 50.43 51.50 52.17 49.92 47.21 40.95 43.27 44.43 47.18 46.40 43.80 45.78 44.72 46.37 45.91 47.14 47.32 49.76 49.37 52.11 54.47 51.49 47.61 51.58 52.54 53.22 52.38 52.65 51.83 48.30 49.18 43.79 41.76 46.43 47.59 50.30 56.24 60.18 64.34 62.50 63.96 63.35 63.46
49.61 49.25 50.81 51.10 48.98 48.96 42.97 42.58 43.01 46.47 46.99 45.43 44.99 44.80 45.78 45.68 45.97 45.47 46.95 48.92 50.62 50.98 53.09 52.81 50.82 50.20 51.90 51.00 50.73 49.76 49.69 48.24 49.83 47.49 45.36 43.60 47.82 56.26 56.69 59.41 62.63 64.34 62.58 62.85 63.31
47.69 46.99 53.39 48.72 46.08 41.34 42.78 42.46 43.62 44.94 46.13 45.14 46.36 46.08 46.02 46.33 46.68 46.04 46.56 48.60 51.17 52.49 49.80 53.10 51.44 48.17 49.49 52.05 51.74 51.35 51.66 52.42 47.95 46.22 47.18 48.08 48.76 54.08 57.20 59.33 63.32 64.40 64.36 64.43 65.13
48.38 49.37 54.01 50.16 41.35 41.84 42.63 42.93 44.28 44.22 44.54 44.49 44.77 47.17 47.91 46.72 45.71 49.29 48.46 51.49 52.13 52.21 52.04 52.58 50.24 45.99 48.21 50.62 51.52 51.13 49.68 49.74 50.68 51.56 48.59 46.49 49.47 54.99 58.36 58.75 61.35 63.01 62.03 62.03 64.28
49.54 46.38 49.22 47.60 44.44 44.52 43.70 43.65 43.20 46.65 45.21 46.77 45.99 47.21 46.59 46.64 49.65 49.34 50.59 52.04 53.74 52.54 58.19 57.06 51.22 50.78 45.54 49.15 51.63 49.98 49.68 49.91 51.85 49.63 48.47 49.63 51.49 56.26 57.19 58.50 59.24 60.63 61.94 62.43 64.20
46.59 45.19 45.20 44.98 45.16 45.95 45.49 44.19 43.05 43.17 46.51 47.38 47.44 46.83 46.93 46.38 48.74 50.22 52.04 53.17 53.85 55.48 52.80 55.51 52.01 50.05 49.94 49.43 50.57 51.21 50.42 49.30 50.58 52.43 50.06 52.04 51.54 55.73 55.91 57.00 59.17 61.23 61.67 62.47 62.55
45.47 45.21 45.69 45.25 44.56 44.44 42.65 44.16 43.16 44.93 45.43 45.30 46.20 48.49 47.68 47.11 50.80 49.86 51.01 52.20 52.51 54.18 51.94 51.87 50.86 51.06 49.24 50.10 51.01 49.90 51.41 51.09 51.33 50.51 51.77 52.19 53.06 57.74 58.33 59.05 60.34 60.57 61.76 61.88 62.45
46.15 46.99 45.09 43.22 44.06 44.60 43.92 43.46 43.90 45.41 48.77 48.21 48.87 50.92 49.74 49.88 53.75 54.05 54.25 51.99 52.99 53.71 54.26 52.12 50.62 49.90 47.28 50.44 50.45 48.27 51.40 52.98 55.13 55.73 54.91 52.31 55.87 58.33 58.42 59.03 60.63 61.04 60.78 61.37 62.52

GFSSW_sfc_wetblb_042.txt.gz
Wetbulb
57.97 57.84 57.84 58.06 58.34 58.50 58.63 58.90 59.10 59.27 59.61 59.85 59.92 60.06 60.01 60.31 60.73 64.73 57.72 62.30 66.03 69.24 68.84 60.41 61.11 61.56 67.05 62.43 63.06 65.64 60.93 59.58 57.89 58.54 59.51 65.33 64.49 67.53 68.88 68.46 67.76 70.29 69.20 71.83 75.83
57.36 57.34 57.45 57.61 57.89 58.41 58.57 58.75 59.13 59.13 59.13 59.24 59.58 59.88 60.10 60.24 65.81 62.57 67.76 70.99 69.55 67.46 58.91 60.44 60.26 61.23 61.05 59.21 62.79 62.01 60.76 58.63 61.45 62.24 61.41 63.42 64.87 66.50 66.98 67.10 67.69 69.87 72.17 74.31 74.94
56.84 57.02 57.04 57.33 57.34 57.78 58.38 58.46 58.61 58.69 58.75 59.02 59.36 59.99 60.12 61.92 64.87 61.68 71.54 70.53 68.75 64.81 58.81 61.10 62.01 60.91 58.53 60.63 62.34 62.71 60.92 61.30 61.47 62.23 62.87 63.08 64.58 67.36 66.07 64.64 66.37 68.39 70.81 72.79 73.57
56.38 56.52 56.72 56.79 57.05 57.33 57.94 58.11 58.29 58.27 58.32 58.60 59.07 59.97 60.15 64.90 54.70 66.43 70.24 70.01 67.80 64.05 63.05 61.62 61.14 58.81 58.92 59.06 59.71 59.76 61.32 61.91 61.38 62.44 62.49 62.60 65.54 65.69 66.46 66.51 68.21 70.97 72.01 72.57 72.53
56.02 55.94 56.13 56.44 56.55 56.85 57.09 57.37 57.84 57.79 58.01 58.26 59.11 59.95 64.14 58.62 61.47 68.19 70.32 67.16 61.95 62.41 60.49 60.06 59.16 59.04 58.64 59.44 59.42 60.00 59.96 60.28 61.22 61.12 62.23 63.87 63.70 64.83 66.04 68.32 70.42 72.06 71.82 71.91 72.50
55.38 55.52 55.56 55.86 56.23 56.91 57.12 57.14 57.02 57.37 57.73 58.40 59.42 59.01 60.30 53.59 62.62 65.76 60.14 59.59 61.49 61.97 60.25 60.35 59.14 60.18 59.24 58.69 58.99 58.88 58.90 59.21 60.46 60.85 61.81 61.05 61.81 64.78 65.70 69.64 71.07 71.15 70.73 71.83 72.31
55.02 55.02 55.23 55.45 55.77 56.35 56.79 56.63 56.62 57.21 58.11 59.50 59.97 63.16 57.84 54.82 62.60 64.59 61.40 60.53 62.36 62.07 60.11 60.35 60.25 59.10 59.79 58.73 59.15 58.60 58.25 59.87 59.43 59.45 59.91 62.00 60.06 61.34 65.08 70.08 70.26 70.11 70.52 71.20 72.35
54.67 54.71 54.89 55.14 55.40 55.63 56.08 55.87 56.05 57.60 59.47 60.03 59.62 63.97 55.07 60.44 64.10 62.29 63.61 62.07 63.53 63.73 62.13 61.49 60.81 59.59 58.87 59.88 58.51 58.49 58.89 55.84 57.49 56.90 58.71 60.84 56.44 60.51 67.32 68.87 69.13 69.50 70.16 70.45 71.92
54.36 54.48 54.63 55.06 55.32 55.38 55.03 55.05 56.93 58.72 60.38 61.34 64.54 60.82 53.61 62.30 59.23 62.46 63.72 60.42 61.59 62.36 61.40 60.25 60.44 58.25 57.71 57.11 57.01 58.05 55.05 53.71 54.84 57.05 57.00 59.66 57.64 61.07 65.75 67.78 68.29 69.52 70.26 70.37 71.26
53.94 54.18 54.54 54.85 54.83 54.68 54.44 55.51 58.23 58.31 61.58 64.20 62.78 56.95 55.91 55.66 59.79 60.93 63.39 62.79 59.98 59.38 57.98 58.31 57.89 55.89 56.70 56.51 52.20 54.06 54.14 54.23 53.40 55.29 55.95 56.46 57.56 60.09 64.85 66.35 67.26 69.52 70.46 70.75 70.99
53.63 54.07 54.30 54.38 54.36 54.17 56.83 59.81 57.89 58.14 57.94 55.63 55.27 53.78 53.62 58.98 60.85 60.34 62.20 60.77 59.87 57.63 53.65 55.78 53.18 51.52 55.38 57.29 55.61 55.11 54.78 53.66 54.33 55.42 55.36 56.15 57.84 58.76 63.63 65.79 66.72 68.98 69.89 70.62 71.29
53.35 53.41 53.64 53.81 53.54 53.56 56.97 56.71 54.27 54.29 52.58 56.10 55.79 56.03 57.44 58.30 55.19 58.58 61.94 57.01 56.06 53.07 54.42 52.84 50.68 53.65 54.42 54.42 54.03 54.80 54.46 53.84 54.15 56.19 55.81 55.49 55.73 58.14 62.53 64.62 65.34 67.29 69.52 70.45 71.63
53.08 53.38 53.36 53.12 52.97 58.14 56.93 55.20 56.66 56.00 53.29 53.36 54.73 54.28 55.19 57.06 54.55 56.48 59.46 57.67 54.77 52.70 52.65 50.98 52.48 53.77 52.67 53.12 53.08 54.91 54.32 52.88 52.57 55.13 56.05 55.39 54.84 56.56 58.75 65.71 67.95 67.51 69.11 70.83 71.75
52.86 52.96 52.65 51.55 54.00 54.44 56.73 56.80 56.97 56.78 50.01 50.39 51.15 53.81 55.32 56.62 53.31 58.93 60.25 57.56 54.81 52.14 52.02 51.68 53.63 52.62 52.72 52.02 53.92 51.92 54.93 53.08 52.53 52.31 50.82 55.50 48.97 56.90 58.60 61.96 66.38 66.75 67.56 69.51 71.36
52.45 52.45 51.93 51.18 55.22 53.73 56.13 56.71 57.71 56.11 41.67 49.19 50.91 56.78 55.53 54.14 55.31 56.13 60.44 58.33 54.06 53.08 52.78 50.53 51.45 51.76 52.15 52.52 54.20 52.84 54.32 53.83 53.75 52.64 52.10 53.06 50.09 54.58 58.91 59.08 62.66 67.44 68.20 69.61 71.48
52.00 51.64 51.58 54.84 55.88 54.26 55.87 56.30 57.07 48.12 40.87 48.11 52.19 51.01 51.73 53.57 53.68 56.29 56.71 59.10 58.17 54.36 54.02 53.15 55.75 54.69 54.01 55.69 55.74 56.14 54.88 54.60 53.98 52.19 47.84 52.30 50.22 52.33 55.20 59.60 61.96 67.34 69.39 70.00 70.81
51.61 51.03 51.48 55.58 53.38 55.74 55.81 56.05 47.60 43.54 48.58 47.43 49.25 51.20 50.91 50.75 51.81 53.61 53.84 53.76 52.15 50.15 50.65 52.15 52.87 54.95 56.20 54.43 55.59 55.42 53.08 47.85 46.77 46.83 47.78 53.38 50.42 53.45 57.66 62.31 63.88 64.84 69.53 70.41 71.37
50.64 50.24 53.67 56.00 57.93 56.83 56.06 51.49 43.55 46.32 46.66 49.70 49.76 50.30 49.06 50.59 51.13 51.74 52.72 51.65 54.25 53.14 51.58 48.74 46.93 53.25 56.42 55.53 53.18 53.82 53.18 48.41 43.44 45.20 48.10 53.24 48.48 54.49 60.93 65.47 67.82 68.46 71.13 71.20 70.95
49.78 57.21 57.56 58.02 57.35 57.45 53.44 45.82 45.63 46.67 48.66 48.15 49.41 47.82 49.10 50.31 49.72 51.11 51.19 51.42 53.43 54.37 50.41 49.35 48.52 54.66 55.78 56.48 56.64 53.80 51.27 54.47 50.04 51.39 47.29 50.98 53.12 56.36 61.68 64.63 67.37 68.26 70.31 70.76 71.35
55.07 58.57 55.91 56.66 58.67 54.17 50.44 45.45 47.81 48.14 49.73 49.36 46.57 48.64 47.44 49.29 48.82 49.87 50.23 52.33 51.88 54.51 56.23 53.52 49.43 53.57 55.25 56.53 55.80 55.76 56.72 49.84 50.63 45.66 44.42 48.46 50.21 52.63 55.71 60.82 66.01 66.44 68.39 69.86 69.71
56.00 53.17 53.94 56.82 55.00 51.93 46.12 47.54 47.84 49.19 49.51 47.96 48.03 47.58 48.78 49.00 50.06 49.65 50.08 51.55 53.28 53.16 55.54 54.32 53.45 52.51 55.02 54.15 53.43 53.75 53.15 53.74 53.61 51.91 47.32 46.17 49.13 57.03 58.08 60.57 64.31 66.66 68.04 67.69 66.76
55.23 50.31 55.91 56.52 48.40 50.06 47.32 47.84 44.88 47.90 49.21 48.39 48.76 48.82 48.32 49.31 49.58 50.26 49.78 51.59 53.53 54.83 52.31 55.24 53.76 50.16 51.33 55.62 55.90 55.77 54.88 55.02 50.33 50.27 50.51 50.84 50.66 58.48 60.88 62.57 65.78 67.08 66.97 67.11 67.96
55.90 53.89 56.13 55.04 44.68 45.90 47.85 46.70 47.20 46.62 47.17 47.26 46.83 48.86 50.64 49.68 48.74 50.90 52.30 53.21 53.43 54.01 53.45 55.59 52.47 49.13 50.06 53.43 55.15 53.62 54.60 56.01 56.51 55.94 51.63 48.39 50.71 59.82 60.91 62.33 65.60 67.01 67.37 67.58 66.91
55.99 48.89 50.71 52.22 52.82 48.16 46.42 46.44 45.65 48.21 47.06 48.05 48.16 49.20 48.90 48.84 51.98 51.23 52.50 53.77 55.49 54.53 58.11 59.30 53.67 51.99 47.70 51.23 54.12 52.97 53.39 54.39 54.89 51.03 52.40 51.27 53.76 57.00 60.78 61.50 63.57 66.18 66.70 66.15 67.49
55.42 51.40 51.24 46.80 47.93 50.47 50.02 48.27 45.56 45.16 48.27 49.77 48.46 48.21 48.42 48.16 49.93 50.98 54.14 55.14 56.07 56.38 55.63 56.04 52.49 53.41 52.96 53.16 52.91 53.64 53.18 52.84 53.38 54.00 51.62 52.62 53.50 58.88 60.76 61.70 62.91 65.23 66.08 66.34 66.88
52.70 51.89 53.11 52.94 50.77 50.30 46.12 48.93 47.58 48.40 48.44 46.88 47.59 49.61 50.32 49.01 50.97 52.15 53.96 55.44 54.67 56.54 56.35 57.17 53.34 53.83 51.32 52.38 52.43 51.55 53.44 53.95 53.89 54.49 54.22 54.08 54.60 61.49 62.68 63.28 63.21 64.50 65.48 65.18 65.95
54.19 54.80 51.71 46.91 50.48 49.39 49.75 48.96 48.02 49.26 50.99 50.53 50.18 50.34 51.23 52.92 53.82 56.92 58.06 57.49 58.54 57.40 56.64 56.38 54.01 53.41 48.54 52.36 52.09 49.46 53.06 53.89 54.99 56.19 55.47 53.52 59.84 62.19 61.70 63.28 64.06 64.11 64.14 64.56 65.42

GFSSW_sfc_wetblb_045.txt.gz
Wetbulb
58.26 58.36 58.36 58.62 59.15 59.45 59.43 59.55 59.77 60.09 60.18 60.16 60.34 60.44 60.67 60.62 60.52 65.51 61.63 63.63 67.02 70.75 68.31 66.06 63.84 68.80 66.64 67.53 67.34 65.02 57.09 54.97 58.29 58.74 60.89 64.89 63.49 66.11 67.66 65.98 68.11 68.96 69.50 72.95 75.34
57.65 57.71 57.99 58.13 58.72 59.06 59.09 59.09 59.27 59.44 59.55 59.71 59.90 60.31 60.61 60.62 66.46 63.78 65.94 71.41 72.93 69.88 62.27 60.19 60.17 62.46 61.31 63.74 63.14 63.47 56.89 59.61 61.42 61.74 61.08 63.16 64.46 65.14 65.64 65.32 67.86 69.12 71.93 73.90 74.78
57.32 57.28 57.52 57.70 57.92 58.68 58.82 58.84 59.03 59.07 59.19 59.42 59.85 60.40 60.48 61.72 65.40 62.91 71.48 69.93 69.54 67.90 60.79 61.71 62.45 62.34 60.50 62.56 63.15 63.77 59.46 60.92 60.99 61.97 62.64 62.87 63.28 65.72 64.52 63.12 66.42 68.36 70.62 72.34 72.99
56.83 56.96 57.03 57.35 57.44 57.78 58.37 58.73 58.77 58.74 58.77 59.22 59.67 60.29 60.72 65.34 57.88 66.33 71.45 69.53 69.62 63.85 62.03 61.32 60.88 60.15 60.01 59.85 62.56 60.68 62.72 61.90 61.80 62.18 61.86 61.70 64.44 63.30 64.49 65.22 67.69 71.23 71.75 72.20 72.17
56.50 56.52 56.65 56.71 57.02 57.27 57.53 58.16 58.25 58.18 58.47 59.01 59.63 60.55 63.47 62.08 62.88 67.30 70.70 66.99 63.23 63.64 61.61 60.88 60.36 61.01 59.32 61.39 61.51 61.66 61.49 61.67 61.99 61.41 61.99 62.56 61.88 62.75 63.28 68.84 69.55 71.24 71.46 71.44 71.95
55.81 55.91 55.95 56.22 57.01 57.38 57.54 57.52 57.54 57.75 58.36 59.18 60.36 59.69 64.29 55.87 66.22 66.62 62.29 61.88 62.94 62.65 61.33 61.55 60.90 62.55 60.81 60.85 60.95 62.41 61.26 60.83 61.31 61.51 61.59 60.48 60.99 63.12 64.13 67.96 70.09 70.67 70.42 71.14 71.80
55.37 55.57 55.94 55.96 56.23 56.85 57.08 57.04 57.18 57.53 58.35 59.81 61.58 63.90 59.37 57.10 62.78 66.46 63.71 62.16 63.16 63.03 60.92 61.64 62.02 60.90 62.47 60.78 63.15 62.07 59.62 60.63 60.93 60.36 59.79 61.31 58.94 59.79 63.82 67.38 69.63 70.03 70.10 70.96 72.30
55.10 55.24 55.68 55.68 55.98 56.46 56.62 56.20 56.56 57.79 59.86 61.74 60.93 64.22 58.31 61.41 63.67 63.17 64.70 62.71 63.59 63.88 62.99 63.33 63.03 61.04 61.03 63.24 61.18 59.92 59.89 56.33 59.31 58.57 59.31 59.32 56.20 60.65 65.09 66.75 68.15 69.80 69.67 70.29 72.07
54.76 54.90 55.30 55.54 55.68 55.80 55.35 55.48 56.63 59.53 60.77 63.25 65.21 63.96 56.23 60.94 58.79 61.91 63.99 61.11 62.03 62.69 63.12 62.11 61.57 59.58 61.11 58.31 57.81 58.81 54.59 55.87 56.61 58.47 57.29 58.25 57.07 61.74 63.06 65.39 66.44 69.13 69.91 70.12 71.44
54.79 54.95 55.03 55.03 55.25 54.98 54.76 54.98 60.11 58.98 62.12 65.49 63.91 57.86 58.10 55.53 60.07 61.37 63.30 62.46 60.53 60.38 59.31 58.75 58.01 56.61 57.86 57.10 52.77 55.13 55.39 57.33 54.78 57.06 56.74 56.34 57.07 59.89 63.34 63.49 64.85 68.46 70.05 70.50 70.88
54.48 54.66 54.62 54.60 54.68 54.17 56.65 62.14 59.73 60.41 60.31 56.07 57.62 56.21 55.66 59.05 61.60 59.73 62.08 60.51 60.23 59.03 55.06 57.56 54.01 52.59 55.41 57.82 57.76 56.81 56.55 55.37 56.61 57.27 56.20 56.59 57.05 59.26 62.32 62.82 63.83 66.78 69.82 70.63 71.19
53.93 54.25 54.39 54.25 53.80 53.84 57.06 58.45 57.16 56.79 53.93 57.74 57.21 57.38 58.27 59.09 56.25 58.65 62.09 57.61 56.77 54.03 55.92 54.76 51.81 55.17 56.41 57.05 56.81 55.99 55.12 54.94 56.84 56.70 56.65 56.35 56.25 58.83 60.88 62.54 63.05 64.13 68.41 70.11 71.44
53.45 53.80 53.72 53.33 53.17 57.48 59.10 57.98 60.06 59.74 54.18 55.09 56.89 56.10 56.76 57.87 55.32 56.93 59.75 58.57 55.58 53.87 54.01 52.72 53.78 55.70 54.03 54.49 54.81 54.76 54.48 55.14 54.50 56.35 57.34 55.88 54.91 57.65 59.97 62.82 65.68 66.86 67.52 70.84 71.36
53.31 53.53 53.05 51.74 54.23 57.28 57.65 59.98 60.56 60.06 50.79 52.36 53.16 55.24 56.69 57.21 54.04 59.33 60.78 58.39 55.94 53.32 54.01 53.41 55.56 53.13 52.69 52.51 54.99 53.00 56.60 55.63 53.99 53.29 50.58 56.69 49.61 57.42 59.60 60.92 64.06 66.60 66.90 69.62 71.85
53.18 52.98 52.56 51.39 55.88 55.06 59.44 59.83 60.58 59.56 43.61 52.72 53.34 58.98 57.60 54.44 56.08 56.08 60.93 58.57 54.74 53.91 54.27 52.40 52.61 52.20 51.92 53.16 54.88 53.00 56.25 54.60 54.38 53.56 53.48 53.05 51.60 56.09 59.21 59.44 61.45 66.65 68.76 70.53 73.01
52.76 52.29 51.86 57.70 58.95 57.53 58.47 59.47 59.38 49.44 43.17 49.80 53.51 52.19 52.89 54.37 54.78 57.19 57.01 59.48 58.76 55.55 55.50 53.99 56.38 54.93 53.83 55.05 55.40 56.40 55.16 54.97 55.09 53.42 49.07 52.89 52.36 52.09 56.64 59.07 59.78 67.41 70.44 71.23 71.98
52.21 51.57 52.18 57.50 56.01 58.14 58.73 57.10 49.01 45.15 52.07 49.49 50.62 52.74 52.48 52.11 52.68 54.66 54.36 53.80 52.89 51.28 51.78 53.07 53.12 55.31 56.03 54.05 56.71 55.11 53.40 48.91 48.23 47.81 47.15 54.45 51.86 53.63 58.26 61.93 63.05 67.26 70.52 71.57 72.20
51.12 50.82 56.07 56.78 59.42 58.50 57.95 52.37 45.19 49.65 50.25 52.21 51.76 52.47 50.69 52.72 52.37 52.74 53.23 52.07 54.89 54.16 51.80 50.13 48.18 53.21 56.18 54.84 54.14 53.28 53.36 49.55 45.96 46.19 48.65 54.00 49.12 53.62 60.35 64.47 66.48 69.75 71.71 72.35 72.09
49.83 58.76 58.31 59.15 58.78 58.50 54.46 47.12 48.04 50.76 51.21 49.50 51.43 49.41 50.53 51.99 52.03 52.17 52.06 52.66 54.35 54.95 51.64 50.55 50.44 55.33 55.66 56.73 56.49 55.03 51.61 55.13 51.54 52.60 49.48 51.63 54.13 57.90 59.51 63.47 65.63 68.35 71.08 71.41 71.96
55.76 56.84 57.16 59.07 59.58 55.60 51.20 46.62 50.71 51.75 51.37 51.27 48.56 50.76 48.78 50.93 50.57 51.14 51.73 53.78 53.66 55.72 56.85 54.27 50.65 54.25 55.17 57.05 57.20 56.15 57.77 50.94 51.49 46.40 45.88 48.52 51.43 53.35 57.37 60.81 64.41 66.61 69.22 71.69 73.05
56.24 54.58 57.31 58.50 56.88 51.87 47.89 50.11 51.43 52.76 51.84 50.19 49.90 49.90 50.68 50.88 51.58 50.95 51.21 53.54 54.53 54.68 56.25 54.93 53.93 53.18 55.54 54.34 53.40 53.79 53.26 54.65 53.89 52.80 48.22 45.09 49.66 58.63 59.01 61.21 63.43 65.75 69.81 70.25 68.86
55.79 51.29 57.12 57.19 48.75 50.73 49.79 52.56 45.27 50.87 51.89 50.99 51.07 51.40 50.79 51.63 51.37 51.80 51.25 52.96 55.62 55.26 52.40 55.51 53.65 50.86 53.17 56.38 57.06 56.45 55.65 54.79 50.76 51.13 52.43 50.65 49.52 57.49 60.87 63.06 64.45 67.35 68.73 68.68 69.15
55.54 55.28 57.10 55.58 46.72 48.62 51.73 50.23 50.78 49.92 49.90 49.86 49.42 51.02 52.25 51.42 49.97 52.41 52.94 55.12 54.55 54.30 54.08 55.59 52.54 49.86 50.96 53.97 56.00 54.37 55.91 56.75 56.75 56.35 52.80 49.51 50.05 60.08 62.21 63.50 65.58 67.28 67.97 69.32 69.65
56.50 49.84 52.05 52.00 52.76 51.11 49.74 49.17 48.69 50.81 49.81 50.32 49.97 51.37 50.47 50.57 53.09 52.36 52.64 55.00 55.03 54.77 60.63 60.37 54.67 52.56 48.96 51.78 54.57 53.41 53.43 54.71 54.64 52.30 52.59 51.67 54.24 56.02 60.20 62.97 66.02 68.17 69.31 69.34 68.77
55.64 53.36 54.81 47.64 49.11 50.71 51.45 50.02 48.59 48.60 50.35 50.77 49.46 49.31 49.75 49.35 50.44 51.19 53.35 55.02 56.68 58.76 56.84 55.99 52.93 53.85 53.79 54.06 54.71 53.97 54.05 54.11 53.05 54.52 52.41 50.82 53.39 53.78 61.86 63.17 64.73 67.99 68.34 67.63 67.95
54.01 53.05 54.00 55.48 52.75 50.42 47.92 49.94 49.37 49.84 50.44 49.49 48.77 50.19 50.81 49.98 51.71 51.94 54.51 55.12 55.29 57.39 56.69 56.92 53.08 54.45 52.16 53.63 53.51 52.70 54.21 54.75 53.87 54.62 54.62 54.41 55.21 56.74 62.18 65.34 65.25 66.23 66.88 66.64 67.39
57.65 57.78 55.17 50.60 52.29 51.00 50.75 50.63 50.32 51.27 52.39 52.92 51.59 50.43 50.29 52.28 55.26 55.99 57.10 59.02 59.32 59.03 57.44 56.91 54.96 53.30 50.21 52.87 52.55 50.06 53.16 54.69 55.17 56.16 56.36 53.60 60.15 63.13 63.41 64.64 65.63 65.97 65.98 66.18 66.77

GFSSW_sfc_wetblb_048.txt.gz
Wetbulb
58.43 58.56 58.50 58.98 59.45 59.69 59.65 59.78 59.80 60.06 60.10 60.29 60.42 60.54 60.79 60.68 60.34 65.20 60.06 65.42 67.24 73.74 71.99 68.94 68.57 66.16 68.30 64.43 66.11 66.70 58.94 57.97 57.78 57.96 59.99 62.08 60.36 64.49 66.02 65.06 65.79 67.06 68.56 71.73 73.71
58.00 58.17 58.13 58.60 59.17 59.34 59.36 59.42 59.57 59.64 59.61 59.78 60.01 60.47 60.68 60.76 63.54 63.42 67.77 73.81 71.71 72.48 62.53 60.90 60.03 61.70 60.95 61.82 63.19 62.99 56.98 58.06 62.17 60.93 61.24 64.18 62.48 63.75 63.87 62.92 66.17 67.60 70.85 72.71 73.76
57.56 57.56 57.67 57.89 58.22 58.69 58.77 58.89 59.11 58.96 59.08 59.34 59.75 60.53 60.72 60.98 63.17 61.05 71.45 73.15 71.49 69.76 62.32 60.76 61.44 60.73 59.98 62.13 61.46 62.15 59.04 62.37 63.46 60.99 62.15 62.25 63.55 64.05 61.42 59.35 64.85 66.88 69.45 71.67 72.44
57.04 56.98 57.20 57.31 57.74 57.98 58.50 58.66 58.76 58.71 58.79 59.18 59.74 60.46 60.95 64.07 57.82 62.84 72.27 71.86 72.09 65.37 60.09 59.64 60.38 58.62 58.91 59.09 61.96 59.81 62.28 62.39 61.19 61.57 61.38 61.41 64.04 62.85 63.28 63.74 66.07 70.19 71.16 71.16 71.17
56.54 56.60 56.74 56.99 57.19 57.51 57.71 58.27 58.28 58.36 58.52 58.97 59.96 60.92 61.92 61.89 61.40 63.90 73.02 70.68 61.77 60.71 61.38 60.89 59.66 59.28 57.95 59.87 61.08 59.77 62.04 61.75 61.85 61.36 60.90 62.25 61.21 62.25 63.64 66.86 68.39 70.69 70.79 70.52 71.04
56.08 56.27 56.59 56.66 57.15 57.44 57.74 57.72 57.77 57.83 58.31 59.14 60.43 60.52 63.37 56.30 65.99 64.14 62.88 61.84 61.63 62.06 61.17 61.34 60.12 61.22 59.82 59.97 60.09 61.73 61.87 61.27 60.89 61.18 60.90 59.36 60.39 61.77 63.01 67.73 67.37 69.65 69.63 70.33 70.90
55.78 55.97 56.13 56.34 56.50 56.98 57.25 57.17 57.32 57.58 58.51 59.56 61.36 63.08 59.02 57.01 62.57 66.15 63.62 61.57 62.95 62.13 60.68 62.24 62.16 60.22 60.71 59.31 62.34 61.75 58.79 60.09 60.29 60.52 59.01 61.08 59.00 58.94 62.87 64.16 66.36 68.49 69.38 70.21 71.34
55.34 55.48 55.90 55.92 56.14 56.54 56.65 56.31 56.71 57.73 59.43 61.20 63.26 62.44 57.33 62.68 63.50 62.33 64.67 62.84 62.92 63.23 62.24 63.49 63.33 60.39 59.48 61.46 60.68 58.69 58.97 54.85 59.04 60.56 59.08 58.17 56.02 60.90 63.27 62.64 65.50 68.00 68.86 69.48 71.39
55.49 55.36 55.62 55.76 55.86 55.82 55.34 55.27 56.74 58.64 61.02 62.53 64.03 62.59 57.61 64.04 58.42 61.12 62.95 60.95 62.09 62.28 62.88 62.46 60.79 58.08 59.10 56.62 55.74 57.32 53.87 54.99 56.25 60.97 57.44 56.71 57.78 61.52 63.42 63.88 64.45 67.18 68.72 69.01 70.71
55.03 55.01 55.01 55.11 55.23 55.05 54.52 55.61 61.65 60.04 62.04 64.24 63.58 57.96 58.80 56.24 59.75 60.93 63.01 62.24 60.26 60.42 59.24 58.63 56.72 54.08 55.80 54.82 50.56 53.23 52.39 55.71 54.69 58.95 56.80 55.16 56.17 60.36 62.46 62.55 62.78 66.06 68.80 69.19 69.86
54.62 54.70 54.74 54.72 54.58 54.43 54.82 59.88 59.55 60.11 58.70 56.84 57.61 56.05 57.12 59.35 61.30 59.38 61.27 60.20 59.41 58.08 54.57 56.88 52.71 50.80 53.65 56.17 56.46 55.97 55.43 54.73 56.69 60.06 55.43 55.04 56.12 58.07 61.10 60.97 62.27 64.63 69.47 69.99 70.04
54.17 54.29 54.48 54.29 53.93 53.76 54.96 59.41 57.64 57.67 53.33 57.80 58.72 57.88 59.55 59.55 55.82 57.88 61.21 56.97 56.12 52.74 55.41 53.99 51.67 54.64 55.85 55.99 55.73 55.62 54.75 55.31 58.01 58.27 56.15 55.02 55.15 58.13 59.80 60.68 60.92 61.01 67.28 69.16 71.13
53.99 54.07 53.93 53.68 53.21 56.76 58.03 58.61 60.61 59.85 53.03 54.16 56.47 56.32 56.85 58.08 54.73 55.85 59.11 57.53 55.02 53.13 53.06 51.88 53.65 56.08 54.50 53.74 53.53 54.55 53.90 53.71 53.84 56.56 56.91 55.38 53.74 56.42 59.62 60.83 63.32 64.80 65.81 69.79 70.57
53.68 53.72 53.32 51.81 53.77 58.78 55.57 60.93 60.50 60.23 49.61 51.31 53.52 56.07 57.36 57.58 53.56 58.87 60.26 57.53 55.32 52.91 53.76 52.84 55.69 53.91 53.31 52.10 53.13 50.97 55.23 55.07 54.07 53.37 49.44 56.05 49.10 56.42 58.04 60.36 63.13 65.14 66.15 69.36 73.06
53.41 53.44 52.91 52.07 54.04 55.78 59.99 60.80 59.95 58.66 42.06 53.54 54.39 60.13 57.81 54.43 55.73 55.47 60.13 57.89 53.97 53.97 53.93 52.16 52.64 52.30 51.61 52.25 53.80 52.72 55.64 55.04 54.37 52.34 51.99 52.28 50.15 55.84 59.22 59.16 61.98 65.53 68.02 71.46 73.46
53.03 52.79 52.08 57.48 57.19 57.52 58.45 59.57 58.38 48.46 42.38 50.68 54.04 52.83 52.69 54.13 54.27 56.88 55.96 58.59 58.07 54.45 55.29 53.59 56.74 54.60 53.50 54.53 54.76 55.50 53.82 54.53 54.15 52.17 47.92 52.16 50.99 54.03 55.75 58.74 63.75 67.56 69.44 71.22 72.13
52.33 51.73 51.59 56.50 56.01 59.42 58.16 56.14 47.76 43.83 51.96 49.85 50.55 52.82 51.94 51.59 52.32 53.91 53.51 53.13 51.39 49.93 50.56 53.40 53.00 55.21 55.66 52.23 54.50 54.05 51.94 47.58 46.95 46.61 46.10 53.80 50.83 55.70 59.44 60.66 64.54 67.77 69.12 70.77 72.10
51.11 50.84 54.45 56.15 57.63 58.85 56.67 51.15 43.95 48.61 49.23 53.72 52.32 52.55 50.20 52.00 52.28 52.36 52.67 51.53 53.74 52.76 51.04 49.37 47.91 52.32 55.13 52.96 52.60 53.58 52.01 48.38 45.41 45.34 46.57 54.16 50.13 54.71 61.38 62.68 67.68 69.48 70.26 71.13 71.37
49.95 57.93 57.01 59.84 58.05 57.39 52.88 45.75 46.82 50.12 52.55 51.76 52.14 49.48 50.32 51.88 51.94 51.78 51.54 51.48 53.52 54.10 50.94 49.77 49.89 55.47 55.08 55.23 54.45 53.29 50.76 53.46 50.27 51.25 48.24 50.84 52.50 58.46 60.34 62.34 65.76 68.08 69.87 70.21 70.86
53.20 55.42 57.35 59.40 58.91 55.37 49.89 45.78 49.57 53.10 52.74 52.39 48.21 50.69 48.36 50.25 50.34 50.82 51.18 53.29 52.71 55.36 56.14 53.27 49.61 54.32 54.77 55.76 55.71 54.08 56.60 50.48 50.62 46.67 45.31 48.80 51.42 51.87 56.78 60.94 65.16 66.45 68.39 69.96 71.11
53.45 54.39 58.45 59.15 57.58 52.01 46.53 48.58 50.92 54.01 53.40 50.32 49.79 49.69 50.16 50.18 51.30 50.73 50.62 53.22 54.60 54.39 56.34 54.35 52.61 52.60 54.45 52.65 52.26 53.24 52.32 54.54 53.09 51.77 45.92 46.19 46.73 57.05 54.13 57.28 63.11 65.77 68.76 70.17 71.08
55.93 51.16 58.53 57.16 48.08 49.61 48.51 51.74 52.87 52.94 53.59 51.54 51.69 50.94 51.25 51.64 51.30 51.80 50.82 52.69 55.81 55.33 52.48 54.95 52.40 50.07 51.39 55.31 56.66 55.07 53.73 53.60 49.39 51.73 52.28 51.78 50.44 58.98 58.98 62.23 64.78 66.71 68.86 69.50 68.76
54.44 54.52 58.29 54.86 44.88 46.84 50.45 51.27 53.67 52.38 51.83 51.53 49.61 51.20 52.53 51.23 50.18 52.29 53.26 55.15 55.39 54.23 53.70 55.29 51.83 47.65 49.73 53.06 56.03 53.60 53.99 55.24 56.09 56.89 52.69 48.01 50.99 60.64 62.10 61.73 63.50 66.53 67.79 69.07 69.73
55.80 50.49 52.77 52.55 51.15 50.00 50.25 50.30 50.67 52.99 51.74 52.11 51.23 51.76 50.64 49.76 52.91 51.79 52.80 54.91 55.52 54.76 61.02 59.78 54.42 52.97 46.42 51.12 53.57 52.76 53.16 54.29 54.53 52.03 52.27 52.07 53.55 57.27 59.03 56.48 56.25 67.26 69.24 69.36 69.39
55.20 53.54 55.25 47.34 47.93 49.28 51.79 51.30 49.66 49.33 51.76 52.03 50.20 49.74 49.40 48.16 49.87 50.30 52.45 53.94 55.54 60.57 56.66 56.42 54.23 52.92 52.80 53.09 53.41 53.23 53.41 53.74 51.96 52.86 50.72 53.69 54.23 55.97 57.16 56.13 58.64 68.05 68.61 68.41 68.13
53.92 53.34 55.22 53.31 53.92 50.67 48.70 48.96 49.38 50.40 51.09 49.87 49.30 50.10 50.20 48.96 50.37 49.93 51.70 53.29 53.59 56.30 55.17 55.73 53.80 53.81 51.01 52.95 52.76 51.55 53.85 52.33 55.17 53.73 53.20 54.14 54.27 57.01 59.80 59.45 58.64 67.02 67.82 67.34 68.06
56.34 56.46 53.87 51.57 51.48 50.69 50.17 50.39 50.23 52.07 52.69 52.88 52.43 51.25 50.30 51.60 53.37 53.66 55.54 56.43 58.26 57.68 58.55 57.27 54.53 54.10 48.94 51.95 51.92 49.61 52.29 53.53 53.97 55.67 54.37 53.05 57.40 58.49 58.01 59.88 61.68 67.46 67.03 66.78 67.32

GFSSW_sfc_wetblb_051.txt.gz
Wetbulb
58.55 58.53 58.46 59.10 59.55 59.48 59.50 59.52 59.70 59.83 60.03 60.14 60.15 60.23 60.54 60.62 59.98 62.44 59.00 64.86 66.09 73.82 74.19 64.27 68.15 68.05 66.41 63.97 63.87 62.42 54.82 53.23 56.24 56.69 58.57 60.02 59.65 64.87 64.70 63.92 66.27 69.08 68.86 69.85 71.22
58.08 58.03 58.03 58.38 59.15 59.20 59.15 59.22 59.35 59.57 59.63 59.69 59.84 60.15 60.53 60.59 60.33 59.55 69.38 71.13 73.26 73.82 61.85 59.41 58.30 57.78 54.78 57.23 59.32 59.25 53.68 54.84 59.21 60.43 59.93 61.65 61.04 61.93 59.80 61.02 63.29 68.52 70.71 71.39 71.48
57.45 57.55 57.60 57.94 58.18 58.86 58.89 58.92 59.09 59.17 59.15 59.39 59.78 60.22 60.44 60.09 60.20 58.86 72.48 73.71 72.53 70.63 62.40 60.44 58.58 56.36 54.41 55.88 58.54 58.76 55.39 59.27 60.35 61.37 62.88 61.12 61.54 63.29 61.27 58.28 61.69 66.14 68.39 70.51 70.64
57.12 57.17 57.13 57.29 57.59 57.95 58.47 58.79 58.70 58.67 58.82 58.98 59.60 60.41 60.76 59.84 55.10 61.67 72.62 72.47 72.38 66.63 61.17 57.55 56.06 54.24 53.56 53.41 58.30 57.69 60.44 60.92 61.35 60.35 63.44 61.69 62.49 61.70 62.29 61.34 64.67 69.19 70.05 70.55 70.05
56.69 56.59 56.64 56.88 56.99 57.34 57.64 58.24 58.14 58.10 58.29 58.84 59.71 60.85 58.45 57.38 59.56 66.39 74.24 72.02 65.70 59.01 56.32 56.80 56.07 55.97 53.14 54.96 57.18 57.67 61.01 62.18 62.00 58.94 59.83 63.99 62.06 62.39 62.44 65.45 65.29 70.26 70.34 69.64 69.23
56.22 56.13 56.11 56.48 57.01 57.36 57.52 57.62 57.60 57.62 57.99 58.83 60.32 60.85 59.05 52.92 63.56 62.30 64.11 60.79 58.33 57.52 58.05 59.13 57.23 57.67 55.09 55.78 55.37 58.11 59.59 59.95 59.85 59.92 59.44 58.59 59.92 61.47 62.33 64.30 65.79 67.06 68.35 69.07 69.53
55.80 56.09 56.13 55.96 56.18 56.93 57.17 57.11 57.11 57.35 57.96 59.11 61.06 61.97 56.92 54.55 59.91 61.27 60.49 57.58 58.75 58.30 57.52 59.25 59.25 55.40 55.84 54.08 57.91 57.46 55.41 57.55 58.99 59.11 58.49 58.25 56.58 57.60 63.33 64.17 63.13 64.29 68.08 68.84 69.64
55.34 55.48 55.53 55.84 56.12 56.43 56.41 56.12 56.48 57.27 58.31 60.16 62.49 59.19 53.58 60.67 59.58 59.36 61.02 60.02 59.16 58.04 58.41 59.07 59.52 56.63 54.76 56.36 55.63 54.34 54.60 50.33 57.91 59.09 59.33 57.63 51.61 59.10 61.68 61.06 61.92 63.10 67.57 68.87 65.51
55.24 55.34 55.40 55.56 55.81 55.77 55.32 55.02 56.65 58.82 59.67 61.67 58.03 55.36 55.66 63.25 56.94 57.23 56.61 58.85 58.69 58.04 58.04 61.23 56.71 52.50 53.77 49.99 48.71 53.21 48.19 51.86 55.11 59.45 58.47 57.44 52.07 59.62 61.22 60.61 60.72 62.47 66.95 67.82 66.12
55.06 54.97 55.03 55.17 55.25 54.97 54.48 55.70 58.49 59.05 60.07 61.18 61.90 54.24 57.40 56.13 57.40 57.94 56.61 58.55 57.92 57.35 56.77 55.80 52.71 48.35 47.28 45.13 42.73 48.36 50.66 52.82 53.46 56.87 57.23 55.46 53.76 59.22 60.57 61.06 61.21 64.70 66.85 66.87 65.93
54.59 54.58 54.87 54.83 54.78 54.44 51.98 52.24 55.05 56.14 54.18 52.92 54.65 54.21 56.29 58.51 58.58 57.21 58.31 57.67 56.79 54.69 49.56 53.66 47.17 44.19 47.03 49.42 51.82 52.26 53.18 53.30 55.30 57.73 54.83 53.31 52.26 57.19 58.60 60.15 61.16 61.25 61.63 67.14 66.78
54.44 54.44 54.50 54.44 54.07 53.81 51.48 52.15 53.35 53.22 48.90 55.05 55.75 56.12 58.67 57.31 54.08 56.13 57.41 52.25 53.39 49.19 51.38 49.51 45.59 51.12 52.93 52.59 52.02 51.45 53.41 52.65 55.94 57.38 55.02 53.33 51.19 56.15 57.68 57.50 59.13 63.86 68.16 68.40 67.90
54.05 53.99 53.91 53.71 53.24 53.48 52.21 54.64 57.38 54.99 47.93 51.93 53.84 52.73 54.43 54.16 53.07 53.38 54.40 53.88 52.18 50.20 49.71 46.71 50.10 54.63 53.16 50.82 50.03 47.79 51.29 52.90 52.94 55.26 56.46 53.13 49.50 51.14 57.64 61.54 63.14 65.64 69.17 69.53 67.94
53.66 53.83 53.51 52.06 51.06 51.90 54.02 57.17 56.30 55.75 43.80 48.99 49.76 52.51 53.94 53.51 50.72 56.82 56.32 55.06 52.39 49.48 50.81 48.77 52.43 52.41 51.07 50.48 49.16 43.86 51.66 52.48 51.33 48.97 44.16 50.57 41.97 50.75 55.73 56.73 58.48 63.02 68.66 69.40 69.49
53.44 53.44 52.88 51.66 49.12 49.90 54.90 55.62 55.17 53.64 36.60 51.80 51.34 56.51 53.57 51.25 52.24 52.94 56.44 52.87 50.76 51.06 49.67 48.47 50.60 49.29 49.34 49.95 51.02 47.49 52.02 51.02 51.89 47.13 48.23 47.19 42.72 47.80 53.93 52.92 55.30 61.50 69.11 70.63 71.17
52.88 52.81 52.12 53.30 50.82 53.43 56.04 55.48 53.48 43.26 38.82 49.02 52.00 49.70 48.98 50.24 51.84 53.86 52.75 53.48 55.29 51.53 51.46 50.68 53.77 51.30 50.47 52.54 51.87 52.47 50.21 49.50 48.36 44.85 39.64 45.30 45.43 45.79 50.37 52.38 56.08 61.51 70.22 70.85 70.98
52.27 51.75 50.40 53.45 50.87 53.59 53.57 51.46 41.64 38.74 50.01 47.07 47.61 49.27 48.12 47.93 49.13 50.74 49.74 48.02 46.56 42.75 44.36 49.98 50.74 52.14 53.77 49.42 50.84 48.46 45.74 39.06 38.88 39.11 39.18 47.35 47.14 47.22 55.55 56.86 58.40 61.42 67.74 69.15 69.76
51.14 50.76 51.77 53.49 53.61 53.95 52.26 45.72 38.13 46.84 46.36 50.69 49.84 48.95 47.20 48.72 48.66 49.74 48.70 46.99 50.36 48.47 45.05 44.05 43.64 50.80 52.58 49.56 47.06 46.89 45.06 39.39 36.38 39.17 43.50 49.64 45.66 52.54 58.86 63.09 67.03 68.09 68.00 69.55 69.29
50.23 53.61 52.88 54.12 55.19 54.68 48.00 39.99 42.35 47.29 50.66 49.32 49.76 47.53 46.26 48.74 48.43 48.66 47.38 47.59 50.53 49.76 44.19 42.83 45.84 53.94 53.25 52.02 49.93 46.33 44.48 48.37 41.40 40.65 40.83 45.68 50.04 54.84 58.77 59.93 64.81 67.06 67.96 68.04 69.17
47.72 51.36 52.34 57.93 57.13 51.09 44.85 41.72 46.12 50.32 50.65 50.45 46.29 48.82 45.88 47.64 46.51 46.11 47.21 49.90 50.03 52.06 51.01 47.56 43.28 50.58 53.63 51.82 51.34 47.90 50.89 43.90 42.74 36.87 36.82 44.32 45.82 47.09 54.16 53.87 57.13 63.38 62.81 67.20 67.68
48.71 48.62 55.22 57.44 54.95 48.61 41.38 43.71 47.90 51.36 51.50 49.31 47.68 47.04 47.30 47.24 48.17 47.17 47.45 50.68 51.42 51.23 50.55 48.93 45.90 47.40 51.40 48.83 47.00 46.95 44.75 46.97 47.06 43.95 38.43 38.78 43.49 53.21 54.30 54.48 54.81 56.31 59.97 67.03 67.27
53.77 47.77 56.86 55.10 45.75 46.43 43.71 47.59 49.31 50.35 52.19 50.64 50.15 48.82 47.26 48.59 47.91 48.32 48.78 50.89 52.75 51.72 48.15 49.24 47.64 43.44 46.74 51.97 53.30 50.34 48.27 46.86 42.75 41.04 44.07 42.32 44.30 55.48 55.61 55.83 59.84 56.12 56.75 62.77 67.74
50.05 52.16 56.31 53.33 40.79 42.21 46.10 47.63 49.83 50.09 51.01 49.44 49.36 50.05 49.73 47.08 45.07 50.08 51.44 54.74 53.53 52.13 48.59 52.16 45.12 39.61 42.98 46.63 51.32 49.09 49.49 46.92 47.66 46.06 42.60 41.16 43.98 56.90 58.13 57.28 58.31 55.00 58.76 62.19 67.20
50.65 49.84 51.41 51.57 49.49 45.75 44.74 47.27 47.41 51.74 51.42 51.27 49.90 50.00 47.99 46.31 47.78 48.15 49.67 53.50 54.41 53.42 60.57 54.65 47.08 45.09 39.95 44.95 49.70 49.77 51.68 50.37 46.67 43.58 44.14 44.96 49.26 53.12 53.83 54.21 57.37 61.20 64.05 63.23 66.91
51.55 51.49 53.80 45.70 45.87 46.06 46.79 47.74 47.98 47.98 51.06 50.95 48.43 48.58 46.53 43.17 46.64 46.65 49.61 50.63 53.98 57.88 52.69 49.54 44.07 47.02 48.23 50.30 50.68 49.80 50.60 51.52 49.10 46.61 43.39 48.27 50.62 52.64 53.61 56.63 58.92 60.85 63.25 65.19 66.01
49.61 49.88 50.97 49.47 52.74 50.42 47.09 47.21 47.52 49.10 50.34 48.14 47.20 49.06 48.22 43.84 46.14 45.71 47.82 47.83 49.80 55.72 54.44 51.11 44.61 49.30 45.68 50.34 50.44 49.47 51.10 53.00 52.25 52.63 51.16 50.86 50.53 55.34 55.80 56.50 57.59 59.71 64.32 65.08 65.03
54.46 54.28 51.83 48.89 48.53 48.09 47.61 49.73 49.03 50.58 51.36 51.75 51.34 49.67 48.39 50.34 53.59 52.92 52.16 50.57 50.27 49.65 51.66 53.37 47.52 46.19 42.59 49.58 49.48 45.09 49.63 51.41 53.09 52.78 52.49 47.28 52.21 55.06 54.48 55.12 55.22 63.22 63.93 64.27 64.82

GFSSW_sfc_wetblb_054.txt.gz
Wetbulb
58.33 58.43 58.52 58.62 59.17 59.39 59.39 59.49 59.69 59.89 59.85 59.96 60.06 59.91 60.18 60.38 60.16 61.99 57.37 61.92 63.91 73.67 74.32 68.96 69.17 65.63 65.51 64.34 63.43 62.79 53.50 52.56 54.44 55.97 57.60 60.15 59.64 63.62 63.71 66.39 68.27 69.04 67.53 68.38 70.59
57.85 58.04 58.00 58.09 58.75 58.87 59.03 59.09 59.23 59.28 59.49 59.54 59.57 59.80 60.23 60.52 58.86 58.20 66.63 71.79 73.20 73.77 61.94 58.39 57.00 59.58 57.93 55.36 56.70 56.07 50.34 52.88 58.48 60.42 58.89 60.96 60.67 61.48 58.42 61.64 66.52 67.05 69.07 70.21 70.62
57.43 57.35 57.40 57.59 57.83 58.54 58.54 58.67 58.86 58.93 58.97 59.14 59.46 59.98 60.38 60.19 58.90 59.37 71.75 71.71 73.31 71.65 61.71 60.43 58.02 55.57 50.79 51.86 53.76 56.72 52.88 56.97 59.07 61.58 61.95 59.87 60.50 62.09 58.47 57.52 63.43 65.03 66.90 68.97 69.03
57.06 56.92 57.04 57.13 57.29 57.53 58.34 58.55 58.52 58.54 58.49 58.84 59.25 60.02 60.62 59.07 52.62 60.78 73.59 72.99 72.47 65.06 61.96 57.04 54.63 51.79 51.60 51.46 54.60 53.66 58.21 60.14 59.78 62.10 60.76 59.98 61.13 60.91 60.99 60.69 68.07 68.95 69.17 68.98 67.85
56.52 56.44 56.51 56.71 56.91 57.08 57.38 58.07 58.04 58.00 58.15 58.46 59.14 60.23 57.15 53.14 58.74 67.35 74.22 72.06 65.18 59.16 55.83 54.53 53.47 53.18 51.29 52.62 53.79 55.74 57.04 60.41 61.55 62.35 61.52 63.03 61.28 61.54 61.54 64.45 69.96 70.03 69.65 67.73 66.04
56.00 55.86 56.04 56.11 56.76 57.11 57.23 57.35 57.38 57.46 57.82 58.52 59.35 60.70 55.37 48.84 61.02 67.90 63.14 62.40 57.76 55.97 54.83 54.59 55.75 55.89 53.31 52.73 51.97 54.74 55.14 55.59 59.05 62.08 62.59 61.13 61.01 61.13 62.56 66.02 68.79 69.25 68.73 65.38 66.01
55.48 55.58 55.86 56.19 55.98 56.72 56.92 57.02 56.93 57.07 57.70 58.58 59.74 61.65 55.68 49.72 57.32 59.94 58.74 56.45 56.58 55.52 54.80 57.34 57.67 53.41 53.93 52.45 55.21 53.69 53.44 55.79 56.91 58.36 59.94 59.07 57.56 58.14 62.38 63.19 67.19 67.94 68.70 65.15 66.21
54.91 55.05 55.23 55.67 55.87 56.30 56.38 56.15 56.40 57.20 58.10 59.53 61.00 57.61 48.79 58.41 57.56 58.91 57.78 57.46 56.78 55.32 56.20 57.12 56.20 54.28 53.19 54.32 52.23 53.37 52.23 49.34 55.48 57.72 57.50 56.30 49.31 57.70 61.01 61.39 62.24 67.05 67.08 65.43 65.29
54.69 54.82 55.16 55.60 55.74 55.70 55.21 55.22 56.83 58.64 59.71 61.55 56.66 52.75 52.95 63.25 56.25 55.89 57.11 57.60 57.39 56.85 55.43 58.90 54.88 50.95 51.99 47.35 44.47 47.57 46.64 49.64 52.71 57.86 57.31 55.69 52.04 56.99 60.40 60.20 60.45 65.76 66.29 65.47 64.33
54.66 54.82 54.99 55.13 55.15 54.94 54.58 55.34 56.41 57.57 58.97 61.34 60.76 48.78 52.76 54.39 56.34 56.65 55.47 55.41 54.31 55.23 54.72 53.97 49.85 46.78 45.18 43.03 39.80 43.18 47.42 50.03 50.93 55.54 56.65 54.08 52.85 56.00 59.23 58.57 60.37 65.54 65.95 65.09 63.50
54.40 54.56 54.66 54.68 54.74 54.40 51.60 49.04 49.94 50.22 51.33 50.36 53.81 52.56 53.71 57.21 57.41 55.44 55.85 55.50 54.24 53.02 47.24 50.46 46.04 43.54 46.28 46.08 47.48 48.10 49.18 50.52 53.59 56.42 54.30 52.59 52.55 54.69 57.55 59.00 59.89 64.53 64.51 64.95 63.95
53.99 54.23 54.37 54.21 53.73 53.74 49.50 46.22 51.84 50.36 46.42 52.35 53.68 54.41 56.62 57.00 53.57 54.55 55.87 50.53 51.73 47.68 49.06 46.42 43.23 49.15 50.78 49.70 48.30 47.57 47.90 50.49 53.39 56.76 53.05 52.06 52.04 56.08 57.24 58.07 59.70 64.41 64.75 65.24 65.14
53.82 53.86 53.87 53.48 52.95 51.12 48.19 50.30 54.84 51.80 44.26 49.26 51.74 50.89 51.61 52.82 51.94 52.21 53.09 50.95 49.59 47.90 47.70 44.33 47.69 52.26 51.38 49.56 48.00 45.04 48.34 50.23 51.31 53.47 54.27 51.76 49.53 55.51 59.40 62.68 61.52 64.00 66.67 66.75 65.74
53.52 53.50 53.18 51.48 48.92 46.75 48.31 52.72 50.54 50.53 40.48 46.10 47.89 50.30 51.30 51.35 48.76 55.11 53.96 52.52 49.99 48.00 48.49 46.72 50.69 49.97 48.92 48.18 47.29 40.77 51.84 54.37 53.23 48.79 42.21 50.05 41.36 50.30 54.69 55.93 65.21 66.78 67.14 66.92 66.36
53.15 53.17 52.81 51.89 45.18 45.72 51.14 53.17 52.78 49.72 32.69 49.77 49.41 53.36 49.67 48.73 49.88 51.30 54.57 50.58 48.92 49.05 47.62 46.62 48.62 47.90 47.70 48.24 49.33 46.30 49.50 47.99 48.86 44.99 41.80 44.16 40.69 47.89 52.12 51.96 57.10 65.36 67.82 68.14 67.45
53.00 52.52 52.15 48.92 46.31 48.88 52.22 49.26 49.04 40.84 35.15 47.86 49.24 47.03 46.34 47.00 49.31 51.40 50.51 50.93 52.30 49.33 48.49 48.31 51.79 49.81 48.83 51.12 50.23 50.43 48.14 45.86 44.46 41.50 38.50 41.73 43.71 43.43 49.37 52.46 54.14 64.26 68.53 69.10 68.49
52.27 51.55 50.27 50.45 44.07 48.65 49.04 46.79 38.64 34.75 46.88 44.18 44.61 44.22 45.19 45.32 46.16 48.26 47.67 45.38 43.72 41.01 40.96 46.94 48.20 50.14 51.74 48.00 48.63 46.58 40.45 35.88 36.92 36.84 37.58 42.75 44.60 48.19 51.67 55.89 57.12 66.32 68.71 69.71 70.24
51.02 50.56 48.78 50.10 47.99 48.58 47.01 41.94 33.06 43.31 43.19 47.07 46.82 46.06 44.24 45.06 45.64 47.08 45.85 43.80 46.05 45.26 42.32 41.45 41.48 48.06 51.61 47.84 45.04 43.12 40.98 36.77 33.11 35.35 40.06 44.91 40.97 49.95 57.61 58.01 63.69 66.19 65.56 67.35 67.90
49.99 46.45 47.32 48.84 50.90 48.47 43.17 34.79 36.84 42.74 48.19 46.59 46.29 43.39 43.26 45.20 45.95 45.25 44.02 44.30 46.72 46.82 42.40 39.91 42.51 51.31 52.10 51.19 49.01 44.70 41.63 44.10 38.89 36.42 37.79 40.74 46.70 57.83 60.82 63.23 61.49 60.52 62.18 64.22 68.01
44.67 45.59 45.75 53.34 51.29 45.22 39.84 37.11 40.51 47.27 48.06 46.80 42.17 44.85 41.94 44.36 44.07 43.33 42.94 46.56 48.26 49.72 47.03 44.64 40.40 46.07 50.68 50.43 48.86 46.63 47.12 41.32 38.50 35.13 32.87 40.19 43.59 48.54 54.79 58.25 59.79 58.51 59.04 61.74 66.09
44.02 43.42 50.59 53.21 49.13 42.88 36.22 37.69 43.93 48.35 48.54 45.66 44.10 43.19 43.60 43.71 43.83 42.66 44.26 49.06 49.09 48.56 47.93 44.68 42.41 46.21 48.95 45.03 43.81 44.19 42.50 42.78 41.88 39.67 36.25 35.59 40.50 49.99 55.27 57.03 55.62 58.02 61.89 63.26 65.01
44.63 42.41 52.08 53.03 41.75 39.43 38.12 43.01 47.51 47.31 49.03 47.27 46.87 45.65 44.15 45.09 43.11 44.25 45.89 49.01 52.24 49.53 44.88 45.98 42.30 40.47 44.68 48.87 51.84 46.77 44.30 41.33 39.12 38.90 40.13 39.91 42.08 54.18 54.79 56.54 56.80 58.11 60.86 60.96 64.47
41.31 44.72 51.37 48.89 37.58 37.63 40.91 44.69 46.64 46.22 47.07 46.28 45.54 47.00 46.42 43.26 40.02 45.32 48.21 51.81 52.21 50.23 44.94 48.41 40.48 37.97 41.31 43.32 46.30 46.54 47.29 44.61 42.52 40.57 39.01 38.63 41.95 54.72 56.76 55.20 55.64 56.69 59.10 59.94 60.32
43.12 44.22 46.16 44.57 41.29 39.41 38.73 41.53 43.54 49.73 47.57 47.53 46.92 46.49 44.32 42.56 42.12 42.56 45.53 50.95 52.70 54.91 60.37 51.63 41.51 39.35 38.02 40.50 47.06 46.23 48.68 47.68 44.40 40.71 40.67 41.46 47.39 52.30 52.70 54.13 54.37 55.83 58.87 58.80 61.20
44.05 43.52 46.38 41.64 41.87 41.51 40.50 41.84 42.39 43.91 48.18 47.65 43.65 45.66 43.27 38.29 41.37 41.97 45.78 47.17 49.84 55.78 53.53 45.84 40.35 45.11 44.11 47.29 47.83 47.73 48.09 49.01 46.16 44.07 43.06 45.70 49.16 52.43 54.95 53.80 54.18 55.05 57.12 59.82 62.81
42.87 44.52 47.18 43.64 45.04 42.23 40.52 39.51 43.16 45.70 45.52 45.54 43.54 46.52 44.31 40.43 40.59 40.74 44.79 41.85 43.71 49.18 48.75 49.04 42.38 43.90 41.73 47.99 48.37 47.86 49.23 50.17 49.69 50.02 48.46 50.47 48.88 55.06 55.78 55.69 56.25 58.38 60.71 62.35 66.54
48.60 48.42 46.74 45.29 42.67 42.70 42.41 46.53 47.73 48.63 48.23 48.76 48.45 45.74 47.56 48.84 49.92 47.83 47.73 46.72 44.97 47.33 45.72 48.05 46.19 43.24 38.11 46.11 46.46 41.54 46.86 48.75 50.29 50.93 49.34 46.45 51.25 55.43 53.98 55.34 56.32 57.52 60.89 63.61 67.14

GFSSW_sfc_wetblb_057.txt.gz
Wetbulb
58.33 58.07 58.15 58.16 58.59 58.86 58.81 59.12 59.23 59.34 59.51 59.60 59.67 59.70 59.92 60.22 60.01 59.56 55.27 60.28 63.89 74.07 73.75 70.70 69.91 66.43 66.98 63.57 65.06 62.72 53.71 51.33 53.54 54.42 56.27 58.30 57.48 62.68 65.27 65.64 67.45 67.78 66.54 67.96 70.66
57.69 57.55 57.70 57.80 58.31 58.56 58.69 58.82 58.91 59.09 59.18 59.17 59.23 59.62 60.03 60.51 57.65 55.83 64.73 71.84 73.31 74.14 65.03 62.79 61.18 63.02 58.92 59.57 58.60 55.16 50.11 53.14 57.89 58.81 58.00 59.08 59.24 60.44 60.28 64.75 65.14 65.90 68.22 70.96 71.08
57.26 57.26 57.09 57.31 57.60 58.09 58.39 58.61 58.69 58.76 58.69 58.85 59.13 59.49 60.07 60.17 56.19 57.24 72.04 72.85 73.42 73.12 59.98 59.41 57.34 54.52 50.20 50.18 52.36 53.79 51.18 55.40 56.86 60.03 61.16 57.83 59.26 61.08 57.76 59.54 64.45 63.97 66.67 70.03 70.11
56.68 56.89 56.94 56.99 57.03 57.36 57.94 58.32 58.33 58.30 58.34 58.50 58.98 59.41 60.45 58.48 50.80 60.45 74.08 73.34 73.29 64.82 60.41 56.49 53.65 49.92 49.51 50.01 53.39 50.24 53.82 54.89 57.42 59.92 60.54 58.87 59.03 58.86 58.48 58.63 67.65 67.64 68.26 69.88 67.93
56.37 56.39 56.32 56.37 56.64 56.96 57.05 57.42 57.80 57.76 58.02 58.35 58.81 59.65 55.73 49.94 53.36 68.99 73.51 72.49 63.48 58.55 55.65 53.19 51.29 51.33 50.33 51.28 52.37 51.92 53.57 55.24 54.98 56.05 59.75 61.08 59.20 60.38 60.81 65.55 68.33 68.43 68.29 66.66 67.55
55.85 55.56 55.63 55.76 56.37 56.88 57.08 57.26 57.12 57.34 57.78 58.35 58.93 59.57 52.86 44.87 55.43 67.45 63.13 61.34 57.77 54.33 52.62 52.09 52.03 54.28 52.09 51.42 50.49 52.63 53.28 53.31 56.45 60.71 61.43 59.20 59.39 59.96 61.65 67.97 67.32 67.35 66.85 66.18 66.40
55.17 55.23 55.39 55.48 55.75 56.29 56.89 56.75 56.76 56.97 57.71 58.40 58.85 60.29 54.04 48.11 55.34 63.11 58.66 55.16 54.53 53.75 51.75 55.15 55.80 52.74 52.49 51.05 53.45 52.27 52.73 54.50 55.71 58.40 59.64 59.83 56.59 57.29 62.35 67.44 66.44 66.72 66.97 66.43 65.77
54.69 54.69 55.03 55.52 55.67 55.85 56.16 55.99 56.27 57.22 58.23 59.28 59.54 57.84 47.40 54.44 57.50 57.04 55.97 55.05 55.44 53.61 54.22 55.64 55.69 52.42 51.34 53.13 50.08 51.08 50.24 47.60 52.77 55.76 58.82 56.87 49.56 57.11 63.59 65.93 65.42 66.63 66.90 66.11 65.21
54.40 54.38 54.84 55.18 55.51 55.47 55.20 55.03 56.80 58.13 60.04 61.14 56.11 51.10 51.56 60.68 55.94 56.71 57.07 56.10 55.55 54.95 54.00 57.38 53.00 49.45 49.53 45.36 43.35 44.93 43.21 46.90 51.54 55.92 55.50 54.05 50.03 55.70 61.96 65.52 64.86 65.93 65.75 65.53 64.20
53.96 54.25 54.51 54.88 54.92 54.63 54.31 55.19 56.29 57.20 58.85 59.95 59.97 47.28 48.71 51.58 55.29 55.37 54.13 56.60 53.42 51.99 53.35 52.29 48.45 45.57 44.00 42.20 38.68 41.84 44.68 47.06 48.47 53.50 54.51 52.31 52.00 54.57 59.84 62.65 64.22 65.17 65.37 64.41 63.56
54.04 54.30 54.22 54.41 54.39 54.06 51.67 47.65 48.75 47.64 49.40 48.87 50.49 48.96 52.42 55.29 57.44 54.17 54.67 52.43 51.89 50.73 45.63 48.34 45.16 42.35 45.67 45.23 45.89 45.59 45.29 44.77 48.96 52.43 52.12 50.51 50.42 53.13 57.09 58.74 61.39 64.01 64.41 63.62 62.84
53.53 53.86 54.10 53.86 53.53 53.30 48.80 45.70 48.82 46.84 44.49 50.81 51.29 53.69 55.65 55.21 51.61 53.86 54.38 49.57 49.71 46.43 47.82 45.12 41.93 46.99 49.13 48.51 46.80 45.54 44.08 44.38 47.30 52.88 51.79 50.31 51.49 56.18 55.71 57.08 60.17 63.74 63.89 63.71 63.16
53.44 53.67 53.51 53.17 52.57 48.82 44.14 46.91 50.32 46.81 43.74 47.67 50.00 49.79 50.15 52.41 50.38 51.68 52.33 50.05 47.65 45.87 45.61 43.27 46.20 50.25 49.35 47.51 46.29 43.37 43.24 45.14 46.06 51.68 51.18 49.81 47.48 52.69 57.46 59.65 60.25 64.60 64.74 64.55 63.68
53.37 53.49 53.07 52.05 46.89 45.40 45.46 49.45 50.25 47.28 39.12 43.96 46.59 49.52 49.53 50.80 48.05 54.62 53.35 51.38 48.34 45.82 46.40 45.46 49.09 48.95 47.32 46.14 45.87 39.62 47.49 49.38 50.75 47.49 41.87 47.35 40.02 47.09 52.94 54.88 62.07 63.53 63.98 64.46 64.38
53.16 53.26 52.68 51.62 44.24 45.59 47.86 49.74 48.44 46.86 31.27 46.38 47.33 51.29 46.93 47.56 48.89 50.01 52.57 49.82 46.68 47.33 46.17 45.35 46.54 46.26 46.02 46.83 46.78 44.99 48.27 49.99 49.12 43.00 39.96 43.07 40.51 45.54 51.51 53.78 57.31 64.39 65.26 65.68 65.49
52.93 52.53 51.95 47.45 44.39 47.13 49.61 47.15 47.08 39.66 32.75 44.75 48.37 45.07 44.53 45.12 47.86 49.69 49.06 50.12 50.20 47.09 46.54 46.76 49.63 48.48 47.86 49.58 48.68 48.59 45.21 43.16 41.75 39.48 36.56 39.90 41.79 42.58 49.38 50.81 56.66 64.61 65.36 66.66 65.80
52.16 51.53 50.15 49.37 41.23 46.32 46.60 45.69 37.77 33.47 44.24 42.90 42.62 43.71 41.36 42.33 44.32 46.80 45.86 43.55 42.39 39.09 39.29 44.64 45.98 48.20 50.25 46.76 47.22 44.32 38.89 34.53 35.29 35.28 35.64 40.49 42.69 45.00 53.66 61.33 61.07 56.91 56.08 56.85 61.34
50.95 50.75 48.26 48.75 46.86 47.10 45.00 41.40 31.38 40.25 41.21 45.76 45.25 44.80 42.32 43.23 44.04 45.27 43.84 42.20 43.57 43.07 40.20 40.05 39.75 45.97 49.63 46.84 44.25 42.01 39.65 35.16 31.67 32.71 36.64 41.80 38.78 50.34 59.81 62.28 57.87 58.01 58.22 59.20 59.57
50.02 43.50 45.33 47.07 49.43 45.40 42.43 33.94 35.65 40.07 45.99 45.16 44.68 42.02 42.09 44.50 43.52 43.08 42.00 42.15 44.20 44.96 40.89 38.35 40.39 48.31 50.01 48.90 47.86 43.77 39.77 41.28 35.97 34.48 35.59 38.37 49.37 58.33 58.75 56.99 56.66 56.95 59.26 60.96 68.28
43.48 42.73 43.74 49.60 50.24 43.44 39.16 35.71 38.37 44.42 45.65 44.67 40.37 42.70 40.40 42.54 42.82 42.29 41.62 45.00 44.94 46.78 43.90 42.79 39.22 44.91 48.63 48.90 47.99 44.95 45.73 39.32 36.36 33.52 31.77 36.83 43.09 49.78 56.09 54.34 57.21 58.40 58.40 60.50 64.45
43.37 43.19 47.78 49.63 45.35 41.66 35.28 35.96 41.53 46.44 46.82 43.48 41.84 41.40 42.44 41.96 41.59 40.11 42.94 47.59 48.07 47.76 45.64 41.65 40.16 43.78 46.56 43.79 43.42 42.98 40.53 40.07 38.53 37.03 34.91 33.99 39.45 47.84 58.06 57.94 57.49 58.09 58.69 59.20 64.10
41.80 41.48 47.97 48.10 39.74 36.63 36.19 40.52 45.57 44.93 46.21 45.38 44.86 44.01 42.41 43.41 41.40 41.46 43.53 47.16 50.74 48.43 43.10 42.44 39.88 38.79 42.19 45.88 48.58 43.86 41.64 40.99 37.69 35.69 36.86 37.90 40.26 52.38 56.02 56.27 56.87 57.28 59.65 62.32 65.54
37.82 41.78 50.67 45.80 36.35 36.38 38.56 42.37 44.63 43.16 43.61 43.44 44.22 45.60 44.66 42.07 38.48 43.18 45.74 49.74 51.22 51.45 45.72 45.20 38.21 36.27 39.18 41.88 44.19 44.45 44.51 41.95 39.44 37.86 37.93 37.95 40.27 53.51 54.26 56.00 56.48 56.62 58.96 60.48 61.62
40.46 43.03 44.22 42.80 39.25 39.27 38.48 40.02 41.12 47.17 45.01 45.40 44.98 44.92 42.42 40.43 40.88 41.08 44.04 48.75 49.97 52.10 59.19 50.02 38.63 38.72 36.53 39.34 43.82 44.40 46.50 45.77 41.60 38.55 38.40 39.69 42.96 50.62 53.34 53.97 55.54 56.09 55.71 57.40 57.85
40.89 41.03 44.18 39.45 41.37 40.90 40.80 41.81 41.22 41.10 46.12 44.90 41.97 44.43 42.59 37.89 39.07 39.73 44.31 45.91 48.40 53.23 50.55 45.97 38.91 42.16 41.82 45.08 45.71 45.74 46.23 46.69 43.24 42.06 41.26 42.74 46.86 49.89 53.55 54.46 55.74 55.09 55.27 56.77 57.24
40.97 43.30 45.13 43.97 42.24 42.05 40.84 40.41 42.54 43.94 44.48 44.27 41.70 44.67 42.81 39.88 41.55 41.42 44.35 40.91 41.64 46.61 44.45 46.90 42.76 41.15 39.32 45.98 47.09 45.92 47.49 48.15 47.67 47.26 46.24 48.32 48.32 52.06 54.38 54.07 53.86 54.52 54.47 56.23 59.15
45.35 47.58 44.77 43.04 42.67 39.80 39.83 43.06 44.84 45.87 47.06 47.76 47.73 45.33 46.07 48.30 49.37 46.55 46.99 47.07 44.13 44.94 43.48 45.06 42.25 42.00 39.98 44.12 44.49 39.33 44.73 46.66 47.56 48.78 48.38 45.67 49.55 52.62 53.03 55.11 54.92 54.70 56.53 58.18 61.15

GFSSW_sfc_wetblb_060.txt.gz
Wetbulb
58.08 57.89 57.83 58.09 58.39 58.51 58.42 58.66 58.85 59.05 59.12 59.36 59.47 59.54 59.75 60.08 59.72 58.45 52.66 60.00 66.52 74.51 74.13 71.30 68.88 67.45 66.89 63.67 65.33 61.99 53.86 49.93 52.16 53.14 54.93 56.16 56.19 64.57 66.04 64.82 66.38 67.11 66.32 67.45 69.83
57.62 57.58 57.42 57.69 58.16 58.44 58.55 58.76 58.89 59.01 59.12 59.05 59.16 59.28 59.54 60.33 56.60 53.02 63.07 71.86 73.39 73.90 67.27 64.93 63.51 62.37 58.83 58.72 59.24 54.75 49.50 51.48 56.17 57.45 56.95 58.45 57.82 60.93 62.79 63.65 64.54 65.69 68.28 69.27 70.00
57.10 57.04 56.99 57.27 57.36 58.08 58.36 58.43 58.66 58.62 58.57 58.75 59.01 59.31 59.52 59.55 53.93 56.17 70.99 73.41 72.88 73.57 63.32 58.87 58.86 59.91 53.69 51.70 51.53 53.21 49.91 53.53 55.85 58.62 59.66 57.05 58.05 59.49 61.72 60.61 63.51 63.69 66.32 68.31 68.82
56.64 56.47 56.48 56.52 56.83 57.11 57.83 58.14 58.19 58.12 58.12 58.49 58.86 59.25 59.77 57.23 49.94 59.17 74.32 73.94 73.20 69.37 59.02 56.15 52.68 48.33 47.15 48.92 52.18 49.00 53.71 54.44 54.87 56.35 58.73 57.44 58.09 57.95 62.20 61.43 65.90 67.67 68.48 68.40 67.97
56.04 55.81 55.83 56.00 56.43 56.81 56.99 57.19 57.68 57.65 57.78 58.34 58.82 59.24 54.82 47.07 49.12 69.49 74.09 73.66 68.36 59.55 55.59 53.07 49.47 49.17 48.61 50.03 50.97 49.35 51.69 52.63 53.77 54.90 56.55 59.77 57.98 58.84 58.51 63.06 67.32 68.71 69.24 68.19 68.16
55.52 55.30 55.45 55.54 56.01 56.52 56.74 56.99 56.99 57.16 57.63 58.12 58.74 58.96 50.37 43.13 53.13 68.57 64.79 59.72 57.20 54.25 51.30 51.54 49.61 52.90 51.01 50.58 49.08 51.21 51.42 52.28 55.31 59.32 59.65 57.81 58.62 58.83 60.28 66.54 66.27 67.70 68.46 68.77 68.46
55.13 55.01 55.03 55.11 55.53 56.00 56.68 56.64 56.63 56.96 57.57 58.26 58.49 58.94 50.73 47.01 55.80 62.81 60.01 55.52 55.02 52.07 49.39 52.67 51.93 51.68 50.97 49.88 51.88 50.89 50.48 53.18 53.61 56.17 58.08 58.77 55.58 56.55 62.35 65.95 64.96 65.62 66.11 67.52 67.66
54.63 54.49 54.74 54.82 54.96 55.55 55.91 55.55 56.24 57.02 58.73 59.62 59.07 56.24 45.29 52.30 55.37 57.65 55.73 53.98 54.22 52.90 51.79 53.75 54.60 51.23 49.73 51.33 48.71 48.69 48.50 45.72 51.17 55.08 57.22 55.41 49.34 56.42 64.10 64.47 63.69 64.91 65.22 65.53 65.40
54.11 54.14 54.54 54.70 54.89 55.13 54.82 54.93 56.32 57.80 60.17 60.60 54.85 51.67 47.89 58.40 52.27 54.60 55.65 53.77 53.83 53.27 52.79 56.31 51.65 47.78 47.96 43.90 41.59 43.21 41.84 44.09 49.96 54.20 54.14 54.09 49.26 54.28 63.62 64.41 63.57 64.46 64.94 64.56 64.32
54.01 54.23 54.45 54.61 54.68 54.41 54.02 55.25 55.61 57.08 58.83 59.32 58.73 45.85 48.11 49.41 53.65 55.06 53.17 55.55 53.71 50.85 51.76 50.73 46.99 44.76 43.33 42.04 37.46 39.66 41.29 43.07 45.42 49.23 51.45 51.27 51.16 53.76 59.20 63.42 63.71 64.60 64.69 64.32 64.10
54.01 54.11 54.27 54.39 54.17 53.92 51.27 46.77 47.24 46.34 46.85 47.95 48.19 46.51 50.76 54.39 55.50 52.93 53.32 50.88 49.60 49.08 43.04 46.77 44.21 41.39 44.91 44.38 44.69 44.10 42.62 42.63 46.55 48.74 48.42 48.77 49.48 51.86 55.22 59.32 62.24 63.12 63.77 63.74 63.91
53.31 53.70 54.02 53.82 53.47 53.23 47.38 46.30 46.16 45.59 42.49 48.76 49.15 51.05 54.07 53.44 50.01 52.05 53.60 48.15 48.11 45.00 46.14 44.30 40.80 46.52 47.83 47.06 45.57 44.27 42.68 42.57 45.89 49.97 49.57 48.87 49.83 55.53 55.14 56.65 58.89 62.55 63.21 62.86 63.26
53.22 53.51 53.44 53.21 52.46 47.32 43.55 45.20 48.09 44.25 41.15 46.38 48.57 48.72 48.97 51.91 49.11 50.14 52.03 48.83 46.63 44.20 44.53 42.50 45.09 48.77 47.81 45.89 44.69 41.55 41.61 42.54 44.23 48.89 49.37 47.49 44.95 49.38 56.65 58.46 61.81 63.54 63.90 63.44 63.54
53.37 53.33 52.93 51.68 45.36 44.33 45.03 46.43 47.14 45.59 37.57 42.60 44.80 48.46 48.11 49.15 46.92 53.05 53.06 50.90 46.72 44.79 45.06 43.51 47.07 47.59 45.98 45.12 44.50 38.30 45.37 46.55 45.65 46.37 41.25 45.91 38.64 44.37 51.77 58.50 62.56 63.65 63.72 63.72 64.44
53.19 53.00 52.42 51.57 43.58 43.14 46.93 45.40 45.55 44.26 30.16 44.58 44.93 49.80 45.15 45.77 46.37 49.01 51.46 49.06 46.40 45.72 44.47 43.34 44.98 44.69 44.65 45.62 45.66 44.13 46.43 45.23 47.58 42.45 38.94 41.65 39.67 42.47 51.52 55.77 61.26 62.86 59.93 60.61 63.43
52.92 52.33 51.71 46.19 42.78 45.62 47.13 45.21 45.21 38.20 31.41 42.06 46.93 43.13 42.17 43.63 46.05 47.68 47.75 49.34 48.94 45.91 45.04 44.61 47.81 47.09 46.74 48.18 47.44 47.66 43.87 41.68 39.85 38.04 35.44 39.05 40.77 41.68 47.88 55.62 59.14 57.37 56.99 59.08 60.44
52.10 51.26 50.03 48.65 39.97 44.25 44.50 44.24 37.40 31.99 42.09 41.15 40.88 43.05 40.59 41.24 42.82 45.26 44.40 43.03 42.37 38.70 38.10 42.05 43.62 46.39 48.63 45.24 45.73 42.92 38.29 33.95 34.44 33.89 34.77 39.33 40.79 43.15 53.00 55.62 59.74 56.63 56.89 59.92 60.83
50.77 50.56 48.07 48.16 46.64 45.37 43.09 40.85 30.46 38.20 39.17 43.89 43.83 42.42 40.77 41.86 41.76 43.44 42.52 41.13 42.31 41.07 37.74 37.53 37.76 44.72 47.79 45.97 44.20 40.83 38.75 34.82 30.41 31.05 35.12 40.44 37.70 46.21 59.24 60.64 59.82 57.58 59.39 61.38 60.25
49.73 42.94 42.78 45.07 48.75 43.47 41.38 33.73 35.68 38.56 44.01 43.20 42.30 40.40 40.49 42.78 42.28 41.73 40.64 40.71 43.03 43.65 39.56 37.11 39.23 46.24 47.85 46.87 47.01 41.74 38.79 39.63 34.89 32.05 33.93 36.70 49.59 55.11 58.62 55.96 55.53 55.95 58.09 58.64 58.39
42.11 41.36 43.24 47.64 47.94 41.60 38.65 35.42 36.61 42.10 43.55 42.33 38.20 40.74 38.05 41.26 40.69 40.44 39.64 44.34 43.21 45.10 42.34 40.49 37.62 42.59 47.16 47.39 46.02 43.57 44.49 38.45 35.48 32.16 30.59 35.19 42.70 46.13 54.96 54.73 55.26 55.49 56.80 59.05 67.22
41.48 41.34 46.17 47.44 41.57 40.38 34.44 34.39 39.97 44.50 44.93 41.57 39.84 39.63 40.08 40.74 39.69 38.45 40.95 45.96 47.12 46.17 43.35 40.13 39.78 40.77 44.65 42.22 42.01 41.32 39.10 37.86 36.96 35.37 33.64 32.92 37.87 47.49 56.62 57.51 54.97 56.14 57.96 58.56 63.03
37.34 38.46 45.86 43.74 37.16 32.73 35.03 38.92 44.43 43.70 44.66 43.75 42.95 42.18 41.10 41.73 39.86 39.70 41.62 45.17 48.80 47.44 41.47 41.79 37.97 36.21 41.04 44.33 46.66 43.19 40.92 39.45 36.54 34.89 35.26 36.28 39.15 50.45 54.28 58.71 57.85 57.93 59.47 59.52 62.75
35.48 38.05 48.37 43.32 34.55 33.79 36.13 40.67 42.74 41.61 42.18 40.49 42.30 44.00 42.59 39.84 37.62 41.19 43.94 48.14 48.65 49.80 45.36 41.69 37.08 34.81 37.97 39.92 43.04 43.97 42.24 39.58 37.58 37.30 36.74 36.78 39.59 53.01 53.20 56.74 58.56 58.05 58.84 60.81 63.63
38.62 40.95 43.45 40.42 37.56 35.66 36.95 38.98 40.12 45.45 43.47 42.61 43.25 42.75 40.73 38.38 38.97 39.15 42.45 47.10 48.57 49.33 55.92 49.02 36.43 36.56 35.44 38.09 41.42 43.21 45.28 43.78 41.23 38.00 37.44 39.03 42.30 47.75 52.60 53.93 57.27 57.72 57.44 57.64 59.41
40.20 38.67 44.78 39.27 39.47 37.68 37.99 40.71 40.47 41.00 43.60 43.54 39.76 42.20 41.03 36.66 37.23 38.06 43.61 45.25 46.90 51.73 47.85 43.49 39.41 39.08 40.22 42.40 44.43 44.82 45.71 45.83 42.40 41.66 41.47 42.50 43.28 47.24 51.30 55.82 57.41 56.74 56.41 56.69 57.69
39.13 42.45 43.70 41.79 41.12 41.05 40.06 40.17 41.57 43.28 42.22 41.72 40.32 43.49 42.07 38.91 40.27 40.26 43.23 40.52 40.95 45.05 44.14 44.67 41.13 41.08 38.94 44.63 46.05 44.85 46.37 47.03 46.51 44.97 45.94 46.49 46.35 50.24 53.08 54.46 55.26 56.47 54.94 55.50 56.85
42.90 46.05 41.73 41.15 40.87 38.98 40.08 41.99 44.45 44.82 45.82 45.70 46.30 44.68 43.08 45.72 46.77 45.15 45.85 46.34 42.97 43.80 42.01 42.52 40.70 40.62 38.42 43.58 43.61 39.87 42.84 45.80 48.07 48.09 48.60 44.97 48.44 51.30 52.59 54.75 55.03 55.56 55.36 55.88 56.75

GFSSW_sfc_wetblb_063.txt.gz
Wetbulb
58.14 57.92 57.94 58.12 58.60 58.88 58.90 59.03 59.31 59.57 59.66 59.58 59.49 59.54 59.75 59.88 59.96 60.73 55.79 63.50 72.35 75.23 73.51 70.92 70.39 70.79 71.62 67.61 68.13 66.68 59.89 54.39 54.32 55.67 56.84 62.15 62.69 66.36 68.37 66.82 67.35 68.36 68.49 69.98 72.88
57.57 57.43 57.39 57.49 58.10 58.47 58.71 58.67 58.99 58.89 59.00 58.91 59.24 59.41 59.49 59.89 59.26 56.25 66.31 72.85 74.48 74.04 69.88 67.94 66.30 67.51 65.64 63.41 64.32 62.29 58.27 54.37 57.91 58.61 57.98 61.02 62.02 65.13 65.66 65.77 66.13 67.44 69.66 71.58 72.45
56.92 56.83 56.84 57.00 57.38 58.00 58.27 58.48 58.54 58.54 58.73 58.82 59.07 59.43 59.58 60.35 57.59 60.10 72.84 74.08 73.67 71.63 68.57 66.33 66.35 65.14 59.08 58.96 59.08 60.19 55.58 56.70 57.10 58.91 59.53 60.11 61.46 65.51 64.65 63.97 66.45 66.87 68.68 70.63 71.29
56.51 56.50 56.39 56.69 56.74 57.17 57.80 58.11 58.27 58.19 58.28 58.45 59.00 59.53 60.00 60.63 54.46 61.42 74.21 73.72 73.40 66.90 65.23 59.35 62.22 53.97 52.74 53.18 55.97 55.08 57.35 57.85 57.66 57.39 57.81 59.52 62.26 61.56 64.16 64.78 69.22 70.15 70.47 70.86 70.63
56.19 56.10 56.05 55.98 56.21 56.56 56.88 57.57 57.76 57.61 57.84 58.30 58.89 59.59 59.79 51.56 51.54 70.58 74.88 74.05 72.32 62.24 58.72 56.68 54.09 53.80 51.90 54.81 54.98 53.97 55.06 56.00 56.71 59.26 59.87 61.48 60.99 61.38 62.46 65.55 69.19 70.75 70.33 70.34 70.77
55.53 55.49 55.41 55.33 55.96 56.45 56.76 56.92 56.88 57.24 57.67 58.18 58.89 58.98 55.00 48.34 60.45 69.96 69.80 69.62 66.37 59.64 57.49 56.08 53.61 54.83 54.92 54.69 53.87 55.30 55.25 55.35 57.69 61.33 62.01 59.87 61.38 61.66 63.37 68.39 69.33 69.69 69.44 70.20 70.77
54.99 55.02 54.96 55.05 55.12 55.94 56.26 56.43 56.54 56.81 57.54 58.43 59.17 59.50 53.62 51.02 63.27 66.12 63.39 61.16 59.70 58.19 54.10 55.36 54.69 55.42 55.64 53.92 55.54 54.56 53.43 55.98 58.35 59.94 61.47 62.65 59.89 60.28 65.44 68.43 68.49 69.12 69.48 70.22 71.06
54.74 54.58 54.66 54.62 55.01 55.58 55.81 55.62 56.09 57.17 58.74 60.75 59.53 60.13 50.10 54.85 58.74 60.34 62.02 59.15 57.59 58.00 55.41 57.42 58.20 56.35 55.06 55.84 53.12 52.30 53.99 52.37 55.93 58.27 60.60 61.14 55.96 60.44 66.71 67.11 67.28 68.55 69.29 69.83 70.74
54.30 54.16 54.48 54.46 54.95 55.15 54.60 54.84 56.33 58.13 60.20 60.57 59.17 55.47 49.86 59.98 54.05 58.12 60.35 57.89 57.21 57.36 57.31 57.32 56.95 53.90 53.53 51.63 50.96 50.86 48.98 50.33 52.76 56.51 57.86 57.43 53.34 58.99 66.35 66.69 66.42 67.48 68.42 69.27 69.42
54.09 54.27 54.41 54.62 54.59 54.43 53.90 55.39 56.69 58.16 60.04 60.54 60.13 52.72 53.07 51.90 56.62 57.91 58.47 58.38 56.93 55.69 55.17 54.79 54.12 52.87 52.10 51.16 47.98 47.60 47.55 48.92 49.79 53.56 53.84 52.79 53.64 57.21 62.31 65.88 66.04 67.02 67.63 68.12 68.57
54.23 54.15 54.21 54.23 54.19 53.61 53.56 53.50 53.11 52.56 52.43 53.76 52.87 50.76 52.45 57.03 57.61 57.13 56.90 56.60 55.00 53.86 50.62 51.86 50.68 49.54 51.36 51.45 50.46 49.53 48.79 48.80 51.42 52.69 51.76 53.41 54.44 56.97 59.83 63.94 65.93 66.75 67.31 67.50 68.03
53.90 53.98 54.02 53.82 53.25 53.31 51.47 51.45 49.48 49.58 47.67 51.99 51.26 51.75 54.53 56.34 52.55 55.11 56.63 53.75 53.43 50.68 51.44 50.80 48.91 52.29 51.04 50.60 49.85 49.43 48.68 49.07 51.14 53.41 53.29 54.01 54.48 60.10 61.96 62.31 63.87 66.62 67.18 67.48 67.66
53.69 53.76 53.58 53.04 52.53 51.36 48.39 50.78 51.64 50.76 47.98 50.41 51.78 51.83 52.43 54.68 52.08 53.12 55.15 53.75 51.90 50.16 50.21 49.05 50.38 51.04 50.31 50.23 49.38 50.12 48.79 49.70 49.01 51.46 54.35 52.77 51.98 55.77 61.61 64.36 64.64 67.24 68.22 68.34 67.65
53.51 53.43 52.86 51.74 49.17 48.27 49.98 51.46 50.90 50.56 45.76 46.84 48.20 51.37 51.67 53.29 50.42 55.05 56.49 54.70 51.27 50.07 49.91 49.71 51.23 50.00 49.83 49.27 50.30 48.27 50.78 49.86 48.80 49.68 47.56 51.80 45.82 52.79 60.97 62.19 63.92 65.23 66.23 67.23 67.64
53.25 52.98 52.35 51.42 48.09 47.13 50.50 50.54 50.87 49.34 36.58 47.62 48.53 53.22 51.27 49.96 50.06 51.80 54.93 54.12 50.99 49.52 50.44 48.75 49.38 49.22 49.12 49.73 50.54 49.59 50.13 49.90 50.19 51.21 49.53 48.82 48.02 52.02 57.62 60.46 61.77 63.45 65.90 67.02 68.47
52.85 52.59 51.45 48.92 47.96 49.59 50.38 50.07 51.09 44.51 36.04 44.63 49.48 48.15 47.91 49.42 49.54 51.00 52.30 54.26 54.00 50.74 50.04 50.01 51.30 51.24 50.84 51.70 51.22 51.16 49.35 48.56 49.23 49.20 45.18 47.79 48.98 49.84 56.22 59.97 63.03 64.43 65.53 66.97 68.40
52.18 51.38 50.09 49.90 46.30 49.62 50.51 51.13 44.14 38.74 45.75 44.35 46.11 48.17 47.30 46.56 47.61 49.23 49.15 49.36 48.72 46.67 47.11 49.24 48.86 51.04 51.83 49.37 50.55 49.54 48.75 45.90 43.64 43.70 43.57 48.20 48.73 52.16 58.11 60.32 62.08 64.22 64.18 63.71 64.46
50.97 50.59 50.04 50.43 51.53 50.06 49.99 47.50 39.17 43.13 43.81 46.89 47.38 47.61 46.24 47.19 46.79 47.42 47.65 46.95 48.04 48.28 47.02 45.13 43.87 48.40 51.37 50.55 49.71 49.59 49.80 45.86 40.68 41.43 43.85 47.64 46.46 50.76 60.91 64.28 65.79 64.81 66.00 64.68 64.12
49.95 48.64 48.34 50.65 51.42 50.23 48.31 41.82 42.50 44.06 46.15 45.24 46.24 45.24 46.16 47.11 46.62 46.54 47.48 47.37 49.21 49.74 47.00 45.53 44.75 49.73 50.61 51.80 52.36 48.75 47.84 48.96 46.09 44.36 44.54 46.82 51.72 59.04 62.14 62.83 62.91 64.23 64.67 64.10 64.42
46.74 46.47 49.28 51.44 51.72 48.49 45.28 42.02 44.17 44.96 46.89 45.84 43.24 45.66 44.04 46.14 46.24 46.99 46.40 49.12 47.42 48.99 50.70 49.49 45.05 48.80 50.28 51.96 50.48 51.18 51.19 46.71 47.53 42.63 41.44 44.49 47.64 50.21 58.56 61.10 62.87 62.40 63.08 64.12 64.58
46.63 45.73 50.26 52.17 48.11 46.98 41.01 42.83 44.65 47.26 47.79 45.34 44.90 43.91 45.09 44.94 46.07 46.05 46.86 49.87 51.50 49.66 49.48 49.22 49.13 47.46 50.17 50.22 49.65 48.55 48.43 47.44 48.26 47.17 44.15 42.75 46.57 57.73 59.75 63.02 63.10 63.99 64.56 63.88 63.79
43.68 42.10 50.74 50.56 43.78 42.30 42.56 44.51 44.88 46.97 48.08 47.14 47.40 46.15 44.62 45.24 46.15 46.21 46.92 49.59 51.60 51.96 48.37 49.39 48.96 46.59 47.18 49.74 50.54 50.87 50.60 51.35 46.37 45.93 47.17 47.23 46.73 55.06 57.91 61.18 64.67 65.00 64.94 64.11 64.40
41.30 42.92 52.01 48.81 41.22 42.25 43.72 44.05 45.71 45.60 46.27 45.59 45.85 47.51 47.90 46.72 45.41 46.46 47.60 50.55 51.55 53.71 52.03 49.95 47.77 45.13 46.49 48.01 50.03 50.09 49.44 50.04 50.11 50.54 48.35 46.34 48.06 57.10 59.21 60.00 64.49 64.52 64.53 64.08 65.08
43.04 45.86 48.25 47.59 44.48 43.29 43.47 44.43 44.31 47.24 46.03 46.29 45.64 47.82 46.94 46.66 47.75 46.55 47.44 49.93 51.32 52.46 55.34 54.98 47.66 48.04 44.30 46.94 49.29 49.67 49.16 49.35 51.32 49.10 49.09 49.15 51.49 56.11 57.44 59.74 61.68 64.89 65.21 64.68 65.69
44.15 44.71 46.97 44.03 44.89 45.11 45.40 45.08 44.16 43.98 47.27 47.22 45.86 45.47 46.45 46.00 45.93 46.10 49.48 50.30 50.37 54.69 54.20 52.92 49.70 48.83 48.88 48.18 49.12 49.67 50.59 49.93 49.99 51.35 49.97 51.85 51.64 56.09 57.51 58.39 61.35 63.94 65.31 63.25 63.71
43.73 45.89 47.95 45.74 46.88 45.80 44.22 45.46 44.39 46.33 46.72 46.36 45.23 46.83 46.71 46.92 48.34 46.85 50.04 50.32 49.65 52.16 52.40 52.71 51.67 51.02 49.51 49.84 50.73 48.80 49.97 50.42 50.41 49.92 51.28 52.70 52.60 57.65 59.45 60.76 60.70 61.54 63.42 62.58 63.30
44.58 48.52 46.40 45.26 46.05 44.82 45.71 45.69 45.92 47.30 49.34 48.96 47.87 47.67 45.38 48.02 49.94 52.50 52.97 53.05 52.24 51.52 51.28 52.06 51.68 50.94 46.39 50.44 49.48 47.10 48.76 49.73 52.25 53.83 53.65 51.93 54.91 59.11 59.25 60.02 59.72 60.87 61.48 62.57 63.68

GFSSW_sfc_wetblb_066.txt.gz
Wetbulb
58.14 58.05 58.05 58.64 59.01 59.11 59.26 59.26 59.57 59.55 59.64 59.68 59.85 59.82 60.12 60.29 60.08 63.96 58.75 66.07 71.83 74.94 74.17 71.77 72.76 72.80 73.00 68.68 69.62 68.50 60.50 56.14 56.59 56.92 58.48 63.28 62.95 66.67 69.02 67.94 69.18 69.48 69.86 70.79 74.74
57.60 57.55 57.56 57.93 58.55 58.62 58.66 58.83 58.99 59.03 59.22 59.31 59.47 59.75 60.01 60.14 62.90 59.98 70.52 74.21 74.45 75.22 70.76 69.55 68.17 70.74 67.70 64.51 65.30 63.87 58.81 56.76 59.03 59.60 59.26 60.56 62.29 64.65 66.20 66.50 67.76 68.86 72.10 73.04 74.44
57.23 57.17 57.15 57.28 57.33 58.16 58.21 58.32 58.43 58.60 58.72 58.98 59.30 59.68 60.06 60.96 61.37 62.52 73.88 74.92 74.37 73.66 70.29 67.98 67.06 67.08 61.48 60.54 61.07 61.26 57.66 58.93 59.55 60.24 60.72 61.06 61.18 64.50 65.82 65.02 67.23 68.30 71.02 72.08 72.82
56.79 56.65 56.70 56.91 56.82 57.46 57.86 57.98 58.21 58.21 58.37 58.67 59.21 59.74 60.11 63.71 54.77 65.44 75.07 74.65 74.45 71.35 68.76 63.32 64.30 60.55 58.26 57.86 59.45 57.55 59.88 59.22 59.52 60.18 61.84 60.98 62.98 62.62 65.29 65.54 68.89 70.20 72.40 72.04 71.93
56.18 56.19 56.22 56.19 56.49 56.74 57.21 57.58 57.56 57.53 57.83 58.42 59.02 59.85 63.22 55.46 55.35 72.96 75.47 74.50 72.32 66.39 63.84 60.44 59.64 59.22 57.95 58.86 58.60 57.80 59.00 59.33 59.79 60.65 63.61 63.40 62.01 62.33 63.50 66.27 68.73 71.41 71.90 71.45 71.51
55.81 55.83 55.85 56.28 56.48 56.55 56.77 56.98 57.04 57.24 57.82 58.34 59.23 59.12 59.64 51.80 62.86 71.35 71.12 70.64 68.06 64.79 61.31 61.32 58.98 58.30 57.37 57.94 57.60 59.18 58.69 59.12 60.27 61.69 64.12 62.33 62.73 63.51 65.98 67.91 68.87 70.91 70.88 71.52 71.58
55.35 55.55 55.71 55.76 55.87 56.31 56.44 56.47 56.73 56.94 57.81 58.85 60.09 62.12 55.69 54.25 63.24 69.18 70.06 68.59 67.47 63.88 59.40 59.10 58.45 57.29 58.54 57.61 59.00 58.15 56.66 59.06 59.78 60.32 60.25 63.51 60.90 61.42 65.07 68.63 69.03 69.89 70.55 71.40 72.62
55.13 55.34 55.52 55.60 55.60 55.97 55.75 55.71 56.16 57.44 59.36 60.97 60.39 62.55 53.54 58.01 61.17 63.18 64.95 63.33 63.23 63.65 59.49 60.05 60.45 58.94 57.92 59.13 57.48 55.97 57.95 54.63 58.70 59.28 60.28 59.65 55.21 59.83 66.28 67.79 68.39 69.74 70.00 71.01 72.57
54.72 54.67 54.93 55.14 55.24 55.24 54.73 54.85 56.31 58.33 60.42 60.36 63.38 58.26 53.11 59.54 57.05 59.98 62.38 59.42 60.94 60.65 60.94 59.61 59.70 57.60 57.20 54.46 54.96 56.61 52.36 54.15 54.89 57.94 58.57 57.17 55.28 59.97 65.77 66.94 68.30 69.91 70.59 71.00 72.41
54.63 54.70 54.58 54.58 54.60 54.40 54.01 55.37 58.84 58.05 62.03 63.39 62.39 56.81 56.68 53.96 58.49 60.18 62.17 61.42 58.58 58.95 57.62 57.30 57.30 55.02 54.95 53.43 48.99 52.09 53.00 53.49 52.87 56.03 57.11 56.35 55.73 59.46 62.96 65.62 67.40 69.23 70.97 71.18 71.74
54.26 54.44 54.33 54.13 54.05 53.56 55.04 59.73 57.42 57.51 56.78 55.12 56.34 55.17 54.13 57.84 60.08 59.05 60.25 59.73 59.50 57.35 53.37 56.44 53.40 51.68 53.27 54.69 54.35 53.30 52.70 52.09 54.37 56.05 54.74 56.21 55.81 58.97 62.86 63.99 66.64 68.58 69.80 70.80 71.56
53.77 53.93 53.99 53.82 53.08 53.02 55.67 55.40 51.79 51.96 51.00 55.78 55.35 55.84 57.58 58.45 54.45 57.37 59.97 56.50 55.60 52.43 54.41 53.41 50.95 54.25 54.58 54.18 53.26 53.07 51.99 51.74 53.77 55.20 55.34 55.81 55.65 61.35 64.46 64.52 65.25 67.86 69.06 70.17 71.30
53.84 53.78 53.52 53.05 52.49 56.45 53.49 54.88 55.26 54.54 52.02 53.44 55.42 54.35 55.34 56.57 54.11 55.13 58.21 56.90 54.65 52.74 52.86 51.43 52.68 54.17 53.32 52.76 51.93 52.46 51.68 51.54 51.34 54.06 55.64 55.37 54.02 59.06 63.23 66.40 66.33 66.88 69.44 70.50 70.98
53.47 53.56 52.91 51.18 53.11 52.69 54.47 55.44 54.59 55.36 48.65 50.15 51.17 53.99 54.61 55.65 52.48 57.76 58.98 57.10 55.00 52.47 53.29 52.71 54.58 52.33 51.83 50.97 52.46 50.13 53.22 52.24 51.92 51.28 49.43 55.46 49.37 57.01 61.38 64.77 66.30 66.87 68.25 69.83 71.08
53.16 53.11 52.56 51.14 51.90 51.49 53.47 54.42 55.31 55.13 39.93 50.40 51.84 56.64 55.45 53.47 53.34 54.24 58.71 56.76 53.27 53.14 53.58 52.13 51.76 50.95 50.03 50.98 53.17 51.53 53.65 52.85 53.04 52.14 52.64 52.43 49.88 55.02 62.52 60.92 65.28 67.39 68.14 69.41 71.18
52.63 52.41 52.22 53.38 53.79 53.71 54.57 54.36 55.41 46.35 39.55 47.24 51.58 50.87 51.22 52.78 52.70 54.10 54.39 56.93 56.84 54.03 54.04 53.54 54.73 53.75 52.87 53.71 53.84 54.27 52.74 53.50 53.47 52.16 48.13 51.91 50.77 51.30 54.76 57.38 62.76 67.48 68.49 69.22 70.33
51.78 51.26 51.04 52.66 50.54 54.40 54.63 53.10 46.20 41.81 48.39 46.54 48.17 51.12 50.87 51.03 51.28 52.02 52.02 51.81 50.49 49.38 50.06 52.17 52.19 53.81 54.08 51.78 54.06 52.91 51.87 47.24 46.62 46.29 46.27 53.15 50.00 52.68 55.83 60.72 63.85 65.80 68.09 69.26 70.52
50.78 50.38 53.73 54.24 57.30 55.80 52.82 49.57 41.85 46.26 46.81 49.69 49.04 49.84 48.53 50.86 50.72 51.10 50.80 50.04 53.10 52.94 50.46 49.02 47.76 52.41 54.03 52.40 51.67 52.44 52.07 47.88 44.18 44.70 46.95 52.65 47.65 52.23 57.24 62.32 66.46 66.58 68.73 68.56 68.51
49.83 53.74 53.94 58.03 56.75 55.65 48.97 43.96 44.98 47.47 48.31 47.16 48.51 46.96 48.38 50.20 49.83 50.04 50.30 50.14 52.26 53.12 49.86 49.29 48.90 52.76 52.98 54.06 53.57 52.07 50.08 53.73 50.28 50.71 47.00 48.88 51.51 56.44 57.66 61.04 64.97 66.68 68.02 67.94 67.41
49.73 51.65 53.96 57.23 57.17 53.02 45.98 43.52 48.06 49.71 49.69 49.13 45.43 47.77 46.80 48.73 49.21 50.04 49.94 51.70 51.19 53.29 54.96 52.43 48.39 51.78 52.61 54.20 53.95 53.02 54.96 49.28 49.92 45.05 44.03 47.67 49.16 50.43 56.92 59.31 65.14 65.78 67.66 69.40 69.24
51.10 47.95 55.62 58.15 55.44 47.98 42.74 45.61 47.93 50.76 50.44 47.78 47.42 47.41 48.24 47.85 49.28 49.37 49.68 52.85 53.65 51.92 54.09 52.97 51.09 50.49 52.45 51.47 50.85 51.39 50.56 51.84 51.69 51.04 46.32 45.23 48.55 56.31 56.35 59.81 63.69 66.20 67.75 69.75 69.92
49.00 44.70 55.90 55.61 46.38 46.12 43.90 47.09 47.00 49.01 51.14 49.54 49.38 48.45 47.71 48.07 48.49 49.39 49.70 52.62 54.99 55.64 50.55 53.33 51.60 48.45 49.81 53.25 54.51 53.86 52.64 53.16 48.40 49.22 50.18 49.51 49.21 56.35 57.00 61.10 65.44 66.18 68.06 69.91 69.30
45.32 47.88 56.22 54.47 43.70 44.21 45.99 45.91 47.83 47.92 48.65 48.54 47.88 49.08 49.82 48.33 47.10 49.91 50.43 53.16 54.53 54.65 54.08 54.16 50.51 47.19 48.60 51.01 52.77 51.17 52.52 53.44 53.84 54.69 50.58 47.85 49.43 59.21 61.81 62.65 64.74 66.91 69.01 69.03 67.19
46.86 46.64 52.61 50.93 50.82 47.90 45.90 45.67 45.23 49.06 48.18 49.20 49.01 50.16 49.22 48.71 50.66 49.57 49.85 52.00 53.54 55.97 56.65 57.87 53.32 51.21 46.59 49.81 51.94 50.40 51.21 52.60 53.15 49.79 50.13 50.98 52.13 58.97 61.01 61.70 63.96 65.73 68.78 68.78 68.15
49.22 49.15 51.71 49.40 47.86 46.91 48.23 48.84 47.42 47.14 50.45 50.38 49.05 48.44 47.97 46.77 48.33 48.68 51.28 51.49 52.83 55.06 57.95 57.54 52.81 52.81 52.05 51.78 51.17 51.43 51.18 51.57 51.56 52.89 51.31 52.76 53.30 59.35 61.32 62.42 63.70 65.28 67.95 68.37 68.60
49.23 50.45 53.10 51.52 51.28 48.93 46.94 48.55 48.82 49.75 50.62 49.19 48.26 49.87 49.97 48.13 49.67 48.64 50.54 52.27 51.46 53.95 55.57 57.12 52.78 54.21 51.89 51.52 52.22 50.77 52.23 53.15 53.37 53.55 54.35 54.87 56.15 62.40 63.58 64.73 63.99 64.83 64.87 65.89 67.97
50.05 53.38 51.22 50.09 50.80 48.56 50.02 49.48 49.47 51.18 52.26 52.18 51.28 50.42 50.05 51.03 52.29 53.35 55.49 56.32 56.35 54.32 52.15 53.19 53.93 51.97 48.91 52.02 51.60 48.81 52.09 52.93 54.03 55.66 56.49 53.12 59.76 62.51 62.25 63.20 65.14 65.93 66.31 65.74 65.62

GFSSW_sfc_wetblb_069.txt.gz
Wetbulb
58.36 58.23 58.42 58.88 58.96 59.06 59.17 59.34 59.43 59.58 59.74 59.88 60.07 60.24 60.45 60.57 60.10 65.23 60.19 68.06 71.34 74.80 75.83 73.96 73.53 72.65 72.79 70.75 69.16 68.88 62.71 56.86 56.69 57.26 59.10 62.19 62.27 66.26 68.06 68.39 68.73 69.03 69.39 71.61 73.52
57.78 57.80 58.28 58.51 58.64 58.57 58.74 58.70 58.87 59.04 59.19 59.36 59.68 60.04 60.31 60.47 62.11 61.15 71.03 75.21 73.47 74.41 72.60 69.82 69.06 69.93 69.12 65.64 65.15 63.18 59.63 57.62 60.18 60.56 59.66 60.94 60.90 63.43 65.45 66.68 67.87 68.98 70.63 72.88 73.26
57.28 57.57 57.88 57.64 58.09 58.25 58.17 58.36 58.53 58.65 58.82 59.18 59.59 60.00 60.23 61.26 61.98 63.38 74.05 75.27 74.03 74.66 70.82 70.56 66.79 67.91 64.79 63.63 62.25 62.06 59.10 60.62 60.56 61.42 61.58 61.33 61.51 63.26 64.15 63.60 67.83 68.50 69.76 71.89 72.58
56.91 56.83 56.88 57.11 57.03 57.61 58.01 58.12 58.29 58.16 58.41 58.86 59.52 59.94 60.52 63.09 55.60 68.90 75.62 74.78 74.43 73.78 69.79 68.06 64.38 64.09 62.37 60.38 62.08 58.77 61.56 61.51 61.22 61.97 61.32 62.00 62.77 61.71 62.97 64.75 68.36 70.45 71.94 71.76 72.06
56.39 56.30 56.38 56.30 56.86 57.07 57.47 57.59 57.55 57.69 57.99 58.67 59.36 60.02 62.83 60.01 57.75 73.02 75.78 75.21 72.14 71.84 66.60 65.28 63.02 63.08 60.21 60.86 61.28 59.97 60.98 61.61 61.96 61.97 63.12 63.62 62.09 62.35 62.99 66.13 68.74 71.22 71.82 71.43 72.39
55.95 56.17 56.37 56.43 56.49 56.65 56.91 56.90 56.99 57.30 57.98 58.82 59.62 59.51 63.01 54.21 64.81 72.28 71.71 71.36 67.92 66.24 64.64 63.54 61.86 62.87 59.82 59.43 59.57 61.19 60.70 60.83 61.60 61.23 63.01 61.74 61.69 62.81 65.68 67.54 68.80 70.67 70.81 71.74 72.20
55.80 55.99 56.13 56.04 56.15 56.43 56.51 56.45 56.57 57.03 57.99 59.27 60.54 63.00 57.97 56.22 62.50 69.65 70.38 68.33 67.69 66.08 62.28 63.09 62.88 60.08 60.46 59.47 61.41 60.18 58.06 60.22 60.37 60.75 60.83 61.71 58.55 61.23 65.64 67.77 68.72 69.83 70.61 71.66 72.39
55.34 55.50 55.80 55.82 55.84 56.01 55.78 55.54 56.17 57.14 59.04 61.28 61.77 63.23 56.76 60.80 63.23 65.98 69.48 67.76 67.87 65.98 63.35 62.00 61.67 60.05 59.52 60.94 59.78 57.50 57.60 54.97 59.14 60.25 60.66 59.87 55.79 61.25 65.06 67.40 68.11 69.10 69.82 71.07 72.68
55.08 55.26 55.22 55.16 55.18 55.02 54.61 54.65 56.12 58.74 60.49 62.12 64.11 62.53 55.12 61.44 57.84 62.04 66.01 63.90 64.73 63.37 63.67 61.93 60.78 58.40 58.11 55.10 53.79 55.80 53.07 54.13 56.46 60.18 58.47 58.97 56.67 60.07 63.64 65.96 67.76 69.25 69.80 70.77 72.59
54.73 54.81 54.83 54.85 54.49 54.28 53.81 54.79 60.93 58.76 61.18 65.00 63.58 57.28 58.30 55.98 59.58 60.50 62.00 62.00 60.60 59.95 59.05 59.00 57.47 55.46 55.62 53.70 49.13 51.45 53.34 54.98 54.67 57.16 57.83 57.06 57.08 59.05 62.16 63.62 66.18 68.95 69.91 70.44 71.75
54.42 54.48 54.48 54.31 53.95 53.52 55.52 59.78 58.33 59.62 59.78 55.81 57.44 56.44 56.46 58.88 60.67 59.64 61.14 59.42 59.55 57.93 54.38 57.06 53.67 52.02 54.16 55.62 55.33 54.37 53.52 53.57 56.17 57.65 56.45 55.75 57.17 58.90 61.50 62.38 64.05 68.52 69.91 70.46 71.19
54.11 54.21 54.27 54.03 53.53 53.10 56.25 56.18 54.89 54.66 51.89 57.00 56.94 57.12 59.72 59.62 55.51 58.10 61.50 56.99 56.74 53.83 55.88 54.05 51.93 54.99 55.69 55.36 54.40 54.00 52.40 52.40 54.63 56.29 55.88 55.65 56.05 59.11 60.51 63.02 64.17 67.39 68.91 69.93 71.11
53.82 53.70 53.59 53.10 52.52 57.04 54.77 56.28 58.51 57.17 52.36 53.59 56.35 56.16 56.68 58.16 54.96 56.23 59.25 57.75 56.11 54.47 54.45 52.37 53.80 55.60 54.23 53.75 52.45 52.82 52.31 52.81 52.67 54.96 56.03 55.57 55.18 56.84 60.06 64.79 66.23 66.13 68.72 70.13 70.84
53.35 53.29 53.02 51.70 53.21 54.65 55.59 58.48 57.62 58.14 48.68 50.36 53.43 55.90 57.48 57.58 54.24 58.73 60.07 58.02 56.24 54.21 54.98 54.15 55.96 54.15 53.11 52.09 52.79 50.80 54.57 53.82 52.58 51.93 49.27 55.38 49.17 56.65 58.40 60.90 64.62 65.68 66.66 69.20 70.76
53.08 53.02 52.59 50.86 54.43 53.38 54.64 56.54 57.26 57.60 40.41 52.11 53.49 59.65 58.31 54.62 55.64 56.43 60.18 57.92 54.48 55.01 55.32 53.23 53.58 53.18 51.95 52.20 53.61 51.80 54.89 53.53 53.52 52.35 52.19 52.17 51.73 54.63 58.62 57.88 60.61 63.80 67.15 68.60 71.14
52.56 52.42 52.26 55.26 56.69 55.97 56.43 56.36 56.21 47.01 40.75 49.59 53.14 52.57 52.88 54.59 55.32 56.34 56.80 58.47 58.20 55.34 56.10 55.15 57.57 55.75 54.54 55.06 53.97 55.09 53.58 53.75 53.62 52.45 47.90 51.97 51.94 52.90 55.24 58.37 59.14 64.95 67.02 69.19 70.92
51.81 51.30 51.01 54.52 52.13 56.04 56.13 53.54 46.44 42.44 51.14 49.08 49.84 52.10 51.92 51.71 53.56 54.70 53.46 53.11 51.52 50.33 50.97 53.69 54.09 55.85 56.03 53.10 54.68 53.87 51.81 47.36 47.21 47.52 46.80 53.44 51.94 54.00 56.71 57.82 59.73 61.68 68.29 70.34 71.16
51.03 50.20 54.91 56.33 57.60 57.17 54.75 48.71 42.62 47.99 48.79 52.26 50.70 51.67 49.88 52.11 52.32 53.42 53.25 51.92 54.33 53.62 51.28 49.82 48.66 53.71 55.82 53.78 52.45 52.55 52.09 47.96 45.18 46.52 48.73 54.15 50.02 52.74 57.54 58.40 61.47 66.37 68.33 70.91 70.72
49.69 55.00 54.87 57.64 59.08 57.42 50.70 43.66 45.63 49.21 51.54 49.66 50.54 48.14 49.08 50.92 51.56 51.98 51.76 51.71 53.88 55.01 51.03 50.07 50.26 55.83 55.93 56.20 55.07 52.45 50.90 53.97 50.58 51.82 48.88 51.25 53.15 56.38 57.90 57.71 59.46 65.71 68.21 69.20 70.10
51.53 53.33 54.40 59.89 59.71 55.39 47.30 43.57 48.65 52.00 51.64 50.69 46.99 49.35 47.45 49.26 49.87 50.55 51.00 53.02 52.16 54.50 56.12 53.39 49.65 54.34 54.90 55.57 55.40 53.66 55.11 49.64 50.40 46.07 45.29 49.12 50.87 51.49 56.02 56.91 60.83 64.80 66.71 69.42 69.43
52.38 49.87 58.46 60.30 59.33 51.25 43.75 46.31 49.31 51.93 52.14 50.11 48.90 48.48 49.52 49.14 50.79 50.43 50.88 53.08 53.83 53.77 55.51 54.01 52.60 52.14 53.89 52.09 51.40 51.91 50.91 52.35 52.67 51.28 46.92 45.91 48.66 58.04 56.62 58.39 60.13 65.39 67.39 70.28 69.46
51.08 47.06 58.17 58.05 49.32 49.13 45.94 47.96 48.49 50.08 52.34 51.18 51.10 50.10 49.68 50.30 49.56 50.20 50.36 52.59 55.92 55.24 51.81 54.40 52.67 49.65 51.28 54.63 55.30 54.63 53.34 52.85 48.76 49.24 50.90 50.55 49.62 56.55 57.69 61.46 63.27 65.50 68.07 70.96 71.45
48.72 48.92 58.23 55.41 46.55 47.94 49.81 47.74 49.05 49.10 50.02 50.08 49.63 50.88 51.25 49.56 48.36 50.29 52.48 55.11 56.05 55.99 54.48 54.90 51.30 47.71 49.45 52.19 54.40 52.24 53.69 54.57 54.38 53.96 51.31 48.31 50.04 59.35 61.02 62.58 65.68 66.54 68.95 70.69 70.21
49.19 47.30 53.73 53.67 52.82 49.87 49.20 47.98 46.95 49.61 48.91 50.23 50.30 51.41 50.34 49.28 51.78 50.02 51.69 53.35 54.72 56.79 59.70 60.71 53.59 51.05 46.85 50.29 52.61 51.24 51.61 53.20 53.17 50.86 50.93 50.84 52.13 57.67 61.54 62.95 65.20 66.71 70.36 70.51 69.02
51.47 49.44 54.71 50.82 49.28 50.31 49.99 49.65 48.62 48.60 51.24 51.98 50.18 49.45 49.39 48.24 49.27 49.76 51.23 52.87 53.98 55.08 56.57 56.66 52.47 53.20 52.94 51.96 53.41 52.33 51.48 51.64 51.61 52.63 50.45 53.03 55.36 56.26 62.98 63.67 64.84 67.45 69.65 69.88 69.73
50.14 51.86 54.91 53.03 54.52 52.22 49.07 49.23 49.77 51.65 52.16 51.05 50.35 50.23 51.29 49.36 50.19 49.07 51.21 52.69 52.82 55.11 55.03 57.46 53.59 55.72 52.02 52.60 52.43 51.02 52.12 52.62 52.34 52.72 52.82 52.63 53.27 59.53 64.15 65.85 65.53 65.97 66.25 67.43 68.99
51.86 52.29 52.52 50.50 53.15 51.94 50.80 49.28 49.86 51.90 53.56 53.85 52.99 51.95 51.08 52.21 53.68 53.49 54.54 55.90 56.33 55.38 53.98 54.66 54.38 53.62 49.01 51.73 51.58 48.85 51.07 51.92 52.98 53.81 53.76 54.54 60.73 63.65 63.30 65.19 65.74 66.52 67.73 68.05 67.68

GFSSW_sfc_wetblb_072.txt.gz
Wetbulb
58.22 58.51 58.69 58.97 58.89 59.09 59.17 59.15 59.32 59.71 59.97 59.90 60.01 60.22 60.49 60.76 60.11 64.19 61.21 67.40 70.59 73.86 74.75 71.73 73.21 72.87 71.93 70.09 70.40 67.67 60.66 57.30 55.80 56.68 57.66 61.08 60.81 64.96 66.18 66.85 68.14 68.73 69.11 71.29 72.86
57.68 58.00 58.34 58.37 58.45 58.46 58.61 58.59 58.94 59.17 59.21 59.38 59.53 59.92 60.42 60.67 60.61 57.93 69.71 75.45 73.03 73.83 69.33 69.23 68.63 70.01 67.44 67.71 65.49 62.09 58.45 57.62 59.48 59.86 58.59 60.52 60.33 61.56 63.33 66.71 67.15 68.00 71.22 71.87 72.46
57.55 57.76 57.79 57.89 57.76 57.98 58.14 58.30 58.37 58.44 58.66 58.99 59.36 59.91 60.41 60.43 58.90 59.76 75.13 75.08 73.04 73.85 66.84 69.94 69.33 65.87 64.62 65.27 62.82 61.11 57.95 60.52 60.14 60.61 60.88 59.95 61.26 63.03 62.31 62.57 65.93 67.39 69.53 70.69 71.54
56.91 56.96 57.10 56.96 57.01 57.44 57.80 57.97 58.03 58.05 58.28 58.66 59.41 60.11 60.44 61.92 54.23 68.11 75.06 74.61 73.86 70.36 66.87 67.98 66.90 63.05 61.70 61.08 62.24 58.65 60.84 61.06 61.29 61.16 60.90 61.12 61.77 61.08 62.44 64.02 69.19 70.87 71.04 70.97 70.86
56.54 56.47 56.40 56.53 56.89 57.20 57.58 57.77 57.55 57.55 57.89 58.57 59.40 60.48 61.79 57.04 58.98 71.86 75.81 74.33 71.37 69.33 66.94 66.83 64.52 62.74 59.81 60.67 60.46 59.28 59.99 61.47 61.67 61.37 61.38 62.45 61.27 62.36 61.52 65.88 67.35 71.44 70.85 70.79 71.13
56.18 56.49 56.63 56.62 56.68 56.67 56.80 56.94 56.79 57.04 57.72 58.64 59.61 59.85 61.51 53.81 67.17 70.94 70.77 70.06 66.97 66.41 66.54 65.68 64.66 63.61 60.65 59.16 58.30 59.64 59.65 60.11 61.09 61.09 61.38 60.78 60.41 62.34 64.63 66.56 67.71 70.67 69.85 70.69 71.55
55.94 55.89 56.15 56.32 56.33 56.25 56.25 56.04 56.25 56.84 57.73 58.66 60.38 62.64 57.49 55.55 62.45 69.44 69.76 67.58 65.79 65.09 62.83 64.11 65.09 61.40 61.28 58.37 60.24 59.66 56.94 57.95 59.45 60.43 59.95 61.29 57.81 59.48 65.03 66.30 67.00 68.99 69.78 70.62 72.11
55.44 55.64 55.82 55.80 55.71 55.92 55.83 55.38 55.94 57.00 58.19 59.92 62.16 62.71 55.30 61.37 63.40 62.06 67.99 67.36 66.89 66.59 64.70 64.20 62.38 59.36 58.08 59.39 57.77 55.95 56.33 52.87 57.51 59.58 60.43 59.66 54.66 61.58 64.92 65.22 66.84 67.92 68.99 70.34 71.35
54.95 55.01 55.23 55.27 55.28 54.96 54.60 54.68 56.15 58.01 59.72 61.51 62.53 60.47 56.88 63.94 58.77 61.14 64.92 65.19 65.31 65.09 64.17 63.55 60.72 57.33 57.43 53.89 52.18 53.71 49.68 52.73 55.14 59.09 59.19 57.93 55.52 59.66 62.13 65.06 65.86 67.47 68.55 69.46 70.98
54.42 54.56 54.67 54.65 54.53 54.35 53.93 54.90 60.55 59.94 60.24 63.36 62.70 56.93 58.11 56.61 59.32 60.26 62.44 64.90 63.34 62.23 59.84 58.72 57.19 54.08 54.04 52.46 47.51 50.33 50.94 52.84 54.04 57.40 58.24 56.23 55.76 58.73 60.89 61.74 63.51 67.07 68.57 69.31 70.65
54.27 54.18 54.20 54.12 53.92 53.59 53.89 58.35 57.58 58.44 58.52 55.76 56.81 55.39 56.39 59.91 61.22 59.25 60.48 58.94 59.85 58.44 54.40 56.34 52.89 50.60 52.56 54.33 54.35 53.69 52.63 51.99 54.71 57.60 56.47 55.63 55.84 56.93 60.04 60.99 61.28 66.20 69.17 69.41 70.45
54.02 53.88 53.79 53.79 53.33 53.02 54.81 55.96 56.17 55.63 50.42 55.33 56.26 57.94 59.25 60.17 55.60 57.54 61.02 55.57 55.10 52.75 55.12 53.54 51.05 54.34 55.43 55.08 54.04 53.62 52.23 52.10 54.17 55.71 55.02 54.47 54.21 57.12 58.81 60.35 62.02 63.46 68.14 68.97 69.73
53.61 53.50 53.46 53.11 52.30 56.33 56.34 55.02 59.48 56.98 50.40 52.22 54.55 54.28 56.72 58.07 55.80 56.18 58.68 56.99 54.27 52.68 53.65 52.13 53.54 55.56 54.29 53.32 52.10 52.42 51.27 51.39 51.67 54.59 55.43 54.27 52.91 55.50 58.42 60.40 62.54 63.19 67.87 69.47 70.28
53.34 53.19 52.86 51.79 53.70 55.04 54.24 58.40 57.99 57.25 47.18 49.45 52.30 54.14 55.53 56.85 54.07 58.62 59.24 57.35 55.24 53.24 54.61 54.02 55.98 54.26 53.29 52.19 52.87 50.15 53.56 53.08 52.23 51.51 48.00 54.09 46.76 56.60 57.26 58.16 61.49 62.63 63.49 67.93 69.98
53.17 53.00 52.45 51.25 51.64 53.55 55.90 57.04 56.98 55.64 38.47 51.49 53.49 59.41 56.77 53.50 55.89 55.93 59.39 56.58 53.45 53.81 54.60 52.83 53.77 53.37 52.32 52.80 53.93 51.40 53.90 52.73 52.89 51.36 51.01 51.11 48.79 53.59 58.09 57.50 60.97 62.37 63.74 66.08 70.32
52.84 52.28 51.95 53.55 55.06 57.13 57.50 56.49 54.90 45.78 39.42 48.97 53.31 52.52 52.44 53.59 53.94 56.90 56.29 57.64 56.92 53.81 54.99 54.54 57.35 55.62 54.60 55.37 54.73 54.86 52.13 52.24 52.62 51.14 46.36 50.75 49.57 51.23 54.91 58.04 58.89 63.58 65.23 66.14 70.45
52.15 51.09 50.39 53.22 50.87 55.41 55.84 53.14 44.36 40.97 50.70 48.42 49.27 52.37 51.44 51.07 52.18 53.29 53.09 52.86 50.86 49.14 50.09 52.80 53.41 55.78 56.53 53.32 54.95 53.43 49.95 45.45 45.31 45.34 44.83 52.63 49.97 53.31 58.16 59.48 60.90 63.28 65.73 68.71 69.84
50.97 50.14 54.86 55.85 57.67 57.67 55.02 48.12 40.43 46.76 47.97 51.99 51.09 51.47 49.25 51.09 51.27 51.86 51.56 50.74 53.45 51.98 49.78 48.51 46.89 52.97 55.85 53.77 51.96 52.08 50.90 46.24 43.23 44.02 47.24 54.37 48.93 53.00 58.58 58.92 61.72 63.61 69.09 69.58 69.87
49.62 55.97 54.46 57.60 59.17 57.82 50.44 42.89 44.35 47.59 50.50 49.81 50.85 48.40 48.79 50.42 50.71 50.55 50.23 50.67 52.64 53.37 50.30 49.08 48.55 54.95 55.41 55.97 54.73 51.87 50.18 52.79 48.54 49.60 46.82 49.87 54.19 56.65 57.84 57.66 58.52 64.11 67.29 68.44 69.67
49.53 52.92 54.57 58.40 59.72 54.98 47.60 42.58 47.03 51.19 51.34 51.11 47.57 49.37 47.05 48.80 48.63 49.27 49.65 52.24 52.19 54.34 55.92 52.80 49.07 52.79 54.39 56.07 55.85 53.45 54.34 48.18 49.57 44.93 44.21 47.90 51.42 51.11 57.55 58.00 60.07 63.45 65.07 68.52 70.46
52.30 50.71 58.30 60.03 59.01 52.17 44.72 46.37 48.87 51.70 52.27 49.93 49.03 48.35 48.98 48.44 48.90 48.77 49.56 51.92 53.76 53.01 54.49 53.03 52.63 51.32 53.82 52.38 51.77 52.05 50.49 51.27 50.61 50.18 45.55 45.25 48.78 59.84 59.37 59.81 62.06 64.30 66.21 68.61 68.91
51.44 46.80 58.67 58.99 49.87 50.93 47.49 48.89 48.59 50.08 52.20 51.18 51.23 50.19 49.25 49.27 48.97 49.60 49.40 52.02 55.30 55.00 50.93 53.06 50.88 48.93 49.67 54.33 55.93 53.94 52.30 51.87 47.81 48.49 50.53 50.36 49.25 55.27 58.76 59.69 61.36 62.36 67.86 69.91 69.43
48.74 50.58 55.08 55.80 44.66 47.70 51.02 50.27 49.81 49.19 49.65 49.70 49.46 51.03 51.63 49.14 47.43 49.93 50.53 53.52 55.54 54.46 54.71 56.49 50.94 46.59 48.54 51.70 53.92 51.52 52.37 52.78 54.41 54.46 50.09 48.06 49.44 60.31 62.75 63.32 64.92 66.81 68.82 71.21 70.67
48.57 46.99 51.69 54.69 51.70 49.18 48.69 49.48 49.14 51.41 49.55 50.10 49.81 51.14 50.02 49.07 50.97 48.90 49.49 52.10 54.93 54.49 60.38 59.81 53.52 52.86 45.63 49.76 52.66 51.44 51.34 52.46 52.49 50.65 50.52 49.40 54.58 59.42 59.65 60.90 64.29 69.06 70.49 70.99 71.41
51.26 49.20 51.95 47.90 51.45 52.34 51.86 49.82 48.37 48.68 52.40 50.49 49.80 49.18 48.35 46.91 48.40 48.31 50.16 51.37 53.16 58.68 55.27 56.09 53.43 53.01 51.72 51.36 51.16 51.34 51.44 51.64 50.56 51.69 49.33 52.21 55.53 57.76 56.56 56.34 59.71 68.29 70.97 69.66 68.38
49.20 48.70 52.45 50.64 52.88 52.20 50.28 49.80 48.42 49.50 51.64 50.98 50.56 50.29 50.89 49.02 49.01 48.16 50.30 51.21 51.24 54.64 53.30 56.14 53.27 54.05 51.13 52.78 52.86 50.24 52.10 52.88 52.30 51.49 51.33 52.50 55.58 59.88 59.64 62.50 64.47 65.92 68.64 68.75 69.70
53.26 52.44 48.64 47.48 50.56 51.29 51.20 51.06 49.62 52.01 52.52 53.82 53.34 51.93 50.46 50.88 54.86 54.58 53.39 53.88 53.90 55.22 54.46 54.26 54.67 53.31 49.23 50.26 50.60 47.74 51.68 53.99 52.55 53.87 55.32 53.15 58.99 62.30 62.17 63.61 64.36 66.65 67.45 67.28 67.50

GFSSW_sfc_wetblb_075.txt.gz
Wetbulb
58.11 58.19 58.46 58.67 58.66 58.72 58.78 58.91 59.15 59.35 59.60 59.69 59.86 59.94 60.07 60.48 59.88 61.47 60.62 63.24 67.57 73.31 74.39 69.92 70.23 70.41 70.90 68.12 68.40 67.99 58.12 52.91 53.15 53.73 54.15 59.41 59.70 65.09 68.12 66.33 67.02 69.29 68.64 70.11 71.70
57.83 58.23 58.26 58.29 58.17 58.25 58.37 58.56 58.74 58.80 59.06 59.21 59.38 59.72 59.96 60.43 59.47 55.85 65.33 73.18 73.75 73.59 68.47 65.34 65.88 67.72 64.15 63.96 63.64 59.41 53.40 55.35 57.76 55.79 54.90 57.89 59.64 63.62 65.29 64.02 63.80 67.94 70.23 71.39 71.50
57.30 57.61 57.68 57.65 57.75 57.95 57.96 58.01 58.31 58.33 58.39 58.67 59.16 59.67 59.96 59.85 57.84 60.57 75.27 74.47 72.94 72.29 64.86 63.01 66.78 65.85 62.03 60.72 61.30 60.48 53.55 57.24 58.45 58.24 57.66 55.79 59.22 64.89 63.80 61.37 63.78 65.97 67.57 69.56 70.03
56.97 56.79 56.65 56.87 56.88 57.53 57.90 57.86 57.99 57.78 57.92 58.44 58.97 59.77 60.39 59.91 49.75 66.81 74.94 74.36 73.29 70.04 65.05 60.93 63.23 61.45 59.73 57.30 60.82 57.01 57.97 58.45 58.34 58.96 58.35 57.97 58.40 60.85 62.68 64.00 67.61 69.06 69.06 69.30 68.96
56.31 56.08 56.27 56.71 57.03 57.15 57.38 57.62 57.36 57.23 57.46 58.11 58.97 60.26 58.60 52.46 56.00 71.21 75.46 73.95 70.33 68.05 61.89 61.36 62.11 61.41 58.50 58.56 58.28 55.15 56.80 57.50 58.19 58.48 59.19 60.05 58.62 60.75 63.28 67.34 69.35 69.73 69.27 68.98 68.94
55.99 56.20 56.42 56.55 56.72 56.66 56.70 56.70 56.68 56.88 57.40 58.12 59.17 60.11 58.90 50.20 61.38 71.96 69.40 69.08 67.23 64.64 62.32 62.35 63.49 63.18 60.35 57.51 55.37 56.00 56.05 56.58 57.08 57.54 59.21 58.17 58.71 61.68 63.59 69.22 69.00 68.87 68.23 68.87 69.23
55.75 55.83 55.91 56.06 56.30 56.17 56.19 56.09 56.00 56.42 57.38 58.11 59.31 61.15 56.50 52.34 58.08 68.84 67.73 65.90 66.48 63.00 60.72 63.30 63.42 59.54 58.93 55.37 58.09 55.88 52.32 54.66 55.58 56.25 56.63 58.76 54.82 58.33 63.28 68.03 67.70 68.00 68.54 69.22 69.40
55.27 55.34 55.46 55.61 55.57 55.61 55.56 55.25 55.59 56.68 57.63 59.08 60.65 58.98 52.99 58.66 57.25 57.90 65.70 65.88 65.27 62.76 62.15 62.43 61.32 57.04 52.80 54.96 53.49 51.32 50.25 46.77 53.66 55.64 56.58 55.62 50.34 59.60 62.88 63.22 66.43 67.54 68.07 68.98 69.19
54.80 54.93 54.97 54.97 54.88 54.82 54.52 54.43 55.99 58.38 59.60 61.14 58.32 55.04 51.54 63.43 56.98 58.36 58.73 63.34 64.39 63.18 62.71 64.80 59.53 52.92 52.86 48.80 46.18 47.54 44.72 46.83 49.76 54.78 55.76 55.25 51.39 57.82 61.68 64.34 64.29 66.25 67.08 68.22 68.79
54.36 54.36 54.31 54.31 54.25 54.15 53.81 54.70 56.75 58.60 58.70 61.23 60.58 52.69 56.36 54.09 58.21 57.90 56.93 61.16 62.35 61.46 60.18 58.79 53.09 49.37 48.03 45.10 40.63 44.28 45.12 46.85 48.40 53.41 55.27 53.45 52.34 55.30 57.39 63.28 64.29 65.01 66.57 67.80 68.90
54.03 54.07 53.84 53.80 53.61 53.51 51.22 50.61 52.90 53.31 54.28 52.54 53.58 53.22 54.23 57.71 59.53 56.63 57.36 57.22 58.60 59.39 53.01 54.85 47.48 45.04 47.79 49.19 50.04 49.70 48.54 47.79 50.76 53.66 51.07 50.56 52.34 54.01 55.33 56.36 60.79 64.33 65.39 67.32 68.84
54.25 53.92 53.77 53.48 52.82 52.58 50.81 51.08 51.11 52.21 46.73 52.10 52.39 52.83 55.13 56.28 53.86 56.52 57.10 51.49 52.39 50.54 52.83 49.92 47.10 51.06 53.14 52.77 51.11 50.08 48.05 47.75 50.88 53.22 50.33 49.78 50.13 52.63 54.24 54.87 57.67 64.97 65.21 66.88 69.24
53.90 53.65 53.42 52.80 52.08 53.53 51.67 51.39 54.66 53.07 45.63 48.98 51.51 51.48 52.18 52.79 51.82 54.22 54.28 53.20 50.10 49.24 49.60 47.69 50.08 53.90 52.72 51.20 49.78 47.64 45.65 47.55 47.58 50.58 50.60 49.46 47.95 50.29 53.84 55.12 58.47 65.88 66.47 67.34 69.21
53.56 53.58 52.94 51.56 51.27 50.00 50.57 54.78 54.36 53.25 40.66 46.36 48.78 51.54 52.29 52.71 49.13 55.09 57.08 54.25 51.63 48.59 49.96 49.01 52.89 52.56 51.87 50.52 50.22 43.07 51.20 51.21 49.92 46.69 41.86 48.64 39.77 47.03 51.36 52.15 57.05 58.73 65.79 66.30 70.02
53.25 53.21 52.61 51.36 47.04 49.54 53.38 55.76 54.73 50.62 32.63 49.70 50.27 56.18 52.88 49.75 50.79 51.66 56.48 53.84 49.74 50.38 50.00 48.72 50.81 51.15 50.68 50.91 51.34 47.63 51.60 49.67 49.20 44.98 42.83 46.23 41.19 45.32 50.09 50.49 55.03 57.60 62.51 66.69 70.73
52.99 52.73 52.17 50.73 49.34 52.29 53.92 53.98 50.59 39.70 35.03 46.93 51.05 49.92 49.49 50.47 50.32 52.13 52.43 55.39 53.81 50.05 51.15 50.85 54.52 53.15 52.04 53.91 52.95 53.12 49.38 47.63 45.74 42.28 38.34 44.17 43.48 45.17 47.57 51.13 57.07 59.15 61.74 67.36 70.96
52.44 51.61 50.20 50.57 46.70 50.78 53.01 49.80 38.48 35.41 48.23 45.44 46.73 49.13 49.36 48.30 48.92 49.41 48.47 48.73 46.66 42.89 43.90 48.30 49.98 52.95 54.44 50.83 52.10 49.81 45.26 36.82 36.17 37.05 38.20 44.29 42.92 46.72 52.12 57.65 60.28 60.35 62.79 67.25 71.24
51.39 50.50 50.99 52.98 52.20 51.40 51.36 43.54 35.06 43.99 44.98 49.09 48.87 48.93 47.35 49.13 49.04 49.19 47.87 46.39 50.07 48.13 44.20 43.17 42.59 50.04 53.24 50.89 48.17 47.72 44.24 37.92 34.13 36.37 40.79 45.82 43.13 47.92 55.67 56.38 61.77 62.15 65.05 67.42 70.51
50.24 50.92 52.61 54.72 54.97 54.60 46.81 37.33 39.67 45.15 48.19 47.24 47.40 45.62 46.34 49.04 48.92 48.69 47.28 46.60 49.39 50.04 45.41 43.79 44.48 52.56 53.07 53.52 51.77 47.74 44.36 46.78 40.46 41.02 38.57 42.32 47.33 53.85 56.89 59.43 61.13 63.86 65.39 65.44 69.43
45.82 48.39 52.36 56.19 56.77 51.97 43.53 39.56 43.33 47.69 48.05 47.69 43.27 46.31 44.20 46.58 46.61 47.13 47.57 51.04 50.27 52.03 52.40 47.88 42.67 49.39 52.12 53.34 53.14 49.58 50.84 42.62 40.88 35.53 35.11 42.20 44.97 46.41 53.30 55.37 63.27 63.46 63.86 64.92 68.32
47.60 48.76 54.41 57.51 56.27 48.94 40.22 42.41 46.24 49.51 49.55 47.09 45.66 45.33 45.80 45.81 46.38 45.51 46.88 50.62 52.23 52.24 52.83 50.68 47.22 46.67 50.39 48.51 47.11 48.75 47.84 44.31 43.60 42.13 37.34 37.08 41.45 52.95 53.15 54.61 59.02 61.70 64.58 65.79 66.97
47.32 44.32 56.73 56.88 46.73 47.15 44.36 47.56 48.34 48.59 49.67 48.36 48.66 47.46 46.31 47.14 45.54 45.88 45.93 49.37 53.23 52.00 48.36 51.82 48.12 44.28 46.30 51.21 53.03 50.91 48.67 48.21 41.16 39.35 42.16 41.12 41.84 58.40 55.25 56.38 59.77 61.97 60.37 64.82 67.47
44.09 47.60 55.04 53.53 41.38 42.63 46.52 48.14 49.77 49.37 47.84 47.38 46.68 48.30 48.70 46.17 43.28 47.50 48.20 51.44 52.67 51.62 50.85 49.94 46.72 42.46 41.15 46.41 49.78 48.31 50.10 48.37 46.28 44.01 41.38 39.15 43.76 60.54 60.09 60.00 61.83 62.74 63.59 65.84 65.34
44.35 43.81 49.61 51.39 50.98 46.97 45.17 45.86 47.24 51.11 50.46 50.68 47.77 47.95 46.31 44.88 46.83 45.72 47.72 50.70 52.37 51.58 60.00 54.50 47.05 45.82 40.82 44.77 48.68 47.50 49.70 49.17 44.75 41.42 42.74 43.87 48.49 56.01 56.47 58.36 60.74 62.75 62.59 65.01 65.94
47.23 47.32 49.36 44.93 46.01 48.01 49.65 49.71 47.71 46.91 50.24 52.19 50.07 48.12 46.05 42.12 44.45 44.43 47.34 48.79 51.52 54.93 53.72 51.05 44.79 49.66 48.60 50.46 50.76 49.55 49.09 49.53 47.71 46.13 45.65 46.75 51.85 52.14 54.25 56.06 62.85 63.03 60.11 63.53 65.17
44.65 45.21 46.69 44.48 46.98 46.97 47.72 48.21 49.12 48.78 49.27 48.91 47.92 50.31 50.42 46.06 46.67 45.43 47.04 45.75 46.96 50.96 50.70 52.75 46.41 48.21 48.16 51.73 50.59 50.18 52.50 52.48 53.18 53.95 52.37 53.03 53.01 55.23 56.95 58.95 62.30 59.20 62.47 65.51 66.35
50.89 50.73 47.23 44.13 44.20 44.76 47.58 50.12 50.40 51.49 52.17 52.45 51.01 49.46 49.02 51.07 53.55 53.83 52.62 51.07 49.40 47.69 49.79 49.22 46.32 44.39 43.46 49.42 49.41 45.61 53.39 55.66 55.26 53.82 55.00 50.62 54.78 59.23 60.25 61.72 61.66 62.64 65.03 66.01 67.60

GFSSW_sfc_wetblb_078.txt.gz
Wetbulb
57.73 57.54 57.82 58.43 58.56 58.76 58.79 58.69 59.02 59.11 59.31 59.41 59.49 59.49 59.82 60.13 59.90 60.13 55.15 60.60 63.68 72.81 73.26 68.59 66.56 67.41 67.07 66.72 68.88 66.41 56.34 55.16 55.91 52.42 53.10 59.81 59.89 64.55 66.89 66.10 68.30 68.75 67.61 68.64 70.16
57.36 57.17 57.33 57.84 58.27 58.13 58.34 58.36 58.45 58.65 58.65 58.72 59.04 59.35 59.75 60.24 58.19 55.77 64.47 71.91 71.93 73.75 66.64 64.08 61.79 63.89 62.63 63.26 60.78 57.92 52.29 54.11 57.86 56.46 53.70 59.88 62.35 64.24 63.68 62.57 66.24 67.00 69.11 69.77 71.05
56.78 57.21 57.51 57.13 57.43 57.92 57.94 58.11 58.31 58.33 58.29 58.50 58.89 59.35 59.70 60.03 54.34 55.15 74.13 73.99 73.78 72.49 64.59 61.35 60.51 61.46 59.77 60.12 58.78 56.12 53.36 57.30 56.45 58.38 56.56 54.26 62.87 66.48 62.34 59.81 65.12 65.29 66.94 68.49 69.04
56.72 56.52 56.34 56.75 57.02 57.61 57.77 57.71 57.78 57.69 57.82 58.33 58.75 59.35 60.02 58.60 44.07 65.26 74.45 73.49 73.35 67.58 64.04 59.27 58.17 57.68 57.34 57.02 60.26 53.92 56.25 55.49 54.71 55.81 55.83 55.92 60.12 63.50 63.54 62.69 68.40 68.94 68.94 68.61 68.19
55.90 56.01 56.10 56.42 56.69 57.04 57.19 57.12 57.05 57.07 57.37 58.01 58.60 59.33 56.33 48.40 52.88 69.07 74.97 73.13 68.49 66.27 62.57 58.46 57.86 58.58 56.43 58.32 58.28 53.57 54.86 55.34 55.05 55.21 56.28 57.54 56.62 58.76 63.78 66.05 69.36 69.45 69.04 68.31 68.49
55.64 55.73 56.04 56.23 56.42 56.37 56.40 56.41 56.50 56.57 57.12 57.72 58.56 59.38 55.68 48.82 56.65 71.92 69.37 67.55 65.85 63.51 61.19 59.35 60.00 62.29 58.73 57.63 53.70 55.17 53.48 53.46 53.90 54.82 55.77 55.11 55.68 60.48 63.96 67.91 67.68 67.96 67.50 68.39 68.62
55.59 55.56 55.71 55.78 55.98 55.97 55.98 55.88 56.04 56.47 57.00 57.99 58.29 59.22 55.17 49.41 55.59 67.93 67.13 64.57 65.40 63.02 59.49 60.91 61.28 59.12 57.25 54.62 56.10 51.92 49.56 51.67 53.02 53.36 53.25 54.45 52.19 55.98 65.22 67.81 66.42 66.86 67.45 68.21 68.66
55.12 55.12 55.18 55.10 55.25 55.35 55.25 54.88 55.50 56.76 57.75 58.99 59.08 57.83 49.08 56.82 55.94 55.84 64.03 64.22 64.72 63.41 61.31 61.48 60.60 56.51 53.82 53.85 50.99 48.62 46.32 43.61 51.04 52.37 53.90 52.74 47.83 54.81 66.36 66.00 65.06 66.43 67.30 67.75 68.15
54.88 54.93 55.05 54.84 54.85 54.61 54.13 54.23 55.83 58.32 59.92 61.50 55.24 53.06 48.32 60.74 57.38 56.80 54.48 57.35 63.82 62.40 60.55 63.30 59.14 53.76 51.11 46.51 43.75 44.10 42.18 43.88 48.04 52.82 51.63 51.43 49.12 55.46 66.40 65.85 64.83 65.71 66.56 67.23 67.52
54.76 54.60 54.52 54.49 54.27 53.90 53.43 54.28 56.27 57.02 58.88 59.21 59.55 48.86 50.74 51.32 55.66 57.29 54.93 59.97 61.66 60.64 59.72 58.11 53.08 48.05 46.04 43.22 39.37 41.00 42.09 43.74 45.48 50.78 50.96 49.46 50.49 53.87 62.78 65.23 65.09 65.55 66.39 66.83 67.09
54.74 54.47 54.40 54.10 53.94 53.31 51.08 49.98 48.07 47.07 49.52 47.07 49.43 51.64 53.11 55.90 57.17 55.43 56.21 54.26 58.92 57.55 52.35 54.43 47.97 44.30 46.71 46.90 48.16 46.63 45.12 44.68 48.14 51.05 48.97 47.50 48.27 51.92 55.67 64.54 64.29 64.68 65.37 66.21 67.15
54.47 54.30 54.05 53.76 52.74 52.75 48.52 47.76 48.84 48.59 42.61 49.50 50.91 50.68 52.35 53.09 49.63 52.33 55.08 49.29 51.45 50.08 52.45 49.62 46.20 51.74 51.15 50.50 49.11 47.89 45.86 45.47 48.25 51.09 48.19 47.53 48.25 50.61 51.52 54.82 61.99 63.97 64.98 66.24 68.05
54.30 54.01 53.59 53.12 52.10 48.92 44.51 47.07 51.15 48.25 40.91 45.80 48.93 48.62 49.03 50.38 49.04 50.11 51.86 50.86 48.08 48.11 49.22 47.58 51.11 53.54 51.09 49.70 48.23 47.01 43.94 45.60 46.04 48.93 47.53 47.07 45.91 47.19 50.89 52.62 60.51 64.75 66.38 67.79 68.43
53.93 53.68 53.10 51.85 46.64 45.48 46.60 50.51 51.68 49.42 36.71 42.79 45.12 48.87 49.04 49.35 47.36 53.61 53.43 51.62 48.46 46.46 48.20 46.75 51.10 49.97 49.41 48.64 48.88 43.52 49.69 48.56 48.15 45.28 40.45 46.14 38.97 44.23 47.94 49.79 57.18 62.81 65.81 67.30 68.51
53.86 53.33 52.70 51.96 43.27 44.99 48.25 49.47 51.07 45.87 30.32 48.07 48.30 52.14 49.13 47.79 49.34 50.44 54.31 49.38 47.17 47.69 46.25 45.56 47.79 47.63 47.54 48.78 50.46 47.59 50.72 48.95 47.94 42.56 39.52 42.57 39.37 42.91 45.43 47.71 49.61 60.92 65.11 67.60 68.91
53.26 52.79 52.50 48.07 44.94 47.40 50.45 48.73 45.02 37.66 31.69 45.12 49.03 47.75 47.64 49.09 48.55 50.64 49.82 50.26 50.70 48.00 47.48 47.37 51.09 50.13 49.54 51.48 51.86 51.88 47.87 45.26 42.76 39.31 35.88 39.81 40.61 43.18 44.30 47.04 50.25 56.08 64.28 67.70 68.95
52.54 51.54 50.27 49.49 44.35 46.09 47.34 44.66 36.08 31.62 44.63 42.51 44.02 46.41 46.01 45.72 48.15 48.36 46.41 44.89 42.48 40.10 40.79 45.11 45.95 49.91 51.69 48.45 50.65 48.33 40.67 36.51 35.64 35.20 36.14 40.54 40.34 44.10 47.33 50.61 51.64 54.89 63.88 67.62 69.45
51.50 50.65 48.98 49.64 46.66 47.75 45.56 39.79 30.17 40.72 41.81 46.82 45.91 45.72 42.68 45.87 47.25 48.29 44.88 42.50 44.65 43.23 41.38 40.90 40.19 46.00 50.14 47.24 46.40 45.78 42.43 36.75 32.64 33.18 37.89 43.00 39.59 45.39 51.43 53.22 55.32 58.01 65.14 68.53 69.24
50.17 43.43 44.32 48.87 50.81 47.28 41.90 32.77 34.88 41.01 45.77 44.18 44.17 41.24 41.89 45.75 46.22 45.61 45.45 44.98 45.63 45.82 40.66 40.62 40.27 48.84 49.48 50.23 48.83 46.32 43.37 44.53 38.38 35.88 36.11 39.08 43.26 50.15 54.26 56.53 59.39 62.45 66.94 67.91 69.05
43.95 41.71 44.31 51.45 50.76 45.52 38.49 35.65 38.48 45.07 45.68 44.86 39.30 42.20 40.22 42.87 42.71 42.28 43.42 48.58 48.82 50.95 50.04 47.11 41.34 46.21 49.76 50.20 51.10 47.71 48.56 41.34 37.69 33.88 33.32 38.20 40.19 43.95 50.68 55.16 60.64 61.31 66.15 67.98 69.41
42.09 41.49 49.18 50.96 50.24 42.82 34.74 35.58 42.51 47.34 47.63 43.60 42.27 40.97 42.20 41.83 42.01 41.29 42.51 47.78 48.99 49.56 50.08 44.95 42.88 44.57 48.86 46.79 46.08 45.80 45.16 44.59 41.94 39.29 36.32 34.16 38.89 48.94 52.64 53.17 58.10 61.97 65.19 67.73 68.96
39.03 37.75 48.95 50.78 41.80 38.74 37.38 42.83 46.88 47.37 48.63 47.04 44.67 43.18 41.91 42.92 41.86 42.15 42.77 45.90 50.67 49.50 47.56 49.53 43.36 38.79 44.83 50.50 51.21 48.30 46.25 45.05 42.85 38.42 37.63 38.46 39.77 55.54 56.64 59.35 59.90 62.14 65.08 66.79 68.95
36.19 38.88 48.51 48.05 35.83 35.20 38.89 43.48 47.41 46.83 47.20 46.09 44.08 46.86 44.49 41.69 38.49 43.11 45.78 49.01 50.25 50.15 46.05 47.98 43.12 38.64 43.95 45.87 49.18 46.28 47.28 45.99 43.26 41.42 43.00 39.26 40.10 57.20 58.89 59.17 60.65 62.12 63.39 64.98 65.85
36.73 35.94 42.60 43.28 41.40 40.04 40.78 42.99 45.38 51.42 48.89 49.29 47.67 47.98 45.42 42.14 43.07 41.28 43.72 48.19 50.14 50.83 60.12 51.47 41.18 41.32 37.98 43.46 47.21 45.91 48.60 49.17 45.10 40.48 40.17 40.46 43.12 53.20 56.69 55.36 57.68 60.02 61.41 64.10 64.67
38.48 38.97 39.19 35.20 38.25 38.76 38.68 43.10 44.29 45.56 48.76 47.89 46.04 46.35 43.81 40.31 42.50 42.63 45.27 48.13 51.02 53.09 50.76 47.01 42.22 43.18 45.98 49.24 49.77 48.55 48.35 52.09 47.47 47.42 42.34 42.74 47.86 50.69 54.97 53.58 54.82 57.76 60.65 62.03 60.82
38.07 38.33 40.19 37.84 38.55 38.61 39.45 42.24 45.21 47.94 46.86 45.31 44.66 48.03 45.61 40.16 43.26 43.79 46.06 44.47 43.73 47.40 46.41 48.81 42.17 44.80 44.28 50.04 54.30 53.01 55.04 54.75 52.06 51.40 52.26 50.92 49.02 55.54 56.08 56.35 56.45 57.32 58.52 59.87 61.42
43.08 42.41 40.37 38.73 36.46 35.88 37.46 41.27 44.55 46.12 49.07 49.73 47.98 46.31 46.35 47.67 50.51 51.13 50.31 47.88 47.97 45.03 45.93 46.95 42.86 41.14 40.32 46.88 48.31 46.87 52.12 52.12 52.45 53.29 51.50 49.44 52.26 57.22 58.29 59.41 60.16 61.60 61.85 64.43 65.94

GFSSW_sfc_wetblb_081.txt.gz
Wetbulb
57.27 57.10 57.15 57.53 57.89 58.16 58.25 58.46 58.67 58.81 58.98 59.17 59.15 59.27 59.43 59.73 59.67 58.48 52.85 58.86 62.20 73.85 72.79 68.82 66.90 64.56 65.34 64.78 68.11 64.76 56.58 53.02 55.19 55.00 51.79 57.94 58.74 63.01 65.99 65.58 67.25 67.65 66.25 67.12 69.44
56.88 56.75 56.77 56.91 57.87 57.99 58.09 58.13 58.26 58.44 58.39 58.52 58.60 58.94 59.32 59.83 57.42 54.90 63.59 71.31 72.59 73.82 67.26 64.41 61.83 64.07 61.55 62.99 63.23 59.67 53.28 54.30 57.61 55.50 53.05 59.10 60.41 61.96 62.92 64.01 65.52 66.08 67.38 68.19 68.67
56.69 57.08 57.15 56.63 56.98 57.65 57.67 57.73 57.94 57.98 58.05 58.22 58.50 58.86 59.28 59.48 51.93 50.39 72.99 74.54 73.22 72.29 62.89 60.88 58.91 57.79 58.04 58.86 58.43 54.97 51.76 55.42 54.61 54.07 54.34 53.82 60.29 63.98 62.06 61.34 64.43 63.59 65.37 66.58 67.85
55.91 56.23 56.67 56.89 57.04 57.31 57.33 57.44 57.51 57.45 57.58 57.81 58.39 58.75 59.32 57.55 43.00 60.17 73.95 74.04 73.80 67.17 61.58 57.81 55.71 53.33 55.33 55.72 59.06 53.81 56.99 54.97 53.41 53.64 52.48 52.63 60.42 62.88 63.03 61.11 67.60 67.27 67.93 67.80 66.87
55.27 55.51 55.82 56.36 56.70 56.94 56.93 57.11 57.00 56.90 57.28 57.55 58.15 58.92 55.28 46.13 48.80 63.52 74.03 72.17 65.85 63.87 59.03 56.61 54.55 55.44 54.37 56.38 57.21 54.36 54.22 53.30 52.52 52.63 53.75 54.70 60.57 62.92 62.85 67.22 68.38 68.11 68.53 67.97 67.70
55.66 55.90 56.12 56.39 56.38 56.35 56.53 56.41 56.32 56.59 56.95 57.53 58.14 58.55 53.22 45.96 53.02 69.24 66.82 63.99 62.92 60.60 58.80 58.53 55.81 59.13 57.45 56.99 53.49 54.72 53.56 51.54 51.74 52.98 53.54 52.69 53.07 59.82 63.19 68.07 67.10 66.98 66.50 67.62 68.20
55.75 55.58 55.72 55.89 56.18 56.09 56.06 55.88 56.23 56.44 57.16 57.52 57.93 57.73 52.45 46.51 52.99 67.31 64.84 61.54 63.34 60.36 57.24 59.74 57.78 56.52 56.52 54.04 55.30 50.97 48.20 49.64 51.54 51.51 50.60 52.15 50.28 51.48 63.82 67.36 66.15 66.32 66.57 67.13 67.71
55.68 55.68 55.64 55.68 55.82 55.79 55.53 55.22 55.78 56.93 58.28 59.74 58.87 56.58 44.59 52.90 55.17 55.90 63.08 62.32 63.23 62.57 60.61 60.42 59.49 56.14 53.89 54.31 49.32 46.46 44.76 42.59 49.39 50.31 51.28 50.76 45.29 52.31 65.50 65.70 64.99 66.03 66.53 66.96 67.38
55.31 55.31 55.12 55.21 55.31 55.21 54.43 54.56 56.83 58.08 60.11 60.20 53.88 48.82 44.41 58.17 55.25 56.39 55.96 57.32 60.47 61.49 60.70 63.49 57.57 52.92 52.23 45.14 42.65 42.50 40.29 41.56 45.73 50.77 50.16 49.29 46.76 51.96 64.72 65.12 64.33 65.10 65.77 66.62 66.77
55.20 55.11 54.87 54.74 54.78 54.24 53.79 55.11 56.70 57.10 58.73 59.67 58.45 46.77 49.19 48.89 53.36 54.43 54.19 54.28 55.05 58.20 59.24 57.64 52.05 48.08 44.47 42.53 39.30 39.54 40.17 40.65 43.41 48.10 48.26 47.39 47.67 50.57 63.48 64.30 64.03 64.40 65.18 65.74 66.09
55.15 54.88 54.66 54.19 53.99 53.70 51.31 48.47 45.90 44.46 46.21 43.30 45.90 48.19 50.14 53.69 55.08 51.70 53.47 52.50 56.23 56.11 51.22 53.96 48.49 45.32 47.79 45.52 46.53 44.86 42.95 42.77 46.12 49.28 46.74 47.18 46.96 48.56 62.97 63.49 63.20 63.73 64.49 65.03 65.88
55.07 54.78 54.35 53.75 52.97 53.14 46.83 44.62 46.57 45.71 40.37 47.50 48.16 48.71 51.46 52.30 48.20 51.07 52.88 48.69 51.83 48.89 51.92 49.14 46.19 51.77 52.76 49.02 47.31 45.52 43.42 43.30 46.24 49.31 46.12 46.26 46.09 48.63 59.84 63.02 63.67 63.84 64.12 64.85 65.23
54.92 54.53 53.89 52.95 52.30 47.90 43.89 45.15 47.64 42.93 39.32 44.19 46.47 46.45 47.40 48.03 46.95 48.38 50.70 49.33 46.95 45.55 48.44 48.62 49.77 54.18 51.39 49.21 46.55 43.99 42.03 44.69 43.68 47.96 46.00 45.07 44.22 45.56 50.07 57.56 63.73 64.79 65.36 65.75 65.68
54.73 54.30 53.34 51.85 48.54 44.55 46.66 46.70 47.19 46.27 36.04 41.40 45.49 47.92 48.44 48.01 46.00 52.01 51.88 49.86 46.53 44.88 45.75 46.28 49.90 50.58 48.94 47.47 47.19 41.12 48.27 47.61 46.28 42.97 40.40 44.25 36.93 42.66 45.58 45.96 54.01 62.72 64.03 65.01 66.24
54.42 54.02 52.84 52.20 43.31 44.17 50.22 47.32 48.84 44.38 29.93 45.75 47.18 50.74 49.16 45.84 48.59 49.91 52.11 47.92 45.45 45.69 44.52 43.54 46.34 45.68 46.09 47.68 48.05 45.71 48.72 47.18 46.84 43.32 38.11 41.44 36.77 41.25 43.37 45.56 47.84 58.80 63.29 65.25 67.01
54.02 53.34 52.57 47.50 43.47 46.11 48.05 46.07 43.23 37.07 30.62 43.24 46.81 45.94 45.45 45.90 47.81 49.83 48.52 48.63 48.94 45.61 44.72 44.72 48.23 46.83 47.04 49.12 48.99 49.79 47.04 43.57 40.40 37.25 33.86 38.95 38.41 39.15 41.61 44.96 47.25 57.73 63.21 65.40 67.33
53.13 51.82 50.30 49.04 44.32 45.14 45.75 43.11 35.71 31.13 42.68 41.15 41.82 44.12 42.50 43.33 45.68 47.33 46.58 42.35 41.02 37.71 37.64 42.84 44.31 47.24 49.14 45.81 47.53 46.32 39.79 37.78 34.14 33.50 34.66 39.21 38.07 41.43 44.70 48.04 49.44 50.76 61.36 65.39 67.60
51.60 50.61 48.32 48.99 46.42 46.46 43.18 39.24 29.32 39.09 39.72 44.71 43.45 42.95 41.27 43.72 44.39 45.82 44.22 42.17 43.08 41.20 38.28 37.74 38.56 44.55 47.87 45.89 43.30 42.94 39.98 35.16 30.63 33.14 37.78 40.18 36.74 42.86 49.10 50.47 52.46 55.12 58.16 65.43 67.12
50.10 42.85 42.13 44.80 48.38 44.63 40.88 32.25 34.37 38.35 43.79 42.18 41.83 38.64 39.53 43.36 42.95 43.13 42.14 42.61 45.45 44.56 38.52 36.13 38.60 46.94 47.35 47.78 46.83 43.01 40.47 43.47 39.42 33.25 33.84 37.23 41.31 47.23 49.34 51.91 59.95 59.30 59.45 63.96 66.83
42.86 40.65 43.47 48.46 48.76 43.15 37.13 34.65 36.00 42.22 43.78 42.75 37.56 39.84 37.09 40.91 39.98 40.32 41.45 45.26 45.54 48.16 45.59 42.95 39.20 43.96 48.39 47.83 48.59 45.25 47.46 40.71 39.18 32.18 29.79 35.81 38.41 40.50 45.81 50.49 58.94 61.26 58.74 64.09 67.02
39.72 39.96 46.54 48.39 46.60 41.59 33.77 33.79 40.26 45.47 45.96 42.32 40.72 39.51 40.25 39.45 39.88 39.07 42.02 45.78 46.96 47.18 47.57 44.08 40.55 43.17 46.34 43.97 43.87 43.78 41.97 42.94 42.33 38.81 33.44 31.70 36.83 44.68 49.25 53.54 53.46 60.59 64.36 65.80 67.27
37.45 38.84 47.21 47.45 40.85 35.30 36.40 40.45 45.58 45.41 47.97 45.25 43.61 42.22 40.04 40.86 39.16 39.65 41.47 44.62 48.65 48.15 45.09 44.22 39.38 37.56 42.73 47.82 49.00 46.34 44.10 42.57 40.31 38.09 34.61 35.38 37.14 51.97 55.64 58.78 58.77 61.75 65.91 67.03 68.10
34.36 35.52 45.06 46.25 35.48 33.82 38.21 42.88 44.40 46.31 46.63 45.06 44.73 46.82 44.74 40.02 37.89 40.99 44.20 48.22 49.72 48.59 46.59 46.40 39.07 35.52 39.86 44.90 48.07 44.55 44.83 46.01 42.36 39.46 38.36 35.33 40.40 55.05 58.07 57.65 61.04 62.10 64.45 66.48 67.60
36.16 36.38 39.57 40.32 37.65 37.01 36.44 39.04 42.59 49.28 47.98 47.57 45.87 46.03 43.39 41.77 41.33 39.97 44.48 50.00 52.43 51.13 59.45 50.33 39.01 39.85 37.19 42.21 46.61 45.26 47.32 45.18 43.57 37.51 38.58 39.00 40.19 51.58 53.53 53.71 54.55 57.72 63.03 64.61 64.32
37.25 37.47 36.97 33.90 36.57 35.25 35.24 39.47 41.60 41.24 47.71 46.35 44.02 44.85 42.20 38.21 41.80 42.19 45.20 47.01 51.41 53.01 48.16 45.73 40.98 39.98 44.31 47.25 51.46 48.19 50.05 47.66 46.06 44.39 41.30 45.47 47.84 53.97 54.12 53.83 54.72 57.14 59.99 59.77 60.80
38.15 36.85 38.11 36.04 35.90 35.04 36.28 36.20 40.00 41.64 43.08 44.76 42.70 45.97 43.49 39.91 43.35 42.52 43.69 42.37 44.30 48.66 45.50 43.30 40.92 42.20 42.52 47.89 51.20 51.75 52.77 52.80 52.34 51.56 51.96 52.92 52.18 57.86 58.30 59.36 59.01 58.02 61.38 61.94 59.31
40.42 39.42 38.89 37.93 34.38 34.15 34.37 38.02 40.46 41.22 44.43 47.54 47.05 45.03 44.70 45.78 48.90 49.14 49.03 47.93 47.67 42.92 42.32 41.39 41.49 38.72 36.74 45.68 46.50 44.63 50.86 51.28 51.52 51.99 52.68 49.06 52.57 57.25 56.10 57.67 58.68 59.65 61.67 63.72 62.08

GFSSW_sfc_wetblb_084.txt.gz
Wetbulb
57.15 57.07 57.12 57.56 58.13 58.23 58.40 58.40 58.57 58.73 58.88 58.98 59.05 59.04 59.26 59.39 59.33 57.06 51.34 57.95 60.33 72.98 72.95 69.68 64.97 63.85 66.68 65.56 67.83 65.41 55.77 52.69 53.72 54.04 51.90 53.33 57.44 62.42 65.84 65.12 66.64 67.01 65.66 67.00 68.42
56.66 56.80 56.91 57.31 57.88 57.89 57.97 58.03 58.23 58.44 58.44 58.48 58.57 58.75 59.09 59.42 56.29 53.00 62.63 71.06 72.88 72.93 65.02 61.95 60.14 61.89 59.27 60.90 63.80 58.97 53.30 54.53 56.94 55.87 51.78 52.73 59.53 61.29 63.10 63.20 65.00 64.99 67.76 68.81 68.94
56.46 56.70 57.25 57.20 57.50 57.99 58.07 57.99 57.93 58.01 58.05 58.18 58.41 58.82 59.28 58.90 49.40 47.71 72.97 73.08 72.85 73.05 64.77 63.95 60.43 62.30 57.38 58.82 59.08 57.25 52.20 54.63 55.72 54.91 53.71 50.57 57.65 62.49 62.06 60.29 63.60 63.38 65.05 67.08 67.91
56.64 56.74 56.88 57.23 57.64 58.09 57.96 57.99 57.97 57.88 57.75 57.92 58.30 58.81 59.23 56.12 41.90 55.98 74.35 74.10 73.46 69.41 60.34 56.21 53.69 50.23 52.41 54.66 58.05 52.20 55.51 56.47 53.30 54.46 51.50 51.26 57.49 60.94 63.20 63.01 66.43 66.77 66.52 66.96 66.86
56.79 56.83 57.06 57.22 57.40 57.79 57.88 57.81 57.62 57.49 57.38 57.64 57.99 58.35 53.63 44.03 47.70 62.85 73.36 73.36 68.76 62.82 57.42 54.83 51.96 52.46 51.87 54.75 56.43 54.10 55.36 53.35 52.91 51.60 51.61 52.90 56.73 60.71 62.15 64.60 67.51 66.95 66.47 66.28 66.78
56.79 56.60 56.72 56.70 56.97 57.20 57.18 57.27 57.08 56.96 57.29 57.21 57.83 58.18 50.45 42.27 51.60 63.79 64.71 62.19 61.63 59.59 57.76 56.15 53.45 54.57 52.96 55.85 54.33 55.09 53.67 51.69 50.54 51.55 52.79 51.23 52.07 60.25 60.89 66.44 66.57 66.38 65.63 66.19 66.50
56.60 56.57 56.53 56.51 56.86 56.75 56.85 56.76 56.70 56.88 57.42 57.96 58.20 56.54 50.06 45.57 52.27 65.64 61.71 57.54 60.66 58.98 55.99 58.42 56.97 54.78 55.04 53.16 54.00 52.22 46.40 48.51 49.73 50.72 49.48 50.37 48.66 53.46 58.49 65.69 64.79 65.95 66.21 66.77 66.82
56.31 56.27 56.20 56.04 56.04 56.19 55.98 55.52 56.52 57.78 59.10 60.61 58.85 54.41 43.18 50.36 53.28 54.61 56.29 57.32 61.13 60.60 58.17 58.92 58.50 54.15 54.03 53.54 48.33 45.33 43.41 42.41 48.02 49.07 50.00 49.16 44.43 51.18 64.04 64.26 63.36 64.88 66.04 66.71 67.10
56.41 56.12 55.98 55.60 55.65 55.38 54.77 54.97 56.77 58.62 60.20 60.03 52.99 46.71 43.57 56.41 51.89 53.26 56.39 53.67 55.41 59.55 59.54 63.25 56.67 51.94 50.93 45.61 42.80 41.61 40.05 40.11 44.50 48.98 48.68 47.67 45.13 50.20 61.35 64.05 63.27 64.08 64.77 65.72 66.19
56.34 55.89 55.55 55.35 55.10 54.55 54.04 55.36 56.20 57.33 58.87 59.92 57.44 45.94 49.22 48.15 51.39 53.61 52.69 53.44 51.69 54.17 56.31 56.28 52.21 47.39 43.82 43.16 40.00 39.27 38.91 40.28 41.51 46.62 46.77 45.16 45.61 48.45 52.04 63.07 63.50 64.13 64.69 65.22 65.37
56.21 55.89 55.44 54.95 54.43 53.80 51.41 46.25 44.13 43.69 45.44 42.38 44.22 46.43 48.14 50.91 53.26 50.94 51.68 50.80 50.75 54.08 48.68 52.03 46.60 43.48 47.87 46.36 46.38 44.24 41.93 42.02 43.68 47.30 45.45 44.55 45.33 48.22 51.93 61.77 62.53 63.52 64.13 64.44 65.27
56.27 55.64 55.27 54.46 53.52 53.25 46.01 44.02 43.47 42.90 39.07 46.14 46.38 46.67 48.96 49.55 46.97 49.10 51.69 47.01 49.70 46.31 49.53 46.77 43.63 50.08 52.22 48.63 46.57 44.50 42.56 41.51 44.46 47.44 44.92 45.74 45.25 48.10 52.55 61.07 62.48 63.02 63.47 64.07 64.28
55.96 55.39 54.70 53.73 52.61 47.83 43.63 44.58 46.02 43.75 37.81 43.43 45.59 45.32 46.77 46.74 45.70 46.96 48.95 47.45 46.07 44.93 47.33 44.47 47.20 52.93 51.12 48.54 46.45 43.54 41.03 42.61 42.67 45.67 45.13 44.45 42.41 44.72 47.98 56.85 62.18 63.47 64.63 64.68 64.57
55.72 55.03 54.09 52.03 49.15 44.22 46.52 45.15 46.33 44.37 35.51 40.95 44.64 46.77 48.30 46.31 45.14 50.52 50.40 48.69 45.28 43.32 44.38 44.31 50.38 49.92 48.42 47.39 47.69 41.77 47.20 46.76 44.64 41.61 38.03 43.44 35.81 42.08 44.33 48.11 56.34 61.80 62.87 63.96 64.68
55.33 54.70 53.64 52.10 43.82 44.27 48.75 45.39 45.48 42.21 29.97 44.21 45.95 50.48 48.06 44.09 47.77 49.55 51.06 46.59 44.14 44.27 43.50 42.39 44.73 44.92 45.77 47.25 47.54 45.40 48.19 46.37 45.26 40.34 36.85 39.94 36.34 40.60 42.51 43.58 46.16 51.25 62.34 64.06 65.17
54.72 53.85 52.82 47.24 43.27 45.91 46.49 44.33 42.30 36.35 30.03 41.15 45.54 44.10 43.38 44.37 46.19 48.73 48.28 47.61 47.62 43.61 43.15 43.40 46.74 45.98 45.96 47.91 47.79 48.28 44.97 41.83 38.10 36.10 33.48 38.79 37.75 37.60 41.22 44.81 46.48 50.66 55.90 63.05 64.93
53.52 52.03 50.58 48.90 43.98 45.61 44.90 41.96 35.28 30.86 41.41 40.27 40.35 42.45 39.24 41.48 43.71 45.51 44.87 43.00 38.99 35.31 35.26 40.56 42.57 44.59 47.23 43.54 45.28 44.15 38.38 33.06 32.75 32.76 33.89 37.64 36.66 38.78 44.79 46.98 47.64 48.51 56.76 61.53 64.51
51.77 50.83 48.37 48.20 46.00 45.39 41.84 39.33 29.42 37.70 37.92 42.72 41.82 41.24 38.75 41.99 42.03 43.20 42.52 40.90 43.03 39.59 36.14 35.32 35.75 43.00 46.16 44.33 42.17 41.58 39.18 34.36 29.62 30.67 34.42 39.02 35.91 42.19 48.03 48.70 49.23 50.74 51.89 60.22 63.40
49.93 41.54 41.25 44.07 46.62 43.31 40.67 33.00 33.35 36.64 41.87 41.12 40.74 37.27 37.77 40.95 41.22 41.12 40.22 40.95 42.88 43.09 37.23 34.68 37.40 45.02 46.34 46.22 45.57 41.15 38.76 42.00 37.69 32.98 33.53 36.19 40.06 45.40 47.77 48.34 52.19 57.85 61.44 56.36 60.79
40.42 39.46 42.57 47.56 46.74 41.70 36.43 34.00 34.84 40.48 42.52 41.27 36.22 38.23 35.51 39.05 38.62 38.18 39.14 43.35 44.14 46.35 43.84 41.36 37.89 43.16 47.50 46.10 46.76 43.80 45.54 39.13 38.83 33.97 30.71 35.66 36.79 39.96 45.48 46.23 52.81 56.08 58.41 57.02 63.09
39.06 41.03 45.58 46.14 45.16 41.50 33.54 32.78 38.71 44.26 44.36 41.26 38.80 38.13 38.99 38.42 37.35 36.77 38.86 44.26 45.39 46.72 44.98 42.53 39.75 42.19 44.82 42.83 42.45 44.05 40.01 41.91 42.40 38.99 33.30 33.03 36.13 43.25 47.02 54.90 56.80 58.68 59.88 63.63 64.57
36.29 38.68 45.72 45.21 40.30 33.29 35.66 38.61 44.30 44.22 46.18 44.20 42.65 41.10 39.27 39.29 37.65 37.77 38.87 42.21 48.26 49.53 43.39 43.54 37.70 37.06 42.89 47.73 47.68 45.89 43.77 41.87 38.48 36.64 37.97 36.20 38.84 55.13 55.40 55.91 55.83 58.62 63.33 66.47 66.86
34.51 34.85 43.49 44.56 35.27 33.79 37.26 41.10 42.64 44.43 45.09 44.66 43.09 45.50 43.84 39.88 38.23 40.66 43.54 49.01 50.37 49.69 43.68 45.25 37.42 35.21 39.16 44.28 47.47 45.24 46.69 43.55 41.82 38.67 38.08 35.48 39.38 54.95 55.22 53.99 56.61 58.63 61.57 63.72 65.03
36.65 36.62 39.04 38.60 35.76 35.19 33.71 36.85 40.55 46.80 45.95 46.65 44.20 44.94 42.29 40.05 40.26 39.50 44.15 48.90 51.87 50.71 57.80 49.43 40.03 39.87 35.90 40.57 45.21 44.85 46.13 47.74 39.32 35.36 36.84 39.03 41.73 51.88 52.98 53.69 56.05 60.20 61.52 62.97 63.60
36.76 36.12 35.71 33.48 35.39 33.65 33.46 36.82 38.99 39.20 43.58 45.37 43.00 43.34 41.13 37.71 40.74 40.46 44.00 45.81 49.42 53.83 48.39 43.93 37.63 40.39 43.23 44.91 47.05 47.86 50.01 51.27 44.70 40.58 40.00 42.08 46.85 52.84 54.01 55.82 58.45 61.24 60.06 60.36 61.95
37.71 36.32 36.55 34.83 34.69 33.07 34.94 34.02 37.66 39.57 38.60 42.55 41.31 44.69 42.58 39.68 42.33 41.04 42.45 41.66 43.51 46.23 43.49 42.01 40.53 41.00 42.22 46.35 46.84 48.19 47.79 48.20 51.11 51.46 52.15 51.99 50.70 57.30 58.16 59.48 60.24 61.50 60.65 59.51 59.49
38.59 37.84 38.23 37.53 33.34 33.34 33.20 36.06 38.73 38.87 41.86 44.26 44.90 43.06 42.35 44.56 46.71 47.44 46.75 46.70 46.53 41.97 41.13 39.27 38.42 36.77 35.95 42.95 44.94 43.89 48.81 49.47 51.13 51.55 51.00 47.25 53.04 56.82 56.23 56.75 58.82 58.94 59.74 60.45 61.74

GFSSW_sfc_wetblb_087.txt.gz
Wetbulb
57.71 57.69 57.92 58.71 58.97 59.20 59.11 59.33 59.36 59.45 59.43 59.43 59.34 59.36 59.54 59.56 59.52 58.27 54.94 60.89 61.72 73.26 75.41 70.48 69.47 69.68 70.63 67.89 70.20 69.85 61.44 57.82 57.16 56.45 56.33 58.29 57.06 64.80 67.66 66.72 67.37 67.88 68.35 69.62 71.92
57.64 57.69 57.90 58.37 59.08 59.09 58.91 59.12 59.06 59.05 59.16 58.97 59.01 59.13 59.32 59.53 57.93 55.49 64.37 70.31 72.02 74.15 69.54 65.70 63.83 66.60 65.82 64.52 66.84 64.80 61.13 58.50 61.08 60.10 57.16 57.16 56.63 63.65 65.53 65.80 66.58 67.18 69.55 70.59 71.06
57.85 57.91 58.22 58.28 58.76 58.85 58.76 59.00 59.04 58.94 58.80 58.74 58.87 59.11 59.29 59.41 53.96 52.13 73.08 72.06 72.56 71.01 67.46 65.17 63.88 63.81 60.84 63.54 64.68 64.36 59.14 62.07 60.50 61.08 58.07 56.03 56.00 64.50 64.68 63.94 66.89 66.79 68.32 69.38 70.10
57.94 57.94 57.90 58.10 58.32 58.62 58.77 58.86 58.78 58.46 58.41 58.45 58.53 58.89 59.29 59.27 48.74 60.06 74.25 73.74 72.58 69.97 65.49 61.54 62.64 57.88 55.07 56.38 61.56 58.50 61.94 61.64 60.68 57.23 55.34 55.50 59.02 62.48 65.06 64.79 68.32 69.89 70.28 69.49 69.40
57.96 57.74 57.77 57.90 58.16 58.22 58.27 58.45 58.09 57.94 57.91 57.92 57.87 58.39 58.00 49.84 50.50 69.34 74.18 73.69 71.59 67.87 61.59 58.60 56.12 55.61 53.58 56.73 59.58 58.66 59.74 60.76 60.91 55.96 54.93 56.62 55.86 60.01 64.03 67.00 69.08 70.30 69.82 69.40 69.52
57.66 57.50 57.44 57.51 57.55 57.69 57.68 57.65 57.30 57.30 57.85 58.12 58.17 57.96 55.92 49.22 54.61 67.71 68.52 67.47 65.73 63.72 60.87 59.34 57.38 57.77 55.33 55.27 56.94 59.14 58.30 58.32 56.02 55.07 55.26 55.40 56.36 58.52 62.65 67.75 68.55 68.81 68.96 69.49 69.74
57.51 57.45 57.21 57.16 57.41 57.32 57.30 56.92 56.67 57.24 58.39 59.49 58.53 57.12 52.64 52.52 61.22 61.89 64.75 62.33 63.89 62.29 58.71 60.91 59.92 58.15 59.33 57.13 58.83 56.91 53.95 55.84 55.81 56.29 55.19 55.79 52.64 56.74 60.30 67.30 67.61 67.80 68.78 69.52 69.95
57.46 57.32 57.07 56.91 56.83 56.82 56.55 56.03 56.44 57.82 59.84 60.48 59.17 57.93 51.37 54.16 55.41 56.38 57.68 57.88 61.21 61.03 58.98 61.42 61.61 59.06 57.02 57.97 54.39 51.98 50.74 50.43 54.26 53.15 54.35 53.35 50.84 56.85 59.23 64.16 65.65 67.65 67.89 68.33 69.44
57.51 57.23 56.94 56.54 56.34 55.87 55.08 55.20 56.75 58.30 60.18 60.01 57.72 52.60 49.84 58.68 54.47 57.09 60.33 54.86 56.59 62.07 63.37 63.18 61.09 57.81 56.60 52.94 52.31 50.96 49.16 49.08 50.84 52.88 52.25 52.28 50.31 54.92 59.05 57.49 62.44 67.16 68.20 68.28 69.11
57.20 57.00 56.58 56.14 55.72 54.95 54.48 55.23 56.12 58.27 59.34 60.37 58.54 51.90 53.67 51.41 53.42 54.94 56.88 56.36 54.47 55.56 59.15 58.18 57.90 54.79 53.55 52.96 46.32 49.13 47.66 47.70 48.42 52.49 52.96 51.53 51.36 54.23 56.09 56.08 61.20 66.09 67.83 68.40 68.78
57.24 56.94 56.36 55.83 55.05 54.26 53.24 51.68 49.99 50.10 49.97 48.10 48.58 48.34 50.40 53.05 54.17 53.07 54.94 53.76 53.22 54.79 49.89 55.86 50.97 49.37 52.60 54.19 53.61 51.39 49.99 49.03 50.99 52.47 50.61 51.17 51.51 54.14 55.91 56.37 62.45 65.73 67.05 67.82 68.68
57.26 56.69 56.01 55.31 54.27 53.49 51.47 48.21 46.83 47.96 45.64 48.75 48.44 48.75 50.70 51.43 48.73 52.32 53.93 50.31 51.99 49.24 53.86 51.65 48.93 53.48 55.32 55.22 52.82 51.87 50.55 50.34 52.03 51.47 51.75 52.72 51.54 54.06 54.59 57.06 62.06 64.89 66.77 67.65 68.67
56.75 56.21 55.55 54.43 53.10 52.26 49.03 48.43 51.25 49.48 45.61 47.57 49.05 48.63 50.54 50.69 49.16 50.24 52.25 51.16 50.14 49.21 49.95 47.58 49.47 53.87 53.70 53.17 51.62 52.45 51.18 51.47 50.45 52.89 51.65 50.21 50.08 52.54 55.36 55.50 60.10 65.36 67.40 68.53 68.82
56.39 55.93 54.64 52.46 52.16 49.58 51.25 50.67 51.18 49.47 44.39 45.53 48.99 50.54 51.93 50.94 48.89 52.85 52.88 51.84 49.16 48.07 49.32 49.36 52.15 51.06 51.63 50.52 52.89 49.36 53.38 52.76 51.12 49.99 47.23 49.72 43.77 51.14 53.73 53.33 55.73 59.87 65.77 67.33 68.46
56.13 55.57 54.03 52.50 50.10 49.97 50.79 50.89 50.84 48.08 37.82 46.98 49.07 54.03 51.90 49.58 50.51 52.13 53.62 50.82 48.34 48.27 48.16 47.48 48.40 49.89 49.14 50.19 52.37 48.91 52.19 50.44 50.06 49.22 47.11 47.54 45.31 49.59 52.99 51.91 54.44 56.05 59.76 66.23 68.26
55.43 54.31 53.06 49.54 49.33 50.99 50.97 50.57 48.14 43.13 36.19 44.44 48.14 47.33 47.92 48.80 49.10 51.14 51.32 52.15 50.58 47.64 48.25 47.90 49.92 49.47 50.72 52.41 52.40 52.04 50.26 48.58 47.01 46.98 42.54 47.16 46.13 47.39 50.41 52.69 54.44 55.94 56.86 60.91 66.89
54.15 52.30 50.90 50.98 50.55 51.06 50.96 49.39 43.23 38.60 45.06 43.38 44.51 47.21 45.48 46.02 47.31 48.17 48.04 48.91 46.42 44.03 44.88 47.19 47.14 49.23 49.90 48.12 50.00 50.14 47.61 42.11 41.06 41.36 41.65 46.75 44.54 48.89 53.38 54.48 55.01 55.50 56.97 58.72 61.59
52.05 50.70 50.40 50.83 51.91 50.44 49.27 47.72 38.24 40.93 42.22 46.17 45.93 45.97 43.82 46.17 46.71 46.67 47.14 46.40 48.33 48.32 45.36 42.84 42.62 46.72 49.80 48.26 48.14 48.28 47.85 42.84 37.82 39.38 42.59 46.46 43.55 48.58 54.39 54.88 55.95 57.95 61.80 64.22 65.00
49.85 48.77 49.66 51.63 50.47 50.19 49.55 42.59 41.48 42.24 44.53 44.92 46.10 43.83 44.28 45.49 45.16 45.68 45.80 45.56 47.77 50.13 45.15 44.19 44.30 51.25 48.56 50.31 50.40 47.32 45.37 49.47 44.93 44.19 41.53 44.81 47.97 52.36 55.36 55.61 60.35 63.21 64.83 66.27 66.51
46.90 46.89 50.28 51.17 51.96 48.72 46.25 39.90 42.20 44.27 45.44 45.83 42.23 43.86 42.20 45.10 44.17 45.02 44.81 47.54 47.71 51.00 52.22 47.96 44.13 50.40 51.03 50.47 50.03 49.53 50.68 44.19 45.59 38.94 38.02 43.31 45.37 46.31 52.75 55.77 60.51 61.84 63.83 68.19 69.45
47.08 48.87 52.21 50.72 51.15 50.20 43.14 42.67 43.94 48.14 47.04 45.52 44.27 43.63 44.45 43.96 44.41 43.88 44.16 48.71 50.56 51.61 52.90 49.76 46.60 48.19 51.04 49.37 48.40 47.59 46.52 47.17 47.31 45.95 41.01 39.90 43.95 53.70 54.77 59.05 59.76 62.45 65.65 69.21 69.31
45.28 46.98 51.47 51.16 48.47 43.27 44.75 44.22 44.67 47.67 50.12 48.22 47.33 45.80 45.33 45.36 45.66 44.03 44.18 49.15 53.13 52.90 49.36 50.36 47.93 44.91 46.99 51.43 51.91 50.60 49.65 49.55 44.35 43.38 45.89 45.19 45.11 58.11 58.63 59.58 61.50 63.05 63.97 67.10 69.99
44.19 44.38 51.06 50.73 44.55 44.51 44.60 44.47 46.08 47.40 47.96 48.85 47.96 49.39 49.04 46.78 45.06 46.55 47.76 52.45 53.16 51.96 50.79 52.26 47.19 42.66 44.87 48.97 51.45 49.68 51.16 53.88 51.03 47.99 45.93 42.92 45.39 57.81 59.07 61.12 61.98 63.62 64.57 65.71 66.94
45.76 45.06 47.96 46.85 44.18 43.79 42.46 42.92 44.10 48.51 47.64 49.33 49.13 50.06 48.57 47.31 48.26 47.09 47.84 50.99 52.67 52.29 57.23 53.44 48.17 46.55 41.89 45.46 48.51 47.01 49.28 53.26 51.27 46.09 46.12 46.41 48.28 54.02 57.10 58.68 60.55 62.02 63.55 64.89 64.90
45.07 43.11 42.44 43.04 43.48 42.79 42.11 42.14 42.89 43.75 47.06 48.96 48.67 48.08 46.73 45.44 46.77 46.61 48.85 49.79 51.37 54.37 53.06 51.14 46.94 47.06 47.98 48.85 48.93 48.36 49.59 51.49 50.28 52.02 47.66 49.16 49.17 54.33 55.71 58.91 60.05 61.10 61.81 62.68 63.20
45.53 44.95 43.90 43.40 41.31 41.70 40.97 42.18 41.71 43.14 43.52 46.50 46.34 47.10 47.98 46.47 47.95 46.26 48.66 49.18 48.29 51.13 50.65 51.77 46.82 48.45 46.46 48.43 48.62 47.82 50.07 50.43 50.30 50.81 52.20 53.38 51.64 57.27 57.83 59.99 60.05 61.28 62.12 61.78 62.22
45.02 44.98 45.28 41.54 41.18 42.18 42.97 42.01 42.18 42.74 45.45 46.32 46.53 44.83 46.55 48.73 49.42 49.79 50.60 51.00 50.96 49.45 48.60 47.91 47.47 46.16 43.19 47.47 47.22 44.92 50.37 51.18 48.38 50.59 52.16 49.39 55.02 57.83 57.49 58.16 58.02 58.94 60.20 60.28 60.96

GFSSW_sfc_wetblb_090.txt.gz
Wetbulb
58.97 58.79 59.21 59.56 59.74 59.83 59.89 59.98 60.07 60.27 60.31 60.38 60.05 59.94 59.98 59.90 59.17 62.33 58.88 63.71 65.10 71.22 75.73 72.75 71.25 71.43 72.97 69.84 70.66 71.32 62.57 58.99 58.38 58.15 59.06 61.67 59.79 63.65 68.55 66.50 68.66 69.31 69.89 71.30 74.24
58.67 58.66 58.98 59.44 59.65 59.61 59.48 59.56 59.68 59.68 59.79 59.56 59.56 59.63 59.75 59.90 60.68 58.21 68.37 70.40 71.45 73.26 70.61 68.24 66.65 69.17 67.83 65.90 67.05 66.21 61.02 60.16 62.38 62.25 61.27 61.04 60.70 60.93 65.50 66.40 67.69 68.56 71.61 73.03 74.02
58.92 59.00 59.11 59.45 59.61 59.46 59.40 59.42 59.33 59.38 59.22 59.17 59.20 59.42 59.77 60.60 58.35 58.36 71.42 72.40 72.19 75.15 70.23 66.66 66.19 66.95 62.32 62.20 62.28 63.20 60.68 61.92 62.36 63.04 63.11 60.84 60.84 61.89 63.08 63.67 67.86 68.71 70.55 72.16 72.22
58.92 58.96 59.02 59.03 59.27 59.35 59.33 59.27 59.14 58.90 58.74 58.91 58.69 58.89 59.70 62.40 50.85 65.27 73.48 73.44 74.48 70.57 66.62 64.77 64.19 61.59 58.28 56.02 58.93 57.87 59.91 59.83 61.68 63.00 61.19 59.41 61.35 60.59 61.77 62.83 68.01 70.12 72.72 72.30 71.46
58.85 58.74 58.76 58.77 58.76 58.79 58.89 58.79 58.49 58.26 58.25 58.67 58.79 58.86 62.05 56.09 55.65 68.26 73.97 73.49 71.78 67.19 64.36 62.42 60.86 59.76 55.40 56.20 57.18 56.60 57.60 58.90 61.01 61.57 60.69 59.82 58.80 59.79 60.69 63.34 69.18 70.91 72.66 71.91 71.66
58.63 58.43 58.43 58.27 58.31 58.28 58.19 57.98 57.65 57.53 58.02 59.04 59.66 58.15 59.80 52.46 58.01 66.11 69.81 69.26 67.74 66.35 61.68 61.87 59.24 59.87 57.60 56.55 56.10 57.40 57.86 58.64 59.70 59.89 59.93 57.72 58.02 59.46 61.05 65.20 68.47 70.74 71.70 72.05 71.72
58.62 58.25 58.26 58.13 58.09 57.93 57.75 57.29 57.20 57.39 58.56 60.25 59.47 60.72 56.49 54.38 62.84 66.45 67.41 63.92 63.35 62.21 58.87 61.23 62.23 60.24 59.03 56.95 59.97 59.17 56.25 57.30 57.45 57.71 57.24 58.45 55.08 55.79 59.97 63.44 64.39 68.81 70.52 71.95 72.25
58.51 58.15 58.10 57.80 57.50 57.31 57.07 56.44 56.78 57.87 59.96 60.38 59.58 60.91 54.30 58.64 58.72 57.43 59.03 58.01 59.78 60.92 60.54 59.97 60.87 61.38 59.24 59.76 57.83 55.71 56.12 52.69 56.11 56.34 56.51 55.64 51.59 56.28 60.04 60.97 60.69 66.16 68.65 70.84 72.33
58.33 58.01 57.69 57.37 57.05 56.57 55.52 55.50 57.08 58.32 60.09 60.16 62.18 57.70 53.36 59.67 56.50 59.29 60.43 57.32 57.82 61.29 62.80 62.30 60.74 58.31 57.58 54.26 51.89 53.88 51.06 52.51 53.66 56.15 55.09 54.42 52.88 56.13 59.11 59.11 58.86 60.52 68.76 70.02 72.09
57.92 57.66 57.28 56.96 56.30 55.53 54.76 55.69 58.39 57.87 61.18 61.96 61.06 55.77 56.34 53.57 56.44 57.15 59.12 58.61 56.03 57.93 59.17 59.87 58.82 55.96 55.71 53.42 48.20 50.12 51.29 53.09 52.13 54.90 55.76 54.20 53.72 55.68 57.64 58.38 58.80 60.15 67.05 69.52 70.93
57.81 57.30 56.88 56.49 55.65 54.60 55.50 57.09 56.04 54.57 55.19 51.69 52.55 52.14 53.96 56.50 57.03 55.75 57.02 56.60 56.35 55.27 52.18 56.70 53.28 51.02 52.72 54.58 54.40 52.78 51.92 51.81 54.11 56.39 54.99 54.43 53.83 55.67 57.78 58.18 57.99 61.41 66.52 69.43 70.53
57.01 56.83 56.67 55.91 54.47 53.84 57.15 53.05 51.60 52.80 50.83 53.04 52.40 52.88 54.72 54.92 52.52 54.98 56.84 53.20 53.08 50.41 53.52 52.98 51.18 53.52 53.87 53.88 53.67 53.17 52.04 51.60 54.37 56.22 54.38 54.36 54.55 56.09 57.15 57.90 58.64 60.16 64.81 68.50 70.38
56.29 56.36 56.07 54.92 53.42 57.99 54.32 53.58 56.52 55.32 51.07 51.51 53.17 52.85 53.94 54.21 52.75 53.67 55.47 54.48 52.88 51.72 51.43 50.12 51.70 53.42 52.58 52.68 51.46 52.20 51.61 51.99 51.93 54.88 56.46 54.99 53.61 54.68 56.46 58.41 58.83 59.87 63.82 68.04 69.84
56.02 55.92 55.34 52.47 55.42 57.32 55.45 55.59 57.58 55.48 49.69 48.95 51.58 53.38 54.87 55.18 52.07 55.97 56.26 54.23 52.89 50.83 52.08 51.66 53.58 51.51 50.76 50.47 51.92 49.37 53.18 53.08 53.18 52.47 49.12 54.61 47.90 53.73 54.86 56.32 57.69 58.74 61.50 66.51 69.64
55.88 55.73 54.43 52.73 55.66 56.43 56.51 57.61 56.78 53.83 43.44 49.64 51.01 56.42 55.47 52.55 53.33 54.03 56.80 54.50 51.22 51.42 51.15 50.14 50.38 50.58 50.09 50.51 52.15 50.58 53.23 52.55 52.54 50.96 50.75 51.01 49.03 51.71 54.98 54.46 56.34 57.82 59.12 61.49 67.73
55.58 54.61 53.20 55.35 56.25 57.12 57.43 57.07 54.50 47.62 41.73 46.96 50.32 50.20 50.61 51.75 51.69 53.70 54.08 55.78 53.74 51.38 51.76 51.15 53.81 52.08 51.58 52.75 52.99 53.55 52.02 51.89 51.60 49.60 45.21 49.66 49.21 49.79 52.50 54.64 56.31 58.06 58.65 60.27 61.77
54.06 52.40 52.30 56.05 55.55 57.09 57.09 54.56 47.57 44.34 48.66 46.41 47.62 49.93 49.20 48.81 49.58 50.98 51.20 51.27 49.94 48.51 49.47 51.77 51.56 52.95 52.71 50.08 52.58 52.02 49.95 44.56 43.61 43.66 43.08 50.24 48.89 51.16 54.91 55.82 56.92 57.62 60.22 63.91 65.47
52.07 50.98 53.80 56.22 57.74 56.93 56.34 50.85 43.62 44.83 45.79 49.93 49.28 49.05 47.10 48.94 49.08 49.64 49.79 49.32 51.79 52.18 49.50 47.59 46.17 50.83 53.90 51.46 49.64 50.20 49.65 44.95 40.67 41.85 44.61 50.96 46.60 50.43 56.18 57.25 60.72 63.40 65.34 66.73 69.19
50.41 58.81 57.52 58.34 57.84 57.13 52.57 46.82 46.96 46.03 48.55 48.17 49.36 47.27 47.34 48.81 48.24 48.53 48.59 48.42 50.58 53.23 48.76 47.99 47.63 53.46 54.19 54.54 52.08 49.65 47.87 51.36 47.25 47.95 44.91 47.19 50.80 53.97 55.37 56.14 58.14 61.56 63.90 65.72 68.81
54.24 55.97 58.12 56.97 58.42 55.90 50.10 44.28 47.40 50.03 50.19 49.95 45.84 47.90 45.63 47.59 47.46 47.84 47.51 50.25 50.11 53.18 54.99 51.03 46.73 52.19 53.21 54.99 54.44 50.96 52.76 47.02 47.12 41.38 39.61 44.45 47.10 48.28 53.34 54.97 57.79 60.73 64.23 67.85 71.07
54.76 53.70 56.34 57.12 57.21 54.01 47.53 48.43 49.07 52.31 51.88 49.47 47.97 47.31 47.91 47.42 48.32 47.55 46.67 49.95 53.03 52.63 54.33 53.22 50.72 49.84 52.80 51.15 50.70 51.25 49.61 50.63 47.88 46.11 41.25 40.37 44.33 54.90 55.73 57.94 61.22 62.98 67.15 68.68 71.05
53.76 51.30 56.77 57.95 52.08 53.11 51.10 48.96 46.12 51.40 53.78 51.87 51.47 49.84 48.61 48.90 48.19 47.94 47.39 50.14 54.07 54.15 50.37 53.64 50.87 46.93 48.69 52.94 54.38 54.18 50.63 51.27 47.90 45.56 48.43 46.72 46.20 59.33 60.40 61.94 63.57 65.21 67.19 67.35 69.75
52.09 53.17 58.78 56.64 48.61 50.11 49.73 48.37 50.32 50.46 51.50 51.56 50.56 51.56 52.30 49.62 46.93 49.17 49.91 52.99 53.69 52.64 51.39 53.24 49.81 45.33 46.85 50.64 52.39 51.69 51.63 52.60 52.40 51.72 49.81 45.36 47.40 61.41 61.88 63.17 65.06 65.19 66.29 65.83 66.59
52.24 49.50 53.65 55.83 53.90 49.84 48.41 47.86 47.74 51.39 51.02 52.47 52.40 52.86 51.19 50.12 51.86 49.27 49.97 51.94 53.87 53.27 57.00 55.59 50.58 48.39 44.39 47.44 50.72 48.99 49.99 52.32 51.84 45.60 45.48 49.09 50.46 57.16 59.60 61.28 62.21 64.03 64.89 63.80 64.48
54.43 50.87 49.39 49.73 50.14 50.03 49.03 47.91 46.56 47.13 51.03 52.76 51.67 51.30 50.17 48.14 49.36 49.26 51.19 52.16 53.64 56.60 54.61 53.98 48.71 50.05 50.36 50.80 50.43 49.84 49.66 50.18 51.09 52.10 47.86 47.81 52.94 58.01 59.40 60.57 61.21 63.75 65.19 65.34 65.62
51.34 50.79 52.11 51.98 48.68 48.26 44.45 47.53 46.42 47.56 48.63 49.17 49.78 50.41 50.99 49.55 50.54 48.69 50.67 51.39 50.22 53.19 53.08 54.81 48.57 50.61 48.36 50.20 49.81 48.40 49.94 50.39 52.79 52.97 52.92 53.08 52.84 60.59 60.60 61.79 61.27 60.90 62.24 62.51 62.96
54.74 53.83 51.39 46.63 48.26 47.60 48.73 47.80 46.75 47.61 49.51 50.28 50.25 49.99 49.52 51.33 53.37 53.12 53.37 53.65 53.19 52.59 52.35 52.41 50.39 48.88 45.24 49.50 49.12 45.97 49.55 52.73 53.92 54.65 54.64 51.38 56.19 59.98 59.20 59.62 61.31 61.74 61.53 62.72 62.20

GFSSW_sfc_wetblb_093.txt.gz
Wetbulb
59.87 59.96 60.30 60.24 60.44 60.51 60.32 60.32 60.43 60.56 60.67 60.69 60.43 60.27 60.44 60.63 59.51 63.86 62.22 67.13 67.52 72.60 74.66 72.09 73.19 72.27 71.95 70.16 71.15 69.72 63.46 59.82 59.36 58.81 59.81 62.81 60.68 63.28 67.53 66.03 68.43 69.50 70.22 72.68 74.20
59.67 60.01 60.09 60.17 60.29 60.16 60.03 59.94 60.06 60.15 60.15 60.12 60.10 60.03 60.15 60.39 61.65 60.33 68.66 72.60 72.75 74.20 71.52 69.38 67.98 68.68 66.33 66.62 67.00 65.64 62.24 61.03 63.37 62.85 61.61 62.53 61.33 61.26 62.65 64.82 67.62 68.65 72.33 73.51 73.61
59.85 59.76 60.00 60.07 60.05 60.05 59.72 59.68 59.73 59.73 59.66 59.53 59.64 59.90 60.17 60.89 60.33 61.40 71.28 71.79 73.19 75.14 69.96 68.86 66.65 65.79 63.22 64.29 63.06 62.88 60.23 63.18 63.33 63.82 63.61 62.65 61.60 63.38 61.73 61.11 65.31 67.98 71.12 72.72 72.75
59.70 59.79 59.85 59.89 59.72 59.69 59.70 59.56 59.24 58.99 58.98 59.11 59.18 59.72 60.04 62.60 53.35 67.81 71.99 72.66 72.29 73.38 69.20 65.52 63.11 62.51 60.93 58.04 60.03 56.94 58.88 59.73 60.59 61.26 61.71 61.92 63.17 60.94 61.73 62.31 64.53 67.05 73.06 73.13 72.50
59.61 59.55 59.58 59.34 59.46 59.39 59.41 59.18 58.70 58.37 58.61 58.62 59.16 60.11 62.11 59.14 58.26 69.68 73.44 73.01 69.54 72.41 64.63 64.06 62.17 61.77 58.68 58.44 57.88 56.56 57.31 58.24 59.22 59.51 60.40 62.40 60.83 60.24 60.94 63.43 64.97 67.36 73.25 72.81 72.88
59.35 59.12 59.08 58.87 58.95 58.96 58.63 58.52 57.96 57.94 58.22 58.86 59.70 59.35 59.94 53.54 60.96 66.02 68.96 68.65 67.99 67.99 64.39 63.71 61.88 61.90 59.28 58.29 57.53 58.23 57.77 57.87 58.42 58.05 58.78 58.24 59.25 60.22 61.26 63.89 64.66 67.85 71.23 72.31 72.54
58.73 58.70 58.66 58.65 58.67 58.44 58.23 57.60 57.39 57.64 58.41 59.81 61.19 61.26 59.01 56.57 62.67 65.25 67.50 66.88 67.34 66.23 62.41 62.91 62.81 60.41 60.22 57.75 60.21 59.29 56.90 58.05 58.24 58.61 57.51 58.84 55.93 56.98 61.13 62.51 62.21 67.28 69.93 71.48 72.44
58.27 58.46 58.32 58.10 58.00 57.95 57.37 56.70 57.01 57.77 59.39 61.47 60.89 62.47 57.00 60.89 61.49 59.69 61.97 63.49 63.37 61.35 60.53 61.98 60.95 59.36 59.34 60.26 58.22 56.30 56.27 53.01 57.22 58.33 57.88 56.97 52.46 56.80 60.05 60.08 61.27 63.35 67.47 70.11 71.83
57.74 58.11 57.69 57.45 57.51 57.07 56.01 55.74 57.27 59.16 60.86 60.61 63.23 62.38 55.90 58.64 58.06 60.58 61.11 58.32 59.45 60.56 62.02 61.82 60.40 56.46 57.02 55.05 53.62 54.49 50.34 52.06 54.38 58.70 57.10 56.60 53.84 57.33 59.27 59.03 59.65 61.07 61.75 67.68 70.86
57.54 57.13 57.04 57.03 56.76 56.06 55.27 55.86 60.17 57.95 61.01 63.28 62.55 57.94 58.42 55.34 58.43 59.25 60.91 60.10 57.51 58.06 59.18 59.21 58.50 55.05 54.98 53.33 48.44 51.15 51.64 52.86 53.19 56.74 57.46 55.48 55.33 57.42 58.96 58.32 58.52 59.23 60.68 64.23 68.98
57.56 56.89 56.70 56.58 56.01 55.31 56.18 61.08 57.62 57.76 58.64 54.51 55.05 55.03 55.77 58.25 59.44 58.15 58.97 58.15 57.69 56.48 53.10 56.66 54.05 52.19 53.98 55.25 55.23 54.46 53.01 52.23 54.11 56.23 56.13 55.35 55.72 56.93 58.34 58.52 58.43 59.36 60.21 62.32 68.78
57.36 56.73 56.45 56.18 55.28 54.69 56.76 56.32 54.88 55.85 53.68 55.83 55.42 55.90 57.20 57.40 55.13 57.04 59.16 55.08 54.77 51.88 54.19 52.97 51.12 54.82 55.82 54.94 53.24 52.61 51.91 52.23 54.76 55.94 55.37 54.70 55.07 56.89 58.38 58.84 58.71 59.25 60.31 62.69 67.95
56.98 56.50 56.01 55.10 54.24 59.74 57.49 55.96 59.20 58.45 53.51 54.63 55.60 55.15 55.74 56.86 54.34 55.32 57.51 56.34 54.43 53.37 53.59 51.73 52.92 54.89 53.29 52.52 51.66 52.32 51.72 51.66 51.65 54.58 55.72 54.83 53.81 55.93 57.93 59.26 58.89 59.80 60.94 63.10 67.47
56.54 56.13 55.28 53.06 55.10 60.59 58.29 59.51 59.83 58.27 52.03 51.99 53.55 55.30 56.23 56.68 53.80 57.60 58.06 55.94 54.15 52.07 53.02 52.47 54.53 52.82 52.15 51.25 52.09 49.60 53.47 52.67 51.80 51.35 48.54 55.03 48.03 54.86 56.90 57.40 57.82 59.27 60.09 61.73 67.25
56.19 55.64 54.20 52.19 58.08 59.34 60.15 60.84 59.26 57.51 46.33 51.61 53.20 57.87 56.60 53.66 54.53 55.47 58.15 56.33 52.64 52.65 52.85 51.45 51.85 51.66 51.02 51.54 53.10 50.86 53.38 52.37 52.34 51.15 51.44 52.01 49.91 52.83 56.37 55.35 56.72 58.50 59.83 61.11 66.00
55.40 54.63 53.30 58.64 60.30 60.35 60.44 59.69 57.68 49.65 45.15 49.86 52.10 52.08 52.39 54.00 53.43 54.76 55.33 58.12 56.48 53.78 54.83 53.40 56.41 54.38 52.97 53.26 53.17 53.55 52.08 52.30 52.37 50.86 46.15 50.23 49.13 49.77 52.88 55.66 57.08 58.59 59.74 61.96 63.57
54.49 53.18 53.27 58.84 58.09 59.79 59.66 57.28 50.33 47.08 51.27 49.37 50.04 51.68 50.95 50.59 51.32 52.08 52.10 53.05 51.37 49.93 51.07 52.73 53.30 54.69 54.32 51.66 53.96 52.43 50.17 45.40 44.74 44.90 44.18 50.86 48.58 50.60 54.88 56.54 57.73 58.47 61.88 64.88 65.50
53.16 51.85 57.72 59.03 60.92 60.08 58.72 53.46 47.23 49.48 48.69 51.94 51.27 51.36 49.32 50.63 51.04 50.85 51.02 50.98 53.55 52.57 50.86 49.02 47.58 53.24 55.15 53.48 52.13 51.74 50.56 45.82 41.47 42.75 44.69 50.35 46.58 50.54 55.90 57.84 59.67 61.47 63.41 64.23 65.60
51.76 61.55 59.35 61.44 61.55 60.58 54.68 49.39 50.59 49.96 50.70 49.96 51.34 49.74 49.79 50.68 49.76 50.25 50.58 50.12 51.72 53.54 49.73 48.81 48.78 54.25 54.62 55.38 54.65 51.73 48.75 51.82 47.45 48.44 44.60 46.89 50.22 55.24 56.29 56.84 57.93 59.18 61.62 63.97 67.66
55.93 58.88 59.08 60.30 61.55 58.73 52.20 48.63 50.25 51.69 51.85 51.69 48.89 49.74 47.89 49.53 49.53 49.78 49.25 51.88 50.58 54.06 55.27 52.28 47.86 53.27 54.05 55.20 54.88 54.01 54.57 47.60 47.76 42.14 40.54 44.71 47.84 48.52 54.41 54.79 56.94 56.93 59.55 66.92 69.33
57.05 55.56 59.50 60.68 60.05 55.54 50.06 51.66 50.91 53.44 53.35 51.30 50.21 49.47 49.93 49.49 49.88 49.69 49.27 51.14 53.39 53.25 54.66 52.71 51.35 51.22 53.63 51.67 50.92 51.72 51.32 49.81 51.27 49.95 43.52 42.80 46.10 55.28 55.52 56.36 57.68 60.26 65.78 68.39 69.52
56.95 52.78 60.56 60.72 53.15 55.49 51.51 51.55 46.37 52.19 54.57 52.97 52.58 51.67 50.49 50.92 50.48 50.13 49.25 51.49 54.48 54.15 50.90 53.62 51.28 47.62 49.48 54.11 55.56 53.64 50.26 48.73 48.29 43.06 46.05 46.32 48.14 56.33 57.90 59.19 62.79 64.97 67.57 68.88 70.17
54.84 54.88 60.29 58.41 50.25 52.47 53.26 50.71 51.35 51.45 52.52 52.79 52.20 52.81 53.85 51.63 49.08 51.13 51.74 54.04 54.45 53.62 52.47 53.42 49.31 44.98 47.32 51.34 53.50 52.04 51.21 49.86 53.68 52.02 48.91 44.63 44.77 56.73 55.02 54.52 65.89 65.66 66.41 67.26 67.72
54.89 52.01 56.12 56.41 55.50 52.07 51.18 50.95 49.77 53.07 52.01 52.90 53.34 54.35 52.97 51.91 54.13 51.41 51.82 53.85 54.61 54.84 57.52 56.55 50.91 48.91 45.03 48.26 51.12 48.55 50.05 52.66 52.06 48.56 48.13 48.17 48.81 51.67 50.33 52.16 63.27 64.86 66.85 67.20 68.41
57.16 54.83 53.92 50.66 53.26 52.65 51.98 51.19 49.18 49.09 52.97 53.39 52.26 52.62 52.15 50.30 51.27 50.80 52.91 53.70 54.55 58.48 55.21 54.02 49.47 51.29 51.54 51.65 51.01 50.64 49.94 50.04 49.95 49.89 45.44 49.22 48.15 53.11 51.26 52.23 60.89 64.24 65.37 64.37 64.14
53.87 53.76 57.23 52.58 53.25 51.50 48.17 50.00 49.11 49.88 50.06 50.09 51.19 52.34 52.85 50.84 51.47 50.20 52.60 52.54 51.24 53.33 52.63 54.61 49.68 51.51 49.40 51.03 50.62 49.16 50.33 50.54 50.86 50.80 52.47 52.47 51.61 59.80 61.67 62.87 62.47 62.98 63.56 63.17 63.15
59.53 57.33 53.79 50.89 52.34 50.73 50.45 50.74 50.06 50.76 51.36 51.76 51.24 51.58 51.06 51.76 54.59 55.46 54.73 54.15 53.50 52.39 52.98 54.10 52.18 50.04 46.54 50.60 50.03 47.19 49.99 51.45 51.48 54.67 53.89 51.11 56.67 60.10 60.05 60.67 60.13 60.17 60.69 61.27 62.48

GFSSW_sfc_wetblb_096.txt.gz
Wetbulb
60.63 60.64 60.72 60.77 60.75 60.77 60.65 60.56 60.61 60.64 60.66 60.55 60.57 60.51 60.72 60.80 60.20 62.37 62.28 68.12 67.56 71.44 71.19 65.37 68.33 71.96 71.43 68.99 69.75 69.51 62.07 58.51 58.89 56.10 60.57 62.78 60.41 62.96 65.15 65.55 66.69 68.93 70.53 71.82 72.70
60.39 60.60 60.54 60.57 60.55 60.37 60.33 60.29 60.15 60.29 60.13 60.13 60.18 60.20 60.65 60.80 59.80 58.39 68.76 74.48 72.03 72.15 66.22 64.91 66.86 68.81 66.22 65.02 65.28 63.71 60.48 60.30 61.99 62.72 61.69 62.48 62.18 61.53 61.53 62.21 66.49 69.15 72.10 72.70 72.61
60.25 60.26 60.37 60.36 60.53 60.30 60.21 60.14 59.97 59.80 59.69 59.73 60.00 60.18 60.58 60.29 58.80 59.11 70.67 73.58 72.34 71.81 65.09 67.29 67.67 65.70 62.67 62.90 61.65 61.97 58.42 60.69 60.53 61.01 61.23 60.50 60.79 62.89 60.45 59.53 65.15 68.04 70.26 71.56 71.66
59.76 59.81 59.93 59.97 60.03 60.16 60.00 59.89 59.65 59.34 59.20 59.24 59.27 59.82 60.75 61.65 53.23 63.65 72.48 73.03 73.52 68.72 68.14 66.93 64.67 60.82 59.56 59.01 60.32 56.10 57.94 58.14 57.95 58.30 57.86 57.40 60.29 61.13 61.89 61.03 63.42 71.06 71.89 71.82 71.03
58.60 59.18 59.43 59.41 59.25 59.45 59.57 59.48 59.09 58.71 58.72 59.01 59.06 60.02 61.49 57.63 56.48 68.38 73.64 71.91 67.14 68.73 68.45 64.91 61.64 60.34 58.10 59.48 59.17 56.61 56.84 57.77 58.40 58.21 58.03 58.94 58.05 59.74 60.94 62.89 63.86 70.25 72.14 71.68 71.30
57.96 58.53 58.85 58.86 58.90 58.86 58.82 58.83 58.40 58.08 58.36 58.69 59.81 59.85 58.56 52.87 62.53 69.59 68.68 65.34 63.90 67.00 66.64 63.56 62.02 62.39 59.70 58.31 57.22 58.22 57.70 57.29 58.05 57.95 58.60 56.67 56.35 57.32 59.54 62.54 62.57 68.31 71.41 71.92 71.57
58.04 57.95 58.36 58.50 58.46 58.50 58.50 58.32 58.02 57.99 58.27 59.18 61.08 61.61 58.97 57.87 62.13 64.16 65.80 66.37 64.63 65.15 63.13 63.82 63.47 60.21 59.64 56.96 59.04 58.06 55.61 57.38 57.84 57.94 57.30 58.59 55.28 55.58 59.28 61.03 60.85 62.51 68.72 71.57 72.47
58.14 58.20 57.81 57.71 57.86 57.94 57.78 57.18 57.47 57.90 59.43 60.54 62.05 61.55 58.14 61.64 62.10 60.53 63.04 64.21 65.71 66.23 64.03 62.69 61.90 59.06 56.81 58.12 56.98 54.83 54.82 51.30 55.83 56.85 57.86 57.59 52.40 57.04 59.08 58.48 58.76 60.64 65.67 69.40 71.88
57.90 58.01 57.81 57.34 57.20 57.14 56.49 56.19 57.78 59.78 60.46 62.05 61.53 60.88 58.17 62.67 57.77 60.22 60.56 57.68 59.76 61.70 61.41 60.32 59.24 56.28 56.27 52.50 50.55 52.80 49.67 51.48 53.30 56.96 57.04 56.83 54.19 58.01 59.38 58.57 57.86 59.16 61.99 65.69 70.22
57.42 57.42 57.10 56.94 56.78 56.05 55.53 56.87 62.78 60.00 60.12 63.02 62.78 58.57 60.09 56.15 58.77 59.65 61.13 59.81 58.05 57.77 56.77 56.82 57.55 54.45 53.83 51.56 45.94 49.13 50.00 51.76 51.93 55.38 56.10 54.85 55.41 57.46 58.97 58.60 58.42 58.60 60.57 61.40 63.10
57.22 57.07 56.94 56.67 56.19 55.49 55.26 60.70 58.30 57.86 59.36 56.35 56.05 56.51 56.74 58.77 60.11 58.87 59.55 58.14 57.50 56.03 52.00 55.62 53.17 51.82 53.31 54.43 54.20 53.07 51.96 51.34 53.44 55.68 54.50 53.93 54.57 56.58 58.48 58.41 58.22 58.96 60.30 60.72 62.06
57.11 56.78 56.48 56.12 55.41 54.45 57.45 56.81 55.91 56.72 52.10 57.46 56.47 56.38 57.96 58.41 55.28 57.77 59.75 55.30 54.63 51.36 54.02 52.47 49.84 53.54 54.86 54.69 53.59 52.93 51.09 50.54 52.69 54.51 54.10 53.90 53.62 55.87 57.08 57.90 58.48 58.78 60.03 60.39 61.06
56.51 56.43 55.93 55.18 54.33 57.88 59.61 56.80 60.21 59.30 53.10 56.43 56.49 56.03 56.41 57.14 54.91 55.84 57.68 56.84 54.21 52.82 53.18 51.70 53.09 55.58 53.77 52.60 51.05 51.43 50.03 50.06 50.32 53.32 54.23 52.93 51.87 54.68 56.72 58.45 59.66 60.09 61.14 60.67 62.11
55.35 55.83 55.33 53.99 55.43 60.56 59.30 60.55 60.58 59.06 50.42 52.68 53.33 55.64 56.41 57.14 54.07 58.49 58.58 55.82 53.71 51.59 52.97 52.40 54.46 52.75 52.10 51.17 51.94 48.71 52.57 51.80 50.61 49.65 46.17 52.76 46.21 54.64 55.13 56.41 58.53 58.49 59.07 59.53 61.44
55.61 55.55 54.66 53.53 57.22 59.62 59.94 61.05 59.95 57.66 45.51 52.97 54.02 58.84 56.52 53.90 55.13 55.48 58.95 56.15 52.16 52.71 52.88 50.68 51.93 51.69 51.07 51.40 52.90 50.03 52.61 51.33 51.02 49.60 48.86 49.09 47.23 51.75 55.95 55.47 57.48 58.63 59.68 60.39 62.66
55.47 55.02 54.13 59.32 60.22 61.41 60.38 60.16 58.50 49.55 45.07 50.61 53.35 52.90 53.06 54.51 54.40 55.41 55.42 57.57 57.32 53.82 55.01 54.27 56.86 55.10 54.19 54.56 53.60 53.49 51.59 51.13 50.78 49.25 45.17 48.63 47.79 48.84 51.73 54.95 56.39 58.61 59.54 62.12 65.14
54.78 53.82 53.70 58.05 58.42 60.32 60.35 57.94 50.14 46.71 53.26 50.81 51.24 52.75 52.24 51.54 52.34 52.39 52.36 52.51 51.62 49.37 50.47 52.96 53.79 55.65 55.30 52.09 54.42 53.59 50.99 45.28 44.18 43.74 43.80 50.40 47.95 51.35 54.86 55.47 57.16 59.32 61.95 63.82 64.28
53.74 53.11 57.57 59.78 61.26 60.92 58.88 53.69 46.77 51.80 50.84 53.27 52.43 52.05 50.10 52.16 51.95 51.45 51.29 50.48 53.98 51.95 50.07 48.74 47.03 52.89 55.32 53.21 51.06 51.74 50.69 45.24 40.00 40.54 43.13 50.21 45.82 49.59 56.70 57.56 58.61 61.28 61.72 63.63 63.85
52.41 60.69 60.88 62.18 62.11 60.62 55.42 48.90 50.63 51.60 52.34 51.05 51.10 49.82 50.99 52.00 51.00 50.81 51.53 50.74 52.32 53.25 49.07 47.87 47.78 53.63 54.32 55.13 54.11 51.28 48.54 52.94 47.99 47.70 44.83 46.16 49.68 54.44 57.40 56.84 58.46 57.84 60.65 63.53 66.31
55.53 58.87 59.46 61.72 60.75 58.75 52.71 47.80 51.87 53.41 52.79 52.26 48.78 51.32 49.06 50.75 49.99 50.75 50.52 52.38 50.71 53.84 55.01 51.40 46.14 51.66 53.56 55.50 54.79 52.61 54.41 48.45 49.38 42.27 40.18 45.61 47.38 48.23 53.42 55.63 58.21 55.49 59.29 58.29 60.35
57.37 56.80 60.75 61.93 59.52 54.83 49.55 52.18 52.72 54.21 54.02 51.65 51.06 50.65 51.01 50.24 51.11 50.21 50.36 52.36 53.86 53.19 54.27 52.29 50.51 49.70 52.25 50.92 50.13 51.55 51.22 51.89 51.03 47.44 42.91 41.25 46.22 54.94 53.51 55.56 54.70 54.62 55.62 57.57 57.43
57.46 53.42 61.18 61.46 52.13 54.70 52.69 53.39 48.54 52.38 54.58 53.17 53.32 51.91 50.77 51.33 50.60 50.99 50.56 52.09 54.67 53.96 50.63 53.43 50.05 46.25 48.10 52.34 54.45 53.83 52.39 50.78 45.82 44.97 47.61 46.81 45.53 57.11 56.02 56.02 54.33 54.02 56.83 55.81 61.08
55.12 56.24 61.39 59.09 49.23 52.21 55.25 53.00 53.03 51.53 52.38 52.67 52.75 53.94 54.00 51.88 49.76 52.15 52.65 55.33 54.83 53.55 52.24 53.13 48.50 43.43 45.88 50.53 53.56 51.17 52.18 52.95 51.63 50.28 46.27 40.55 42.87 56.19 56.68 55.47 54.05 54.58 55.27 56.16 65.17
55.44 52.78 57.24 57.57 56.21 52.81 51.55 51.60 51.57 54.06 52.46 52.97 52.41 54.10 52.88 51.80 53.69 51.79 52.46 54.48 55.33 54.42 58.81 57.17 50.74 48.26 44.52 47.66 50.92 48.90 50.32 51.25 50.73 45.97 45.80 45.82 47.38 53.18 54.17 53.83 54.07 55.01 56.79 59.26 64.79
56.96 55.12 56.05 51.23 52.70 53.79 54.11 52.44 50.24 50.10 53.46 53.66 52.18 52.27 51.62 50.02 51.20 51.14 52.91 53.84 55.44 58.83 55.37 53.24 47.73 49.64 50.20 50.96 50.85 50.17 49.50 49.79 48.72 49.26 47.36 48.83 50.64 51.49 54.03 55.28 55.39 57.48 61.17 61.68 63.88
54.88 54.12 55.69 53.32 54.28 52.73 50.90 50.48 49.63 50.88 51.59 50.51 50.27 51.49 53.03 51.28 52.17 49.54 51.85 53.09 52.07 53.59 52.25 52.92 48.13 50.75 49.04 51.30 51.29 49.29 50.90 51.03 50.62 50.62 49.64 51.77 51.63 55.31 57.91 59.22 58.53 60.84 61.47 61.29 62.35
60.19 59.59 55.44 51.91 52.38 51.72 51.93 52.07 51.19 52.80 52.53 52.73 51.28 50.32 50.20 52.53 53.74 54.34 54.57 54.13 53.00 51.16 51.04 51.66 50.73 49.66 45.67 50.47 49.96 46.60 51.38 52.33 52.60 51.87 52.22 50.61 54.54 57.21 56.74 59.08 60.38 61.27 61.95 61.74 61.95

GFSSW_sfc_wetblb_099.txt.gz
Wetbulb
59.75 60.48 60.40 60.52 60.72 60.74 60.74 60.66 60.71 60.61 60.66 60.66 60.55 60.40 60.39 60.70 59.95 59.99 59.78 64.96 64.01 72.36 70.24 63.81 61.95 63.86 67.27 67.05 67.04 66.27 57.30 55.92 57.54 57.52 57.50 61.36 60.76 63.03 66.18 65.13 67.30 69.75 68.41 68.85 70.70
58.96 59.63 59.95 59.57 60.23 60.48 60.21 60.33 60.31 60.23 60.22 60.08 60.08 60.08 60.23 60.60 58.16 55.20 64.35 72.77 72.90 72.04 61.70 60.11 60.81 63.59 63.07 63.85 62.43 57.71 53.45 56.74 61.34 62.40 59.91 62.28 62.46 59.79 59.85 64.56 67.52 68.25 69.88 70.09 70.50
58.39 58.45 59.64 59.35 59.81 60.04 59.93 60.04 60.06 60.01 59.77 59.79 59.69 59.82 60.21 59.69 56.62 56.95 74.03 73.50 72.34 70.78 60.49 60.85 62.91 65.15 61.08 60.70 59.04 56.95 53.76 57.93 56.59 57.04 61.60 55.65 54.69 56.81 57.24 57.59 66.99 66.14 67.67 68.97 69.15
58.44 58.44 59.14 59.40 59.20 59.57 59.72 59.76 59.69 59.48 59.30 59.38 59.12 59.55 60.69 59.35 50.29 61.61 71.93 73.21 72.70 66.43 61.96 60.63 61.79 59.54 57.03 55.00 58.54 54.35 56.39 55.76 54.11 54.66 54.14 52.99 54.01 54.68 56.60 58.72 66.35 69.72 69.29 69.20 68.69
59.00 58.75 58.72 59.05 59.06 59.14 59.30 59.30 59.23 59.05 58.83 58.82 59.05 60.06 58.85 54.45 53.52 68.18 72.36 71.41 67.54 64.83 62.65 64.96 62.91 58.55 54.87 55.48 56.71 54.89 55.49 55.99 56.26 55.77 55.55 56.25 54.13 54.72 54.95 59.18 62.66 70.68 69.74 68.89 68.85
58.83 58.73 58.71 58.78 58.62 58.51 58.70 58.67 58.55 58.47 58.61 58.77 59.33 59.89 55.50 49.31 63.07 66.99 65.28 64.09 63.24 64.32 64.36 65.10 62.20 59.99 57.16 56.17 53.99 55.15 54.73 55.24 55.72 55.82 56.57 55.62 55.32 54.14 55.16 57.39 64.91 69.69 68.66 69.11 69.08
58.44 58.28 58.17 58.42 58.57 58.37 58.31 58.11 57.99 58.19 58.41 58.98 59.96 60.73 56.33 54.70 61.45 66.68 65.43 63.14 61.78 61.26 60.95 63.05 61.75 57.75 56.56 53.61 56.38 54.66 51.66 53.66 54.32 54.53 54.06 55.67 52.70 53.27 55.85 56.35 57.22 68.99 69.03 69.23 69.39
58.05 57.95 57.75 57.80 57.83 57.92 57.53 57.23 57.29 58.07 59.15 60.40 61.77 59.23 52.73 61.34 60.02 59.63 59.73 61.17 63.67 61.94 61.21 62.33 57.40 53.18 52.60 54.15 52.59 49.55 48.12 44.69 51.87 53.96 54.99 53.24 47.91 54.76 55.94 53.79 54.78 60.09 69.25 69.31 69.28
57.90 57.80 57.60 57.30 57.31 57.12 56.39 56.08 57.71 59.48 60.79 62.37 56.68 54.56 55.46 62.14 55.85 56.15 55.87 54.92 55.81 59.98 60.15 61.07 55.23 50.31 51.88 47.89 44.96 45.99 42.78 45.24 49.26 54.78 54.03 52.29 48.91 55.38 55.96 55.51 54.07 54.16 64.65 69.00 69.07
56.97 57.06 57.04 56.89 56.79 56.08 55.52 56.05 60.35 59.77 58.58 61.60 60.71 54.18 58.85 56.59 56.18 57.20 56.72 57.87 55.76 54.68 54.22 54.08 50.67 48.36 48.87 44.67 39.93 43.06 44.03 46.56 47.80 52.20 53.00 50.81 50.32 53.27 55.63 54.37 54.76 54.84 55.24 63.88 68.38
55.76 55.55 56.16 56.16 55.98 55.54 53.03 55.46 53.43 53.52 53.92 54.16 53.68 56.66 56.64 56.80 58.24 56.31 57.68 56.03 54.55 52.67 47.34 51.17 45.52 45.32 49.04 50.46 50.48 49.62 48.34 47.38 50.05 52.57 49.52 48.67 49.63 52.36 54.21 53.47 54.01 54.54 55.22 55.03 57.39
55.78 55.82 56.00 55.88 55.21 54.91 53.89 52.70 52.22 53.19 48.06 54.38 54.79 55.13 56.20 55.92 53.55 56.13 57.12 52.00 51.75 47.55 50.22 47.58 44.27 49.88 52.11 51.77 50.60 49.27 47.36 46.84 49.64 52.02 49.25 48.22 49.05 51.86 52.93 53.53 53.98 55.15 55.28 56.22 56.14
56.02 56.04 55.80 55.23 54.50 56.23 57.41 54.82 57.27 54.67 47.10 52.85 55.68 53.46 53.14 53.61 52.75 54.11 54.87 53.81 51.38 49.54 49.48 46.71 49.58 53.77 51.86 49.85 48.61 45.70 44.59 45.53 45.89 48.90 48.84 47.71 45.97 48.73 52.66 53.84 54.83 56.06 56.31 56.53 56.97
55.56 55.67 55.25 53.91 54.53 56.26 56.90 57.70 57.04 55.41 43.72 51.53 51.06 53.04 53.81 53.23 51.05 57.87 56.81 54.63 51.02 48.01 49.71 48.43 52.27 51.83 50.09 48.96 48.50 41.49 49.91 48.89 47.65 45.25 39.34 47.14 40.41 44.57 49.44 51.02 53.01 54.99 56.45 56.86 57.36
55.27 55.41 54.84 54.15 52.48 55.38 56.28 56.63 56.08 53.45 40.68 52.14 51.25 56.14 51.70 50.36 52.17 54.16 57.39 53.12 49.74 50.09 48.97 47.69 49.84 49.69 49.47 49.93 51.24 47.05 50.23 48.10 47.65 43.85 40.61 43.58 39.21 44.42 47.70 48.18 52.33 54.38 56.77 56.98 57.29
54.80 54.97 54.38 54.80 53.80 57.61 60.88 56.87 54.29 44.36 41.93 49.55 52.41 50.62 49.43 51.11 52.57 54.43 53.81 54.21 54.31 51.38 51.26 50.73 54.72 52.87 51.21 53.30 52.55 52.44 49.54 48.34 47.43 42.48 35.42 42.12 41.34 43.35 45.44 49.54 54.05 57.02 59.22 64.21 65.02
54.23 53.95 53.26 56.21 53.52 58.26 58.61 54.28 44.50 41.67 54.35 48.67 48.69 49.54 49.05 49.19 50.71 51.90 51.83 48.63 46.43 42.58 44.20 49.45 51.22 52.88 53.67 49.93 51.92 50.18 43.77 37.12 36.02 36.08 36.01 43.91 41.22 44.15 53.77 55.07 54.84 55.02 56.49 57.53 63.15
53.57 53.16 55.56 57.34 58.14 58.52 55.61 48.99 41.67 51.18 49.48 51.74 50.17 49.43 47.75 49.27 49.95 50.88 48.64 46.90 50.75 48.82 44.73 43.38 42.55 49.56 52.58 49.26 46.76 46.78 43.01 37.37 32.64 34.74 39.13 44.40 39.71 47.36 55.55 56.72 57.62 57.15 57.57 59.44 59.09
52.58 57.49 58.25 59.26 59.71 58.43 51.47 43.64 46.46 49.91 50.79 49.69 49.80 48.11 48.44 49.93 49.76 49.27 47.95 47.65 49.17 49.95 43.07 41.93 43.83 51.76 52.01 52.45 50.46 46.90 42.67 46.61 40.03 41.06 39.31 41.32 45.42 53.81 54.02 53.94 55.73 55.59 56.53 57.21 59.11
52.11 55.24 57.95 60.68 60.07 55.01 48.26 44.58 49.01 51.99 51.86 50.70 46.01 49.10 46.79 48.79 47.65 47.68 48.06 49.37 49.64 51.99 50.35 46.09 40.69 48.36 51.98 52.25 51.54 46.81 51.37 42.57 42.35 34.67 33.17 40.63 42.65 43.65 48.60 50.36 52.90 53.09 54.61 56.63 58.99
54.32 54.01 58.36 59.11 57.08 51.21 44.13 47.58 51.69 53.93 53.23 50.00 47.61 47.57 48.32 48.43 48.81 47.03 47.64 51.13 51.92 50.97 50.32 46.22 43.85 44.78 48.71 45.54 44.98 46.01 45.01 44.83 43.45 41.50 35.23 35.03 40.41 50.42 49.76 51.21 51.65 52.33 55.48 56.19 57.88
54.83 50.52 59.01 59.09 49.87 50.33 47.70 52.12 52.36 52.10 52.57 52.03 52.32 50.78 48.95 49.44 48.00 48.41 48.57 50.82 52.96 51.28 47.17 48.36 42.30 39.31 43.90 49.36 51.05 48.47 47.01 45.42 38.87 37.81 39.02 38.75 39.87 54.12 53.21 52.65 53.11 53.85 56.07 57.84 57.94
50.84 53.39 60.37 57.49 45.17 47.29 51.13 51.76 53.40 51.30 50.81 50.63 50.26 52.73 52.14 49.33 46.13 50.10 51.30 54.24 54.32 51.50 47.85 48.78 41.74 37.20 41.13 45.73 49.84 47.41 48.79 47.01 45.93 43.33 39.11 37.45 40.27 53.33 53.17 53.91 54.26 55.04 57.67 55.63 58.38
51.70 50.25 55.51 55.64 54.40 50.77 49.78 50.60 50.15 53.84 51.91 52.58 50.70 50.55 49.28 48.40 49.63 48.34 50.19 53.93 54.44 52.88 59.04 52.99 43.60 40.96 36.90 41.43 46.55 45.14 47.62 48.64 44.81 40.83 41.27 42.80 44.92 48.71 51.80 54.90 53.96 55.22 59.14 57.72 61.30
54.06 53.05 53.87 48.90 50.47 50.63 50.62 50.54 49.31 48.06 51.85 52.12 49.89 50.38 48.92 44.89 47.76 47.70 51.00 51.09 53.64 57.40 52.41 47.36 40.75 43.39 45.29 47.46 48.62 48.27 48.00 48.48 46.21 45.98 41.55 44.45 45.48 48.64 52.18 54.86 56.15 58.96 60.05 57.21 56.63
50.49 52.56 54.02 50.86 51.63 50.24 48.99 49.29 49.55 49.86 49.76 49.28 48.47 49.70 49.07 45.82 47.08 45.71 48.01 47.50 47.08 50.55 47.50 47.01 40.95 44.05 43.78 49.02 49.51 47.66 49.58 51.29 50.86 49.66 48.97 51.04 49.22 56.20 55.89 58.73 58.90 59.09 60.02 57.26 58.87
57.54 57.05 53.58 50.00 50.31 49.30 49.08 50.51 51.05 51.70 52.01 52.10 50.53 48.69 47.75 49.11 50.26 49.41 48.81 48.53 48.03 46.16 45.27 44.42 43.30 41.66 40.51 48.09 47.44 43.28 48.67 49.90 50.67 50.49 51.44 47.26 50.76 53.92 52.22 53.70 56.54 56.01 56.89 59.05 61.20

GFSSW_sfc_wetblb_102.txt.gz
Wetbulb
58.66 58.58 58.56 58.96 59.18 60.34 60.31 60.27 60.30 60.39 60.40 60.08 59.96 60.16 60.15 60.32 59.91 59.12 54.98 60.99 63.09 71.92 69.73 62.85 62.44 59.89 60.88 63.81 66.84 65.42 54.31 53.11 56.30 56.85 57.89 60.93 59.72 62.57 65.39 66.19 66.04 67.82 66.78 67.78 69.54
59.36 58.42 58.37 59.19 59.91 59.93 60.11 60.06 60.20 60.24 60.31 60.07 59.86 59.86 60.15 60.36 57.61 54.27 63.22 71.30 71.12 72.66 59.02 59.16 57.40 60.09 58.41 62.33 62.54 57.75 50.98 54.49 59.38 60.60 59.06 61.40 61.07 61.83 59.57 64.07 67.05 66.69 68.25 69.18 70.46
59.57 59.44 59.49 59.72 59.58 59.68 59.76 59.71 59.85 59.93 59.78 59.61 59.41 59.46 59.91 59.65 54.68 54.78 72.19 72.23 73.09 69.71 59.91 58.57 58.53 60.64 58.66 59.72 59.30 55.37 52.60 56.88 56.84 60.35 62.45 60.63 59.92 56.82 53.24 62.44 65.72 64.15 65.92 67.93 68.62
59.48 59.28 59.25 59.00 59.17 59.44 59.67 59.72 59.44 59.45 59.44 59.29 59.27 59.29 60.23 58.05 43.87 60.44 71.87 73.07 72.87 65.01 59.84 58.52 57.95 54.84 54.72 54.14 57.50 51.72 55.37 55.98 53.95 53.70 53.15 55.48 52.45 52.95 53.64 53.66 68.49 67.52 67.95 67.78 67.21
59.15 58.93 58.81 58.79 58.87 59.01 59.21 59.29 59.02 58.92 58.98 58.92 59.07 59.40 57.58 51.78 51.36 64.74 71.62 71.13 64.95 62.27 60.13 59.92 61.36 59.51 54.55 54.56 54.93 52.32 53.32 53.91 54.16 53.71 54.49 55.22 53.70 54.05 54.98 57.71 69.21 68.52 67.99 67.25 67.19
58.77 58.64 58.60 58.59 58.66 58.76 58.60 58.51 58.39 58.39 58.41 58.77 59.00 59.40 53.14 47.01 57.68 67.60 63.89 62.87 62.02 60.94 62.15 61.88 62.30 61.12 55.26 53.94 51.56 53.45 51.80 51.26 52.50 53.35 54.16 52.97 52.97 52.97 55.55 57.59 67.79 67.45 66.81 67.37 67.32
58.16 57.74 57.85 58.33 58.50 58.37 58.31 58.06 58.03 57.85 58.13 58.84 59.47 59.52 55.31 52.62 59.48 64.78 62.15 59.29 59.88 60.37 59.89 61.51 61.34 53.64 51.68 50.62 53.15 50.72 47.68 49.45 51.12 51.39 51.50 52.62 50.51 51.42 55.50 56.17 63.91 66.75 67.15 67.40 67.60
56.61 56.57 56.53 56.78 57.45 57.58 57.52 56.99 57.18 57.86 58.76 59.52 60.64 58.39 48.92 59.90 58.25 63.45 61.97 62.02 61.46 59.18 60.07 61.20 60.08 52.07 49.02 51.64 50.13 47.49 44.54 41.31 48.82 50.65 51.42 51.02 46.25 53.09 54.94 52.39 64.50 66.64 67.13 67.55 67.73
56.41 56.41 56.45 56.64 56.91 57.03 56.40 56.30 57.80 59.56 60.24 61.34 55.22 53.09 52.64 63.82 54.49 54.47 58.58 56.93 55.09 59.96 58.95 61.72 56.37 49.30 50.34 46.45 43.31 42.94 40.36 42.53 46.34 51.59 50.73 50.60 47.21 52.50 53.82 53.53 54.32 65.76 66.83 67.32 67.60
56.51 56.53 56.63 56.75 56.73 56.20 55.65 56.41 58.87 59.14 59.31 60.79 60.13 51.68 56.07 56.71 54.66 55.26 54.36 54.48 52.90 52.88 52.99 52.47 49.20 45.41 44.89 43.52 38.44 41.29 41.00 42.59 44.51 50.18 50.14 48.71 46.95 50.13 52.56 52.94 53.12 56.92 66.51 66.86 67.22
56.39 56.30 56.40 56.32 56.08 55.62 53.31 52.00 48.26 48.42 50.41 52.11 52.10 54.72 56.30 56.20 56.44 54.29 55.80 54.57 53.33 50.67 45.52 48.53 44.00 41.51 44.67 46.52 48.98 47.03 44.97 44.52 48.03 50.84 47.27 47.71 46.61 49.30 51.21 50.89 51.79 52.97 59.90 66.41 67.01
56.10 56.00 56.00 55.85 55.31 54.88 51.87 49.61 49.38 51.08 45.92 52.05 52.76 52.82 55.05 55.02 51.59 53.82 55.42 50.51 49.84 45.68 48.01 45.19 42.07 47.62 49.42 49.73 49.21 48.14 45.74 44.33 46.49 49.19 46.01 45.30 45.65 48.61 49.87 50.46 51.51 52.12 53.10 59.46 67.25
55.60 55.39 55.39 55.12 54.39 53.49 51.42 51.01 53.61 50.00 43.12 49.33 53.00 51.79 51.56 52.43 50.85 52.12 53.23 51.69 49.19 46.47 46.16 43.29 46.92 51.58 50.20 48.22 46.62 44.04 42.12 43.07 43.56 46.19 45.54 44.74 43.26 44.94 49.44 50.81 51.71 53.41 53.88 54.65 54.87
55.25 55.25 54.98 53.82 51.37 51.73 53.48 54.03 52.80 51.52 41.29 48.44 49.29 51.82 51.93 50.99 49.18 55.52 54.72 52.55 49.83 46.27 47.33 45.65 49.82 50.14 48.64 48.13 46.84 40.53 48.07 47.54 46.08 42.76 38.51 43.75 36.69 42.51 45.08 47.28 53.45 56.57 58.69 60.01 60.66
54.76 54.98 54.56 54.08 48.86 50.00 56.51 55.94 54.03 50.23 38.05 52.15 49.25 54.17 49.65 49.41 50.78 52.48 55.65 51.26 48.03 48.20 46.97 46.13 48.46 48.53 48.25 48.69 49.58 45.65 48.89 46.86 46.51 42.10 37.73 42.00 37.66 40.18 49.01 49.29 52.54 55.01 58.21 59.56 60.02
54.42 54.31 54.21 52.08 49.05 52.18 54.66 53.18 50.45 43.32 40.29 48.18 49.81 47.74 46.44 47.83 50.34 52.79 52.41 52.23 52.22 49.51 48.68 48.10 52.12 50.25 49.05 51.05 50.61 51.53 47.20 45.14 43.57 39.07 35.24 39.90 38.24 40.28 47.01 49.39 52.75 55.00 58.11 58.66 59.66
53.70 53.33 53.27 54.26 47.66 52.11 52.12 49.68 42.49 39.41 50.23 46.24 45.31 46.06 45.34 46.43 48.05 49.69 48.40 46.29 43.92 40.21 40.74 47.08 49.00 50.41 51.59 47.20 48.87 47.74 41.77 36.10 33.88 34.47 34.72 40.46 38.90 44.56 51.90 53.98 54.61 53.96 57.42 58.04 59.29
52.96 52.78 53.21 54.00 51.90 52.61 50.22 46.09 38.48 48.23 45.82 48.48 47.84 47.21 44.62 46.43 47.67 48.57 46.94 44.37 48.55 45.68 41.93 40.54 40.99 47.53 50.47 47.46 44.27 44.25 41.54 35.67 30.29 31.62 37.25 41.72 37.66 45.66 53.47 55.18 55.36 56.01 56.09 58.40 58.21
52.54 51.02 51.39 54.71 55.65 52.08 47.01 39.32 41.53 45.39 48.98 47.74 47.07 44.76 45.64 48.19 47.21 47.73 45.46 45.38 47.82 46.44 41.27 39.60 41.53 49.53 50.95 50.47 47.54 44.40 39.89 43.16 37.95 37.06 36.14 38.70 43.70 50.53 52.41 51.97 53.47 54.16 55.58 56.97 57.58
48.82 49.31 51.10 57.08 55.23 49.56 43.09 40.26 43.92 49.29 49.36 48.25 42.89 45.78 43.03 45.47 45.13 44.95 45.04 48.17 48.30 49.38 46.38 42.52 38.36 45.10 50.51 49.93 48.81 44.59 46.23 40.46 38.42 32.01 31.21 37.09 40.37 42.81 47.24 48.78 51.24 52.42 53.41 55.08 57.84
49.89 47.64 53.46 53.97 52.11 45.33 38.66 40.58 47.73 51.94 50.82 47.28 45.07 44.05 45.21 44.93 44.40 44.18 44.85 48.90 49.91 48.76 48.76 43.90 40.46 42.46 46.34 42.54 42.45 43.54 40.68 42.17 39.97 37.64 33.32 32.04 37.19 48.04 47.83 49.61 49.39 51.62 54.87 55.44 56.14
47.82 44.09 54.93 53.20 45.58 40.97 40.86 46.43 50.44 50.19 49.61 47.74 48.78 47.57 45.96 47.07 44.79 45.12 46.00 48.57 51.74 49.39 45.91 45.50 39.92 36.18 41.56 47.40 49.67 45.50 43.94 41.51 36.53 36.52 36.85 35.23 36.97 51.00 51.50 51.00 51.73 53.88 58.03 56.15 57.53
43.95 45.46 54.45 52.26 39.94 39.32 44.14 48.94 50.11 49.36 48.41 46.85 47.03 48.27 47.62 44.86 42.65 46.97 48.57 52.39 52.84 49.40 45.39 45.02 38.63 33.98 37.41 41.18 45.74 43.01 45.35 42.83 40.78 38.26 36.90 34.17 37.89 50.77 53.19 53.43 53.71 54.49 57.48 55.19 59.18
45.39 43.45 48.50 48.50 45.56 43.90 43.06 45.01 46.77 52.20 49.15 49.02 47.39 47.44 45.20 43.94 44.42 43.99 46.87 52.18 52.75 51.38 58.90 50.20 38.98 38.18 34.00 38.47 42.59 41.72 45.23 47.60 43.70 34.77 37.57 37.94 40.72 47.59 51.13 53.12 55.12 56.85 57.06 56.91 57.12
46.85 45.72 46.25 41.58 44.62 44.32 42.55 44.90 45.90 45.94 48.29 47.09 45.68 46.65 44.13 39.23 42.83 43.19 46.11 47.84 50.48 55.41 48.34 44.12 38.26 39.00 41.81 44.46 45.28 45.24 45.92 48.36 43.55 43.66 40.73 44.29 44.74 48.58 51.44 52.65 56.11 58.22 58.67 55.76 56.00
43.02 46.29 47.14 44.66 44.76 44.82 43.68 42.00 46.12 48.16 46.16 47.27 43.99 46.64 44.26 40.27 40.94 39.57 41.93 40.72 43.45 46.18 41.84 42.27 37.83 38.46 38.49 44.89 45.88 45.39 49.68 49.93 49.56 49.03 49.29 48.81 47.98 52.04 52.71 52.79 54.85 56.34 55.74 56.41 58.68
49.95 49.21 47.08 44.71 43.10 41.98 42.23 45.84 47.67 47.89 48.58 48.19 46.90 44.30 44.11 45.63 45.99 44.57 43.85 43.74 44.28 41.54 41.13 39.46 37.56 35.87 34.13 42.06 43.53 40.91 46.84 48.50 49.74 49.71 49.94 45.01 48.51 53.00 51.62 52.49 52.89 53.63 55.17 56.90 59.29

GFSSW_sfc_wetblb_105.txt.gz
Wetbulb
59.42 59.27 59.20 59.41 59.59 59.96 59.93 59.76 59.74 59.76 59.90 59.92 59.91 59.82 59.76 59.98 59.77 58.09 52.06 58.35 61.94 72.06 71.73 65.72 62.32 59.42 58.86 60.44 66.11 64.34 54.63 51.26 54.38 55.84 56.51 60.23 58.96 62.20 62.95 63.54 66.04 67.42 66.82 67.45 70.20
59.24 59.17 59.03 59.25 59.53 59.84 59.85 59.95 59.89 59.68 59.58 59.60 59.62 59.58 59.54 59.85 57.06 53.54 62.44 70.48 71.34 73.06 58.12 58.09 56.18 58.53 56.35 59.33 61.73 58.35 51.08 53.12 57.32 59.32 58.25 60.53 60.82 61.69 59.99 62.49 64.15 65.94 67.75 69.70 70.12
59.21 59.46 59.43 59.23 59.32 59.59 59.61 59.69 59.73 59.62 59.25 59.22 59.40 59.51 59.48 59.61 51.55 50.01 72.93 71.56 72.35 70.47 58.41 58.20 57.19 59.73 56.25 58.39 58.63 55.91 53.07 56.01 56.23 57.21 59.46 58.75 59.25 60.47 54.21 59.93 64.53 63.64 65.08 68.17 68.81
59.19 58.89 58.83 59.05 59.10 59.22 59.41 59.53 59.37 59.26 59.05 59.07 59.14 59.36 59.54 57.17 42.13 58.45 73.40 73.04 73.09 62.78 57.00 55.97 54.35 52.99 52.09 53.00 56.39 51.14 54.33 54.51 53.99 51.85 52.22 54.78 56.12 51.90 52.28 55.45 62.69 66.93 66.84 67.77 67.63
57.70 57.38 57.38 57.39 57.67 58.58 58.68 58.74 58.80 58.57 58.44 58.59 58.90 59.21 56.36 48.75 50.04 64.00 72.85 72.36 63.21 59.10 57.11 57.04 58.53 57.24 54.46 54.35 54.13 51.21 51.79 51.58 52.67 51.53 51.69 53.14 51.69 51.84 53.02 58.82 67.75 67.41 67.38 67.08 67.42
56.63 56.75 57.10 57.08 57.55 57.87 58.13 58.35 58.24 58.08 58.10 58.39 58.73 58.91 51.11 43.92 54.03 65.45 61.72 59.37 58.72 60.44 59.64 59.42 61.22 61.34 54.97 51.35 49.48 51.49 50.70 49.50 50.03 51.22 51.25 51.04 50.75 50.94 53.93 60.32 66.19 66.06 65.69 66.87 67.65
57.68 57.38 57.25 57.61 58.06 58.11 58.21 58.09 57.87 57.53 58.02 58.52 58.93 58.62 53.68 48.65 58.29 64.21 58.29 56.30 59.18 59.04 58.99 61.41 60.94 55.32 51.43 47.76 51.37 49.08 47.12 47.94 49.55 48.86 49.03 50.63 48.29 49.08 53.74 53.82 60.96 65.35 65.66 66.14 67.09
57.54 57.38 57.19 57.32 57.61 57.67 57.53 57.24 57.23 58.03 58.59 59.00 59.89 56.97 46.86 56.85 57.41 61.42 59.26 59.85 60.41 58.30 58.09 58.62 58.79 53.76 47.62 49.97 49.50 46.05 43.21 40.79 47.60 49.09 49.76 48.60 44.46 51.10 52.95 51.90 57.50 64.66 65.60 65.93 66.11
57.02 56.82 56.70 56.82 56.92 56.92 56.43 56.51 59.19 59.47 60.23 60.77 54.40 52.24 51.69 62.47 55.87 56.57 60.64 58.59 57.88 58.37 58.01 61.32 55.57 49.94 48.62 44.77 42.35 42.55 38.60 41.47 45.45 50.45 49.49 48.90 45.98 51.15 51.55 50.93 61.11 63.69 64.86 65.71 65.71
56.57 56.24 56.20 56.26 56.44 56.21 55.76 56.20 60.48 58.89 59.69 60.59 59.49 50.48 54.55 54.94 55.39 53.48 55.52 58.80 51.71 50.87 51.48 52.20 47.88 45.25 42.77 42.01 37.43 39.95 39.79 41.17 43.00 47.99 49.46 47.47 45.53 48.37 49.88 50.08 52.20 62.55 64.53 65.17 65.58
56.35 55.93 55.77 55.89 55.82 55.52 53.52 49.92 47.95 46.74 49.26 47.90 50.96 53.21 54.25 56.87 56.01 52.95 54.19 52.91 51.36 49.19 44.20 46.89 42.77 40.90 43.33 44.30 45.71 45.23 43.26 43.04 46.94 50.14 46.05 44.88 44.86 46.91 48.82 51.48 56.01 55.52 62.05 64.73 65.66
55.95 55.44 55.42 55.34 55.33 54.95 50.81 49.27 47.81 49.44 45.26 50.16 50.91 51.58 53.46 53.43 50.72 52.12 54.03 49.50 48.92 44.59 46.04 43.85 41.10 46.36 47.39 46.85 45.55 44.92 43.16 43.72 46.06 48.21 45.25 43.70 44.67 46.57 48.93 52.99 56.28 57.87 58.85 58.52 62.29
55.54 55.01 55.05 54.70 54.24 52.59 50.81 49.64 51.71 50.09 41.94 47.76 50.65 50.25 50.59 51.91 50.09 50.25 52.48 50.09 47.65 45.04 44.36 42.24 46.14 49.66 48.42 46.69 44.98 41.87 40.83 41.56 42.74 44.93 44.58 43.28 43.27 43.17 50.99 54.33 55.98 57.24 59.63 60.17 60.75
55.34 54.79 54.42 53.57 50.18 49.54 52.57 53.87 52.93 49.36 41.30 48.15 48.47 51.85 50.35 50.06 48.04 53.75 53.57 51.43 47.84 45.38 45.49 43.95 47.95 48.91 47.45 46.76 45.17 38.82 46.13 46.26 45.36 42.40 38.29 42.23 35.36 40.75 47.88 50.58 53.31 54.78 57.76 59.43 61.02
55.00 54.35 54.13 53.66 47.53 47.76 53.05 51.48 51.35 49.46 37.01 50.79 48.22 52.51 47.99 47.84 49.19 50.88 53.66 50.03 46.55 46.98 45.94 45.17 47.23 46.89 46.38 46.89 47.93 44.63 48.12 46.06 45.90 40.77 37.28 40.69 36.71 41.09 48.31 47.32 51.09 53.45 57.01 58.36 60.67
54.18 53.75 53.80 51.25 47.90 50.74 51.80 50.09 49.41 42.79 38.13 46.73 48.36 46.63 45.26 46.35 48.54 50.94 50.73 51.05 50.65 47.78 46.68 46.40 50.49 48.28 47.38 49.64 49.13 49.51 46.17 43.26 40.12 37.78 34.35 38.23 37.28 37.47 44.95 47.21 50.86 53.22 56.30 57.78 60.01
53.22 52.77 52.75 53.46 48.00 50.72 50.27 49.01 41.93 38.80 48.21 45.27 43.78 45.34 43.05 44.88 46.67 48.03 47.51 44.96 42.95 41.64 39.47 45.56 46.82 48.75 49.91 46.51 47.71 45.68 39.39 33.83 33.89 33.77 33.65 38.43 37.53 41.36 49.38 52.94 53.22 52.94 54.60 57.73 58.91
52.32 52.41 52.58 53.78 50.57 51.57 48.75 45.67 37.03 46.10 44.33 47.05 45.89 45.09 43.93 45.59 45.99 47.34 45.06 42.49 46.79 43.74 40.29 39.26 39.50 46.27 49.60 46.08 43.00 42.01 39.03 34.72 29.89 31.11 35.27 39.97 35.51 43.65 52.17 54.32 53.78 55.06 55.23 58.30 57.73
51.95 49.98 49.86 52.42 54.26 49.76 46.12 38.82 40.11 44.05 47.23 46.69 45.14 43.28 43.82 46.54 45.73 46.16 43.81 44.26 46.00 44.59 39.66 38.08 40.15 48.17 49.71 48.52 46.05 42.35 37.66 40.16 36.53 34.24 33.31 36.97 41.57 47.05 50.69 51.15 52.06 53.09 55.16 54.85 57.12
48.49 47.86 49.69 54.14 53.28 47.49 42.05 39.15 42.03 47.82 48.67 46.49 41.55 43.85 41.31 44.18 43.96 43.49 43.64 46.79 46.79 47.85 45.13 42.07 37.32 43.38 49.03 47.83 47.21 42.75 45.03 39.19 36.79 30.62 30.15 35.37 37.44 39.61 45.38 47.72 49.90 51.57 53.79 54.21 56.09
48.01 47.13 52.08 51.75 49.48 44.10 38.06 38.88 45.39 50.63 49.67 45.65 43.53 42.92 43.20 43.33 42.80 41.93 43.67 47.97 48.60 47.44 46.26 42.73 39.80 41.28 44.76 41.83 40.85 41.99 40.95 40.53 37.86 35.70 31.66 30.07 35.20 44.53 46.75 49.09 48.87 50.54 55.19 54.91 55.04
44.34 43.53 51.95 51.36 44.15 37.55 39.30 43.78 48.31 48.91 48.38 46.25 46.91 45.81 43.81 44.60 42.88 43.67 44.48 47.02 51.00 48.22 43.62 43.45 38.04 35.45 39.81 45.40 47.49 43.88 41.26 39.09 34.82 34.27 34.88 33.42 35.23 49.42 51.44 51.82 51.29 51.98 55.56 56.13 56.52
41.60 42.90 52.09 50.66 40.39 38.58 42.71 46.81 48.41 48.23 47.44 45.77 45.32 47.32 46.02 42.56 40.12 45.00 46.91 50.81 50.87 48.27 43.27 44.30 37.17 33.32 36.86 40.36 43.35 41.31 42.61 40.23 38.84 35.71 34.98 32.88 36.28 49.33 52.04 53.43 54.97 54.97 56.63 56.39 58.47
43.66 42.26 46.82 46.21 42.36 42.00 40.78 42.87 45.18 50.64 47.64 47.26 45.43 46.06 43.56 42.05 43.22 42.08 44.93 50.01 51.70 51.23 55.69 49.13 37.15 36.96 33.59 37.60 40.73 40.33 42.53 43.74 39.73 33.51 34.78 36.35 39.57 44.88 50.17 50.37 54.32 56.26 57.18 55.98 55.94
44.65 43.84 44.63 40.63 43.38 42.64 41.58 43.10 43.92 44.16 48.06 46.70 45.11 43.78 41.69 37.47 39.12 39.49 42.92 44.62 47.34 52.41 46.26 42.74 37.81 38.41 39.52 42.08 42.80 42.51 43.12 45.06 43.80 41.48 39.98 41.38 43.24 46.02 49.67 50.46 51.76 56.36 56.10 56.17 56.99
40.69 44.93 45.29 43.60 42.76 42.25 41.55 40.74 43.84 45.47 44.04 44.98 42.09 44.77 42.51 39.04 40.46 37.71 39.76 39.14 40.68 43.59 40.31 40.05 37.10 37.28 36.47 42.47 42.61 42.37 44.60 47.49 48.16 48.00 46.82 47.08 46.40 51.67 52.07 52.16 52.48 53.57 54.22 55.03 57.16
47.42 46.10 45.76 43.70 41.51 40.46 40.64 43.56 45.58 45.68 46.62 46.64 45.53 42.65 42.23 43.99 45.49 45.13 44.21 43.01 43.20 41.40 38.82 38.99 36.59 34.01 31.54 38.80 41.29 37.94 43.46 47.03 47.48 48.86 47.60 44.27 46.89 50.83 51.73 52.09 52.02 52.00 53.33 54.58 56.49

GFSSW_sfc_wetblb_108.txt.gz
Wetbulb
59.75 59.62 59.52 59.47 60.06 60.02 60.00 59.91 59.89 59.81 59.92 59.41 59.31 59.62 59.70 59.77 59.33 57.11 51.53 57.39 60.17 70.43 71.21 66.37 62.26 59.49 58.41 58.54 64.54 63.89 54.56 50.42 52.35 55.03 55.44 57.88 56.41 60.51 62.30 62.38 66.00 67.02 66.20 67.44 70.14
58.76 58.72 58.70 58.69 59.40 60.04 59.84 59.66 59.50 59.47 59.09 58.98 59.32 59.51 59.52 59.69 56.18 52.51 62.17 69.37 71.61 72.86 62.53 58.90 55.51 56.55 53.85 57.16 60.94 57.94 51.41 52.65 56.36 57.49 56.96 58.06 57.10 57.54 58.90 59.32 62.49 64.91 68.23 69.27 70.11
57.93 57.85 57.99 58.24 58.19 58.26 58.84 59.58 59.62 59.13 58.55 58.71 59.23 59.40 59.34 59.02 49.99 47.39 72.21 70.04 72.27 70.24 58.45 57.11 57.02 58.63 54.81 57.31 58.19 55.54 53.20 55.53 55.99 56.12 54.85 53.84 54.28 56.27 55.68 53.98 61.83 62.74 65.72 68.07 68.68
57.76 57.75 57.56 57.95 58.21 58.12 58.52 58.61 59.03 58.38 58.44 58.44 58.51 59.21 59.34 56.16 43.26 56.13 73.10 72.42 71.81 63.73 55.57 53.85 53.23 51.69 50.41 51.64 55.69 50.66 54.54 54.19 52.69 51.64 50.10 50.01 53.03 50.98 53.83 53.45 63.67 65.97 67.56 67.82 67.52
58.40 58.30 58.01 57.99 58.03 58.25 58.49 58.55 57.94 57.85 57.69 57.49 57.70 58.91 55.42 46.04 48.46 65.58 73.54 72.63 64.10 57.77 54.52 54.45 53.69 54.00 53.34 53.67 52.52 50.02 50.48 50.89 51.16 50.49 49.71 51.51 50.27 50.42 51.78 53.54 55.41 64.72 67.68 67.15 67.36
58.38 57.96 57.81 57.87 58.20 58.23 58.43 58.36 58.30 57.60 57.39 57.78 58.35 58.71 49.91 41.96 52.11 65.64 63.23 58.05 57.64 55.75 55.99 58.66 59.72 60.29 54.02 50.11 47.57 50.06 49.15 48.66 48.95 50.13 50.05 48.46 49.49 48.91 52.65 61.80 64.79 65.13 65.94 66.85 67.29
58.00 57.55 57.40 57.52 57.63 57.90 58.13 58.00 57.70 57.66 58.09 58.18 58.82 58.07 51.00 46.32 57.38 62.98 58.37 54.86 57.48 58.65 57.93 59.55 61.14 54.84 51.02 47.57 49.49 48.38 46.46 47.42 48.33 47.51 47.47 48.44 47.94 48.15 52.22 51.84 52.97 63.83 65.27 66.52 67.36
57.58 57.20 56.98 56.88 57.16 57.53 57.45 57.12 57.81 58.83 58.30 58.84 59.57 55.54 45.29 53.55 56.81 60.55 57.46 56.84 58.08 56.89 56.83 57.55 58.09 53.40 48.48 48.85 47.94 45.19 42.39 40.64 46.44 47.95 49.17 47.59 43.58 49.91 50.44 49.33 53.62 62.75 64.26 65.80 66.59
57.39 56.86 56.34 56.37 56.42 56.63 56.39 56.83 60.23 60.02 60.18 60.69 54.10 50.48 50.26 61.11 56.11 55.74 57.23 55.73 57.82 56.92 56.82 60.55 54.19 48.84 47.91 43.53 40.78 41.67 38.17 39.81 44.57 48.73 48.96 47.61 44.68 49.29 54.37 53.70 53.32 60.19 63.36 64.36 65.49
57.18 56.63 55.89 55.77 56.13 55.95 55.70 56.57 60.72 58.63 59.50 60.30 59.06 49.06 53.62 53.19 55.21 52.19 55.90 56.92 52.66 49.54 50.11 50.09 46.18 45.06 42.16 41.10 36.48 38.74 38.88 40.95 42.01 46.29 47.67 45.20 44.42 46.60 55.33 57.49 57.37 57.80 60.85 63.52 64.21
57.04 56.50 55.56 55.46 55.47 55.18 53.15 48.65 47.32 46.23 47.82 46.23 49.24 52.17 53.80 54.94 54.80 51.52 52.60 53.72 49.96 48.48 43.06 45.56 42.38 40.31 43.09 42.81 43.31 43.24 41.55 41.26 44.43 47.70 45.27 43.54 43.22 48.49 51.99 54.84 56.85 58.40 58.82 59.14 60.26
56.88 56.46 55.36 54.87 54.85 54.69 50.35 48.57 47.34 48.09 43.68 48.74 49.47 50.52 52.41 51.94 49.58 50.92 52.97 48.33 47.15 43.43 44.65 42.97 40.16 45.25 46.02 44.97 43.89 42.53 40.58 40.97 44.45 46.52 44.59 43.68 43.10 49.54 51.16 53.17 55.19 57.13 58.37 59.11 60.55
56.51 55.99 54.78 54.29 54.10 51.10 50.00 50.40 52.08 47.64 41.99 47.19 49.12 48.60 48.63 50.51 48.95 49.81 51.39 48.73 46.29 43.80 43.00 41.27 44.36 48.52 47.22 45.35 44.13 39.99 39.72 40.66 42.18 43.91 43.43 42.53 42.28 45.67 51.64 52.91 54.46 55.69 58.18 59.34 59.88
56.23 55.23 54.12 52.99 49.79 48.07 49.89 50.97 50.40 48.33 40.90 46.23 47.54 49.60 48.54 48.52 46.97 52.70 52.42 50.43 46.95 43.98 44.16 42.84 46.74 48.13 46.19 45.63 43.79 40.28 45.25 44.40 43.40 41.00 38.40 41.61 35.53 40.72 47.02 48.86 51.49 52.72 55.44 57.63 59.20
55.91 54.35 53.58 53.44 47.45 47.62 50.55 49.24 49.28 48.65 36.16 48.95 46.98 51.32 46.90 46.65 47.80 49.60 52.10 48.85 45.59 45.49 44.72 43.55 45.57 45.11 44.90 45.69 46.68 44.05 46.46 44.46 44.75 39.47 37.20 39.70 36.08 39.82 46.87 46.95 49.75 51.83 53.86 57.29 58.84
55.08 53.43 53.44 50.66 47.43 50.27 50.36 48.89 48.54 42.52 36.53 45.74 47.02 45.72 44.41 45.22 47.19 49.28 49.35 50.11 49.28 46.04 44.96 44.59 48.69 47.03 46.15 48.66 47.85 48.23 44.94 42.39 39.03 36.86 33.52 37.65 37.15 37.54 43.35 47.32 50.18 52.38 54.20 57.08 58.50
53.59 52.28 52.23 52.85 48.25 49.82 49.38 48.19 41.64 38.21 46.64 44.15 42.93 44.71 41.96 43.93 45.69 46.57 46.31 43.72 41.99 40.56 38.61 44.34 45.41 47.59 48.84 44.90 45.91 44.46 37.52 32.78 33.22 32.52 33.13 36.70 36.58 39.58 48.09 52.21 52.97 52.09 53.90 56.28 58.10
51.89 52.14 52.32 52.86 51.21 51.14 47.95 45.17 37.36 43.95 42.99 45.63 44.89 43.33 43.67 45.23 44.98 46.14 43.35 42.15 46.01 42.41 39.01 38.00 38.41 45.07 48.97 44.50 41.46 40.47 36.91 33.43 28.82 30.12 34.62 38.96 35.56 43.33 50.47 52.95 53.20 53.91 54.91 55.89 56.50
51.34 49.04 49.29 51.29 53.60 48.78 45.31 38.08 39.08 42.36 45.87 45.59 43.47 42.26 42.51 45.04 44.46 44.54 42.99 43.16 44.39 43.36 39.15 37.42 38.90 47.04 48.49 46.79 44.90 41.76 37.51 38.28 35.13 32.65 32.46 35.89 40.63 46.12 50.62 51.40 51.75 51.91 54.92 55.33 55.34
47.31 46.33 48.66 51.72 51.36 46.07 41.36 38.24 40.68 46.08 47.30 44.77 40.47 42.33 39.79 42.79 43.24 42.67 42.15 45.39 45.51 46.59 43.29 41.39 37.09 42.18 47.54 47.24 47.00 43.56 44.29 38.00 35.56 29.63 29.58 34.28 36.10 38.86 44.58 46.52 50.25 50.19 51.78 55.73 55.77
45.59 45.83 50.89 50.48 47.74 43.62 37.75 37.67 43.41 48.71 47.75 44.16 42.08 41.52 41.73 42.35 41.43 40.51 42.07 46.22 48.49 46.28 45.89 41.07 39.45 40.29 43.36 41.07 40.21 41.60 39.16 38.38 36.54 34.44 30.79 29.20 34.30 43.02 46.34 49.53 49.32 50.39 52.25 54.89 56.45
42.15 43.10 50.88 49.51 44.06 35.71 38.50 41.50 46.52 47.07 47.72 44.91 45.43 44.11 42.21 43.19 41.52 41.91 42.79 45.51 49.30 46.68 42.19 40.92 37.49 35.33 39.43 44.19 45.65 42.81 40.85 37.74 33.77 33.57 34.17 32.81 33.94 47.79 51.61 52.95 53.59 54.04 55.65 57.78 57.92
40.77 41.21 50.33 48.85 39.91 38.17 41.75 44.99 46.55 47.24 46.44 44.96 44.08 45.66 44.50 40.99 38.32 43.34 45.07 49.52 50.58 47.03 42.32 42.31 36.68 33.14 36.88 40.25 42.79 40.54 42.12 39.17 36.48 34.67 33.95 32.67 35.98 47.06 51.24 51.97 54.05 55.56 57.23 57.61 57.28
42.33 40.84 46.07 44.86 41.13 40.35 39.51 41.21 43.81 49.05 46.47 46.34 43.63 44.33 42.26 40.20 41.46 40.37 42.59 47.53 48.86 49.66 53.89 47.93 35.88 37.12 34.20 37.79 40.09 39.24 41.39 42.01 38.20 33.10 35.07 35.81 40.02 43.41 46.52 50.38 51.38 52.05 56.59 56.25 56.73
42.52 41.45 42.59 40.77 42.39 41.47 39.72 41.23 42.02 42.85 46.27 45.66 42.77 42.39 40.69 36.80 37.73 37.97 41.12 42.72 45.60 50.01 44.38 42.19 37.50 37.19 38.57 40.94 41.68 41.12 41.36 42.21 39.54 40.26 39.38 42.76 39.34 45.31 48.18 50.34 51.45 53.77 56.07 55.12 55.48
40.33 43.45 43.95 42.66 41.83 40.51 39.61 39.56 42.17 43.73 42.35 43.24 40.29 43.32 40.77 38.43 40.18 38.42 39.56 37.41 39.50 41.19 39.77 38.36 36.27 36.34 36.56 41.57 40.89 39.75 42.28 43.17 42.89 46.18 44.14 46.00 45.42 50.58 51.93 52.78 52.53 52.68 53.30 53.19 54.59
45.44 44.31 44.50 42.65 40.74 39.10 39.70 42.14 44.18 43.94 45.20 45.59 44.78 41.48 40.75 42.26 44.11 42.72 42.83 41.46 41.05 39.63 37.36 37.17 35.85 32.73 32.30 37.49 38.97 34.83 40.32 43.65 46.51 48.09 46.94 43.39 46.95 51.16 50.93 50.90 51.56 52.19 52.83 53.43 54.47

GFSSW_sfc_wetblb_111.txt.gz
Wetbulb
58.63 58.77 58.62 58.87 58.64 58.57 58.64 58.63 59.06 58.96 58.94 58.76 58.49 58.52 59.37 58.87 58.99 58.68 54.39 60.42 61.25 71.10 72.15 68.15 63.43 62.94 67.37 66.86 67.54 67.49 61.17 56.81 55.82 55.40 55.94 58.93 56.85 59.97 61.96 62.16 66.90 68.74 68.57 70.37 72.56
58.71 58.79 58.55 58.52 59.04 59.30 59.29 58.93 58.54 58.72 58.50 58.39 58.05 58.86 59.21 59.03 56.95 55.32 64.33 67.83 70.71 72.28 65.01 60.75 59.27 60.95 61.91 61.29 65.69 64.60 60.44 56.83 59.96 58.76 56.07 56.91 56.67 57.44 58.68 57.93 62.40 66.92 69.69 71.72 71.97
59.06 59.13 58.94 58.58 58.75 59.24 59.26 59.25 58.65 58.73 58.20 57.91 58.25 58.77 59.39 59.58 54.92 51.43 71.82 69.64 71.43 70.22 64.34 60.28 60.68 60.04 60.03 63.26 63.63 62.59 58.77 60.16 57.99 58.16 57.22 55.60 55.91 57.58 57.27 55.46 57.35 59.82 68.45 70.54 70.78
59.08 59.07 58.94 58.66 58.48 58.57 58.91 59.05 58.82 58.13 57.62 57.72 57.61 57.79 59.25 58.47 50.49 55.81 73.04 71.64 72.16 65.34 60.48 58.84 59.76 58.61 58.19 58.31 61.36 57.86 59.36 59.14 56.58 55.70 54.54 54.15 55.83 54.74 55.40 56.73 58.45 59.18 70.08 70.78 70.21
59.07 58.88 58.64 58.50 58.40 58.41 58.33 58.60 58.07 57.78 57.63 57.43 57.16 58.15 58.36 52.42 51.00 68.50 72.54 71.69 68.36 61.19 57.67 56.13 56.40 57.63 57.62 58.65 57.29 55.44 55.82 54.30 55.61 54.48 54.11 54.85 53.69 53.49 54.43 56.83 58.77 62.07 68.91 70.10 70.44
58.80 58.50 58.32 58.03 57.96 57.95 58.34 58.53 58.32 57.43 57.18 57.11 57.40 58.72 55.63 48.71 56.92 67.84 65.65 62.94 61.73 59.38 57.77 59.52 58.68 62.41 59.10 56.53 53.09 54.12 53.73 53.35 53.79 54.29 53.82 52.53 53.38 53.68 54.95 56.33 57.58 65.51 67.84 69.69 70.52
58.48 58.24 58.16 57.70 57.66 57.73 57.97 57.75 57.82 58.06 58.03 58.23 58.86 59.03 53.95 50.36 61.59 64.64 61.98 59.18 61.16 61.23 58.51 61.19 65.26 60.64 56.81 54.66 53.20 52.63 51.02 52.80 52.42 53.18 53.42 53.39 52.22 51.47 60.98 58.45 58.97 65.02 68.03 69.41 70.41
58.13 58.09 57.90 57.48 57.05 57.30 57.17 57.16 59.28 59.12 58.46 59.18 59.67 59.27 51.78 56.57 63.54 60.87 60.03 60.88 60.82 61.16 60.86 62.04 63.06 58.69 55.63 53.91 52.83 50.82 50.50 49.23 52.52 53.05 53.31 53.32 49.26 54.51 62.30 61.91 61.36 63.97 66.53 68.36 69.97
57.77 57.71 57.53 56.93 56.57 56.55 56.35 57.06 60.47 60.33 60.10 60.66 58.99 57.07 55.45 62.36 59.08 60.07 60.81 59.28 61.63 60.98 61.40 61.01 58.47 54.88 54.40 51.57 50.03 50.38 46.94 47.75 49.48 52.90 52.70 52.48 49.51 55.96 61.72 63.62 62.82 63.20 65.60 67.11 68.55
57.44 57.38 57.03 56.40 55.92 55.75 55.78 56.97 60.13 60.19 60.87 61.30 60.23 55.29 57.89 55.73 58.22 56.33 60.96 59.43 55.83 54.98 54.67 55.01 54.52 54.56 52.18 51.62 45.57 46.38 46.61 47.94 47.87 51.18 51.88 51.22 53.43 57.11 59.56 61.88 62.95 63.90 64.61 65.37 66.38
57.14 57.06 56.66 55.69 55.38 55.24 55.62 55.39 54.48 53.53 53.25 50.81 52.89 54.78 56.00 56.81 56.99 55.42 59.42 59.18 54.65 53.80 50.57 51.03 50.08 48.97 49.60 49.82 49.39 47.99 47.22 47.09 49.98 51.19 50.26 51.20 53.51 55.15 58.11 59.53 60.21 61.60 63.45 64.52 65.23
56.94 56.70 56.18 54.98 54.74 54.83 55.84 54.68 53.49 53.66 49.94 52.03 51.75 52.01 54.13 55.32 52.37 53.93 56.73 53.35 51.93 49.60 50.02 50.23 48.80 50.43 49.39 48.85 47.94 47.72 47.32 48.23 50.38 50.12 50.85 49.58 52.56 54.39 56.37 57.27 58.60 59.41 61.13 62.95 64.88
56.61 56.29 55.12 54.17 53.94 55.44 55.10 54.99 55.58 53.13 49.60 51.62 51.99 52.00 53.03 54.18 52.39 53.03 55.04 52.99 51.04 49.12 48.97 48.52 49.73 51.30 50.50 49.51 48.59 48.57 48.42 48.41 47.79 49.84 50.08 49.26 49.25 52.99 55.74 56.78 58.46 59.45 60.43 61.92 63.24
56.21 55.95 54.12 52.90 55.44 53.40 55.22 55.35 55.01 53.51 49.77 50.44 52.32 53.53 52.95 53.31 51.43 55.15 55.74 54.13 51.22 49.17 48.99 49.13 50.40 50.54 50.46 49.55 49.36 48.17 50.02 49.24 48.48 48.10 46.33 48.55 44.69 48.50 53.89 54.57 56.47 58.30 59.33 60.26 61.60
55.84 55.40 53.59 53.40 54.78 54.27 53.60 55.41 54.65 53.33 43.16 51.46 51.55 55.57 52.57 51.67 51.94 52.55 55.05 53.79 50.62 49.79 50.29 48.41 49.87 49.48 49.32 49.64 50.57 48.67 50.61 49.69 49.13 48.40 47.12 47.07 45.76 49.58 53.10 53.50 55.40 57.23 59.07 60.11 61.71
55.50 54.38 53.32 53.85 53.22 55.75 55.60 55.16 54.56 49.11 42.18 48.52 50.74 50.22 50.28 50.61 51.05 52.42 53.27 54.71 53.15 50.44 50.34 49.52 52.44 52.00 50.82 51.33 51.04 51.21 50.02 48.59 48.21 47.63 43.64 46.62 46.47 47.55 52.07 53.69 56.16 58.05 59.19 60.29 60.76
54.53 52.48 53.38 55.07 55.60 56.06 55.94 55.59 48.72 45.59 50.40 47.66 48.59 49.60 49.04 49.68 50.17 50.32 50.28 50.30 48.96 46.73 47.29 49.65 49.76 51.64 52.27 49.91 50.73 50.84 48.17 43.53 42.89 42.75 41.99 46.39 45.59 48.76 53.49 55.68 56.24 56.81 58.59 60.96 61.06
52.90 52.08 54.18 55.48 57.13 56.11 55.20 52.72 44.53 47.17 47.09 49.86 48.75 49.19 48.62 49.55 49.82 49.53 48.39 48.95 50.75 49.08 48.29 46.47 44.61 49.60 52.12 50.09 48.13 47.74 47.28 43.40 37.14 40.00 41.95 47.20 44.10 49.89 55.35 57.36 57.48 58.45 59.14 61.43 62.13
51.45 55.28 56.49 56.91 57.13 54.85 53.25 46.31 47.02 47.30 49.29 48.48 48.55 47.52 48.12 49.14 49.33 49.66 48.89 48.83 49.86 50.47 47.58 46.33 45.52 50.35 51.17 51.66 50.43 48.09 47.42 47.51 44.17 43.47 42.57 46.34 48.27 52.57 55.13 56.39 57.53 57.62 58.15 59.63 61.93
51.63 52.04 55.40 56.18 56.49 53.70 50.38 43.76 47.71 49.75 50.49 49.12 46.08 47.63 46.13 48.02 48.66 49.18 48.41 50.35 49.55 50.64 51.46 48.96 46.01 49.00 50.17 51.12 51.84 50.83 50.93 45.61 47.38 39.21 37.40 43.25 44.41 46.15 51.39 53.02 56.35 57.73 58.36 59.83 62.68
52.01 52.58 56.43 55.47 54.41 52.83 47.61 46.80 47.77 51.47 50.88 48.95 47.51 47.33 47.74 47.54 48.47 48.08 47.81 50.44 51.75 50.92 52.29 50.32 48.56 47.86 49.69 48.83 47.99 48.78 47.71 46.80 46.60 45.27 40.17 38.67 43.20 52.54 52.63 55.33 57.01 58.65 60.22 61.48 62.36
50.46 48.11 55.94 55.72 52.34 45.82 48.32 47.55 46.82 50.73 51.71 49.41 50.15 49.46 48.20 48.16 48.05 48.34 48.14 49.92 52.67 51.92 49.48 49.15 48.98 46.07 46.76 49.35 49.56 49.54 48.53 47.48 43.40 41.60 44.70 43.15 43.10 53.39 55.34 57.68 58.40 59.42 59.96 61.00 62.40
48.50 48.50 56.17 54.82 48.13 48.71 49.18 48.86 49.75 50.24 50.36 50.09 48.39 49.42 49.62 48.35 46.75 48.58 49.28 51.64 52.92 51.94 50.60 50.89 47.82 43.81 45.08 48.06 49.41 47.94 48.80 48.21 46.88 45.81 42.91 41.06 43.40 52.82 55.26 56.57 58.14 57.93 58.54 59.85 60.91
48.77 47.52 53.68 52.52 49.41 48.45 47.78 47.27 47.92 51.44 49.89 50.37 49.00 49.60 49.08 47.95 48.91 48.05 48.31 50.16 50.81 52.55 53.60 54.71 47.49 46.76 42.72 45.40 48.25 46.11 47.06 48.12 46.58 42.11 42.92 44.06 45.95 50.82 53.51 54.32 56.96 58.14 58.81 59.27 60.34
48.38 47.65 48.11 48.46 49.52 48.66 47.96 47.29 46.98 47.48 50.39 50.08 49.10 47.82 47.52 46.59 46.70 46.58 47.43 48.29 49.54 53.12 51.06 51.21 46.23 47.19 47.12 47.61 47.30 46.95 46.43 46.59 45.00 45.58 42.99 45.63 47.39 51.69 54.73 55.60 56.64 57.12 57.95 58.08 58.60
48.29 48.61 50.18 49.32 47.97 47.40 45.52 46.92 46.39 47.70 48.23 47.63 47.13 48.39 47.77 47.17 47.91 46.60 47.56 47.79 47.96 49.26 49.27 48.00 45.27 45.82 44.17 46.62 46.56 44.41 46.17 46.15 46.13 46.55 47.27 47.98 49.50 56.09 56.75 57.59 55.96 56.31 57.21 57.14 57.82
50.02 49.93 49.16 46.75 47.47 47.05 47.77 47.36 47.03 48.56 49.68 49.89 48.98 47.81 47.16 48.02 50.18 50.23 51.16 49.65 50.30 48.44 46.80 46.27 45.82 43.20 40.44 44.02 43.90 40.85 45.08 45.93 47.61 51.40 51.30 48.29 52.65 55.41 55.76 55.23 55.43 56.25 57.37 57.37 57.23

GFSSW_sfc_wetblb_114.txt.gz
Wetbulb
59.91 59.93 59.69 59.69 59.92 59.80 59.84 59.65 59.24 58.89 59.09 59.03 58.57 58.32 58.77 58.99 59.03 61.78 57.06 63.35 63.93 69.88 72.43 68.32 64.41 66.81 70.40 68.84 69.92 70.56 59.41 56.34 56.16 56.45 57.75 60.52 58.91 61.38 62.56 60.93 63.05 66.72 68.76 72.25 74.01
60.03 60.07 59.94 59.82 59.86 59.80 59.63 59.54 59.15 58.92 58.76 58.57 58.14 58.34 58.84 59.25 60.36 57.42 66.05 68.46 71.69 73.75 66.29 63.00 60.38 63.10 64.67 63.08 66.22 64.52 58.16 55.54 60.13 59.78 58.10 59.04 59.16 59.60 59.74 59.45 59.10 63.49 71.42 73.38 73.83
60.10 60.06 59.87 59.93 59.67 59.58 59.28 59.41 59.25 58.76 58.65 58.28 58.01 58.24 58.92 60.53 58.96 56.65 69.95 69.96 72.26 72.31 64.55 63.14 62.05 61.34 59.33 63.62 64.02 62.78 57.27 59.30 59.34 58.69 58.98 58.42 58.57 59.59 58.33 57.34 58.83 58.60 67.69 72.49 72.93
59.90 59.90 60.01 59.80 59.50 59.17 59.12 59.21 59.20 58.47 58.32 58.20 58.11 57.95 58.98 62.08 52.90 60.32 72.09 71.23 72.29 66.86 63.37 61.08 60.11 59.03 58.53 59.29 62.53 59.58 59.71 59.45 58.57 58.57 58.02 57.38 58.27 56.94 57.03 57.69 59.59 60.54 62.82 72.47 72.36
59.50 59.52 59.56 59.64 59.35 58.98 58.69 58.68 58.72 58.07 57.89 57.83 57.62 57.88 61.28 57.41 55.36 68.08 72.49 72.11 68.95 62.54 60.87 59.37 58.53 58.67 57.38 58.86 59.44 57.58 57.52 57.46 57.75 57.85 57.73 57.57 55.89 55.63 56.64 61.88 60.73 64.02 64.67 70.96 72.04
59.01 58.99 58.99 59.08 58.97 58.32 58.27 58.56 58.29 58.30 57.68 57.34 57.58 58.93 60.68 52.26 60.60 66.14 65.63 66.56 65.87 61.63 59.99 59.58 58.28 61.37 60.47 58.75 56.69 56.95 56.59 56.42 56.70 56.29 56.58 55.25 55.36 56.59 60.88 64.07 62.56 66.50 66.81 69.51 71.20
58.74 58.70 58.61 58.69 58.49 58.08 58.02 57.81 58.61 59.10 58.62 58.77 59.04 61.82 57.35 55.27 64.20 65.81 63.77 62.54 63.24 61.78 58.72 60.96 65.15 63.83 60.37 56.91 57.14 56.43 54.00 55.44 55.57 55.98 55.57 56.76 54.53 56.35 62.75 64.31 63.31 66.29 68.75 69.93 70.97
58.48 58.38 58.30 58.25 57.96 57.51 57.43 57.42 59.87 59.16 59.01 59.46 60.08 63.06 55.56 59.71 66.18 63.58 62.49 62.05 63.31 63.48 62.52 64.64 65.43 62.18 58.79 58.29 56.64 54.00 54.48 52.34 54.98 55.54 55.66 56.00 53.48 58.51 63.74 64.47 64.10 65.90 68.52 69.46 71.04
58.23 58.11 57.96 57.72 57.22 56.61 56.36 57.17 60.62 60.22 60.20 60.70 64.02 62.09 56.22 61.25 60.95 63.70 62.49 60.93 63.23 63.79 63.32 62.50 62.68 58.92 57.71 55.09 52.96 53.66 51.82 50.74 52.02 55.35 54.87 55.04 53.25 59.01 63.38 64.67 65.12 66.19 67.55 69.01 70.27
57.73 57.63 57.37 56.99 56.32 55.82 55.69 57.16 60.74 60.61 62.93 63.98 63.28 59.55 59.55 57.60 59.68 60.97 63.72 62.15 58.03 59.51 59.52 59.27 58.70 56.53 55.31 53.72 50.12 50.02 50.48 51.33 51.23 53.84 54.40 54.40 54.77 58.71 61.90 62.44 63.41 64.99 66.88 68.12 69.00
57.44 57.28 57.01 56.57 55.57 55.25 58.34 61.23 59.58 58.43 57.46 55.00 56.58 57.24 58.32 59.20 59.47 58.96 61.66 60.73 57.71 56.32 53.81 55.20 53.21 52.85 52.62 53.76 52.95 52.09 51.37 50.47 52.81 54.09 53.65 54.39 55.22 57.13 60.28 60.64 61.20 62.32 63.97 65.65 67.62
57.00 56.98 56.56 55.82 54.45 55.09 60.16 57.82 56.49 57.15 54.72 56.02 55.36 55.29 57.02 57.69 55.06 56.70 61.29 56.34 55.04 53.05 53.93 53.22 52.22 53.93 53.69 53.32 52.65 52.42 51.35 51.86 53.55 53.62 54.00 54.13 54.45 57.13 58.61 59.51 60.51 60.80 62.22 63.38 65.34
56.56 56.43 55.95 54.58 54.55 61.37 59.64 57.14 59.52 58.49 55.50 55.43 56.14 55.39 55.99 57.02 55.07 55.76 58.10 56.28 54.18 52.49 52.44 52.15 53.52 54.57 53.59 52.96 52.38 52.77 51.81 51.66 51.39 53.51 54.83 53.38 53.07 55.99 57.86 59.34 60.49 61.56 62.30 63.19 64.04
55.93 56.15 55.16 52.90 59.21 60.43 59.07 59.40 61.32 59.12 54.28 52.51 54.40 55.60 56.39 56.73 54.07 57.82 58.73 56.48 54.25 52.09 52.18 52.65 54.25 53.04 53.04 51.72 53.20 51.50 52.88 52.11 51.72 51.52 49.63 53.56 47.15 54.24 56.43 56.81 58.94 60.53 61.67 62.25 63.73
55.73 55.65 54.41 52.89 61.06 58.69 58.64 61.85 60.38 57.69 46.93 53.38 54.18 58.84 56.62 54.49 55.29 54.97 58.28 56.49 52.86 52.41 53.36 52.00 52.11 51.90 51.54 51.58 53.29 51.70 53.71 52.77 52.33 51.49 51.38 51.20 48.94 53.59 56.37 55.33 57.45 59.58 61.27 63.22 64.03
55.39 54.94 53.84 59.82 61.57 60.01 61.39 61.48 58.72 52.22 45.92 50.72 53.75 52.93 53.09 53.90 53.79 55.35 55.35 57.24 56.48 53.20 53.41 52.55 54.96 54.13 53.27 53.54 53.52 54.28 53.17 53.78 53.02 51.31 46.95 50.59 49.31 51.41 53.49 55.04 56.74 58.94 61.05 63.28 63.80
54.39 53.32 55.16 59.99 60.63 62.73 62.58 59.53 52.22 48.38 53.12 50.29 51.47 53.15 52.87 52.48 53.11 53.11 53.17 53.02 51.81 50.10 50.50 52.35 52.65 54.35 54.78 52.88 54.57 54.00 51.78 47.63 46.46 46.56 46.04 51.48 48.47 50.52 55.55 57.26 57.76 58.86 60.62 63.06 64.75
53.07 52.30 58.52 60.90 62.18 62.29 60.39 54.94 48.00 50.85 50.79 52.98 52.26 52.98 51.56 52.77 52.87 52.02 52.13 51.72 53.39 52.40 51.27 49.39 47.90 52.42 53.97 52.91 51.58 51.25 51.14 47.05 41.57 43.70 46.64 51.43 46.82 52.52 57.32 59.10 60.07 60.41 61.32 62.42 64.18
52.02 61.66 62.54 62.31 63.00 60.61 56.90 49.63 50.99 51.47 52.20 51.28 52.05 51.11 51.34 52.39 52.55 52.48 52.17 51.64 52.95 54.09 50.40 50.24 49.05 53.18 53.51 54.59 54.06 51.84 52.54 52.30 48.75 49.90 46.47 50.42 50.94 54.28 56.74 57.55 58.71 59.56 61.12 62.21 64.13
57.72 58.48 61.83 62.50 63.16 59.01 54.13 47.76 51.92 53.33 53.12 52.63 50.10 51.50 50.39 51.27 51.71 52.31 52.13 53.18 52.42 54.09 56.00 53.21 49.01 52.75 52.88 54.28 54.42 53.56 54.15 49.05 51.17 43.30 41.86 46.40 47.85 48.98 54.06 54.55 56.84 58.51 60.65 63.08 64.87
58.03 54.43 60.68 62.43 60.33 56.77 49.96 51.50 52.22 54.38 53.87 52.33 51.29 50.78 51.41 50.94 51.81 51.51 51.66 53.34 54.44 54.11 56.05 54.66 51.92 51.46 52.82 52.58 51.61 51.76 50.94 51.07 50.26 48.66 44.12 42.68 48.24 54.60 53.77 55.30 57.02 58.58 61.04 62.55 63.08
57.41 50.54 61.30 62.17 54.11 56.32 51.71 52.72 48.38 53.58 54.67 52.90 53.24 52.47 52.18 51.79 51.56 51.54 51.20 53.40 55.04 55.34 52.48 54.86 52.56 49.58 50.60 53.65 53.79 53.13 51.75 51.72 47.12 46.09 48.52 47.19 46.69 55.38 55.22 57.63 58.09 59.79 61.26 62.82 63.48
53.47 54.32 62.96 60.66 49.23 50.70 53.78 52.64 53.29 53.17 53.24 52.61 51.80 53.06 53.35 51.95 50.13 51.75 52.72 54.57 55.28 54.59 53.91 55.11 51.43 47.31 48.99 51.66 53.28 50.84 52.38 52.68 51.83 50.62 46.52 43.91 46.26 56.17 55.47 56.25 59.17 60.15 61.58 61.99 62.34
54.49 50.84 57.68 59.61 57.97 53.43 51.68 51.51 51.39 54.13 53.07 53.67 52.90 53.32 52.52 51.84 53.35 51.65 52.05 52.95 54.54 54.86 54.99 57.20 51.96 49.66 45.68 48.78 51.64 49.32 50.32 51.74 50.86 46.55 46.81 46.70 47.86 51.37 53.68 57.07 59.33 60.41 60.69 61.01 61.94
56.42 52.71 53.86 53.64 53.80 54.62 53.49 51.99 50.50 50.60 53.89 54.06 52.71 51.85 51.95 50.49 51.20 50.84 52.02 52.17 52.84 53.63 54.15 53.73 49.26 50.52 50.76 50.27 49.66 49.04 49.13 49.28 48.63 49.30 46.23 48.10 47.87 51.88 56.26 58.32 59.36 59.54 60.36 60.38 60.93
51.93 52.71 56.76 53.47 53.70 53.10 48.80 51.59 50.36 51.34 52.34 51.65 51.68 51.43 51.97 51.44 51.92 50.42 51.69 51.87 51.56 53.80 53.17 53.19 48.40 49.77 47.67 49.03 48.86 47.20 48.82 48.93 48.63 49.07 48.81 48.79 49.66 58.14 59.52 59.97 59.40 59.11 59.73 59.51 59.98
56.00 56.92 53.40 49.05 50.21 50.52 51.61 51.80 51.24 52.54 53.30 53.47 52.65 52.40 51.44 52.24 53.54 54.39 54.54 54.01 54.36 52.66 51.88 50.86 49.07 47.32 44.22 47.40 47.02 44.23 47.90 48.73 49.24 51.05 51.35 49.93 54.51 57.83 57.42 58.20 58.39 58.93 59.70 59.07 59.07

GFSSW_sfc_wetblb_117.txt.gz
Wetbulb
60.86 61.00 60.77 60.93 60.71 60.36 60.09 59.77 59.58 59.57 59.51 59.47 59.37 58.74 58.86 59.33 59.26 61.77 58.31 65.30 66.32 70.53 73.32 68.81 65.66 66.06 68.42 68.03 67.78 67.56 59.02 56.33 56.32 56.74 58.06 61.24 60.19 62.72 63.13 61.55 62.52 65.73 67.74 72.46 73.51
60.71 60.83 60.68 60.77 60.78 60.35 60.11 59.68 59.73 59.27 59.16 59.21 58.64 58.66 59.10 59.48 61.75 59.72 68.09 71.23 71.22 71.63 68.07 64.90 61.67 63.21 63.76 62.93 64.04 62.49 59.53 56.72 59.35 59.31 58.03 59.15 59.59 60.59 59.99 60.48 60.22 62.22 70.51 73.52 72.62
60.44 60.44 60.44 60.59 60.63 60.28 59.97 59.85 59.85 59.81 59.10 59.06 58.64 58.56 58.81 60.56 61.36 60.36 69.64 71.39 71.16 71.60 66.07 64.83 62.62 61.47 60.22 61.24 62.48 62.22 58.06 59.94 59.32 59.07 58.71 57.78 58.24 59.79 58.53 57.53 59.46 58.88 65.91 72.35 71.89
60.18 60.14 60.26 60.26 60.15 60.14 59.78 59.25 59.42 58.92 58.70 58.84 58.91 58.86 58.86 63.45 55.39 66.68 71.36 70.99 72.17 69.02 65.73 62.29 61.03 58.79 57.90 58.69 62.04 58.99 60.56 58.81 58.70 58.25 57.79 56.87 58.51 57.06 57.79 59.44 60.83 62.20 61.72 72.29 71.99
59.78 59.71 59.85 59.81 59.73 59.65 59.07 58.94 58.88 59.02 58.76 58.63 58.72 58.71 61.05 60.79 58.26 69.71 73.26 71.10 66.96 67.32 62.24 60.55 58.98 58.80 57.38 58.87 59.49 58.30 58.38 58.05 58.34 58.06 57.79 58.06 56.86 56.77 59.03 61.75 62.87 65.59 64.82 71.05 72.21
59.51 59.30 59.40 59.32 59.35 59.08 58.81 58.64 58.91 59.12 58.83 58.52 58.61 58.84 63.06 55.93 64.54 68.34 65.57 64.56 64.79 63.06 62.21 60.79 59.09 60.21 60.12 59.74 58.17 58.51 56.94 56.78 57.51 57.32 57.68 56.84 56.69 58.52 60.55 62.62 63.08 66.32 66.73 69.61 71.84
58.80 58.91 58.73 58.80 58.99 58.62 58.22 58.15 59.21 60.06 59.26 58.65 58.97 62.90 61.42 57.46 65.96 66.54 66.45 65.81 65.15 62.89 60.41 61.43 62.20 61.71 62.06 58.58 59.54 57.49 55.21 56.77 56.95 57.14 57.03 58.16 55.88 57.18 61.27 63.10 63.16 65.91 68.57 69.57 70.67
57.95 58.34 58.43 58.49 58.40 58.05 57.38 57.53 60.12 59.15 59.58 60.08 60.39 64.09 57.76 63.01 67.06 64.15 64.67 63.50 64.67 64.55 63.59 63.26 66.60 64.29 60.75 59.84 58.11 56.19 56.38 53.48 56.55 56.50 56.87 57.41 54.97 58.74 61.66 63.70 64.04 65.80 68.63 70.18 71.52
57.35 57.60 57.98 57.96 57.67 57.11 56.64 57.21 60.94 60.27 60.35 60.89 64.41 65.33 56.49 63.35 62.41 64.08 63.62 62.30 63.19 63.59 63.60 63.01 62.79 60.20 58.96 55.96 55.16 55.27 52.54 52.64 53.96 56.57 55.93 55.81 55.17 59.20 61.86 63.28 64.45 66.27 67.57 68.88 71.63
56.90 56.78 57.21 57.38 57.14 56.30 56.17 56.49 60.44 59.69 62.55 65.43 65.20 61.38 60.68 58.93 60.59 63.00 64.11 63.40 61.68 61.57 60.48 60.12 59.39 56.90 56.92 55.63 50.78 52.38 52.01 52.94 52.37 55.67 55.62 54.77 55.70 59.07 59.94 61.16 62.53 64.93 67.09 68.76 69.66
56.26 56.51 56.71 56.87 56.53 55.48 57.56 62.97 61.47 60.95 60.50 58.33 59.18 59.54 59.62 61.63 61.78 60.31 63.29 61.64 59.65 58.64 55.90 57.93 54.83 53.72 54.90 55.72 55.04 53.65 52.82 52.27 53.99 55.63 54.54 54.68 55.53 56.90 59.20 59.19 60.08 62.56 64.21 66.25 67.52
55.95 56.03 56.41 56.41 55.60 55.24 59.10 59.65 58.47 59.58 57.36 58.78 58.18 58.70 60.11 60.08 56.57 58.90 62.10 58.18 56.68 54.49 55.72 54.44 53.19 56.39 55.50 54.88 53.92 53.75 52.91 53.42 54.88 55.51 55.15 55.30 55.15 58.31 58.83 58.51 59.63 60.80 62.84 63.86 65.44
55.78 55.90 55.86 55.64 54.71 61.16 61.22 59.04 62.80 62.03 57.57 56.90 57.97 58.25 58.53 59.25 56.86 56.87 59.92 58.62 55.83 54.51 54.32 54.07 55.62 55.98 54.85 54.34 53.58 54.32 53.35 53.67 53.12 55.06 56.06 55.25 54.08 56.79 59.26 59.73 60.80 61.66 62.60 64.25 64.70
55.24 55.46 55.21 53.87 58.07 62.24 61.25 62.19 63.73 62.43 55.35 54.11 55.22 57.14 57.97 58.79 55.37 60.35 60.55 57.88 55.62 54.38 54.02 54.59 56.17 54.37 54.29 53.25 54.42 53.12 54.88 53.61 53.18 52.83 50.30 55.69 49.10 56.08 58.14 57.90 59.06 60.62 61.59 63.14 63.85
54.85 54.93 54.66 53.27 62.55 61.42 61.05 63.63 63.33 61.18 49.12 55.50 55.65 60.71 59.21 56.58 57.51 56.86 60.61 58.06 55.16 54.36 54.81 53.48 53.78 53.57 52.98 53.86 54.63 53.61 55.36 54.09 54.03 53.04 52.59 52.81 50.58 54.95 57.81 55.95 58.56 60.29 61.56 63.21 64.03
54.18 54.18 54.18 62.08 64.50 63.05 64.42 63.96 61.66 53.08 47.55 52.88 55.56 54.45 54.82 56.04 56.05 57.33 56.78 58.88 58.43 54.86 55.26 54.58 56.43 55.12 55.16 55.16 54.96 55.58 54.81 55.15 55.18 53.65 48.87 52.47 51.93 52.17 54.73 56.51 58.90 60.03 61.04 62.59 63.93
53.20 52.80 54.62 62.41 62.73 64.55 64.56 61.41 53.87 49.60 56.25 52.84 52.99 54.85 54.47 53.85 54.45 55.08 54.38 54.07 53.03 51.19 52.04 53.82 53.82 55.68 55.97 53.99 56.10 55.67 53.69 48.83 48.38 48.45 48.97 54.35 51.11 51.73 56.96 58.07 58.48 59.13 60.12 61.85 63.67
52.22 52.23 59.85 63.22 65.10 64.50 63.02 56.90 49.75 53.58 53.50 55.37 54.25 54.59 53.10 54.81 54.73 54.77 54.26 53.03 55.62 54.51 52.45 51.06 49.68 54.39 55.92 54.35 53.57 53.74 53.03 48.49 44.60 45.58 47.92 53.55 48.70 54.06 58.38 59.89 60.14 60.32 61.39 62.14 63.58
51.34 61.04 61.63 64.65 65.02 64.29 58.49 51.81 52.00 54.02 54.97 53.28 54.14 52.55 52.93 53.92 54.16 54.45 53.84 53.63 55.24 55.65 52.05 52.00 51.40 55.63 55.08 55.66 55.24 54.24 51.49 54.79 49.58 50.71 47.95 50.54 53.52 56.48 58.03 57.49 58.96 59.19 60.33 61.89 64.10
57.65 59.03 58.64 64.44 64.73 61.95 54.95 49.62 53.73 55.94 55.18 54.71 51.76 53.68 52.09 53.65 52.87 53.65 54.01 55.13 53.99 55.83 57.01 54.77 50.88 55.11 55.11 55.87 56.28 55.11 56.08 49.52 51.73 45.19 44.26 48.36 49.41 50.86 55.67 56.40 57.46 58.11 59.06 60.93 64.03
58.96 55.18 62.60 64.53 63.19 57.29 51.35 52.34 53.65 55.99 56.01 54.00 53.08 53.17 53.61 53.42 53.67 53.89 53.79 55.46 55.52 55.63 57.23 55.92 54.22 53.29 55.01 53.83 53.01 53.99 52.72 53.19 52.59 50.26 46.09 45.23 49.23 55.66 54.86 56.51 56.68 58.33 59.70 62.01 63.21
58.89 52.14 62.78 62.74 55.00 55.39 52.78 53.28 49.58 54.74 56.39 54.91 55.28 54.77 53.92 54.02 53.46 53.57 52.73 54.99 56.98 57.22 54.29 56.52 54.23 51.50 53.17 56.37 56.20 55.42 52.89 53.14 49.02 48.26 50.79 49.33 48.00 57.48 57.03 56.91 57.54 58.21 60.92 62.67 63.85
55.48 54.60 60.66 59.18 50.28 52.05 54.43 53.62 54.11 53.69 54.65 54.34 53.31 54.77 55.56 53.84 52.27 53.91 54.16 57.01 56.40 55.91 55.51 56.80 53.06 48.75 50.46 53.95 55.84 52.74 54.31 53.95 53.77 52.89 48.68 46.10 48.55 56.35 56.87 56.98 57.80 60.38 62.30 62.90 63.20
56.03 52.12 57.70 57.52 56.18 55.23 54.06 53.32 52.64 55.12 55.09 55.36 55.00 54.95 54.36 53.36 55.05 53.66 53.35 55.44 55.94 55.93 58.33 57.94 52.73 50.72 47.46 50.71 52.95 51.51 52.88 53.46 52.41 48.61 49.19 49.25 50.53 53.50 54.68 54.89 58.88 61.30 61.94 62.24 63.13
57.29 54.94 56.54 54.85 55.05 54.99 54.28 54.07 52.18 52.23 54.94 55.72 54.50 53.95 53.41 52.01 52.92 52.75 54.56 55.05 54.80 54.91 54.52 54.82 50.80 52.44 52.20 51.99 51.89 50.90 50.28 50.22 49.88 51.07 48.38 49.80 49.59 52.48 54.76 58.94 60.19 61.48 61.66 61.42 62.14
52.65 54.78 57.75 53.25 55.68 55.59 50.40 52.67 52.00 52.25 53.79 53.30 53.01 54.60 54.15 53.10 54.27 53.08 54.18 54.66 54.02 55.73 54.55 56.01 51.14 51.90 49.29 50.58 50.53 48.83 49.75 50.12 50.23 50.39 50.16 49.86 49.90 56.24 60.47 60.88 60.40 60.78 60.76 60.54 61.22
56.85 57.16 53.20 51.04 52.98 51.73 52.10 53.84 52.74 54.41 54.73 55.57 54.96 54.51 53.48 54.29 56.39 57.32 57.08 56.99 56.24 54.96 54.51 54.25 52.42 50.21 46.10 49.49 49.13 46.26 49.36 49.85 50.54 51.45 50.76 48.47 54.46 58.76 58.34 58.86 59.44 60.04 60.61 60.83 61.30